# Wetter Temperatur Luftdruck Luftfeuchtigkeit Sichtweite Windgeschwindigkeit Windrichtung Zeit
1 Clear -1 1027 55 10000 1.77 27 12:45 22.04.2021
2 Clear -1 1027 55 10000 1.68 24 12:23 22.04.2021
3 Clear 0 1027 44 10000 3.09 360 11:48 22.04.2021
4 Clear 0 1027 44 10000 3.09 360 11:24 22.04.2021
5 Clear 1 1027 44 10000 2.06 20 10:46 22.04.2021
6 Clear 1 1027 44 10000 2.06 20 10:46 22.04.2021
7 Clear 1 1027 44 10000 2.06 20 10:27 22.04.2021
8 Clear 2 1027 38 10000 2.57 340 09:58 22.04.2021
9 Clear 3 1027 38 10000 2.57 340 09:30 22.04.2021
10 Clear 6 1027 36 10000 2.57 350 08:45 22.04.2021
11 Clear 6 1027 36 10000 2.57 350 08:23 22.04.2021
12 Clear 8 1027 23 10000 1.67 17 07:46 22.04.2021
13 Clear 6 1027 23 10000 1.49 12 07:27 22.04.2021
14 Clear 8 1027 23 10000 1.49 12 06:40 22.04.2021
15 Clear 8 1028 29 10000 0.83 8 05:50 22.04.2021
16 Clear 8 1028 29 10000 0.41 43 05:20 22.04.2021
17 Clear 7 1031 31 10000 2.06 240 01:39 22.04.2021
18 Clear 6 1033 28 10000 2.06 200 23:54 21.04.2021
19 Clear 6 1033 28 10000 2.06 200 23:34 21.04.2021
20 Clear 5 1033 41 10000 1.25 74 22:44 21.04.2021
21 Clear 5 1033 41 10000 1.22 72 22:24 21.04.2021
22 Clear 4 1034 41 10000 1.22 72 21:50 21.04.2021
23 Clear 3 1034 41 10000 1.24 77 21:25 21.04.2021
24 Clouds 3 1034 47 10000 1.54 30 20:59 21.04.2021
25 Clouds 2 1034 47 10000 1.54 30 20:21 21.04.2021
26 Clear 1 1034 55 10000 0.86 96 19:45 21.04.2021
27 Clear 0 1034 55 10000 0.58 86 19:26 21.04.2021
28 Clear -1 1035 63 10000 0.58 86 18:50 21.04.2021
29 Clear -2 1035 63 10000 0.58 86 18:31 21.04.2021
30 Clear -3 1035 68 10000 3.09 80 17:57 21.04.2021
31 Clear -3 1035 68 10000 3.09 80 17:39 21.04.2021
32 Clear -4 1035 68 10000 3.09 80 17:19 21.04.2021
33 Clear -4 1035 73 10000 2.57 50 16:32 21.04.2021
34 Clear -5 1035 79 10000 1.31 40 15:43 21.04.2021
35 Clear -5 1035 79 10000 1.19 38 15:18 21.04.2021
36 Clear -4 1035 74 10000 1.54 60 14:44 21.04.2021
37 Clear -4 1035 74 10000 1.54 60 14:23 21.04.2021
38 Clear -3 1035 59 10000 1.13 49 13:48 21.04.2021
39 Clear -3 1035 59 10000 1.22 40 13:21 21.04.2021
40 Clear -3 1035 68 10000 1.22 40 12:40 21.04.2021
41 Clear -2 1035 59 10000 0.98 39 11:59 21.04.2021
42 Clear -3 1035 59 10000 0.98 39 11:41 21.04.2021
43 Clear -3 1035 59 10000 1 26 11:22 21.04.2021
44 Clear -2 1035 59 10000 1 26 10:38 21.04.2021
45 Clear -1 1035 44 10000 1.05 1 09:56 21.04.2021
46 Clear 0 1035 44 10000 1.09 345 09:20 21.04.2021
47 Clear 2 1034 30 10000 2.06 10 08:44 21.04.2021
48 Clear 3 1034 30 10000 2.06 10 08:23 21.04.2021
49 Clear 5 1034 26 10000 2.06 10 07:50 21.04.2021
50 Clear 4 1034 26 10000 2.06 10 07:26 21.04.2021
51 Clear 5 1033 26 10000 3.09 10 05:53 21.04.2021
52 Clear 6 1032 33 10000 4.63 10 01:51 21.04.2021
53 Clear 6 1032 38 10000 3.09 350 00:20 21.04.2021
54 Clear 5 1031 36 10000 4.63 350 23:38 20.04.2021
55 Clear 4 1030 38 10000 4.12 290 22:46 20.04.2021
56 Clear 4 1030 38 10000 4.12 290 22:23 20.04.2021
57 Clear 4 1029 38 10000 3.09 300 21:49 20.04.2021
58 Clear 3 1029 38 10000 3.09 300 21:29 20.04.2021
59 Clear 3 1028 44 10000 5.66 310 20:59 20.04.2021
60 Clear 3 1028 44 10000 5.66 310 20:38 20.04.2021
61 Clear 3 1028 44 10000 5.66 310 20:18 20.04.2021
62 Clear 3 1027 48 10000 6.69 350 19:45 20.04.2021
63 Clear 3 1027 48 10000 6.69 350 19:45 20.04.2021
64 Clear 2 1027 48 10000 6.69 350 19:27 20.04.2021
65 Clear 2 1026 48 10000 4.12 300 18:42 20.04.2021
66 Clear 2 1026 48 10000 4.12 300 18:22 20.04.2021
67 Clear 2 1024 69 10000 3.09 250 17:40 20.04.2021
68 Clear 1 1023 69 10000 1.54 290 16:50 20.04.2021
69 Clear 1 1023 69 10000 1.54 290 16:25 20.04.2021
70 Clear 1 1023 80 10000 3.09 260 15:30 20.04.2021
71 Clouds 3 1022 65 10000 1.9 273 14:59 20.04.2021
72 Clouds 3 1022 65 10000 1.9 273 14:36 20.04.2021
73 Clouds 3 1021 69 10000 1.54 240 13:55 20.04.2021
74 Clouds 2 1021 69 10000 1.54 240 13:26 20.04.2021
75 Clouds 2 1021 65 10000 2.57 260 12:51 20.04.2021
76 Clouds 1 1021 65 10000 2.57 260 12:23 20.04.2021
77 Clear 3 1020 56 10000 2.06 230 11:46 20.04.2021
78 Clear 3 1020 56 10000 2.06 230 11:25 20.04.2021
79 Clear 4 1020 56 10000 3.6 240 10:47 20.04.2021
80 Clear 4 1020 56 10000 3.6 240 10:24 20.04.2021
81 Clear 5 1019 49 10000 2.57 250 09:45 20.04.2021
82 Clouds 5 1019 56 10000 0.97 249 08:57 20.04.2021
83 Clear 7 1019 46 10000 1.54 250 08:34 20.04.2021
84 Clear 10 1019 46 10000 1.54 250 07:52 20.04.2021
85 Clear 10 1019 46 10000 1.54 250 07:21 20.04.2021
86 Clear 14 1019 33 10000 2.57 230 05:41 20.04.2021
87 Clear 15 1019 25 10000 2.57 230 04:43 20.04.2021
88 Clear 14 1019 28 10000 3.09 200 02:58 20.04.2021
89 Clear 12 1020 40 10000 1.54 250 00:50 20.04.2021
90 Clear 10 1021 46 10000 1.54 260 23:52 19.04.2021
91 Clear 10 1021 46 10000 1.54 260 23:29 19.04.2021
92 Clear 9 1022 57 10000 1.54 260 22:37 19.04.2021
93 Clear 9 1022 57 10000 1.54 260 22:19 19.04.2021
94 Clear 7 1022 49 10000 1.54 220 21:38 19.04.2021
95 Clear 7 1022 49 10000 1.54 220 21:19 19.04.2021
96 Clear 6 1022 56 10000 0.23 217 20:40 19.04.2021
97 Clear 6 1022 56 10000 0.16 169 20:20 19.04.2021
98 Clear 4 1023 60 10000 0.16 169 19:44 19.04.2021
99 Clear 4 1023 60 10000 0.4 104 19:25 19.04.2021
100 Clear 1 1023 74 10000 1.54 50 18:48 19.04.2021
101 Clear 0 1023 74 10000 1.54 50 18:24 19.04.2021
102 Clear -1 1023 74 10000 2.57 90 17:56 19.04.2021
103 Clear -1 1023 80 10000 2.06 90 17:35 19.04.2021
104 Clear -1 1023 80 10000 2.06 90 16:59 19.04.2021
105 Clear -1 1023 80 10000 2.06 90 16:40 19.04.2021
106 Clear -1 1023 80 10000 2.06 90 16:21 19.04.2021
107 Clear -1 1024 80 10000 0.84 27 15:40 19.04.2021
108 Clear -1 1024 80 10000 0.85 24 15:20 19.04.2021
109 Clear 0 1024 69 10000 0.85 24 14:38 19.04.2021
110 Clear 0 1024 69 10000 0.96 14 14:19 19.04.2021
111 Clear 0 1023 69 10000 1.54 130 13:44 19.04.2021
112 Clear 2 1023 60 10000 1.16 15 13:24 19.04.2021
113 Clear 2 1023 60 10000 1.16 15 12:42 19.04.2021
114 Clear 2 1023 60 10000 1.29 17 12:23 19.04.2021
115 Clear 2 1023 74 10000 2.06 40 11:54 19.04.2021
116 Clear 2 1023 74 10000 2.06 40 11:25 19.04.2021
117 Clear 2 1023 69 10000 1.5 20 10:46 19.04.2021
118 Clear 3 1023 69 10000 1.5 15 10:25 19.04.2021
119 Clear 4 1023 56 10000 1.5 15 09:49 19.04.2021
120 Clear 4 1023 56 10000 1.75 15 09:28 19.04.2021
121 Clear 6 1023 49 10000 1.75 15 08:58 19.04.2021
122 Clear 6 1023 49 10000 1.58 3 08:26 19.04.2021
123 Clear 9 1023 37 10000 1.58 9 07:48 19.04.2021
124 Clear 9 1023 37 10000 1.56 359 07:19 19.04.2021
125 Clear 13 1022 30 10000 1.56 359 06:36 19.04.2021
126 Clear 14 1024 30 10000 1.14 28 02:35 19.04.2021
127 Clear 15 1025 21 10000 1.09 38 00:49 19.04.2021
128 Clear 13 1025 28 10000 2.57 110 23:55 18.04.2021
129 Clear 13 1025 28 10000 2.57 110 23:18 18.04.2021
130 Clear 11 1026 30 10000 3.09 40 22:48 18.04.2021
131 Clear 11 1026 30 10000 3.09 40 22:29 18.04.2021
132 Clear 10 1026 37 10000 1.54 60 21:40 18.04.2021
133 Clear 10 1026 37 10000 1.54 60 21:18 18.04.2021
134 Clear 7 1027 42 10000 4.12 60 20:40 18.04.2021
135 Clear 7 1027 42 10000 4.12 60 20:20 18.04.2021
136 Clear 4 1027 52 10000 3.09 60 19:45 18.04.2021
137 Clear 4 1027 52 10000 3.09 60 19:27 18.04.2021
138 Clear 0 1027 64 10000 4.63 70 18:54 18.04.2021
139 Clear 0 1027 64 10000 4.63 70 18:30 18.04.2021
140 Clear -2 1028 69 10000 4.63 70 17:50 18.04.2021
141 Clear -2 1028 69 10000 4.63 70 17:31 18.04.2021
142 Clear -3 1028 74 10000 4.63 70 16:55 18.04.2021
143 Clear -3 1028 74 10000 4.63 70 16:36 18.04.2021
144 Clear -1 1028 64 10000 4.63 60 15:59 18.04.2021
145 Clear -1 1028 64 10000 4.63 60 15:38 18.04.2021
146 Clear -1 1028 64 10000 4.63 60 15:18 18.04.2021
147 Clear 0 1028 60 10000 4.63 60 14:41 18.04.2021
148 Clear 0 1028 60 10000 4.63 60 14:19 18.04.2021
149 Clear 1 1029 60 10000 4.63 50 13:49 18.04.2021
150 Clear 1 1029 60 10000 4.63 50 13:49 18.04.2021
151 Clear 1 1029 60 10000 4.63 50 13:29 18.04.2021
152 Clear 3 1029 56 10000 4.63 60 12:38 18.04.2021
153 Clear 3 1029 52 10000 4.12 60 11:58 18.04.2021
154 Clear 3 1029 52 10000 4.12 60 11:39 18.04.2021
155 Clear 3 1029 52 10000 4.12 60 11:20 18.04.2021
156 Clear 3 1030 60 10000 4.12 70 10:41 18.04.2021
157 Clear 3 1030 60 10000 4.12 70 10:18 18.04.2021
158 Clear 3 1030 60 10000 4.12 70 09:39 18.04.2021
159 Clear 3 1030 60 10000 4.12 70 09:20 18.04.2021
160 Clear 5 1030 56 10000 3.6 60 08:44 18.04.2021
161 Clear 5 1030 56 10000 3.6 60 08:24 18.04.2021
162 Clear 8 1030 40 10000 2.57 50 07:40 18.04.2021
163 Clear 11 1030 32 10000 3.09 50 06:54 18.04.2021
164 Clear 12 1030 30 10000 3.6 70 05:26 18.04.2021
165 Clear 12 1031 32 10000 4.12 60 04:31 18.04.2021
166 Clear 11 1033 30 10000 4.12 50 02:23 18.04.2021
167 Clear 9 1034 40 10000 3.6 50 00:56 18.04.2021
168 Clear 8 1035 46 10000 3.09 70 23:57 17.04.2021
169 Clear 8 1035 46 10000 3.09 70 23:24 17.04.2021
170 Clear 5 1036 52 10000 1.36 72 22:44 17.04.2021
171 Clear 5 1036 52 10000 1.1 70 22:22 17.04.2021
172 Clear 3 1036 64 10000 1.1 70 21:43 17.04.2021
173 Clear 3 1036 64 10000 1.14 67 21:22 17.04.2021
174 Clear 2 1037 69 10000 1.14 67 20:37 17.04.2021
175 Clear 0 1037 69 10000 1.4 49 20:19 17.04.2021
176 Clear 0 1037 74 10000 1.54 80 19:39 17.04.2021
177 Clear -1 1037 74 10000 1.54 80 19:19 17.04.2021
178 Clear -3 1037 86 10000 1.54 50 18:46 17.04.2021
179 Clear -4 1037 86 10000 1.54 50 18:21 17.04.2021
180 Clear -4 1037 93 10000 1.54 70 17:41 17.04.2021
181 Clear -4 1037 93 10000 1.16 52 16:56 17.04.2021
182 Clear -4 1037 93 10000 1.16 52 16:34 17.04.2021
183 Clear -3 1037 93 10000 1.54 60 15:58 17.04.2021
184 Clear -4 1037 93 10000 1.54 60 15:19 17.04.2021
185 Clear -3 1037 86 10000 1.14 65 14:42 17.04.2021
186 Clear -3 1037 86 10000 1.08 57 14:19 17.04.2021
187 Clear -3 1037 80 10000 1.54 70 13:41 17.04.2021
188 Clear -2 1036 86 10000 1.04 39 12:47 17.04.2021
189 Clear -2 1036 86 10000 1.15 19 12:22 17.04.2021
190 Clear -1 1036 74 10000 1.15 19 11:50 17.04.2021
191 Clear -1 1036 74 10000 1.15 19 11:31 17.04.2021
192 Clear -2 1036 80 10000 1.15 13 10:48 17.04.2021
193 Clear -2 1036 80 10000 1.08 26 10:29 17.04.2021
194 Clear -1 1035 80 10000 1.08 26 09:45 17.04.2021
195 Clear 2 1035 60 10000 1.02 29 08:46 17.04.2021
196 Clear 4 1035 49 10000 0.89 49 08:26 17.04.2021
197 Clear 7 1035 49 10000 0.89 49 07:45 17.04.2021
198 Clear 8 1034 49 10000 2.57 230 04:51 17.04.2021
199 Clear 7 1034 53 10000 2.06 210 03:40 17.04.2021
200 Clear 6 1035 56 10000 2.06 230 00:55 17.04.2021
201 Clear 6 1035 56 10000 2.06 230 00:30 17.04.2021
202 Clear 5 1035 56 10000 2.57 220 23:55 16.04.2021
203 Clear 5 1035 56 10000 2.57 220 23:32 16.04.2021
204 Clear 3 1035 65 10000 2.06 230 22:51 16.04.2021
205 Clear 3 1035 65 10000 2.06 230 22:51 16.04.2021
206 Clear 3 1035 65 10000 2.06 230 22:22 16.04.2021
207 Clear 3 1035 64 10000 0.63 135 21:56 16.04.2021
208 Clear 3 1035 64 10000 0.63 135 21:38 16.04.2021
209 Clouds 3 1036 70 6859 0.53 129 20:54 16.04.2021
210 Clear 1 1034 80 10000 1.54 60 20:35 16.04.2021
211 Clear 0 1034 80 10000 1.54 60 19:56 16.04.2021
212 Clear 0 1034 80 10000 1.54 60 19:37 16.04.2021
213 Clear -2 1034 86 10000 0.23 186 18:47 16.04.2021
214 Clear -2 1034 86 10000 0.63 136 18:21 16.04.2021
215 Clear -3 1034 93 10000 0.63 136 17:47 16.04.2021
216 Clear -3 1034 93 10000 0.26 103 17:19 16.04.2021
217 Clear -3 1033 93 10000 1.54 80 16:44 16.04.2021
218 Clear -3 1033 93 10000 1.54 80 16:26 16.04.2021
219 Clear -3 1033 93 10000 1.54 80 15:52 16.04.2021
220 Clear -3 1033 93 10000 1.54 80 15:28 16.04.2021
221 Clear -4 1032 93 10000 1.54 90 14:43 16.04.2021
222 Clear -4 1032 93 10000 1.54 90 14:20 16.04.2021
223 Clear -2 1031 86 10000 0.24 293 13:54 16.04.2021
224 Clear -1 1031 86 10000 0.25 251 13:21 16.04.2021
225 Clear -1 1031 74 10000 0.25 251 12:51 16.04.2021
226 Clear -1 1031 74 10000 0.52 266 12:29 16.04.2021
227 Clear -1 1030 80 10000 0.52 266 11:58 16.04.2021
228 Clear -1 1030 80 10000 0.56 252 11:27 16.04.2021
229 Clear 0 1030 69 10000 0.56 252 10:59 16.04.2021
230 Clear 0 1030 69 10000 0.56 252 10:39 16.04.2021
231 Clear 0 1030 69 10000 0.72 247 10:19 16.04.2021
232 Clear 2 1029 60 10000 1.54 260 09:43 16.04.2021
233 Clear 2 1029 60 10000 1.54 260 09:20 16.04.2021
234 Clouds 4 1028 49 10000 1.54 270 08:42 16.04.2021
235 Clouds 4 1028 49 10000 1.54 270 08:18 16.04.2021
236 Clear 6 1028 65 10000 3.6 280 07:37 16.04.2021
237 Clouds 8 1027 45 10000 2.57 230 06:59 16.04.2021
238 Clouds 8 1027 45 10000 2.57 230 06:28 16.04.2021
239 Haze 8 1026 39 9656 3.09 250 04:23 16.04.2021
240 Clouds 8 1025 39 10000 1.54 230 01:38 16.04.2021
241 Clouds 7 1025 49 10000 2.06 260 00:42 16.04.2021
242 Clouds 7 1025 49 10000 2.06 260 00:20 16.04.2021
243 Clouds 8 1025 42 10000 0.17 307 23:45 15.04.2021
244 Clouds 8 1025 42 10000 0.26 50 23:25 15.04.2021
245 Clouds 6 1024 56 10000 1.03 150 22:47 15.04.2021
246 Clouds 6 1024 56 10000 1.03 150 22:23 15.04.2021
247 Clouds 4 1024 65 10000 0.63 97 21:43 15.04.2021
248 Clouds 4 1024 65 10000 0.97 93 21:24 15.04.2021
249 Clouds 1 1024 69 10000 0.97 93 20:47 15.04.2021
250 Clouds 0 1023 80 10000 0.73 88 20:25 15.04.2021
251 Clouds -1 1023 80 10000 0.73 88 19:47 15.04.2021
252 Clouds -1 1023 80 10000 1.08 94 19:28 15.04.2021
253 Clouds -2 1023 86 10000 1.08 94 18:45 15.04.2021
254 Clouds -2 1023 86 10000 1.24 95 18:22 15.04.2021
255 Clouds -3 1022 86 10000 1.24 95 17:58 15.04.2021
256 Clouds -2 1022 86 10000 1.24 95 17:39 15.04.2021
257 Clouds -2 1022 86 10000 1.31 98 17:21 15.04.2021
258 Clouds -2 1021 80 10000 1.31 98 16:43 15.04.2021
259 Clouds -2 1021 80 10000 1.34 107 16:23 15.04.2021
260 Clouds -2 1020 86 10000 2.06 290 15:47 15.04.2021
261 Clouds -2 1020 86 10000 2.06 290 15:27 15.04.2021
262 Clouds -2 1019 86 10000 1.54 20 14:42 15.04.2021
263 Clouds -2 1019 86 10000 1.54 20 14:24 15.04.2021
264 Clouds -1 1018 80 10000 1.05 129 13:48 15.04.2021
265 Clouds -1 1018 80 10000 0.66 95 13:23 15.04.2021
266 Clouds 1 1017 75 10000 0.66 95 12:47 15.04.2021
267 Clouds 1 1017 75 10000 0.6 97 12:26 15.04.2021
268 Clouds 1 1017 75 10000 0.6 97 12:26 15.04.2021
269 Clouds 1 1016 75 10000 0.6 97 11:48 15.04.2021
270 Clouds 1 1016 75 10000 0.84 106 11:26 15.04.2021
271 Clouds 3 1014 65 10000 1.54 70 10:58 15.04.2021
272 Clouds 3 1014 65 10000 1.54 70 10:34 15.04.2021
273 Clouds 3 1014 65 10000 0.53 47 09:56 15.04.2021
274 Clouds 3 1014 65 10000 0.02 312 09:29 15.04.2021
275 Clouds 5 1012 70 10000 0.02 312 08:52 15.04.2021
276 Clouds 5 1012 70 10000 0.77 71 08:24 15.04.2021
277 Haze 6 1011 65 9656 0.77 71 07:30 15.04.2021
278 Haze 7 1010 56 9656 3.09 260 06:56 15.04.2021
279 Haze 7 1010 56 9656 3.09 260 06:33 15.04.2021
280 Haze 7 1010 56 9656 3.09 260 06:33 15.04.2021
281 Haze 7 1008 56 9656 3.09 280 04:54 15.04.2021
282 Haze 9 1007 46 9656 3.6 100 02:58 15.04.2021
283 Haze 8 1006 45 9656 5.14 70 23:51 14.04.2021
284 Haze 8 1006 45 9656 5.14 70 23:30 14.04.2021
285 Clear 7 1006 49 10000 5.14 70 22:47 14.04.2021
286 Clear 7 1006 49 10000 5.14 70 22:29 14.04.2021
287 Haze 5 1007 65 9656 3.6 70 21:56 14.04.2021
288 Haze 4 1007 65 9656 3.6 70 21:37 14.04.2021
289 Haze 4 1007 65 9656 3.6 70 21:18 14.04.2021
290 Clouds 0 1008 64 10000 2.57 20 20:37 14.04.2021
291 Clouds 0 1009 74 10000 2.57 60 20:19 14.04.2021
292 Clouds 1 1009 74 10000 2.57 60 19:39 14.04.2021
293 Clouds -1 1009 74 10000 2.57 60 19:18 14.04.2021
294 Clouds -1 1010 74 10000 4.12 60 18:50 14.04.2021
295 Clouds -3 1011 80 10000 3.6 70 18:19 14.04.2021
296 Clouds -2 1011 80 10000 3.6 70 17:55 14.04.2021
297 Clouds -3 1011 80 10000 3.6 70 17:24 14.04.2021
298 Clouds -4 1012 93 10000 3.6 60 16:43 14.04.2021
299 Clouds -5 1012 93 10000 3.6 60 16:22 14.04.2021
300 Clear -4 1013 86 10000 2.06 70 15:40 14.04.2021
301 Clear -4 1013 86 10000 2.06 70 15:22 14.04.2021
302 Clouds -5 1014 79 10000 1.54 80 14:42 14.04.2021
303 Clear -4 1015 86 10000 1.54 40 14:22 14.04.2021
304 Clear -3 1015 86 10000 1.54 40 13:48 14.04.2021
305 Clear -2 1015 86 10000 2.05 29 12:58 14.04.2021
306 Clear -2 1015 86 10000 2.05 29 12:35 14.04.2021
307 Clouds -1 1016 80 10000 1.79 35 11:42 14.04.2021
308 Clouds -1 1016 80 10000 1.61 36 11:24 14.04.2021
309 Clear 1 1016 69 10000 1.61 36 10:35 14.04.2021
310 Clouds 3 1016 56 10000 2.06 50 09:59 14.04.2021
311 Clouds 3 1016 56 10000 2.06 50 09:41 14.04.2021
312 Clouds 3 1016 56 10000 2.06 50 09:18 14.04.2021
313 Rain 6 1015 49 10000 2.06 110 08:33 14.04.2021
314 Haze 7 1015 42 9656 1.01 43 07:53 14.04.2021
315 Haze 8 1014 42 9656 0.58 56 06:43 14.04.2021
316 Haze 8 1014 42 9656 0.49 75 06:23 14.04.2021
317 Clouds 9 1013 29 10000 0.29 76 03:58 14.04.2021
318 Clouds 7 1014 49 10000 2.06 260 01:40 14.04.2021
319 Clouds 6 1013 52 10000 1.54 270 00:34 14.04.2021
320 Clear 6 1013 56 10000 3.09 220 23:39 13.04.2021
321 Clear 5 1013 56 10000 0.72 128 22:56 13.04.2021
322 Clear 5 1013 56 10000 0.72 128 22:37 13.04.2021
323 Clear 5 1013 56 10000 0.76 127 22:18 13.04.2021
324 Clouds 1 1013 64 10000 0.76 127 21:44 13.04.2021
325 Clouds 1 1013 64 10000 0.61 146 21:23 13.04.2021
326 Clouds 1 1013 64 10000 0.76 151 20:40 13.04.2021
327 Clouds 0 1013 74 10000 2.06 50 20:20 13.04.2021
328 Clouds 0 1013 74 10000 2.06 50 19:27 13.04.2021
329 Clouds -2 1013 74 10000 0.33 109 18:59 13.04.2021
330 Clouds -2 1013 74 10000 0.33 109 18:36 13.04.2021
331 Clouds -3 1013 80 10000 1.54 300 17:45 13.04.2021
332 Clouds -3 1013 80 10000 1.54 300 17:23 13.04.2021
333 Clouds -4 1012 80 10000 0.85 35 16:57 13.04.2021
334 Clouds -4 1012 80 10000 0.85 35 16:39 13.04.2021
335 Clouds -4 1012 80 10000 1.18 48 16:19 13.04.2021
336 Clouds -3 1012 74 10000 1.18 48 15:40 13.04.2021
337 Clouds -1 1012 64 10000 1.54 80 14:59 13.04.2021
338 Clouds -1 1012 64 10000 1.54 80 14:41 13.04.2021
339 Clouds -1 1012 64 10000 1.54 80 14:18 13.04.2021
340 Clouds -1 1012 64 10000 2.57 70 13:45 13.04.2021
341 Clouds -1 1012 64 10000 2.57 70 13:23 13.04.2021
342 Clouds -1 1012 64 10000 1.54 90 12:53 13.04.2021
343 Clouds 0 1012 64 10000 1.54 90 12:24 13.04.2021
344 Clouds -2 1012 80 10000 1.77 70 11:50 13.04.2021
345 Clouds 0 1012 80 10000 1.81 56 11:29 13.04.2021
346 Clouds -1 1011 74 10000 2.57 60 10:45 13.04.2021
347 Clouds -1 1011 74 10000 2.57 60 10:20 13.04.2021
348 Clouds 1 1011 64 10000 2.57 60 09:53 13.04.2021
349 Clouds 1 1011 64 10000 2.57 60 09:34 13.04.2021
350 Clouds 2 1011 60 10000 3.6 60 08:51 13.04.2021
351 Clouds 3 1011 60 10000 3.6 60 08:25 13.04.2021
352 Haze 5 1010 48 9656 1.54 120 07:52 13.04.2021
353 Haze 5 1010 48 9656 1.54 120 07:32 13.04.2021
354 Haze 6 1010 42 9656 0.74 98 06:29 13.04.2021
355 Haze 8 1009 39 9656 2.57 140 04:27 13.04.2021
356 Clouds 8 1009 36 10000 2.57 110 01:37 13.04.2021
357 Clouds 6 1009 42 10000 4.63 80 23:59 12.04.2021
358 Clouds 6 1009 42 10000 4.63 80 23:39 12.04.2021
359 Clouds 6 1009 42 10000 4.63 80 23:18 12.04.2021
360 Clouds 6 1009 48 10000 3.09 80 22:37 12.04.2021
361 Clear 4 1009 48 10000 4.12 80 21:56 12.04.2021
362 Clear 4 1009 48 10000 4.12 80 21:36 12.04.2021
363 Clear 4 1009 48 10000 4.12 80 21:18 12.04.2021
364 Clouds 2 1009 52 10000 3.6 80 20:37 12.04.2021
365 Clouds 2 1009 52 10000 3.6 80 20:19 12.04.2021
366 Clouds 0 1009 64 10000 4.12 70 19:42 12.04.2021
367 Clouds 0 1009 64 10000 4.12 70 19:21 12.04.2021
368 Clouds 0 1009 64 10000 4.12 70 19:21 12.04.2021
369 Clouds -3 1009 86 10000 0.57 61 18:53 12.04.2021
370 Clouds -3 1009 86 10000 0.57 61 18:53 12.04.2021
371 Clouds -3 1009 86 10000 0.57 61 18:35 12.04.2021
372 Clouds -4 1008 80 10000 1.54 290 17:59 12.04.2021
373 Clouds -4 1008 80 10000 1.54 290 17:41 12.04.2021
374 Clouds -4 1008 80 10000 1.54 290 17:19 12.04.2021
375 Clouds -3 1007 64 10000 1.54 60 16:42 12.04.2021
376 Clouds -4 1007 64 10000 1.54 60 16:24 12.04.2021
377 Clouds -2 1007 64 10000 2.57 70 15:45 12.04.2021
378 Clouds -2 1007 64 10000 2.57 70 15:21 12.04.2021
379 Clouds -2 1007 64 10000 1.73 27 14:48 12.04.2021
380 Clouds -1 1007 64 10000 3.6 60 14:28 12.04.2021
381 Clouds -1 1007 64 10000 3.6 60 13:42 12.04.2021
382 Clouds -1 1007 64 10000 3.6 60 13:21 12.04.2021
383 Clouds -2 1007 64 10000 3.09 70 12:44 12.04.2021
384 Clouds -2 1007 64 10000 3.09 70 12:23 12.04.2021
385 Clouds -2 1007 64 10000 3.09 60 11:47 12.04.2021
386 Clouds 0 1007 64 10000 3.6 70 10:53 12.04.2021
387 Clouds -2 1007 64 10000 3.6 70 10:28 12.04.2021
388 Clouds -1 1008 64 10000 3.6 70 09:54 12.04.2021
389 Clouds -1 1008 64 10000 3.6 70 09:33 12.04.2021
390 Clouds -1 1008 64 10000 3.6 70 08:58 12.04.2021
391 Clouds -1 1008 64 10000 3.6 70 08:27 12.04.2021
392 Clouds -2 1009 68 10000 1.97 77 07:31 12.04.2021
393 Clouds -2 1010 64 10000 1.97 77 06:47 12.04.2021
394 Clear -1 1011 55 10000 2.24 96 05:48 12.04.2021
395 Rain 1 1012 34 10000 2.06 130 03:58 12.04.2021
396 Clouds -2 1015 37 10000 5.14 70 00:46 12.04.2021
397 Clouds -2 1015 37 10000 5.14 70 00:23 12.04.2021
398 Clear -3 1016 33 10000 4.12 70 23:44 11.04.2021
399 Clear -4 1016 33 10000 4.12 70 23:22 11.04.2021
400 Clear -5 1016 33 10000 5.66 60 22:39 11.04.2021
401 Clear -6 1016 33 10000 5.66 60 22:20 11.04.2021
402 Clear -7 1018 38 10000 3.09 60 21:45 11.04.2021
403 Clear -8 1018 38 10000 3.09 60 21:26 11.04.2021
404 Clear -10 1019 47 10000 4.12 70 20:52 11.04.2021
405 Clear -12 1019 47 10000 4.12 70 20:27 11.04.2021
406 Clear -14 1020 55 10000 3.6 60 19:44 11.04.2021
407 Clear -15 1020 55 10000 3.6 60 19:22 11.04.2021
408 Clear -15 1020 51 10000 3.09 60 19:00 11.04.2021
409 Clear -17 1020 51 10000 3.09 60 18:41 11.04.2021
410 Clear -19 1020 51 10000 3.09 60 18:22 11.04.2021
411 Clear -20 1021 60 10000 4.12 70 17:44 11.04.2021
412 Clear -21 1021 60 10000 4.12 70 17:24 11.04.2021
413 Clear -22 1022 59 10000 3.6 60 16:46 11.04.2021
414 Clear -22 1022 59 10000 3.6 60 16:22 11.04.2021
415 Clear -22 1022 59 10000 3.6 60 15:48 11.04.2021
416 Clear -22 1022 59 10000 3.6 60 15:27 11.04.2021
417 Clouds -21 1023 59 10000 4.12 70 14:54 11.04.2021
418 Clouds -22 1023 59 10000 4.12 70 14:31 11.04.2021
419 Clear -22 1023 64 10000 3.6 60 13:51 11.04.2021
420 Clear -22 1023 64 10000 3.6 60 13:30 11.04.2021
421 Clear -22 1023 59 10000 3.6 60 12:49 11.04.2021
422 Clear -20 1023 59 10000 3.6 60 12:21 11.04.2021
423 Clouds -18 1023 64 10000 1.54 30 11:50 11.04.2021
424 Clouds -20 1023 64 10000 1.54 30 11:23 11.04.2021
425 Clouds -19 1024 55 10000 1.63 29 10:48 11.04.2021
426 Clouds -19 1024 55 10000 1.63 29 10:30 11.04.2021
427 Clouds -17 1023 50 10000 1.54 360 09:56 11.04.2021
428 Clouds -17 1023 50 10000 1.54 360 09:33 11.04.2021
429 Clouds -16 1023 55 10000 1.3 31 08:51 11.04.2021
430 Clouds -15 1023 55 10000 0.97 51 08:24 11.04.2021
431 Clouds -13 1023 33 10000 1.54 170 07:22 11.04.2021
432 Clouds -10 1022 34 10000 1.01 78 06:51 11.04.2021
433 Clouds -10 1022 27 10000 1.32 124 05:42 11.04.2021
434 Clouds -9 1022 27 10000 2.13 136 05:20 11.04.2021
435 Clouds -9 1023 29 10000 2.57 50 04:34 11.04.2021
436 Clouds -9 1023 29 10000 4.12 80 01:49 11.04.2021
437 Clear -11 1025 40 10000 4.12 70 00:34 11.04.2021
438 Clear -12 1025 40 10000 4.12 70 23:48 10.04.2021
439 Clear -12 1025 40 10000 4.12 70 23:47 10.04.2021
440 Clear -13 1025 40 10000 4.12 70 23:25 10.04.2021
441 Clear -13 1025 40 10000 4.12 70 23:25 10.04.2021
442 Clear -14 1025 43 10000 4.63 70 22:43 10.04.2021
443 Clear -15 1025 43 10000 4.63 70 22:20 10.04.2021
444 Clear -16 1026 46 10000 5.14 70 21:41 10.04.2021
445 Clear -17 1026 46 10000 5.14 70 21:21 10.04.2021
446 Clouds -18 1027 54 10000 5.14 80 20:44 10.04.2021
447 Clouds -19 1027 54 10000 5.14 80 20:23 10.04.2021
448 Clear -22 1028 64 10000 3.09 60 19:44 10.04.2021
449 Clear -23 1028 64 10000 3.09 60 19:25 10.04.2021
450 Clear -26 1028 69 10000 3.09 60 18:51 10.04.2021
451 Clear -29 1028 69 10000 3.09 60 18:29 10.04.2021
452 Clear -31 1029 69 10000 3.6 60 17:38 10.04.2021
453 Clear -31 1029 69 10000 3.6 60 17:18 10.04.2021
454 Clear -30 1029 69 10000 4.63 60 16:28 10.04.2021
455 Clear -30 1030 69 10000 3.09 70 15:55 10.04.2021
456 Clear -30 1030 69 10000 3.09 70 15:29 10.04.2021
457 Clear -29 1030 69 10000 4.12 60 14:45 10.04.2021
458 Clear -30 1030 69 10000 4.12 60 14:19 10.04.2021
459 Clear -29 1031 69 10000 3.09 60 13:43 10.04.2021
460 Clear -29 1031 69 10000 4.12 80 12:54 10.04.2021
461 Clear -29 1031 69 10000 4.12 80 12:29 10.04.2021
462 Clear -28 1032 70 10000 3.6 90 11:49 10.04.2021
463 Clear -28 1032 70 10000 3.6 90 11:26 10.04.2021
464 Clear -27 1032 76 10000 2.57 90 10:52 10.04.2021
465 Clear -27 1032 76 10000 2.57 90 10:31 10.04.2021
466 Clear -26 1032 70 10000 1.51 42 09:50 10.04.2021
467 Clear -26 1032 70 10000 1.15 53 09:20 10.04.2021
468 Clouds -24 1032 70 10000 1.15 53 08:49 10.04.2021
469 Clear -22 1032 60 10000 0.94 71 08:29 10.04.2021
470 Clear -22 1032 60 10000 0.94 71 08:29 10.04.2021
471 Clear -20 1032 60 10000 0.94 71 07:40 10.04.2021
472 Clear -20 1032 60 10000 0.75 114 07:21 10.04.2021
473 Clouds -18 1032 55 10000 2.06 230 06:24 10.04.2021
474 Clouds -17 1032 51 10000 3.09 190 04:26 10.04.2021
475 Clouds -16 1032 46 10000 2.57 180 02:51 10.04.2021
476 Clouds -17 1032 50 10000 1.54 170 02:33 10.04.2021
477 Clouds -18 1032 50 10000 2.57 230 00:45 10.04.2021
478 Clouds -18 1032 50 10000 2.57 230 00:26 10.04.2021
479 Clouds -18 1032 42 10000 1.52 277 23:42 09.04.2021
480 Clouds -19 1032 54 10000 2.57 270 22:59 09.04.2021
481 Clouds -19 1032 54 10000 2.57 270 22:38 09.04.2021
482 Clouds -19 1032 54 10000 2.57 270 22:38 09.04.2021
483 Clouds -20 1031 49 10000 1.58 267 21:59 09.04.2021
484 Clouds -21 1031 49 10000 1.58 267 21:38 09.04.2021
485 Clouds -21 1031 50 10000 1.54 250 21:19 09.04.2021
486 Clouds -21 1031 49 10000 1.5 267 21:19 09.04.2021
487 Clouds -21 1030 54 10000 3.6 260 20:43 09.04.2021
488 Clouds -23 1029 64 10000 3.09 240 20:23 09.04.2021
489 Clouds -23 1029 54 10000 4.12 240 19:54 09.04.2021
490 Clouds -23 1029 64 10000 3.09 240 19:36 09.04.2021
491 Clouds -24 1029 64 10000 3.09 240 19:18 09.04.2021
492 Clouds -25 1029 64 10000 1.54 220 18:41 09.04.2021
493 Clouds -25 1029 64 10000 1.54 220 18:41 09.04.2021
494 Clouds -25 1029 64 10000 1.54 200 18:19 09.04.2021
495 Clouds -25 1028 64 10000 2.57 230 17:37 09.04.2021
496 Clouds -25 1027 64 10000 2.57 230 16:56 09.04.2021
497 Clouds -25 1027 64 10000 2.57 230 16:36 09.04.2021
498 Clouds -25 1026 64 10000 2.06 250 15:57 09.04.2021
499 Clouds -25 1026 64 10000 2.06 250 15:37 09.04.2021
500 Clouds -24 1026 58 10000 4.12 260 15:18 09.04.2021
501 Clouds -24 1025 54 10000 1.25 271 14:40 09.04.2021
502 Clouds -23 1025 59 10000 3.6 220 13:53 09.04.2021
503 Clouds -22 1025 59 10000 3.6 220 13:26 09.04.2021
504 Clouds -21 1024 54 10000 6.69 240 12:54 09.04.2021
505 Clouds -21 1024 54 10000 6.69 240 12:36 09.04.2021
506 Clouds -20 1023 65 10000 5.14 240 11:46 09.04.2021
507 Clouds -20 1023 65 10000 5.14 240 11:23 09.04.2021
508 Clouds -20 1022 65 10000 4.12 250 10:47 09.04.2021
509 Clouds -20 1022 65 10000 4.12 250 10:29 09.04.2021
510 Clouds -20 1022 65 10000 4.12 250 09:49 09.04.2021
511 Clouds -20 1022 65 10000 5.66 250 09:22 09.04.2021
512 Clouds -19 1021 46 10000 5.66 250 08:51 09.04.2021
513 Clouds -18 1020 60 10000 7.2 250 07:38 09.04.2021
514 Clouds -16 1018 60 10000 6.69 270 06:34 09.04.2021
515 Clouds -16 1017 61 10000 9.77 250 05:56 09.04.2021
516 Clouds -14 1014 66 10000 9.77 240 03:53 09.04.2021
517 Clouds -12 1012 57 10000 7.2 280 01:35 09.04.2021
518 Clouds -11 1011 57 10000 7.2 300 00:37 09.04.2021
519 Clouds -11 1011 57 10000 7.2 300 00:19 09.04.2021
520 Clear -11 1010 57 10000 6.17 280 23:24 08.04.2021
521 Clouds -12 1009 57 10000 8.23 290 22:43 08.04.2021
522 Clouds -12 1009 57 10000 8.23 290 22:22 08.04.2021
523 Clouds -12 1008 72 10000 4.12 240 21:55 08.04.2021
524 Clouds -12 1008 72 10000 4.12 240 21:55 08.04.2021
525 Clouds -12 1008 72 10000 4.12 240 21:55 08.04.2021
526 Clouds -12 1008 72 10000 4.12 240 21:36 08.04.2021
527 Clouds -12 1008 72 10000 4.12 240 21:18 08.04.2021
528 Snow -13 1007 72 10000 4.04 264 20:52 08.04.2021
529 Snow -13 1007 72 10000 4.04 264 20:30 08.04.2021
530 Snow -14 1006 78 8047 1.54 200 19:46 08.04.2021
531 Snow -14 1007 85 10000 1.54 240 19:20 08.04.2021
532 Snow -14 1007 85 10000 1.54 240 19:20 08.04.2021
533 Snow -14 1006 85 10000 3.09 220 18:51 08.04.2021
534 Snow -15 1006 85 10000 2.57 230 18:21 08.04.2021
535 Snow -14 1005 66 10000 2.06 210 17:49 08.04.2021
536 Snow -15 1005 85 10000 1.54 240 17:26 08.04.2021
537 Snow -14 1005 78 10000 2.57 200 16:51 08.04.2021
538 Snow -16 1005 84 10000 0.89 271 16:33 08.04.2021
539 Clouds -14 1004 66 10000 0.78 298 15:48 08.04.2021
540 Clouds -14 1004 66 10000 0.9 332 15:29 08.04.2021
541 Clouds -14 1005 61 10000 4.12 350 14:46 08.04.2021
542 Clear -14 1005 78 10000 1.11 345 14:28 08.04.2021
543 Clear -14 1005 78 10000 1.25 353 13:59 08.04.2021
544 Clear -14 1005 78 10000 1.25 353 13:41 08.04.2021
545 Clear -14 1005 78 10000 1.53 6 13:22 08.04.2021
546 Haze -15 1006 85 10000 1.53 6 12:38 08.04.2021
547 Haze -15 1006 85 10000 1.85 12 12:18 08.04.2021
548 Clear -14 1006 78 10000 1.85 12 11:43 08.04.2021
549 Clear -15 1007 78 10000 1.88 15 10:59 08.04.2021
550 Clear -15 1007 78 10000 1.88 15 10:40 08.04.2021
551 Clear -14 1007 78 10000 2.14 18 10:18 08.04.2021
552 Clouds -14 1008 72 10000 2.14 18 09:43 08.04.2021
553 Clouds -14 1009 72 10000 2.06 360 08:47 08.04.2021
554 Clouds -13 1011 61 10000 2.18 21 08:28 08.04.2021
555 Clouds -12 1011 61 10000 2.28 23 07:58 08.04.2021
556 Clouds -11 1011 61 10000 2.28 23 07:35 08.04.2021
557 Clear -8 1016 53 10000 0.94 78 03:54 08.04.2021
558 Clear -9 1019 48 10000 1.54 280 01:19 08.04.2021
559 Clear -10 1021 67 10000 1.54 270 00:19 08.04.2021
560 Clear -11 1022 85 10000 2.06 260 23:41 07.04.2021
561 Clouds -11 1021 61 10000 0.9 142 23:21 07.04.2021
562 Clouds -12 1022 56 10000 1.54 0 22:47 07.04.2021
563 Clouds -13 1022 56 10000 1.54 0 22:29 07.04.2021
564 Clouds -14 1023 85 10000 0.97 121 21:46 07.04.2021
565 Clouds -15 1023 85 10000 0.98 113 21:24 07.04.2021
566 Clouds -15 1021 79 5842 0.98 113 20:45 07.04.2021
567 Clouds -17 1024 77 10000 0.92 114 20:21 07.04.2021
568 Clear -19 1024 84 10000 0.92 114 19:45 07.04.2021
569 Clear -21 1024 84 10000 0.74 102 19:26 07.04.2021
570 Clear -23 1025 76 10000 0.74 102 18:48 07.04.2021
571 Clear -27 1025 76 10000 0.99 58 18:20 07.04.2021
572 Mist -27 1024 77 9656 2.57 70 17:56 07.04.2021
573 Mist -27 1024 77 9656 2.57 70 17:37 07.04.2021
574 Mist -26 1024 77 9656 1.17 40 16:58 07.04.2021
575 Mist -26 1024 77 9656 1.17 40 16:38 07.04.2021
576 Mist -26 1024 77 9656 1.17 41 16:19 07.04.2021
577 Mist -26 1024 77 9656 1.17 41 16:19 07.04.2021
578 Clear -27 1024 84 10000 2.57 80 15:40 07.04.2021
579 Clear -25 1023 77 10000 1.06 46 14:58 07.04.2021
580 Mist -24 1024 77 8047 1.12 43 14:32 07.04.2021
581 Mist -25 1024 77 8047 1.12 43 13:53 07.04.2021
582 Mist -25 1024 77 8047 1.12 43 13:53 07.04.2021
583 Mist -25 1024 77 8047 1.03 45 13:27 07.04.2021
584 Haze -24 1023 76 8047 1.03 45 12:57 07.04.2021
585 Haze -24 1023 76 8047 1.1 33 12:25 07.04.2021
586 Clear -23 1023 77 10000 1.1 33 11:57 07.04.2021
587 Clear -23 1023 77 10000 1.13 24 11:28 07.04.2021
588 Clear -22 1022 77 10000 1.13 24 10:59 07.04.2021
589 Clear -22 1022 77 10000 1.09 15 10:27 07.04.2021
590 Mist -21 1022 77 9656 1.09 15 09:44 07.04.2021
591 Mist -21 1022 77 9656 1.01 359 09:25 07.04.2021
592 Clear -18 1021 84 10000 0.92 358 08:47 07.04.2021
593 Clear -17 1021 84 10000 0.66 335 08:22 07.04.2021
594 Clear -17 1021 84 10000 0.66 335 08:22 07.04.2021
595 Clear -15 1021 65 10000 0.66 335 07:43 07.04.2021
596 Clear -15 1021 65 10000 0.43 280 07:24 07.04.2021
597 Clouds -12 1021 52 10000 2.06 200 06:33 07.04.2021
598 Snow -10 1021 62 10000 2.57 250 04:23 07.04.2021
599 Clear -11 1022 67 10000 1.54 260 00:31 07.04.2021
600 Clouds -12 1022 61 10000 0.74 241 23:47 06.04.2021
601 Clouds -12 1022 61 10000 0.8 237 23:22 06.04.2021
602 Clouds -13 1022 72 10000 0.8 237 22:48 06.04.2021
603 Clouds -14 1022 72 10000 0.68 219 22:19 06.04.2021
604 Clouds -14 1022 78 10000 0.68 219 21:43 06.04.2021
605 Clouds -15 1022 78 10000 0.48 176 21:22 06.04.2021
606 Clouds -15 1021 72 3811 0.45 206 20:54 06.04.2021
607 Clouds -17 1022 77 10000 0.44 114 20:25 06.04.2021
608 Clouds -19 1023 70 10000 1.54 50 19:58 06.04.2021
609 Clouds -19 1023 70 10000 1.54 50 19:35 06.04.2021
610 Clouds -20 1023 76 10000 0.49 84 18:58 06.04.2021
611 Clouds -20 1023 76 10000 0.49 84 18:40 06.04.2021
612 Clouds -25 1023 75 10000 0.81 58 18:19 06.04.2021
613 Clear -24 1023 76 10000 0.81 58 17:43 06.04.2021
614 Clear -26 1023 76 10000 1 45 17:19 06.04.2021
615 Clear -26 1023 76 10000 1.54 60 16:46 06.04.2021
616 Clear -25 1023 76 10000 1.54 60 16:26 06.04.2021
617 Clear -24 1023 76 10000 1.54 60 15:26 06.04.2021
618 Clouds -22 1025 73 713 0.84 38 14:45 06.04.2021
619 Clear -23 1023 84 10000 0.8 32 14:24 06.04.2021
620 Clear -23 1023 84 10000 0.8 32 13:47 06.04.2021
621 Clear -23 1023 84 10000 0.65 35 13:26 06.04.2021
622 Clouds -22 1024 83 10000 0.65 35 12:47 06.04.2021
623 Clouds -22 1024 83 10000 0.48 41 12:27 06.04.2021
624 Clouds -21 1024 84 10000 0.48 41 11:59 06.04.2021
625 Clouds -21 1024 84 10000 0.48 41 11:40 06.04.2021
626 Clouds -21 1024 84 10000 0.31 23 11:19 06.04.2021
627 Clear -21 1024 84 10000 0.31 23 10:42 06.04.2021
628 Clear -21 1024 84 10000 0.11 186 10:21 06.04.2021
629 Clouds -20 1024 77 10000 0.11 186 09:44 06.04.2021
630 Clouds -19 1024 77 10000 0.44 184 09:23 06.04.2021
631 Clouds -17 1024 71 10000 0.52 208 08:26 06.04.2021
632 Clear -16 1024 66 10000 2.57 280 07:32 06.04.2021
633 Clouds -15 1024 66 10000 0.68 226 06:54 06.04.2021
634 Clouds -13 1024 66 10000 6.69 250 03:55 06.04.2021
635 Clouds -14 1025 66 10000 5.14 280 00:51 06.04.2021
636 Clouds -14 1024 66 10000 6.17 260 00:22 06.04.2021
637 Clear -14 1024 66 10000 9.26 260 23:58 05.04.2021
638 Clear -14 1024 66 10000 9.26 260 23:39 05.04.2021
639 Clear -14 1024 66 10000 9.26 260 23:18 05.04.2021
640 Clouds -14 1024 66 10000 7.2 260 22:40 05.04.2021
641 Snow -15 1024 66 10000 8.23 240 21:56 05.04.2021
642 Snow -15 1024 66 10000 6.17 250 21:37 05.04.2021
643 Snow -15 1024 66 10000 6.69 250 21:18 05.04.2021
644 Snow -15 1024 66 10000 6.17 250 20:41 05.04.2021
645 Clouds -15 1024 72 10000 6.69 250 20:22 05.04.2021
646 Clouds -15 1023 66 10000 6.69 250 19:37 05.04.2021
647 Clouds -16 1023 66 10000 6.69 250 19:18 05.04.2021
648 Clouds -16 1022 66 10000 6.69 240 18:41 05.04.2021
649 Clouds -15 1022 66 10000 6.69 240 18:19 05.04.2021
650 Clouds -15 1022 72 10000 7.72 250 17:47 05.04.2021
651 Clouds -15 1022 72 10000 7.72 250 17:23 05.04.2021
652 Clouds -14 1021 72 10000 8.75 260 16:47 05.04.2021
653 Clouds -14 1021 72 10000 8.75 260 16:22 05.04.2021
654 Clouds -14 1021 72 10000 6.17 250 15:57 05.04.2021
655 Clouds -14 1020 72 10000 4.12 240 15:35 05.04.2021
656 Clouds -14 1020 66 10000 3.6 250 14:59 05.04.2021
657 Clouds -14 1019 66 10000 5.66 240 14:36 05.04.2021
658 Clouds -13 1018 61 10000 4.63 270 13:52 05.04.2021
659 Clouds -13 1018 61 10000 4.63 270 13:27 05.04.2021
660 Clouds -12 1017 72 10000 7.2 260 12:46 05.04.2021
661 Clouds -12 1017 72 10000 7.2 260 12:25 05.04.2021
662 Clouds -12 1016 67 10000 7.72 270 11:48 05.04.2021
663 Clouds -11 1016 67 10000 7.72 270 11:28 05.04.2021
664 Clouds -11 1016 73 10000 7.72 280 10:55 05.04.2021
665 Snow -11 1016 73 10000 10.29 260 10:35 05.04.2021
666 Clouds -10 1014 62 10000 8.23 270 09:48 05.04.2021
667 Clouds -10 1014 62 10000 8.23 270 09:26 05.04.2021
668 Haze -9 1013 73 8047 10.29 280 08:47 05.04.2021
669 Clear -8 1012 73 10000 8.23 260 08:26 05.04.2021
670 Clear -7 1011 73 10000 11.32 250 07:57 05.04.2021
671 Snow -6 1011 80 9656 11.83 260 07:29 05.04.2021
672 Snow -2 1008 69 10000 7.72 250 03:42 05.04.2021
673 Snow -1 1006 64 10000 8.23 280 00:54 05.04.2021
674 Snow -1 1004 80 10000 6.69 260 23:53 04.04.2021
675 Rain 0 1004 80 10000 6.69 260 23:31 04.04.2021
676 Rain 0 1004 86 10000 4.63 260 22:57 04.04.2021
677 Snow 0 1003 100 10000 4.12 250 22:34 04.04.2021
678 Rain 0 1003 100 1408 7.72 240 21:56 04.04.2021
679 Mist 0 1002 93 4426 5.66 210 21:21 04.04.2021
680 Snow 0 1002 93 10000 6.17 210 20:42 04.04.2021
681 Mist 0 1002 93 6437 6.69 220 20:21 04.04.2021
682 Snow -1 1002 100 6437 4.63 230 19:40 04.04.2021
683 Rain 0 1002 100 1609 3.09 220 19:19 04.04.2021
684 Rain -1 1002 100 1609 2.06 160 18:50 04.04.2021
685 Rain -1 1002 100 604 1.54 150 18:25 04.04.2021
686 Rain -1 1002 100 1609 2.57 150 17:58 04.04.2021
687 Rain -1 1002 100 1811 3.6 130 17:25 04.04.2021
688 Snow -1 1003 100 3219 2.06 130 16:57 04.04.2021
689 Snow -1 1003 100 2816 2.57 130 16:38 04.04.2021
690 Mist -1 1003 100 2615 1.54 160 15:54 04.04.2021
691 Snow -1 1003 100 2816 2.57 130 15:31 04.04.2021
692 Snow -1 1004 100 8047 3.6 60 14:40 04.04.2021
693 Mist -1 1004 100 8047 3.6 60 14:20 04.04.2021
694 Snow -1 1004 100 4828 2.06 30 13:27 04.04.2021
695 Snow -1 1005 93 2213 2.55 131 12:52 04.04.2021
696 Snow -1 1005 93 3018 1.54 160 12:28 04.04.2021
697 Snow -1 1006 100 4023 3.09 180 11:50 04.04.2021
698 Snow -1 1006 100 3621 3.09 190 11:30 04.04.2021
699 Snow -2 1006 93 1609 1.95 150 10:49 04.04.2021
700 Snow -2 1007 100 3219 1.54 150 10:29 04.04.2021
701 Mist -2 1007 100 2816 1.54 110 09:48 04.04.2021
702 Snow -2 1007 100 2615 1.54 100 09:21 04.04.2021
703 Snow -2 1008 100 3219 2.57 70 08:45 04.04.2021
704 Snow -2 1008 100 3621 2.06 80 08:26 04.04.2021
705 Snow -2 1009 93 2012 2.06 80 06:40 04.04.2021
706 Mist -2 1009 93 1811 3.09 70 05:44 04.04.2021
707 Snow -2 1009 93 1811 3.09 70 05:44 04.04.2021
708 Snow -3 1010 93 1811 2.06 50 02:59 04.04.2021
709 Snow -4 1010 93 1811 1.54 50 00:55 04.04.2021
710 Mist -4 1010 86 2012 2.06 40 00:18 04.04.2021
711 Snow -5 1010 93 2012 1.54 60 23:41 03.04.2021
712 Snow -6 1010 93 2213 1.54 60 22:56 03.04.2021
713 Snow -5 1010 86 4426 1.54 50 22:38 03.04.2021
714 Snow -6 1010 86 3621 1.12 117 22:19 03.04.2021
715 Snow -6 1010 86 4426 2.06 60 21:46 03.04.2021
716 Snow -7 1010 93 4828 2.06 60 21:22 03.04.2021
717 Snow -8 1010 86 4023 2.57 50 20:43 03.04.2021
718 Snow -8 1010 86 3219 2.06 70 20:24 03.04.2021
719 Snow -9 1010 92 2012 3.09 60 19:46 03.04.2021
720 Mist -9 1010 92 2012 3.09 60 19:20 03.04.2021
721 Snow -10 1010 92 1811 2.06 60 18:46 03.04.2021
722 Snow -10 1010 92 1811 2.06 60 18:23 03.04.2021
723 Snow -10 1009 92 1609 1.54 50 17:50 03.04.2021
724 Snow -10 1009 92 1811 2.06 60 17:21 03.04.2021
725 Snow -10 1009 92 3219 1.54 70 16:45 03.04.2021
726 Snow -10 1009 92 4426 1.54 60 16:21 03.04.2021
727 Snow -10 1009 92 3621 1.06 62 15:46 03.04.2021
728 Snow -10 1009 92 3621 1.54 80 15:21 03.04.2021
729 Snow -10 1009 92 3621 1.1 64 14:43 03.04.2021
730 Snow -10 1009 92 4426 1.06 75 14:22 03.04.2021
731 Snow -10 1009 92 3219 1.06 75 13:49 03.04.2021
732 Snow -10 1009 92 4828 0.95 69 13:23 03.04.2021
733 Snow -10 1009 92 4023 0.95 69 12:52 03.04.2021
734 Snow -10 1008 92 4828 0.95 47 12:21 03.04.2021
735 Snow -10 1009 92 3621 0.95 47 11:39 03.04.2021
736 Snow -11 1008 92 3621 1.54 50 10:56 03.04.2021
737 Snow -11 1008 92 3621 1.54 50 10:36 03.04.2021
738 Snow -11 1008 92 3219 2.06 60 10:18 03.04.2021
739 Snow -11 1008 85 3621 2.06 60 09:28 03.04.2021
740 Snow -11 1008 85 4828 2.57 50 08:54 03.04.2021
741 Snow -11 1009 92 6437 2.06 50 08:28 03.04.2021
742 Snow -11 1009 85 8047 1.54 50 07:29 03.04.2021
743 Snow -11 1009 67 10000 2.57 60 06:39 03.04.2021
744 Snow -10 1012 57 10000 1.17 73 03:53 03.04.2021
745 Clouds -11 1013 52 10000 1.2 92 02:51 03.04.2021
746 Clouds -11 1013 52 10000 0.95 103 02:26 03.04.2021
747 Clouds -12 1015 56 10000 1.54 140 00:23 03.04.2021
748 Clear -14 1016 61 10000 1.02 102 23:49 02.04.2021
749 Clear -14 1016 61 10000 1.11 109 23:24 02.04.2021
750 Clouds -14 1017 61 10000 2.06 120 22:55 02.04.2021
751 Clouds -14 1017 61 10000 2.06 120 22:36 02.04.2021
752 Clouds -15 1017 66 10000 2.57 140 21:46 02.04.2021
753 Clouds -16 1017 72 10000 0.89 150 21:26 02.04.2021
754 Clouds -17 1017 71 10000 0.89 150 20:53 02.04.2021
755 Clouds -17 1018 71 10000 1.01 137 20:34 02.04.2021
756 Snow -18 1018 85 10000 2.57 100 19:59 02.04.2021
757 Snow -18 1018 85 6437 1.54 80 19:39 02.04.2021
758 Snow -18 1018 85 6437 1.54 80 19:21 02.04.2021
759 Snow -19 1019 84 6437 1.54 70 18:40 02.04.2021
760 Snow -19 1019 84 6437 1.54 70 18:20 02.04.2021
761 Snow -20 1019 84 4828 2.57 70 17:40 02.04.2021
762 Snow -20 1019 77 6437 2.57 70 16:53 02.04.2021
763 Snow -20 1019 77 6437 2.57 70 16:22 02.04.2021
764 Snow -20 1020 77 9656 2.06 50 15:42 02.04.2021
765 Snow -20 1020 84 9656 2.06 80 14:57 02.04.2021
766 Snow -20 1020 84 9656 2.06 80 14:33 02.04.2021
767 Clouds -21 1020 84 10000 1.44 204 13:44 02.04.2021
768 Snow -20 1020 77 10000 0.92 199 13:25 02.04.2021
769 Snow -20 1020 77 10000 0.92 199 12:41 02.04.2021
770 Clear -20 1020 84 10000 1.55 209 12:20 02.04.2021
771 Mist -19 1020 84 6437 1.55 209 11:56 02.04.2021
772 Mist -19 1020 84 6437 1.34 205 11:21 02.04.2021
773 Clouds -18 1019 84 10000 1.34 205 10:51 02.04.2021
774 Clouds -18 1019 84 10000 1.34 205 10:30 02.04.2021
775 Clouds -17 1019 85 10000 1.54 180 09:53 02.04.2021
776 Snow -17 1019 78 6437 2.06 210 09:27 02.04.2021
777 Snow -16 1019 72 8047 3.6 250 08:59 02.04.2021
778 Snow -16 1019 72 8047 3.6 250 08:34 02.04.2021
779 Haze -15 1018 72 8047 3.6 250 07:31 02.04.2021
780 Clouds -15 1018 72 10000 5.14 250 06:58 02.04.2021
781 Haze -14 1017 66 8047 5.66 240 05:59 02.04.2021
782 Haze -14 1017 66 8047 5.66 240 05:59 02.04.2021
783 Clouds -13 1016 61 10000 4.12 220 02:47 02.04.2021
784 Clouds -13 1016 66 10000 4.63 210 00:54 02.04.2021
785 Clouds -13 1016 66 10000 3.6 190 00:24 02.04.2021
786 Snow -13 1015 66 10000 4.12 200 23:41 01.04.2021
787 Snow -14 1015 66 10000 4.12 200 23:18 01.04.2021
788 Snow -14 1014 56 10000 3.6 230 22:21 01.04.2021
789 Snow -15 1014 72 9656 3.09 230 21:51 01.04.2021
790 Snow -15 1014 72 9656 3.09 230 21:29 01.04.2021
791 Snow -16 1014 78 9656 3.6 230 20:58 01.04.2021
792 Snow -16 1013 78 8047 4.12 220 20:28 01.04.2021
793 Snow -16 1013 78 8047 4.12 220 19:57 01.04.2021
794 Snow -17 1013 78 4828 4.12 220 19:37 01.04.2021
795 Snow -17 1012 85 4828 3.6 240 18:49 01.04.2021
796 Snow -17 1012 85 4828 3.6 240 18:19 01.04.2021
797 Snow -17 1011 85 6437 3.6 230 17:57 01.04.2021
798 Snow -17 1011 78 4828 4.12 230 17:38 01.04.2021
799 Snow -17 1011 78 4828 4.12 230 17:19 01.04.2021
800 Snow -16 1009 78 6437 5.14 230 16:41 01.04.2021
801 Snow -16 1009 85 3219 4.63 230 15:49 01.04.2021
802 Snow -15 1009 85 3219 4.63 230 15:21 01.04.2021
803 Snow -15 1008 85 10000 4.12 240 14:51 01.04.2021
804 Snow -15 1007 78 4828 5.66 230 14:29 01.04.2021
805 Snow -14 1007 78 4828 5.66 230 13:58 01.04.2021
806 Snow -14 1007 85 3219 6.17 230 13:32 01.04.2021
807 Snow -13 1007 85 3219 7.2 230 12:58 01.04.2021
808 Snow -13 1006 85 4828 6.17 230 12:37 01.04.2021
809 Snow -12 1006 85 4828 6.17 230 12:18 01.04.2021
810 Snow -12 1005 79 4828 6.17 240 11:42 01.04.2021
811 Snow -11 1005 85 9656 5.66 240 11:18 01.04.2021
812 Snow -11 1005 85 3219 6.69 240 10:45 01.04.2021
813 Snow -11 1005 85 3219 6.69 240 10:25 01.04.2021
814 Snow -11 1004 85 3219 6.17 240 09:32 01.04.2021
815 Snow -10 1004 86 3219 7.2 240 08:54 01.04.2021
816 Snow -10 1004 86 3219 7.2 240 08:54 01.04.2021
817 Snow -9 1003 79 4828 7.72 250 08:28 01.04.2021
818 Snow -9 1002 86 1609 7.2 240 07:22 01.04.2021
819 Snow -8 1002 86 10000 7.72 240 06:56 01.04.2021
820 Snow -6 1001 86 1609 7.2 250 05:34 01.04.2021
821 Mist -3 1000 93 1609 6.69 250 03:20 01.04.2021
822 Snow -1 1000 80 6437 4.63 230 00:19 01.04.2021
823 Snow -1 1001 80 10000 3.6 210 23:40 31.03.2021
824 Clouds -1 1001 80 10000 3.6 240 22:45 31.03.2021
825 Clouds -2 1001 80 10000 3.6 240 22:23 31.03.2021
826 Clouds -2 1001 74 10000 2.65 252 21:57 31.03.2021
827 Clouds -3 1001 74 10000 2.65 252 21:39 31.03.2021
828 Clouds -3 1001 74 10000 2.13 253 21:19 31.03.2021
829 Clouds -4 1001 74 10000 2.13 253 20:41 31.03.2021
830 Clouds -5 1001 79 10000 1.54 80 20:21 31.03.2021
831 Clouds -6 1001 79 10000 1.54 80 19:42 31.03.2021
832 Clouds -6 1001 79 10000 1.54 80 19:21 31.03.2021
833 Clouds -7 1001 86 10000 2.06 80 18:55 31.03.2021
834 Clouds -7 1001 86 10000 2.06 80 18:35 31.03.2021
835 Clouds -7 1001 93 10000 2.06 80 17:44 31.03.2021
836 Clouds -7 1001 93 10000 2.06 80 17:21 31.03.2021
837 Clouds -7 1001 92 10000 0.89 358 16:55 31.03.2021
838 Clouds -7 1001 92 10000 0.89 358 16:35 31.03.2021
839 Clouds -7 1001 93 10000 1.11 2 15:54 31.03.2021
840 Clouds -7 1001 93 10000 1.17 5 15:22 31.03.2021
841 Clouds -4 1001 74 10000 1.17 5 14:53 31.03.2021
842 Clouds -6 1001 93 10000 1.14 3 14:26 31.03.2021
843 Clouds -6 1001 93 10000 1.31 23 13:57 31.03.2021
844 Clouds -6 1001 93 10000 1.14 15 13:24 31.03.2021
845 Clouds -6 1001 93 10000 1.14 15 12:41 31.03.2021
846 Clouds -6 1001 93 10000 0.87 9 12:19 31.03.2021
847 Clouds -5 1001 86 10000 1.54 280 11:23 31.03.2021
848 Clouds -5 1001 86 10000 0.68 15 10:51 31.03.2021
849 Clouds -5 1001 86 10000 0.7 11 10:28 31.03.2021
850 Clouds -4 1001 80 10000 0.7 11 09:58 31.03.2021
851 Clouds -4 1001 80 10000 0.7 11 09:33 31.03.2021
852 Clouds -4 1001 80 10000 0.74 346 09:33 31.03.2021
853 Clouds -3 1001 69 10000 0.74 346 08:48 31.03.2021
854 Clouds -2 1001 69 10000 0.74 346 08:30 31.03.2021
855 Clouds -2 1001 69 10000 0.94 333 08:30 31.03.2021
856 Clouds -2 1001 69 10000 0.74 315 07:41 31.03.2021
857 Clouds -1 1002 69 10000 0.56 248 05:52 31.03.2021
858 Clouds 1 1003 55 10000 2.57 190 02:44 31.03.2021
859 Clouds 2 1005 60 10000 0.51 124 00:54 31.03.2021
860 Snow 1 1005 60 10000 0.7 174 00:26 31.03.2021
861 Snow 1 1006 64 10000 0.7 174 23:58 30.03.2021
862 Snow 1 1006 64 10000 1.58 181 23:27 30.03.2021
863 Snow -1 1006 64 10000 1.58 181 22:55 30.03.2021
864 Snow -1 1006 64 10000 1.58 181 22:37 30.03.2021
865 Snow -1 1006 64 10000 1.41 173 22:19 30.03.2021
866 Snow -1 1006 80 10000 1.41 173 21:38 30.03.2021
867 Snow -1 1006 80 10000 1.21 168 21:18 30.03.2021
868 Snow -1 1006 74 10000 1.21 168 20:45 30.03.2021
869 Clouds -2 1006 74 10000 0.93 168 20:26 30.03.2021
870 Clouds -3 1007 80 10000 0.93 168 19:43 30.03.2021
871 Clouds -4 1007 80 10000 0.86 117 19:18 30.03.2021
872 Clouds -4 1006 80 10000 1.54 340 18:33 30.03.2021
873 Clouds -4 1007 86 10000 1.54 10 17:49 30.03.2021
874 Clouds -4 1007 86 10000 1.54 10 17:49 30.03.2021
875 Clouds -4 1007 86 10000 1.54 10 17:31 30.03.2021
876 Clouds -4 1007 80 10000 2.06 50 16:47 30.03.2021
877 Clouds -4 1007 80 10000 2.06 50 16:28 30.03.2021
878 Clouds -4 1007 86 10000 3.09 130 15:39 30.03.2021
879 Clouds -4 1007 86 10000 3.09 130 15:19 30.03.2021
880 Clouds -3 1007 80 10000 1.54 30 14:46 30.03.2021
881 Clouds -3 1007 80 10000 1.54 30 14:21 30.03.2021
882 Clouds -3 1007 80 10000 1.54 320 13:51 30.03.2021
883 Clouds -3 1007 80 10000 1.54 320 13:30 30.03.2021
884 Clouds -4 1007 86 10000 2.57 60 12:42 30.03.2021
885 Clouds -3 1007 86 10000 2.57 60 12:23 30.03.2021
886 Clouds -3 1007 86 10000 1.18 113 11:48 30.03.2021
887 Clouds -4 1007 86 10000 0.17 191 11:20 30.03.2021
888 Clouds -4 1007 80 10000 0.17 191 10:43 30.03.2021
889 Clouds -4 1007 80 10000 0.17 191 10:43 30.03.2021
890 Clouds -3 1007 80 10000 0.77 53 10:19 30.03.2021
891 Clouds -3 1007 80 10000 1.54 20 09:43 30.03.2021
892 Clouds -3 1007 80 10000 1.54 20 09:43 30.03.2021
893 Clouds -3 1007 80 10000 1.54 20 09:24 30.03.2021
894 Clouds -2 1007 80 10000 0.92 85 08:51 30.03.2021
895 Clouds -1 1008 64 10000 0.92 85 08:31 30.03.2021
896 Clouds 0 1008 64 10000 0.81 22 07:45 30.03.2021
897 Clouds -1 1008 64 10000 1.23 64 07:21 30.03.2021
898 Clouds 0 1008 80 10000 2.57 70 05:25 30.03.2021
899 Snow 1 1009 69 10000 3.09 70 03:23 30.03.2021
900 Clouds -1 1010 80 10000 2.06 50 00:22 30.03.2021
901 Snow -2 1011 80 10000 3.6 50 23:28 29.03.2021
902 Clouds -3 1011 86 10000 2.06 90 22:43 29.03.2021
903 Clouds -3 1011 86 10000 2.06 80 21:59 29.03.2021
904 Clouds -4 1011 86 10000 2.06 80 21:37 29.03.2021
905 Snow -5 1011 93 10000 3.09 60 20:59 29.03.2021
906 Snow -5 1011 93 10000 3.09 60 20:37 29.03.2021
907 Snow -6 1011 93 6437 4.12 60 19:57 29.03.2021
908 Snow -6 1011 93 2414 3.6 60 19:34 29.03.2021
909 Snow -7 1011 93 2615 3.09 90 18:58 29.03.2021
910 Snow -7 1012 93 4426 3.6 60 18:39 29.03.2021
911 Snow -7 1012 93 3018 3.6 70 18:20 29.03.2021
912 Snow -8 1012 93 2012 2.06 90 17:39 29.03.2021
913 Snow -8 1012 93 3621 4.12 60 16:59 29.03.2021
914 Snow -8 1012 93 3018 4.12 60 16:35 29.03.2021
915 Mist -8 1012 93 3219 3.6 70 15:51 29.03.2021
916 Snow -8 1012 93 3219 4.12 70 15:31 29.03.2021
917 Snow -8 1012 86 2816 3.6 70 14:54 29.03.2021
918 Snow -8 1012 86 9656 4.12 60 14:33 29.03.2021
919 Snow -8 1013 86 9656 3.09 80 13:52 29.03.2021
920 Snow -8 1013 86 6437 4.63 60 13:26 29.03.2021
921 Snow -9 1013 86 8047 3.6 70 12:50 29.03.2021
922 Snow -9 1013 73 9656 3.6 70 11:53 29.03.2021
923 Snow -8 1013 73 9656 3.6 70 11:35 29.03.2021
924 Snow -8 1014 58 10000 3.09 80 10:59 29.03.2021
925 Snow -8 1014 58 10000 3.09 80 10:36 29.03.2021
926 Clouds -8 1015 49 10000 5.14 60 09:42 29.03.2021
927 Clouds -8 1016 57 10000 3.6 70 08:58 29.03.2021
928 Clouds -8 1016 57 10000 3.6 70 08:28 29.03.2021
929 Clouds -8 1017 53 10000 4.12 70 07:41 29.03.2021
930 Clouds -8 1018 53 10000 3.09 70 06:27 29.03.2021
931 Clouds -7 1022 42 10000 2.57 110 03:59 29.03.2021
932 Clear -8 1025 45 10000 2.25 95 01:54 29.03.2021
933 Clear -9 1026 48 10000 1.54 140 00:23 29.03.2021
934 Clear -10 1027 52 10000 3.09 90 23:44 28.03.2021
935 Clear -10 1027 52 10000 3.09 90 23:19 28.03.2021
936 Clear -11 1027 57 10000 2.06 120 22:41 28.03.2021
937 Clear -11 1027 57 10000 2.06 120 22:21 28.03.2021
938 Clear -12 1028 66 10000 2.57 70 21:41 28.03.2021
939 Clear -13 1028 66 10000 2.57 70 21:22 28.03.2021
940 Clouds -13 1028 66 10000 2.06 100 20:49 28.03.2021
941 Clouds -14 1028 66 10000 2.06 100 20:31 28.03.2021
942 Clouds -15 1029 72 10000 1.08 89 19:45 28.03.2021
943 Clouds -16 1029 72 10000 1.02 77 19:23 28.03.2021
944 Clouds -16 1028 78 10000 1.02 77 18:58 28.03.2021
945 Clouds -16 1028 78 10000 0.91 52 18:28 28.03.2021
946 Clouds -16 1027 72 10000 2.57 230 17:50 28.03.2021
947 Clouds -16 1027 72 10000 2.57 230 17:32 28.03.2021
948 Clouds -16 1027 78 10000 4.12 240 16:46 28.03.2021
949 Clouds -16 1027 78 10000 4.12 240 16:46 28.03.2021
950 Clouds -16 1027 78 10000 4.12 240 16:23 28.03.2021
951 Clouds -14 1026 72 10000 3.6 230 15:43 28.03.2021
952 Clouds -14 1026 72 10000 3.6 230 15:22 28.03.2021
953 Clouds -14 1025 72 10000 2.57 210 14:37 28.03.2021
954 Clear -13 1025 72 10000 2.57 250 13:49 28.03.2021
955 Clear -13 1025 72 10000 2.57 250 13:24 28.03.2021
956 Clear -13 1023 78 10000 4.63 250 12:52 28.03.2021
957 Clear -13 1023 78 10000 4.63 250 12:33 28.03.2021
958 Clouds -10 1023 62 10000 1.54 260 11:46 28.03.2021
959 Clouds -10 1023 62 10000 1.54 260 11:26 28.03.2021
960 Clouds -9 1021 62 10000 2.57 250 10:45 28.03.2021
961 Clouds -9 1021 62 10000 2.57 250 10:26 28.03.2021
962 Clouds -8 1020 62 10000 3.6 300 09:47 28.03.2021
963 Clouds -8 1020 62 10000 3.6 300 09:25 28.03.2021
964 Clouds -10 1019 78 10000 4.12 270 08:46 28.03.2021
965 Clouds -7 1019 68 10000 4.12 290 07:51 28.03.2021
966 Clouds -7 1019 68 10000 4.12 290 07:19 28.03.2021
967 Clouds -6 1015 68 10000 6.17 290 04:18 28.03.2021
968 Clouds -4 1014 74 10000 4.12 280 01:26 28.03.2021
969 Snow -4 1013 86 10000 2.57 310 00:21 28.03.2021
970 Snow -4 1013 93 2816 3.09 240 23:44 27.03.2021
971 Clouds -4 1012 74 10000 4.12 230 23:19 27.03.2021
972 Clouds -4 1011 74 10000 3.09 240 22:37 27.03.2021
973 Clouds -5 1011 79 10000 2.06 240 21:59 27.03.2021
974 Clouds -6 1011 79 10000 2.06 240 21:40 27.03.2021
975 Clouds -5 1011 79 10000 2.06 240 21:19 27.03.2021
976 Clouds -6 1010 79 10000 1.32 263 20:44 27.03.2021
977 Clouds -7 1010 79 10000 0.82 266 20:24 27.03.2021
978 Clouds -7 1009 79 10000 0.82 266 19:44 27.03.2021
979 Clouds -9 1010 85 10000 0.45 319 19:23 27.03.2021
980 Clouds -10 1010 92 10000 0.45 319 18:50 27.03.2021
981 Clouds -10 1010 92 10000 0.94 353 18:29 27.03.2021
982 Clouds -10 1009 85 10000 0.94 353 17:56 27.03.2021
983 Clouds -10 1009 85 10000 1.2 3 17:26 27.03.2021
984 Clouds -10 1009 85 10000 1.2 3 16:51 27.03.2021
985 Clouds -10 1009 85 10000 1.2 3 16:30 27.03.2021
986 Clouds -10 1009 85 10000 1.25 8 15:55 27.03.2021
987 Clouds -10 1009 85 10000 1.25 9 15:33 27.03.2021
988 Clouds -9 1009 79 10000 1.25 9 14:52 27.03.2021
989 Clouds -9 1009 86 10000 1.24 7 13:59 27.03.2021
990 Clouds -9 1009 86 10000 1.24 6 13:26 27.03.2021
991 Clouds -8 1010 79 10000 1.54 70 12:56 27.03.2021
992 Clouds -8 1010 79 10000 1.54 70 12:31 27.03.2021
993 Clouds -8 1010 79 10000 2.57 60 11:47 27.03.2021
994 Clouds -8 1010 79 10000 2.57 60 11:27 27.03.2021
995 Clouds -8 1011 79 10000 1.17 30 10:47 27.03.2021
996 Clouds -8 1011 79 10000 1.27 29 10:25 27.03.2021
997 Clouds -8 1011 79 10000 1.34 15 09:29 27.03.2021
998 Clouds -8 1011 79 10000 1.34 15 09:29 27.03.2021
999 Clouds -8 1011 86 10000 1.34 15 08:49 27.03.2021
1000 Clouds -8 1011 86 10000 1.34 15 08:31 27.03.2021
1001 Clouds -7 1011 68 10000 1.33 10 07:36 27.03.2021
1002 Clouds -6 1011 68 10000 1.1 7 06:52 27.03.2021
1003 Clouds -6 1011 68 10000 1.1 7 06:33 27.03.2021
1004 Clouds -4 1011 58 10000 1.54 330 04:40 27.03.2021
1005 Clouds -3 1012 74 10000 3.09 230 00:55 27.03.2021
1006 Clouds -4 1012 74 10000 3.09 230 00:31 27.03.2021
1007 Clouds -4 1012 80 10000 2.57 220 23:55 26.03.2021
1008 Snow -4 1013 74 10000 3.09 250 23:22 26.03.2021
1009 Snow -4 1013 86 10000 2.06 250 22:35 26.03.2021
1010 Clouds -5 1013 93 10000 2.06 230 21:40 26.03.2021
1011 Clouds -5 1013 93 10000 2.06 230 21:22 26.03.2021
1012 Clouds -6 1013 93 10000 2.06 240 20:44 26.03.2021
1013 Clouds -6 1013 93 10000 2.06 240 20:24 26.03.2021
1014 Clouds -6 1013 93 10000 2.06 210 19:49 26.03.2021
1015 Clouds -7 1013 93 10000 2.06 210 19:30 26.03.2021
1016 Snow -8 1013 93 8047 2.06 210 18:46 26.03.2021
1017 Snow -6 1013 93 8047 2.06 210 18:27 26.03.2021
1018 Snow -7 1013 92 6437 0.67 169 17:49 26.03.2021
1019 Snow -7 1013 92 6437 0.56 138 17:18 26.03.2021
1020 Snow -7 1013 92 8047 0.56 138 16:33 26.03.2021
1021 Clouds -7 1012 93 10000 0.19 147 15:58 26.03.2021
1022 Clouds -7 1012 93 10000 0.19 147 15:58 26.03.2021
1023 Clouds -7 1012 93 10000 0.18 312 15:24 26.03.2021
1024 Clouds -6 1012 93 10000 0.18 312 14:34 26.03.2021
1025 Clouds -7 1012 93 10000 3.09 210 13:43 26.03.2021
1026 Clouds -6 1012 93 10000 3.09 210 13:21 26.03.2021
1027 Clouds -5 1012 93 10000 4.12 210 12:34 26.03.2021
1028 Snow -6 1012 93 8047 2.57 240 11:40 26.03.2021
1029 Snow -6 1012 93 10000 0.77 24 11:19 26.03.2021
1030 Clouds -6 1011 93 10000 3.09 230 10:41 26.03.2021
1031 Clouds -5 1011 93 10000 3.09 240 09:58 26.03.2021
1032 Clouds -5 1011 93 10000 3.09 240 09:40 26.03.2021
1033 Clouds -5 1011 93 10000 3.09 240 09:40 26.03.2021
1034 Snow -4 1011 93 9656 2.57 220 08:46 26.03.2021
1035 Snow -4 1011 93 8047 2.06 230 08:25 26.03.2021
1036 Clouds -3 1010 74 10000 2.57 230 07:42 26.03.2021
1037 Clouds -4 1010 86 10000 3.6 210 07:21 26.03.2021
1038 Clouds -4 1010 86 10000 3.6 210 06:55 26.03.2021
1039 Clouds -4 1009 80 10000 4.63 260 05:31 26.03.2021
1040 Snow -2 1008 86 10000 4.63 230 03:19 26.03.2021
1041 Snow -2 1008 80 10000 1.29 219 00:33 26.03.2021
1042 Clouds -2 1008 86 10000 1.54 300 23:46 25.03.2021
1043 Clouds -3 1008 86 10000 1.54 300 23:21 25.03.2021
1044 Clouds -2 1008 93 10000 1.54 250 22:40 25.03.2021
1045 Snow -3 1008 93 10000 1.52 177 21:55 25.03.2021
1046 Snow -3 1008 93 10000 1.52 177 21:35 25.03.2021
1047 Snow -4 1008 93 10000 1.4 161 20:59 25.03.2021
1048 Snow -4 1008 80 10000 1.4 161 20:37 25.03.2021
1049 Snow -5 1008 80 10000 1.07 165 20:18 25.03.2021
1050 Snow -6 1008 86 10000 2.06 30 19:39 25.03.2021
1051 Snow -6 1008 86 10000 2.06 30 19:21 25.03.2021
1052 Snow -7 1009 100 10000 0.81 147 18:39 25.03.2021
1053 Snow -7 1008 93 10000 0.58 111 18:21 25.03.2021
1054 Snow -8 1009 85 10000 0.58 111 17:38 25.03.2021
1055 Snow -8 1009 92 10000 0.68 55 16:57 25.03.2021
1056 Clouds -8 1009 92 10000 0.68 55 16:34 25.03.2021
1057 Snow -7 1009 92 10000 0.75 65 15:49 25.03.2021
1058 Snow -9 1009 92 10000 0.77 65 15:26 25.03.2021
1059 Snow -8 1010 92 9656 0.77 65 14:50 25.03.2021
1060 Snow -8 1010 100 10000 0.77 65 14:30 25.03.2021
1061 Clouds -7 1011 100 10000 1.54 60 13:28 25.03.2021
1062 Clouds -7 1011 100 10000 1.54 60 12:46 25.03.2021
1063 Clouds -7 1011 100 10000 1.54 60 12:22 25.03.2021
1064 Clouds -7 1011 100 10000 1.54 90 11:58 25.03.2021
1065 Clouds -6 1011 100 10000 1.54 90 11:40 25.03.2021
1066 Clouds -7 1011 100 10000 1.54 90 11:21 25.03.2021
1067 Snow -6 1011 93 4828 2.57 70 10:48 25.03.2021
1068 Snow -6 1011 93 4828 2.57 70 10:21 25.03.2021
1069 Snow -5 1011 100 10000 2.06 70 09:50 25.03.2021
1070 Snow -6 1011 100 10000 2.06 70 09:31 25.03.2021
1071 Snow -6 1012 93 3219 1.54 50 08:37 25.03.2021
1072 Snow -6 1012 100 9656 2.06 60 07:50 25.03.2021
1073 Snow -6 1012 100 3219 1.54 70 06:57 25.03.2021
1074 Snow -5 1012 100 3219 2.06 90 06:24 25.03.2021
1075 Snow -5 1012 100 3219 2.06 60 05:21 25.03.2021
1076 Snow -4 1013 86 10000 3.09 150 02:28 25.03.2021
1077 Snow -6 1014 93 4023 1.89 164 00:20 25.03.2021
1078 Snow -6 1014 86 2414 1.89 164 23:48 24.03.2021
1079 Snow -6 1013 79 8047 1.64 165 23:23 24.03.2021
1080 Snow -7 1013 86 1609 1.64 165 22:41 24.03.2021
1081 Snow -7 1013 79 2414 1.61 163 22:19 24.03.2021
1082 Snow -8 1013 79 3219 1.61 163 21:41 24.03.2021
1083 Snow -9 1013 73 6437 1.6 147 21:20 24.03.2021
1084 Snow -9 1013 79 8047 1.6 147 20:41 24.03.2021
1085 Mist -10 1013 79 2414 1.12 127 20:19 24.03.2021
1086 Snow -11 1013 92 6437 1.04 125 19:34 24.03.2021
1087 Snow -11 1013 92 6437 1.04 125 19:34 24.03.2021
1088 Snow -12 1013 85 2414 0.74 89 18:57 24.03.2021
1089 Snow -12 1013 85 2414 0.74 89 18:39 24.03.2021
1090 Snow -12 1014 92 4426 1.04 79 18:19 24.03.2021
1091 Snow -12 1014 92 4426 1.04 79 18:19 24.03.2021
1092 Snow -13 1013 92 2414 1.04 79 17:40 24.03.2021
1093 Snow -13 1013 92 3621 1.11 80 17:22 24.03.2021
1094 Snow -13 1013 85 3621 2.06 50 16:41 24.03.2021
1095 Mist -13 1013 85 4828 2.57 70 16:22 24.03.2021
1096 Snow -13 1013 85 8047 2.06 60 15:43 24.03.2021
1097 Mist -13 1013 85 8047 2.06 60 15:23 24.03.2021
1098 Snow -13 1014 85 10000 2.06 90 14:42 24.03.2021
1099 Snow -13 1014 85 10000 2.57 70 14:23 24.03.2021
1100 Snow -13 1014 78 10000 1.04 111 13:50 24.03.2021
1101 Snow -13 1014 78 10000 0.9 123 13:25 24.03.2021
1102 Clouds -13 1014 72 10000 2.06 90 12:41 24.03.2021
1103 Clouds -13 1014 72 10000 2.06 90 12:21 24.03.2021
1104 Clouds -13 1014 79 10000 0.76 115 11:42 24.03.2021
1105 Clouds -12 1015 79 10000 0.83 138 10:53 24.03.2021
1106 Clouds -12 1015 79 10000 0.83 138 10:35 24.03.2021
1107 Clouds -12 1015 79 10000 0.78 161 09:58 24.03.2021
1108 Clouds -12 1015 79 10000 0.78 161 09:37 24.03.2021
1109 Clouds -12 1015 79 10000 0.59 164 09:18 24.03.2021
1110 Clouds -12 1015 79 10000 0.59 164 08:46 24.03.2021
1111 Clouds -12 1015 79 10000 0.53 122 08:24 24.03.2021
1112 Clouds -11 1016 73 10000 0.64 112 07:25 24.03.2021
1113 Clouds -10 1016 73 10000 0.64 112 06:49 24.03.2021
1114 Clouds -8 1017 57 10000 4.63 220 03:19 24.03.2021
1115 Clouds -8 1018 73 10000 2.57 180 00:44 24.03.2021
1116 Clouds -8 1018 62 10000 3.6 200 23:53 23.03.2021
1117 Clouds -9 1018 62 10000 3.6 200 23:20 23.03.2021
1118 Snow -9 1018 67 10000 2.57 180 22:51 23.03.2021
1119 Snow -10 1019 79 10000 2.57 220 22:27 23.03.2021
1120 Clouds -9 1018 79 10000 2.06 250 21:47 23.03.2021
1121 Clouds -10 1018 79 10000 2.06 250 21:29 23.03.2021
1122 Snow -10 1018 85 3219 2.33 237 20:47 23.03.2021
1123 Snow -10 1018 85 6437 2.06 250 20:26 23.03.2021
1124 Snow -11 1018 85 8047 1.72 239 19:55 23.03.2021
1125 Snow -12 1018 85 8047 1.35 249 19:26 23.03.2021
1126 Snow -12 1018 85 8047 0.93 239 18:59 23.03.2021
1127 Snow -12 1018 92 4828 0.93 239 18:37 23.03.2021
1128 Snow -12 1018 85 3219 0.53 246 18:18 23.03.2021
1129 Snow -12 1018 92 4023 0.53 246 17:42 23.03.2021
1130 Snow -13 1018 92 4023 0.51 228 17:20 23.03.2021
1131 Snow -13 1018 85 8047 0.53 253 16:25 23.03.2021
1132 Snow -12 1017 85 6437 0.53 253 15:48 23.03.2021
1133 Snow -12 1017 85 8047 1.12 256 15:22 23.03.2021
1134 Snow -12 1016 67 10000 1.12 256 14:45 23.03.2021
1135 Snow -11 1016 67 10000 1.06 243 14:19 23.03.2021
1136 Clouds -11 1016 67 10000 2.06 330 13:47 23.03.2021
1137 Clouds -11 1016 62 10000 1.54 180 13:24 23.03.2021
1138 Clouds -11 1016 62 10000 1.54 180 12:44 23.03.2021
1139 Clouds -11 1016 62 10000 1.54 180 12:24 23.03.2021
1140 Clouds -10 1015 52 10000 2.06 110 11:48 23.03.2021
1141 Clouds -10 1015 52 10000 2.06 110 11:18 23.03.2021
1142 Clouds -9 1015 48 10000 0.24 263 10:42 23.03.2021
1143 Clouds -8 1015 48 10000 0.53 7 10:20 23.03.2021
1144 Clouds -12 1015 67 10000 0.53 7 09:49 23.03.2021
1145 Clouds -12 1015 67 10000 0.95 5 09:22 23.03.2021
1146 Clouds -10 1014 62 10000 0.95 5 08:54 23.03.2021
1147 Clouds -10 1014 62 10000 0.95 5 08:36 23.03.2021
1148 Clouds -10 1014 62 10000 1.14 351 08:18 23.03.2021
1149 Clear -8 1014 42 10000 0.98 335 07:26 23.03.2021
1150 Clear -8 1014 42 10000 1.08 334 06:52 23.03.2021
1151 Clear -4 1013 36 10000 3.09 230 03:24 23.03.2021
1152 Clear -4 1013 30 10000 1.54 160 02:29 23.03.2021
1153 Clear -5 1015 33 10000 3.09 50 23:47 22.03.2021
1154 Clear -8 1016 35 10000 3.6 50 22:59 22.03.2021
1155 Clear -7 1016 35 10000 3.6 50 22:40 22.03.2021
1156 Clear -8 1016 35 10000 3.6 50 22:20 22.03.2021
1157 Clear -11 1016 41 10000 5.14 50 21:46 22.03.2021
1158 Clear -11 1016 41 10000 5.14 50 21:26 22.03.2021
1159 Clear -15 1016 44 10000 4.12 70 20:42 22.03.2021
1160 Clear -15 1016 44 10000 4.12 70 20:24 22.03.2021
1161 Clouds -21 1016 77 10000 0.7 75 19:58 22.03.2021
1162 Clear -18 1016 65 10000 3.6 80 19:38 22.03.2021
1163 Clear -18 1016 65 10000 3.6 80 19:19 22.03.2021
1164 Clear -19 1016 65 10000 3.6 80 18:40 22.03.2021
1165 Clear -20 1016 65 10000 3.6 80 18:22 22.03.2021
1166 Clear -21 1017 65 10000 0.51 0 17:49 22.03.2021
1167 Clear -24 1016 65 10000 1.2 42 17:22 22.03.2021
1168 Clear -24 1016 65 10000 1.2 42 16:49 22.03.2021
1169 Clear -24 1016 65 10000 1.2 42 16:48 22.03.2021
1170 Clear -24 1016 65 10000 1.8 50 16:22 22.03.2021
1171 Clear -23 1016 65 10000 0.51 40 15:42 22.03.2021
1172 Clear -20 1016 65 10000 0.51 40 15:22 22.03.2021
1173 Clear -20 1016 66 10000 0.51 0 14:57 22.03.2021
1174 Clear -20 1016 66 10000 0.51 0 14:34 22.03.2021
1175 Clear -20 1016 71 10000 2.18 47 13:50 22.03.2021
1176 Clear -18 1016 56 10000 1.03 90 13:29 22.03.2021
1177 Clear -18 1016 56 10000 1.03 90 12:57 22.03.2021
1178 Clear -18 1016 56 10000 1.03 90 12:26 22.03.2021
1179 Clear -20 1016 56 10000 1.03 90 11:51 22.03.2021
1180 Clear -20 1016 56 10000 1.03 90 11:51 22.03.2021
1181 Clear -17 1016 56 10000 1.03 90 11:29 22.03.2021
1182 Clear -16 1016 52 10000 1.03 290 10:46 22.03.2021
1183 Clear -16 1016 52 10000 1.03 290 10:26 22.03.2021
1184 Clear -19 1015 70 10000 2.31 42 09:56 22.03.2021
1185 Clear -23 1015 70 10000 2.31 42 09:34 22.03.2021
1186 Clear -18 1015 71 10000 2.57 50 08:55 22.03.2021
1187 Clear -20 1015 71 10000 2.57 50 08:37 22.03.2021
1188 Clear -18 1015 71 10000 2.57 50 08:19 22.03.2021
1189 Clear -15 1014 60 10000 2.57 40 07:41 22.03.2021
1190 Clear -14 1014 52 10000 2.11 29 06:52 22.03.2021
1191 Clear -7 1013 38 10000 1.54 180 03:24 22.03.2021
1192 Clear -7 1013 38 10000 1.26 93 00:53 22.03.2021
1193 Clear -8 1013 38 10000 1.32 83 00:20 22.03.2021
1194 Clear -8 1013 35 10000 1.32 83 23:47 21.03.2021
1195 Clear -8 1013 35 10000 1.33 77 23:18 21.03.2021
1196 Clear -9 1013 38 10000 1.33 77 22:53 21.03.2021
1197 Clear -9 1013 38 10000 1.33 77 22:53 21.03.2021
1198 Clear -11 1012 47 10000 1.38 69 21:43 21.03.2021
1199 Clear -13 1012 47 10000 1.34 63 21:25 21.03.2021
1200 Clear -15 1012 51 10000 1.34 63 20:57 21.03.2021
1201 Clear -16 1012 51 10000 1.34 63 20:39 21.03.2021
1202 Clear -16 1012 51 10000 1.34 60 20:21 21.03.2021
1203 Clear -19 1012 55 10000 2.06 50 19:46 21.03.2021
1204 Clear -19 1012 55 10000 2.06 50 19:20 21.03.2021
1205 Clear -21 1011 59 10000 3.09 40 18:44 21.03.2021
1206 Clear -23 1011 59 10000 3.09 40 18:25 21.03.2021
1207 Clear -24 1011 65 10000 3.6 30 17:43 21.03.2021
1208 Clear -24 1011 65 10000 3.6 30 17:19 21.03.2021
1209 Clear -22 1011 60 10000 3.09 40 16:51 21.03.2021
1210 Clear -22 1011 60 10000 3.09 40 16:26 21.03.2021
1211 Clear -19 1011 60 10000 3.6 40 15:48 21.03.2021
1212 Clear -19 1011 60 10000 3.6 40 15:22 21.03.2021
1213 Clear -19 1011 60 10000 2.57 50 14:56 21.03.2021
1214 Clear -19 1011 60 10000 2.57 50 14:38 21.03.2021
1215 Clear -19 1011 60 10000 2.57 50 14:19 21.03.2021
1216 Clear -18 1011 60 10000 3.6 50 13:51 21.03.2021
1217 Clear -17 1010 60 10000 3.6 60 12:46 21.03.2021
1218 Clear -17 1010 60 10000 3.6 60 12:25 21.03.2021
1219 Clear -18 1010 65 10000 3.09 60 11:47 21.03.2021
1220 Clear -18 1010 65 10000 3.09 60 11:27 21.03.2021
1221 Clear -20 1010 65 10000 3.09 40 10:53 21.03.2021
1222 Clear -20 1010 65 10000 3.09 40 10:32 21.03.2021
1223 Clear -19 1010 65 10000 2.06 40 09:56 21.03.2021
1224 Clear -19 1010 65 10000 2.06 40 09:37 21.03.2021
1225 Clear -19 1010 65 10000 2.06 40 09:19 21.03.2021
1226 Clear -16 1009 55 10000 3.09 50 08:38 21.03.2021
1227 Clear -16 1009 55 10000 3.09 50 08:19 21.03.2021
1228 Clear -15 1009 65 10000 1.54 80 07:30 21.03.2021
1229 Clear -13 1008 51 10000 2.57 10 06:21 21.03.2021
1230 Clear -8 1007 41 10000 5.14 40 04:58 21.03.2021
1231 Clear -7 1008 35 10000 3.6 80 00:59 21.03.2021
1232 Clear -7 1008 35 10000 3.6 80 00:39 21.03.2021
1233 Clear -7 1008 35 10000 3.6 80 00:20 21.03.2021
1234 Clear -8 1009 35 10000 4.63 60 23:46 20.03.2021
1235 Clear -9 1009 35 10000 4.63 60 23:20 20.03.2021
1236 Clear -9 1009 38 10000 4.63 70 22:47 20.03.2021
1237 Clear -10 1009 38 10000 4.63 70 22:18 20.03.2021
1238 Clear -10 1012 53 10000 2.54 66 21:44 20.03.2021
1239 Clear -12 1010 51 10000 2.06 40 21:24 20.03.2021
1240 Clear -15 1010 65 10000 4.12 30 20:42 20.03.2021
1241 Clear -17 1010 65 10000 4.12 30 20:22 20.03.2021
1242 Clear -17 1011 64 10000 4.12 40 19:47 20.03.2021
1243 Clear -19 1011 64 10000 4.12 40 19:26 20.03.2021
1244 Clear -21 1011 69 10000 3.09 40 18:48 20.03.2021
1245 Clear -30 1011 69 10000 3.09 40 18:25 20.03.2021
1246 Clear -31 1012 76 10000 2.57 10 17:53 20.03.2021
1247 Clear -31 1012 76 10000 2.57 10 17:29 20.03.2021
1248 Clear -28 1012 69 10000 2.06 30 16:45 20.03.2021
1249 Clear -30 1012 69 10000 2.06 30 16:21 20.03.2021
1250 Clear -29 1012 69 10000 3.09 40 15:57 20.03.2021
1251 Clear -29 1012 69 10000 3.09 40 15:39 20.03.2021
1252 Clear -26 1013 76 10000 2.57 40 14:46 20.03.2021
1253 Clear -26 1013 76 10000 2.57 40 14:28 20.03.2021
1254 Clear -23 1013 70 10000 4.12 40 13:40 20.03.2021
1255 Clear -25 1013 70 10000 2.57 20 12:52 20.03.2021
1256 Clear -25 1013 70 10000 2.57 20 12:26 20.03.2021
1257 Clear -25 1013 77 10000 1.54 350 11:47 20.03.2021
1258 Clear -25 1013 77 10000 1.54 350 11:29 20.03.2021
1259 Clear -24 1014 70 10000 3.09 30 10:55 20.03.2021
1260 Clear -24 1014 70 10000 3.09 30 10:32 20.03.2021
1261 Clear -23 1014 77 10000 1.54 60 09:58 20.03.2021
1262 Clear -22 1014 84 10000 2.31 42 09:27 20.03.2021
1263 Clear -21 1014 84 10000 2.31 42 08:57 20.03.2021
1264 Clear -21 1014 84 10000 2.31 42 08:37 20.03.2021
1265 Clear -20 1014 77 10000 2.27 35 07:53 20.03.2021
1266 Clear -19 1014 77 10000 2.27 35 07:32 20.03.2021
1267 Clear -18 1015 84 10000 1.87 26 06:54 20.03.2021
1268 Clear -18 1015 84 10000 1.19 22 06:19 20.03.2021
1269 Clouds -12 1015 56 10000 0.15 179 04:00 20.03.2021
1270 Clouds -12 1015 56 10000 0.15 179 03:41 20.03.2021
1271 Clear -12 1016 72 10000 2.57 240 00:18 20.03.2021
1272 Clear -12 1016 72 10000 2.06 230 23:31 19.03.2021
1273 Snow -13 1016 78 10000 0.51 77 22:50 19.03.2021
1274 Snow -13 1016 78 10000 0.6 64 22:29 19.03.2021
1275 Clouds -14 1016 78 10000 0.6 64 21:58 19.03.2021
1276 Clouds -14 1016 78 10000 0.69 63 21:22 19.03.2021
1277 Snow -15 1016 78 10000 0.69 63 20:59 19.03.2021
1278 Snow -15 1016 78 10000 0.69 63 20:40 19.03.2021
1279 Snow -16 1016 78 10000 0.81 54 20:22 19.03.2021
1280 Clouds -16 1015 68 3558 0.45 219 19:46 19.03.2021
1281 Mist -17 1016 78 6437 0.87 38 19:20 19.03.2021
1282 Snow -18 1016 78 8047 0.81 40 18:41 19.03.2021
1283 Snow -18 1016 78 8047 0.98 37 18:20 19.03.2021
1284 Snow -19 1016 84 8047 0.98 37 17:55 19.03.2021
1285 Snow -19 1016 84 8047 0.98 37 17:31 19.03.2021
1286 Snow -19 1016 84 8047 0.89 40 16:55 19.03.2021
1287 Mist -18 1015 78 8047 0.89 40 16:31 19.03.2021
1288 Snow -18 1015 78 8047 0.89 40 16:31 19.03.2021
1289 Snow -18 1015 78 4828 0.78 45 15:56 19.03.2021
1290 Mist -18 1015 78 4828 0.58 46 15:27 19.03.2021
1291 Snow -17 1015 78 4828 1.54 20 14:47 19.03.2021
1292 Snow -18 1015 78 4828 1.54 20 14:28 19.03.2021
1293 Snow -18 1015 78 6437 2.57 60 13:42 19.03.2021
1294 Snow -18 1015 78 6437 2.57 60 13:42 19.03.2021
1295 Snow -18 1015 78 6437 2.57 60 13:18 19.03.2021
1296 Snow -18 1014 78 10000 1.54 30 12:38 19.03.2021
1297 Snow -17 1014 78 4828 0.51 334 11:49 19.03.2021
1298 Snow -17 1013 71 4828 0.72 312 10:57 19.03.2021
1299 Snow -17 1013 71 4828 0.72 312 10:39 19.03.2021
1300 Snow -16 1013 85 3219 0.91 294 10:18 19.03.2021
1301 Snow -16 1013 85 3219 0.91 294 09:41 19.03.2021
1302 Mist -16 1013 85 6437 1.14 282 09:22 19.03.2021
1303 Snow -15 1012 78 10000 1.14 282 08:41 19.03.2021
1304 Snow -15 1012 78 10000 1.31 278 08:22 19.03.2021
1305 Clouds -15 1012 78 10000 1.54 220 07:42 19.03.2021
1306 Clouds -15 1012 72 10000 1.48 276 06:56 19.03.2021
1307 Clouds -14 1011 66 10000 3.09 280 05:19 19.03.2021
1308 Clouds -11 1009 61 10000 1.54 170 00:58 19.03.2021
1309 Clouds -12 1008 66 10000 1.79 265 23:50 18.03.2021
1310 Clouds -12 1008 66 10000 1.64 266 23:26 18.03.2021
1311 Snow -13 1008 66 10000 2.06 210 22:44 18.03.2021
1312 Snow -13 1008 66 10000 2.06 210 22:25 18.03.2021
1313 Snow -14 1008 78 10000 1.51 265 21:40 18.03.2021
1314 Snow -14 1008 78 10000 1.4 270 21:20 18.03.2021
1315 Snow -15 1007 78 8047 1.54 170 20:39 18.03.2021
1316 Haze -16 1007 78 9656 1.29 280 20:20 18.03.2021
1317 Snow -16 1007 78 3219 1.29 280 19:42 18.03.2021
1318 Snow -17 1007 78 3219 1.01 293 19:22 18.03.2021
1319 Snow -18 1006 77 10000 1.01 293 18:39 18.03.2021
1320 Snow -18 1005 77 10000 0.38 292 17:54 18.03.2021
1321 Clouds -18 1005 77 10000 0.32 260 17:26 18.03.2021
1322 Clouds -17 1004 71 10000 0.32 260 16:52 18.03.2021
1323 Clouds -17 1004 71 10000 0.32 260 16:32 18.03.2021
1324 Clouds -17 1004 71 10000 0.93 280 15:56 18.03.2021
1325 Clouds -18 1004 71 10000 0.93 280 15:37 18.03.2021
1326 Clouds -17 1004 71 10000 0.96 329 15:18 18.03.2021
1327 Clouds -17 1003 71 10000 0.96 329 14:41 18.03.2021
1328 Clouds -17 1003 71 10000 1.21 355 14:18 18.03.2021
1329 Clouds -16 1002 66 10000 1.21 355 13:37 18.03.2021
1330 Clouds -16 1002 66 10000 1.28 355 13:19 18.03.2021
1331 Snow -16 1002 61 10000 3.09 30 12:37 18.03.2021
1332 Snow -15 1002 61 10000 3.09 30 12:18 18.03.2021
1333 Snow -14 1001 56 10000 3.09 360 11:44 18.03.2021
1334 Snow -14 1001 56 10000 3.09 360 11:20 18.03.2021
1335 Snow -13 1001 56 10000 3.6 360 10:41 18.03.2021
1336 Snow -13 1001 56 10000 3.6 360 10:23 18.03.2021
1337 Clouds -14 1001 78 10000 1.87 8 09:45 18.03.2021
1338 Clouds -14 1001 78 10000 1.92 7 09:26 18.03.2021
1339 Clouds -13 1000 56 10000 3.6 350 08:45 18.03.2021
1340 Clouds -13 1000 56 10000 3.6 350 08:23 18.03.2021
1341 Clouds -13 1000 56 10000 3.09 360 07:45 18.03.2021
1342 Clouds -13 1000 56 10000 3.6 360 06:44 18.03.2021
1343 Clouds -13 1000 56 10000 3.6 360 06:25 18.03.2021
1344 Clear -12 1001 61 10000 1.5 8 05:26 18.03.2021
1345 Clear -9 1004 62 10000 2.57 60 00:44 18.03.2021
1346 Clouds -10 1006 61 10000 2.57 100 23:25 17.03.2021
1347 Clouds -11 1006 61 10000 2.57 100 22:39 17.03.2021
1348 Clouds -11 1006 61 10000 2.57 100 22:21 17.03.2021
1349 Clouds -12 1006 78 10000 1.01 79 21:51 17.03.2021
1350 Clouds -13 1006 78 10000 1.01 79 21:31 17.03.2021
1351 Clouds -14 1007 78 10000 1 80 20:49 17.03.2021
1352 Clouds -14 1007 78 10000 1.03 86 20:28 17.03.2021
1353 Clouds -15 1008 78 10000 2.06 40 19:59 17.03.2021
1354 Clouds -17 1008 78 10000 2.06 40 19:40 17.03.2021
1355 Snow -18 1009 77 6437 0.96 81 19:19 17.03.2021
1356 Snow -18 1009 77 6437 0.96 81 18:50 17.03.2021
1357 Snow -18 1009 77 6437 0.91 75 18:32 17.03.2021
1358 Snow -20 1009 77 10000 0.96 72 17:42 17.03.2021
1359 Clouds -21 1009 84 10000 1 77 17:22 17.03.2021
1360 Clouds -21 1010 84 10000 1 77 16:43 17.03.2021
1361 Clouds -21 1010 84 10000 1 74 16:20 17.03.2021
1362 Snow -21 1011 77 10000 1 74 15:46 17.03.2021
1363 Clouds -20 1011 84 10000 1.11 65 15:28 17.03.2021
1364 Clouds -20 1011 84 10000 1.54 120 14:40 17.03.2021
1365 Clouds -20 1011 84 10000 1.54 120 14:20 17.03.2021
1366 Snow -19 1011 84 10000 1.54 40 13:55 17.03.2021
1367 Clouds -19 1012 77 10000 1.54 70 13:25 17.03.2021
1368 Clouds -18 1012 77 10000 1.54 70 12:48 17.03.2021
1369 Clouds -18 1012 77 10000 1.54 70 12:27 17.03.2021
1370 Clouds -18 1012 78 10000 2.57 90 11:41 17.03.2021
1371 Clouds -18 1012 78 10000 2.57 90 11:21 17.03.2021
1372 Snow -17 1013 78 8047 3.09 80 10:52 17.03.2021
1373 Snow -17 1013 78 8047 3.09 80 10:24 17.03.2021
1374 Snow -17 1013 85 10000 3.09 70 09:46 17.03.2021
1375 Clouds -18 1013 85 10000 3.09 70 09:20 17.03.2021
1376 Clouds -18 1013 77 10000 0.31 72 08:53 17.03.2021
1377 Clouds -19 1013 77 10000 0.31 72 08:33 17.03.2021
1378 Clouds -17 1015 75 4590 0.89 178 07:46 17.03.2021
1379 Clear -18 1013 84 10000 0.12 303 06:59 17.03.2021
1380 Clouds -16 1013 71 10000 0.46 237 06:29 17.03.2021
1381 Clouds -13 1012 66 10000 2.57 200 04:19 17.03.2021
1382 Clouds -12 1012 72 10000 2.57 220 02:44 17.03.2021
1383 Clouds -12 1012 78 10000 1.54 200 00:39 17.03.2021
1384 Snow -13 1012 72 10000 2.06 190 23:27 16.03.2021
1385 Mist -13 1011 78 9656 1.2 217 22:47 16.03.2021
1386 Snow -14 1011 78 6437 1.1 212 22:28 16.03.2021
1387 Snow -14 1011 78 4828 1.1 212 21:45 16.03.2021
1388 Clouds -14 1011 78 10000 1 204 21:27 16.03.2021
1389 Clouds -15 1010 78 10000 1 204 20:58 16.03.2021
1390 Snow -16 1010 85 10000 1.54 90 20:20 16.03.2021
1391 Snow -16 1009 78 6437 0.74 182 19:54 16.03.2021
1392 Snow -16 1009 78 6437 0.74 182 19:36 16.03.2021
1393 Snow -17 1009 85 6437 0.1 120 18:59 16.03.2021
1394 Snow -17 1009 85 4828 0.1 120 18:40 16.03.2021
1395 Snow -18 1009 85 8047 0.11 301 18:20 16.03.2021
1396 Snow -17 1009 85 6437 0.11 301 17:45 16.03.2021
1397 Snow -18 1008 85 10000 0.19 274 17:24 16.03.2021
1398 Snow -18 1008 85 6437 0.19 274 16:50 16.03.2021
1399 Mist -18 1008 85 6437 0.27 262 16:26 16.03.2021
1400 Snow -18 1007 85 8047 0.27 262 15:46 16.03.2021
1401 Snow -17 1007 85 8047 0.58 269 15:21 16.03.2021
1402 Snow -17 1007 78 8047 0.58 269 14:57 16.03.2021
1403 Snow -17 1007 78 8047 0.58 269 14:39 16.03.2021
1404 Snow -17 1007 85 6437 1.54 70 14:19 16.03.2021
1405 Mist -17 1006 78 9656 1.54 60 13:46 16.03.2021
1406 Snow -17 1006 78 9656 1.54 60 13:25 16.03.2021
1407 Snow -16 1006 85 10000 1.54 60 12:50 16.03.2021
1408 Snow -16 1006 85 10000 1.54 60 12:31 16.03.2021
1409 Snow -16 1005 85 9656 0.79 266 11:43 16.03.2021
1410 Snow -16 1005 85 9656 0.83 266 11:22 16.03.2021
1411 Snow -16 1005 85 9656 0.87 258 10:28 16.03.2021
1412 Clouds -15 1004 78 10000 0.87 258 09:57 16.03.2021
1413 Clouds -15 1004 78 10000 0.87 258 09:37 16.03.2021
1414 Clouds -15 1004 78 10000 0.98 246 09:18 16.03.2021
1415 Clouds -15 1004 78 10000 0.98 246 08:45 16.03.2021
1416 Clouds -15 1004 78 10000 0.99 237 08:26 16.03.2021
1417 Clouds -15 1004 78 10000 0.99 237 07:36 16.03.2021
1418 Clouds -14 1004 72 10000 1.54 250 06:40 16.03.2021
1419 Clouds -14 1003 78 10000 1.07 244 05:59 16.03.2021
1420 Clouds -14 1003 78 10000 1.07 244 05:34 16.03.2021
1421 Clouds -10 1003 62 10000 1.09 227 02:45 16.03.2021
1422 Clouds -10 1002 57 10000 1.54 210 02:24 16.03.2021
1423 Snow -11 1003 61 10000 0.58 244 23:59 15.03.2021
1424 Snow -11 1003 61 10000 0.35 260 23:29 15.03.2021
1425 Clouds -12 1003 56 10000 1.54 170 22:53 15.03.2021
1426 Clouds -12 1003 56 10000 1.54 170 22:34 15.03.2021
1427 Clouds -13 1003 66 10000 0.16 261 21:55 15.03.2021
1428 Clouds -13 1003 66 10000 0.16 261 21:36 15.03.2021
1429 Clouds -14 1003 66 10000 0.16 322 21:18 15.03.2021
1430 Clouds -16 1004 71 10000 0.16 322 20:43 15.03.2021
1431 Clouds -14 1002 59 3370 0.45 152 20:43 15.03.2021
1432 Clouds -17 1004 71 10000 0.45 4 20:24 15.03.2021
1433 Clouds -17 1004 71 10000 0.45 4 19:53 15.03.2021
1434 Clouds -17 1004 71 10000 0.21 16 19:34 15.03.2021
1435 Clouds -18 1004 78 10000 0.53 15 18:57 15.03.2021
1436 Clouds -19 1004 78 10000 0.53 15 18:33 15.03.2021
1437 Clouds -19 1004 71 10000 1.54 90 17:56 15.03.2021
1438 Clouds -19 1004 71 10000 1.54 90 17:38 15.03.2021
1439 Snow -19 1004 71 10000 1.54 60 17:19 15.03.2021
1440 Snow -19 1004 71 10000 1.54 50 16:41 15.03.2021
1441 Clouds -20 1005 71 10000 0.66 46 15:48 15.03.2021
1442 Clouds -20 1004 71 10000 2.57 70 15:27 15.03.2021
1443 Clouds -20 1004 71 10000 2.57 70 14:46 15.03.2021
1444 Clouds -20 1004 77 10000 2.06 70 14:28 15.03.2021
1445 Clouds -21 1005 77 10000 0.7 62 13:58 15.03.2021
1446 Clouds -22 1005 77 10000 0.7 62 13:35 15.03.2021
1447 Clouds -23 1005 76 10000 0.66 87 12:51 15.03.2021
1448 Clouds -25 1005 76 10000 0.66 111 12:20 15.03.2021
1449 Clouds -24 1005 76 10000 0.66 111 11:59 15.03.2021
1450 Clouds -25 1005 76 10000 0.66 111 11:40 15.03.2021
1451 Clouds -25 1005 76 10000 0.6 123 11:21 15.03.2021
1452 Clear -25 1005 84 10000 0.6 123 10:39 15.03.2021
1453 Clear -25 1005 84 10000 0.39 122 10:21 15.03.2021
1454 Clear -25 1005 84 10000 0.39 122 09:40 15.03.2021
1455 Clear -25 1005 84 10000 0.16 331 09:20 15.03.2021
1456 Clear -23 1004 84 10000 0.16 331 08:42 15.03.2021
1457 Clear -23 1004 84 10000 0.61 341 08:21 15.03.2021
1458 Clear -21 1004 77 10000 0.61 341 07:33 15.03.2021
1459 Clear -19 1004 77 10000 1.22 338 06:52 15.03.2021
1460 Clear -15 1004 65 10000 1.36 316 05:36 15.03.2021
1461 Clouds -8 1003 35 10000 2.57 200 03:20 15.03.2021
1462 Clear -10 1005 56 10000 2.06 260 00:27 15.03.2021
1463 Clear -11 1006 52 10000 2.06 220 23:24 14.03.2021
1464 Clear -10 1007 44 10000 1.09 72 22:49 14.03.2021
1465 Clear -12 1007 44 10000 1.06 74 22:28 14.03.2021
1466 Clear -12 1007 44 10000 1.06 74 22:28 14.03.2021
1467 Clear -13 1008 51 10000 2.06 60 21:53 14.03.2021
1468 Clear -15 1008 51 10000 2.06 60 21:24 14.03.2021
1469 Clear -17 1009 60 10000 2.57 40 20:52 14.03.2021
1470 Clear -17 1009 60 10000 2.57 40 20:52 14.03.2021
1471 Clear -20 1009 60 10000 2.57 40 20:31 14.03.2021
1472 Clear -20 1009 60 10000 1.21 52 19:59 14.03.2021
1473 Clear -20 1009 60 10000 1.21 52 19:41 14.03.2021
1474 Clear -22 1009 60 10000 1.13 50 19:18 14.03.2021
1475 Clear -22 1009 60 10000 1.13 50 19:18 14.03.2021
1476 Clear -24 1010 70 10000 3.09 50 18:36 14.03.2021
1477 Clear -25 1011 71 10000 1.65 46 17:54 14.03.2021
1478 Clear -28 1011 71 10000 1.65 46 17:36 14.03.2021
1479 Clear -28 1011 71 10000 1.98 44 17:18 14.03.2021
1480 Clear -29 1012 70 10000 3.6 70 16:40 14.03.2021
1481 Clear -29 1012 70 10000 3.6 70 16:20 14.03.2021
1482 Clear -27 1012 71 10000 3.6 70 15:45 14.03.2021
1483 Clear -27 1014 65 10000 4.63 60 14:52 14.03.2021
1484 Clear -27 1014 65 10000 4.63 60 14:31 14.03.2021
1485 Clear -24 1015 71 10000 3.09 60 13:55 14.03.2021
1486 Clear -24 1015 71 10000 3.09 60 13:36 14.03.2021
1487 Clear -25 1015 71 10000 4.12 80 12:58 14.03.2021
1488 Clear -25 1015 71 10000 4.12 80 12:40 14.03.2021
1489 Clear -25 1015 71 10000 4.12 80 12:22 14.03.2021
1490 Clear -25 1016 71 10000 3.09 60 11:38 14.03.2021
1491 Clear -25 1016 71 10000 3.09 60 11:19 14.03.2021
1492 Clear -24 1017 77 10000 3.09 60 10:38 14.03.2021
1493 Clear -24 1017 77 10000 3.09 60 10:19 14.03.2021
1494 Clear -23 1018 71 10000 4.12 50 09:56 14.03.2021
1495 Clear -23 1018 71 10000 4.12 50 09:38 14.03.2021
1496 Clear -23 1018 71 10000 4.12 50 09:20 14.03.2021
1497 Clear -23 1019 77 10000 4.12 70 08:36 14.03.2021
1498 Clear -20 1020 71 10000 2.5 39 07:56 14.03.2021
1499 Clear -19 1020 71 10000 2.33 35 07:27 14.03.2021
1500 Clear -17 1021 65 10000 2.17 33 05:34 14.03.2021
1501 Clear -14 1026 47 10000 1.13 79 01:25 14.03.2021
1502 Clear -15 1027 46 10000 1.15 83 00:20 14.03.2021
1503 Clear -16 1029 55 10000 1.15 83 23:59 13.03.2021
1504 Clear -17 1029 55 10000 1.15 83 23:39 13.03.2021
1505 Clear -17 1029 55 10000 1.14 79 23:18 13.03.2021
1506 Clear -19 1030 77 10000 1.14 79 22:46 13.03.2021
1507 Clear -19 1030 77 10000 1.19 72 22:18 13.03.2021
1508 Clear -21 1031 76 10000 1.19 72 21:35 13.03.2021
1509 Clear -25 1033 69 10000 1.23 61 20:59 13.03.2021
1510 Clear -24 1033 69 10000 1.23 61 20:41 13.03.2021
1511 Clear -27 1033 69 10000 1.22 50 20:22 13.03.2021
1512 Clear -30 1034 75 10000 1.22 50 19:38 13.03.2021
1513 Clear -31 1034 75 10000 1.48 42 19:20 13.03.2021
1514 Clear -33 1034 68 10000 1.47 45 18:42 13.03.2021
1515 Clear -34 1034 67 10000 1.67 39 18:20 13.03.2021
1516 Clear -34 1035 67 10000 1.67 39 17:49 13.03.2021
1517 Clear -34 1035 67 10000 1.67 39 17:49 13.03.2021
1518 Clear -34 1035 67 6437 1.57 40 17:31 13.03.2021
1519 Snow -34 1035 68 9656 1.57 40 16:52 13.03.2021
1520 Clear -34 1036 75 10000 1.57 40 16:34 13.03.2021
1521 Snow -34 1036 68 9656 1.49 53 15:55 13.03.2021
1522 Clear -34 1036 68 10000 1.45 58 15:18 13.03.2021
1523 Clear -33 1037 75 10000 1.45 58 14:41 13.03.2021
1524 Clear -33 1037 75 10000 1.42 47 14:21 13.03.2021
1525 Clear -33 1038 75 10000 1.46 35 13:27 13.03.2021
1526 Clear -31 1037 75 10000 1.52 33 12:52 13.03.2021
1527 Clear -32 1038 75 10000 1.52 33 12:34 13.03.2021
1528 Clear -32 1038 75 10000 1.68 26 11:54 13.03.2021
1529 Clear -32 1038 75 10000 1.68 26 11:54 13.03.2021
1530 Clear -31 1038 75 10000 1.68 26 11:33 13.03.2021
1531 Clear -31 1039 75 10000 1.79 31 10:58 13.03.2021
1532 Clear -31 1039 75 10000 1.79 31 10:31 13.03.2021
1533 Clear -30 1039 75 10000 1.66 37 09:59 13.03.2021
1534 Clear -30 1039 75 10000 1.66 37 09:32 13.03.2021
1535 Clear -32 1039 75 10000 1.46 38 08:54 13.03.2021
1536 Clear -30 1039 75 10000 1.33 48 08:21 13.03.2021
1537 Clear -29 1039 83 10000 1.33 48 07:57 13.03.2021
1538 Clear -29 1039 76 10000 1.33 48 07:30 13.03.2021
1539 Clear -25 1039 70 10000 0.45 90 05:29 13.03.2021
1540 Clear -20 1038 46 10000 0.57 170 02:20 13.03.2021
1541 Clear -21 1038 64 10000 0.68 211 00:24 13.03.2021
1542 Clear -21 1038 64 10000 0.68 211 23:38 12.03.2021
1543 Clear -22 1038 64 10000 1.54 260 23:20 12.03.2021
1544 Clear -23 1038 64 10000 0.75 191 22:32 12.03.2021
1545 Clear -24 1038 76 10000 0.75 191 21:56 12.03.2021
1546 Clouds -23 1037 57 9759 0.45 126 21:56 12.03.2021
1547 Clear -24 1038 76 10000 0.75 191 21:37 12.03.2021
1548 Clear -24 1038 76 10000 0.75 191 21:37 12.03.2021
1549 Clear -24 1038 76 10000 0.75 191 21:37 12.03.2021
1550 Clear -25 1038 76 10000 0.69 175 21:18 12.03.2021
1551 Clear -25 1037 76 10000 0.69 175 20:47 12.03.2021
1552 Clear -26 1037 76 10000 0.49 148 20:22 12.03.2021
1553 Fog -29 1036 83 10000 0.49 148 19:44 12.03.2021
1554 Clear -30 1036 75 10000 0.29 101 19:25 12.03.2021
1555 Clear -31 1036 75 10000 0.46 81 18:50 12.03.2021
1556 Clear -33 1036 75 10000 0.37 78 18:28 12.03.2021
1557 Clear -32 1035 75 10000 0.37 78 17:44 12.03.2021
1558 Clear -32 1035 75 10000 0.19 105 17:26 12.03.2021
1559 Clear -32 1034 69 10000 2.06 70 16:44 12.03.2021
1560 Clear -32 1034 69 10000 2.06 70 16:25 12.03.2021
1561 Clear -32 1033 76 10000 0.13 200 15:38 12.03.2021
1562 Clear -32 1032 76 10000 1.54 80 14:58 12.03.2021
1563 Clear -32 1032 76 10000 1.54 80 14:38 12.03.2021
1564 Clear -31 1032 76 10000 1.54 80 14:18 12.03.2021
1565 Clear -30 1030 76 10000 0.44 275 13:38 12.03.2021
1566 Clear -30 1030 76 10000 0.57 248 13:19 12.03.2021
1567 Clear -30 1030 76 10000 0.66 242 12:49 12.03.2021
1568 Clear -30 1030 76 10000 0.83 227 12:28 12.03.2021
1569 Clear -30 1029 76 10000 0.83 227 11:54 12.03.2021
1570 Clear -30 1029 76 10000 1.05 224 11:25 12.03.2021
1571 Clear -28 1028 76 10000 1.05 224 10:57 12.03.2021
1572 Clear -28 1028 76 10000 1.13 229 10:28 12.03.2021
1573 Clear -28 1028 76 10000 1.13 229 09:58 12.03.2021
1574 Clear -28 1028 76 10000 1.15 239 09:27 12.03.2021
1575 Clear -26 1027 77 10000 1.15 239 08:50 12.03.2021
1576 Clear -26 1027 77 10000 1.15 239 08:30 12.03.2021
1577 Clear -24 1026 64 10000 1.18 245 07:41 12.03.2021
1578 Clear -23 1026 64 10000 0.94 228 07:18 12.03.2021
1579 Clear -23 1025 54 10000 2.57 250 06:39 12.03.2021
1580 Clear -20 1023 54 10000 3.09 210 03:29 12.03.2021
1581 Clear -20 1023 54 10000 2.57 260 00:52 12.03.2021
1582 Clear -20 1023 54 10000 4.63 250 23:40 11.03.2021
1583 Clear -20 1022 59 10000 5.14 250 22:58 11.03.2021
1584 Clear -20 1022 59 10000 5.14 250 22:36 11.03.2021
1585 Clouds -21 1021 65 10000 8.75 250 21:59 11.03.2021
1586 Clouds -21 1021 65 10000 8.75 250 21:41 11.03.2021
1587 Clouds -21 1021 65 10000 8.75 250 21:20 11.03.2021
1588 Clear -21 1021 65 10000 6.69 250 20:48 11.03.2021
1589 Clear -21 1021 65 10000 6.69 250 20:21 11.03.2021
1590 Clouds -21 1019 59 10000 3.09 260 19:47 11.03.2021
1591 Clouds -20 1018 65 10000 9.26 250 19:28 11.03.2021
1592 Clouds -20 1018 65 10000 9.26 250 18:49 11.03.2021
1593 Clouds -20 1018 65 10000 9.26 250 18:31 11.03.2021
1594 Clouds -19 1017 65 10000 8.23 250 17:45 11.03.2021
1595 Clouds -19 1017 65 10000 8.23 250 17:27 11.03.2021
1596 Snow -18 1015 78 4828 7.72 240 16:31 11.03.2021
1597 Clouds -17 1015 78 2615 9.26 240 15:50 11.03.2021
1598 Snow -16 1014 78 2012 8.23 240 15:26 11.03.2021
1599 Snow -16 1013 85 2615 7.72 240 14:57 11.03.2021
1600 Mist -15 1012 78 8047 9.26 250 14:37 11.03.2021
1601 Mist -15 1012 78 8047 9.26 250 14:18 11.03.2021
1602 Snow -14 1011 78 8047 8.75 250 13:42 11.03.2021
1603 Snow -13 1010 92 8047 7.2 230 13:20 11.03.2021
1604 Snow -11 1010 92 8047 7.2 230 12:44 11.03.2021
1605 Snow -11 1010 92 8047 7.2 230 12:26 11.03.2021
1606 Clouds -10 1009 92 10000 6.69 230 11:45 11.03.2021
1607 Snow -10 1008 92 10000 3.09 230 11:27 11.03.2021
1608 Snow -9 1008 79 10000 4.87 252 10:44 11.03.2021
1609 Snow -9 1008 92 10000 2.88 257 10:21 11.03.2021
1610 Snow -8 1007 79 10000 1.54 210 09:45 11.03.2021
1611 Snow -9 1007 79 10000 1.54 210 09:23 11.03.2021
1612 Snow -8 1007 86 10000 2.06 230 08:47 11.03.2021
1613 Snow -8 1007 86 10000 2.06 230 08:20 11.03.2021
1614 Clouds -8 1007 86 10000 5.14 280 07:34 11.03.2021
1615 Clouds -8 1007 86 10000 5.14 280 06:50 11.03.2021
1616 Clouds -8 1007 86 10000 5.14 280 06:30 11.03.2021
1617 -273 0 0 0 0 0 04:44 11.03.2021
1618 -273 0 0 0 0 0 01:21 11.03.2021
1619 Snow -4 1006 93 3621 2.15 252 23:48 10.03.2021
1620 Snow -4 1006 86 2213 1.65 234 23:19 10.03.2021
1621 Snow -4 1006 86 2213 1.65 234 23:19 10.03.2021
1622 Snow -4 1006 86 2414 2.06 170 22:39 10.03.2021
1623 Snow -4 1006 86 2414 2.06 170 22:39 10.03.2021
1624 Snow -5 1006 86 2414 1.3 216 21:47 10.03.2021
1625 Snow -5 1006 86 2414 1.16 217 21:26 10.03.2021
1626 Snow -5 1007 86 2414 1.16 217 20:58 10.03.2021
1627 Mist -5 1007 86 2414 0.92 227 20:37 10.03.2021
1628 Snow -5 1007 86 2414 1.01 233 20:19 10.03.2021
1629 Snow -6 1007 93 1609 1.01 233 19:39 10.03.2021
1630 Snow -6 1007 93 1609 0.53 250 19:20 10.03.2021
1631 Snow -6 1009 93 1207 0.53 250 18:37 10.03.2021
1632 Snow -6 1009 93 1207 0.39 267 18:18 10.03.2021
1633 Mist -6 1009 93 1609 0.39 267 17:41 10.03.2021
1634 Snow -6 1009 93 3219 0.21 263 17:20 10.03.2021
1635 Mist -6 1010 93 4828 1.54 130 16:52 10.03.2021
1636 Snow -6 1010 93 4426 0.45 7 16:29 10.03.2021
1637 Snow -6 1011 93 2816 0.45 7 15:59 10.03.2021
1638 Snow -6 1011 93 3219 0.45 7 15:38 10.03.2021
1639 Snow -6 1011 93 3018 0.99 16 15:20 10.03.2021
1640 Snow -6 1012 93 3219 1.19 18 14:23 10.03.2021
1641 Snow -6 1013 93 2615 1.19 18 13:58 10.03.2021
1642 Mist -6 1013 93 2615 0.93 38 13:34 10.03.2021
1643 Snow -6 1015 100 8047 0.9 32 12:53 10.03.2021
1644 Snow -6 1015 100 8047 1.07 23 12:32 10.03.2021
1645 Snow -6 1015 100 3621 1.07 23 11:56 10.03.2021
1646 Snow -6 1016 93 3018 1.16 20 11:29 10.03.2021
1647 Mist -5 1016 86 3219 1.16 20 10:56 10.03.2021
1648 Snow -5 1016 86 10000 1.16 20 10:34 10.03.2021
1649 Snow -5 1017 93 10000 1.18 28 09:57 10.03.2021
1650 Snow -5 1017 93 10000 1.18 28 09:38 10.03.2021
1651 Clouds -5 1017 93 10000 1.01 36 09:19 10.03.2021
1652 Clouds -5 1017 86 10000 1.01 36 08:45 10.03.2021
1653 Clouds -5 1017 86 10000 0.96 49 08:27 10.03.2021
1654 Snow -5 1018 80 9656 0.96 49 07:44 10.03.2021
1655 Snow -5 1018 80 9656 0.82 40 07:25 10.03.2021
1656 Snow -5 1018 80 9656 2.06 290 06:52 10.03.2021
1657 Snow -2 1018 63 10000 1.54 250 02:45 10.03.2021
1658 Clouds -3 1018 80 10000 1.54 270 00:39 10.03.2021
1659 Clouds -3 1018 68 10000 0.88 216 23:45 09.03.2021
1660 Clouds -3 1018 73 10000 0.7 219 22:56 09.03.2021
1661 Clouds -4 1018 79 10000 0.7 219 22:37 09.03.2021
1662 Clouds -5 1018 79 10000 0.57 260 22:18 09.03.2021
1663 Clouds -5 1018 86 10000 0.57 260 21:42 09.03.2021
1664 Clouds -5 1018 86 10000 0.16 268 21:20 09.03.2021
1665 Clouds -6 1018 86 10000 0.16 268 20:55 09.03.2021
1666 Clouds -6 1018 86 10000 0.16 268 20:37 09.03.2021
1667 Clouds -7 1018 86 10000 0.4 80 20:18 09.03.2021
1668 Clouds -8 1017 85 10000 0.4 80 19:43 09.03.2021
1669 Clouds -9 1017 85 10000 0.77 51 19:24 09.03.2021
1670 Clouds -10 1017 85 10000 1 54 18:42 09.03.2021
1671 Clouds -11 1017 85 10000 1.12 31 18:19 09.03.2021
1672 Clouds -11 1017 85 10000 1.12 31 17:46 09.03.2021
1673 Clouds -12 1017 85 10000 1.08 51 17:26 09.03.2021
1674 Clear -11 1017 85 10000 2.06 70 16:41 09.03.2021
1675 Clear -12 1017 85 10000 2.06 70 16:21 09.03.2021
1676 Clear -11 1017 85 10000 3.09 60 15:56 09.03.2021
1677 Clear -11 1017 85 10000 3.09 60 15:25 09.03.2021
1678 Clouds -10 1016 92 10000 2.06 70 14:52 09.03.2021
1679 Clouds -9 1016 92 10000 2.06 70 14:26 09.03.2021
1680 Clouds -10 1016 92 10000 1.24 91 13:42 09.03.2021
1681 Clouds -10 1016 92 10000 1.09 91 13:21 09.03.2021
1682 Clear -11 1016 92 10000 1.54 50 12:54 09.03.2021
1683 Clear -11 1016 92 10000 1.54 50 12:35 09.03.2021
1684 Clear -12 1015 92 10000 1.21 124 11:45 09.03.2021
1685 Clear -11 1015 92 10000 1.44 146 11:22 09.03.2021
1686 Clear -11 1014 85 10000 1.44 146 10:59 09.03.2021
1687 Clear -10 1014 85 10000 1.44 146 10:39 09.03.2021
1688 Clear -10 1014 85 10000 0.96 205 10:21 09.03.2021
1689 Clear -11 1013 85 10000 0.96 205 09:46 09.03.2021
1690 Clear -11 1013 85 10000 0.56 224 09:27 09.03.2021
1691 Clear -14 1013 85 10000 0.56 224 08:57 09.03.2021
1692 Clear -11 1013 85 10000 0.49 241 08:32 09.03.2021
1693 Mist -12 1013 92 9656 2.06 280 07:46 09.03.2021
1694 Mist -10 1012 92 4023 0.85 83 07:26 09.03.2021
1695 Mist -10 1012 92 4023 0.95 85 06:55 09.03.2021
1696 Clear -7 1013 86 10000 0.32 81 05:53 09.03.2021
1697 Clear 0 1015 59 10000 3.09 70 01:32 09.03.2021
1698 Clear 0 1015 59 10000 3.09 70 01:32 09.03.2021
1699 Clouds -3 1017 68 10000 3.6 70 23:58 08.03.2021
1700 Clouds -3 1017 68 10000 3.6 70 23:39 08.03.2021
1701 Clouds -3 1017 68 10000 3.6 70 23:18 08.03.2021
1702 Clouds -4 1018 74 10000 4.63 70 22:40 08.03.2021
1703 Clouds -4 1018 74 10000 4.63 70 22:21 08.03.2021
1704 Clouds -6 1019 79 10000 2.57 60 21:48 08.03.2021
1705 Clouds -6 1019 79 10000 2.57 60 21:29 08.03.2021
1706 Clouds -7 1020 86 10000 2.57 60 20:40 08.03.2021
1707 Clouds -9 1020 86 10000 2.57 60 20:21 08.03.2021
1708 Clouds -10 1020 85 10000 1.54 40 19:45 08.03.2021
1709 Clear -12 1021 85 10000 2.57 60 19:24 08.03.2021
1710 Clear -12 1021 85 10000 2.57 60 18:38 08.03.2021
1711 Clear -13 1021 85 10000 2.57 60 18:19 08.03.2021
1712 Clear -12 1021 85 10000 3.09 60 17:44 08.03.2021
1713 Clear -12 1021 85 10000 3.09 60 17:23 08.03.2021
1714 Clouds -12 1022 85 10000 3.6 70 16:43 08.03.2021
1715 Clouds -12 1022 85 10000 3.6 70 16:24 08.03.2021
1716 Clouds -11 1022 86 10000 3.09 60 15:45 08.03.2021
1717 Clouds -11 1022 86 10000 3.09 60 15:23 08.03.2021
1718 Clouds -9 1023 79 10000 2.57 70 14:22 08.03.2021
1719 Clouds -9 1023 79 10000 2.57 70 14:22 08.03.2021
1720 Snow -9 1023 73 10000 1.54 60 13:58 08.03.2021
1721 Clouds -8 1024 86 10000 3.09 60 13:24 08.03.2021
1722 Clouds -8 1024 86 10000 3.09 60 12:58 08.03.2021
1723 Clouds -8 1024 86 10000 3.09 60 12:35 08.03.2021
1724 Clouds -9 1024 86 10000 3.09 60 11:55 08.03.2021
1725 Clouds -9 1024 86 10000 3.09 60 11:34 08.03.2021
1726 Clouds -9 1024 92 10000 2.57 70 10:58 08.03.2021
1727 Clouds -9 1024 92 10000 2.57 70 10:40 08.03.2021
1728 Clouds -9 1024 92 10000 2.57 70 10:19 08.03.2021
1729 Snow -9 1024 92 10000 2.06 70 09:29 08.03.2021
1730 Snow -9 1025 92 6437 2.57 70 08:54 08.03.2021
1731 Snow -9 1025 92 6437 2.57 70 08:25 08.03.2021
1732 Snow -9 1025 86 10000 1.54 60 07:22 08.03.2021
1733 Clouds -10 1025 86 10000 1.43 46 06:33 08.03.2021
1734 Clouds -9 1024 85 10000 0.41 88 02:57 08.03.2021
1735 Clouds -9 1024 85 10000 0.62 130 00:43 08.03.2021
1736 Clear -10 1024 85 10000 0.6 129 23:54 07.03.2021
1737 Clear -10 1024 85 10000 0.61 141 23:23 07.03.2021
1738 Clouds -10 1023 72 10000 0.61 141 22:50 07.03.2021
1739 Clouds -10 1022 69 1376 0.45 198 22:29 07.03.2021
1740 Clouds -10 1022 70 1376 0.45 12 21:58 07.03.2021
1741 Snow -11 1023 78 6437 1.54 10 21:39 07.03.2021
1742 Snow -12 1023 78 3219 1.54 20 21:21 07.03.2021
1743 Snow -13 1022 85 2414 1.06 147 20:41 07.03.2021
1744 Snow -13 1022 85 2816 0.93 139 20:23 07.03.2021
1745 Mist -14 1022 85 2213 0.93 139 19:55 07.03.2021
1746 Snow -14 1022 85 10000 0.93 139 19:37 07.03.2021
1747 Clouds -17 1022 84 10000 0.9 117 19:19 07.03.2021
1748 Clouds -17 1022 84 10000 0.9 117 19:19 07.03.2021
1749 Clouds -16 1022 84 10000 0.9 117 18:40 07.03.2021
1750 Clouds -17 1022 84 10000 0.97 88 18:18 07.03.2021
1751 Clouds -18 1021 77 10000 0.97 88 17:39 07.03.2021
1752 Clouds -17 1021 77 10000 0.53 44 17:20 07.03.2021
1753 Clear -18 1021 84 10000 0.53 44 16:44 07.03.2021
1754 Clear -19 1021 84 10000 1.06 59 16:22 07.03.2021
1755 Clear -19 1021 84 10000 1.06 59 15:58 07.03.2021
1756 Clear -19 1021 84 10000 1.06 59 15:38 07.03.2021
1757 Clear -20 1021 84 10000 1.14 62 15:19 07.03.2021
1758 Clear -21 1020 77 10000 1.14 62 14:30 07.03.2021
1759 Clear -21 1020 77 10000 1.14 61 14:30 07.03.2021
1760 Mist -20 1020 84 9656 1.14 61 13:57 07.03.2021
1761 Mist -20 1020 84 9656 1.16 63 13:38 07.03.2021
1762 Mist -20 1020 77 9656 1.08 62 13:18 07.03.2021
1763 Clouds -19 1019 92 10000 1.08 62 12:40 07.03.2021
1764 Clouds -19 1019 92 10000 1.17 61 12:21 07.03.2021
1765 Clouds -17 1019 85 10000 1.11 51 11:24 07.03.2021
1766 Clouds -17 1018 85 10000 1.54 60 10:59 07.03.2021
1767 Clouds -17 1018 85 10000 1.54 60 10:38 07.03.2021
1768 Snow -15 1018 85 10000 2.06 50 09:59 07.03.2021
1769 Snow -15 1018 78 10000 1.54 40 09:39 07.03.2021
1770 Snow -15 1018 78 9656 2.06 60 09:20 07.03.2021
1771 Snow -14 1017 85 8047 1.17 66 08:45 07.03.2021
1772 Snow -14 1017 85 10000 1.54 50 08:22 07.03.2021
1773 Snow -14 1017 78 10000 1.06 77 07:23 07.03.2021
1774 Clouds -13 1013 61 10000 0.85 121 02:40 07.03.2021
1775 Clouds -13 1013 72 10000 2.06 220 00:36 07.03.2021
1776 Snow -14 1012 85 10000 1.54 240 23:41 06.03.2021
1777 Snow -14 1012 85 10000 1.54 240 23:22 06.03.2021
1778 Snow -14 1011 72 10000 0.36 174 22:47 06.03.2021
1779 Snow -15 1011 72 10000 0.28 154 22:25 06.03.2021
1780 Snow -15 1010 71 4828 0.28 154 21:52 06.03.2021
1781 Snow -16 1011 78 3621 0.36 107 21:21 06.03.2021
1782 Snow -17 1010 77 9656 0.36 107 20:45 06.03.2021
1783 Snow -18 1010 77 9656 0.52 77 20:21 06.03.2021
1784 Clouds -20 1009 84 10000 0.52 77 19:41 06.03.2021
1785 Clouds -20 1009 77 10000 0.68 78 19:18 06.03.2021
1786 Clouds -22 1008 76 10000 0.94 72 18:43 06.03.2021
1787 Clouds -22 1008 76 10000 1.02 61 18:23 06.03.2021
1788 Clear -23 1007 83 10000 1.02 61 17:55 06.03.2021
1789 Clear -22 1007 83 10000 1.02 61 17:33 06.03.2021
1790 Clear -23 1007 83 10000 0.91 60 17:00 06.03.2021
1791 Clear -23 1007 83 10000 0.91 60 16:37 06.03.2021
1792 Clear -23 1006 84 10000 0.73 74 16:18 06.03.2021
1793 Clear -23 1006 84 10000 0.73 74 15:41 06.03.2021
1794 Clear -22 1006 84 10000 0.72 80 15:23 06.03.2021
1795 Clear -21 1005 84 10000 2.57 90 14:33 06.03.2021
1796 Clear -22 1005 84 10000 0.92 69 13:56 06.03.2021
1797 Clear -22 1005 84 10000 0.92 69 13:37 06.03.2021
1798 Clear -22 1005 84 10000 1.01 75 13:19 06.03.2021
1799 Clear -21 1004 77 10000 1.54 150 12:43 06.03.2021
1800 Clear -21 1004 77 10000 1.54 150 12:19 06.03.2021
1801 Clear -20 1004 84 10000 3.6 30 11:47 06.03.2021
1802 Clear -20 1004 84 10000 3.6 30 11:21 06.03.2021
1803 Clear -19 1004 84 10000 0.39 37 10:45 06.03.2021
1804 Clear -19 1004 84 10000 0.28 270 10:18 06.03.2021
1805 Clouds -18 1003 84 10000 0.28 270 09:40 06.03.2021
1806 Clouds -18 1003 84 10000 0.4 245 09:19 06.03.2021
1807 Clouds -18 1003 84 10000 1.54 50 08:36 06.03.2021
1808 Clouds -17 1001 71 10000 0.44 232 07:57 06.03.2021
1809 Clear -17 1001 72 10000 0.91 238 07:23 06.03.2021
1810 Clear -17 1001 72 10000 0.91 238 06:48 06.03.2021
1811 Clouds -15 1000 78 10000 1.1 253 05:34 06.03.2021
1812 Clouds -11 998 72 10000 3.09 230 02:25 06.03.2021
1813 Clouds -11 997 78 10000 0.86 241 00:47 06.03.2021
1814 Clouds -11 998 85 10000 0.67 251 23:53 05.03.2021
1815 Clouds -12 998 85 10000 0.5 280 23:28 05.03.2021
1816 Clouds -12 998 92 10000 0.5 280 22:46 05.03.2021
1817 Clouds -13 998 92 10000 0.64 258 22:23 05.03.2021
1818 Clouds -14 998 85 10000 0.64 258 21:53 05.03.2021
1819 Clouds -14 998 85 10000 0.64 258 21:34 05.03.2021
1820 Clouds -14 998 85 10000 0.22 230 20:55 05.03.2021
1821 Clouds -14 998 85 10000 0.22 230 20:37 05.03.2021
1822 Clouds -15 998 85 10000 0.49 232 20:19 05.03.2021
1823 Clouds -19 999 84 10000 0.17 338 19:27 05.03.2021
1824 Clouds -20 999 84 10000 0.49 299 18:59 05.03.2021
1825 Clouds -20 999 84 10000 0.49 299 18:41 05.03.2021
1826 Clouds -20 999 84 10000 0.45 297 18:21 05.03.2021
1827 Clouds -21 999 84 10000 0.45 297 17:36 05.03.2021
1828 Clouds -26 1000 76 10000 0.54 319 16:51 05.03.2021
1829 Clouds -21 1000 76 10000 0.88 330 16:25 05.03.2021
1830 Clear -21 1000 76 10000 0.88 330 15:59 05.03.2021
1831 Clear -23 1000 76 10000 0.88 330 15:41 05.03.2021
1832 Clear -21 1000 76 10000 0.82 8 15:22 05.03.2021
1833 Clear -21 1000 76 10000 0.82 8 14:39 05.03.2021
1834 Clear -22 1000 70 10000 0.72 15 13:59 05.03.2021
1835 Clear -22 1000 77 10000 1.22 18 13:22 05.03.2021
1836 Clear -21 1000 77 10000 1.22 18 12:56 05.03.2021
1837 Clear -21 1000 77 10000 1.26 5 12:23 05.03.2021
1838 Clear -23 1000 77 10000 1.26 5 11:37 05.03.2021
1839 Clear -23 1000 77 10000 1.68 34 11:18 05.03.2021
1840 Clear -23 1000 77 10000 1.68 34 10:41 05.03.2021
1841 Clear -23 1000 77 10000 1.83 33 10:23 05.03.2021
1842 Clear -23 1000 84 10000 1.83 33 09:49 05.03.2021
1843 Clear -20 1000 84 10000 2.08 22 09:27 05.03.2021
1844 Clear -20 1000 84 10000 2.08 22 08:45 05.03.2021
1845 Clear -20 1000 84 10000 2 29 08:26 05.03.2021
1846 Clear -18 1001 84 10000 2.57 30 07:44 05.03.2021
1847 Clear -18 1001 84 10000 2.07 18 07:24 05.03.2021
1848 Clear -17 1001 84 10000 2.21 24 06:32 05.03.2021
1849 Clear -14 1005 72 10000 2.06 260 02:51 05.03.2021
1850 Clear -13 1007 72 10000 1.54 270 00:49 05.03.2021
1851 Clear -14 1008 72 10000 1.29 35 23:37 04.03.2021
1852 Clouds -15 1009 72 10000 1.05 49 22:47 04.03.2021
1853 Clouds -15 1009 72 10000 1.38 72 22:25 04.03.2021
1854 Clouds -16 1011 78 10000 1.38 72 21:47 04.03.2021
1855 Clouds -17 1011 78 10000 1.29 59 21:28 04.03.2021
1856 Clouds -19 1012 84 10000 1.29 59 20:41 04.03.2021
1857 Clouds -20 1012 84 10000 1.2 37 20:22 04.03.2021
1858 Clouds -20 1013 77 10000 1.2 37 19:57 04.03.2021
1859 Clouds -21 1013 77 10000 1.2 37 19:38 04.03.2021
1860 Clouds -22 1013 77 10000 1.15 43 19:18 04.03.2021
1861 Clouds -23 1013 84 10000 1.15 43 18:38 04.03.2021
1862 Clouds -23 1014 84 10000 1.4 46 18:20 04.03.2021
1863 Clouds -23 1014 77 10000 1.4 46 17:43 04.03.2021
1864 Clouds -23 1014 77 10000 1.16 28 17:22 04.03.2021
1865 Clouds -24 1015 77 10000 1.54 290 16:44 04.03.2021
1866 Clouds -24 1015 77 10000 1.54 290 16:24 04.03.2021
1867 Clouds -25 1015 77 10000 1.03 36 15:49 04.03.2021
1868 Clouds -25 1015 76 10000 1.03 36 15:31 04.03.2021
1869 Clouds -25 1016 76 10000 0.96 38 14:46 04.03.2021
1870 Clouds -25 1016 76 10000 0.97 37 14:25 04.03.2021
1871 Snow -24 1016 76 10000 2.06 30 13:46 04.03.2021
1872 Clear -25 1016 83 10000 1.02 36 13:25 04.03.2021
1873 Clear -24 1016 83 10000 1.05 44 12:45 04.03.2021
1874 Clear -24 1016 83 10000 0.62 23 12:25 04.03.2021
1875 Snow -22 1016 77 10000 0.62 23 11:43 04.03.2021
1876 Snow -22 1016 77 10000 0.47 18 11:22 04.03.2021
1877 Clouds -21 1016 84 10000 0.47 18 10:47 04.03.2021
1878 Snow -21 1016 77 10000 0.36 4 10:26 04.03.2021
1879 Clouds -21 1016 84 10000 0.36 4 09:37 04.03.2021
1880 Clouds -20 1015 84 10000 0.55 319 08:59 04.03.2021
1881 Clouds -20 1015 84 10000 0.55 319 08:34 04.03.2021
1882 Snow -20 1015 77 10000 0.76 306 07:53 04.03.2021
1883 Clouds -20 1014 77 10000 1 295 07:21 04.03.2021
1884 Clouds -19 1014 77 10000 1.1 285 06:24 04.03.2021
1885 Clouds -17 1011 71 10000 1.24 260 02:49 04.03.2021
1886 Clouds -17 1010 71 10000 1.54 210 01:32 04.03.2021
1887 Snow -18 1008 71 9656 1.24 256 22:44 03.03.2021
1888 Mist -18 1007 78 9656 1.32 259 22:26 03.03.2021
1889 Snow -18 1007 77 10000 1.54 160 21:43 03.03.2021
1890 Snow -18 1007 77 10000 1.54 160 21:24 03.03.2021
1891 Snow -18 1006 77 10000 1.35 263 20:58 03.03.2021
1892 Snow -19 1006 77 10000 1.35 263 20:40 03.03.2021
1893 Snow -19 1005 84 10000 1.37 260 19:59 03.03.2021
1894 Snow -19 1004 77 10000 1.54 200 19:40 03.03.2021
1895 Clouds -20 1004 77 10000 1.54 200 19:20 03.03.2021
1896 Clouds -20 1003 84 10000 2.06 180 18:46 03.03.2021
1897 Snow -19 1003 84 10000 2.06 180 18:21 03.03.2021
1898 Snow -19 1002 78 9656 1.15 273 17:43 03.03.2021
1899 Snow -18 1002 78 9656 1.1 275 17:18 03.03.2021
1900 Snow -18 1002 78 9656 1.1 275 16:41 03.03.2021
1901 Snow -18 1002 78 10000 1.1 277 16:22 03.03.2021
1902 Snow -18 1001 78 10000 1.1 277 15:33 03.03.2021
1903 Clouds -18 1000 78 10000 2.06 220 14:56 03.03.2021
1904 Clouds -18 1000 78 10000 2.06 220 14:30 03.03.2021
1905 Snow -18 998 78 10000 1.54 200 13:52 03.03.2021
1906 Clouds -18 998 85 10000 2.06 230 13:31 03.03.2021
1907 Clouds -17 998 85 10000 2.06 230 12:45 03.03.2021
1908 Clouds -17 998 85 10000 2.06 230 12:26 03.03.2021
1909 Clouds -17 997 85 10000 1.13 286 11:48 03.03.2021
1910 Clouds -17 997 85 10000 1.19 300 11:28 03.03.2021
1911 Clouds -16 996 78 10000 1.19 300 10:50 03.03.2021
1912 Clouds -16 996 78 10000 1.19 300 10:31 03.03.2021
1913 Clouds -16 996 85 10000 1.54 230 09:49 03.03.2021
1914 Clouds -16 996 85 10000 1.54 230 09:31 03.03.2021
1915 Clouds -16 995 85 10000 1.39 313 08:44 03.03.2021
1916 Snow -16 995 78 10000 1.54 230 08:22 03.03.2021
1917 Clouds -15 995 78 10000 1.5 316 07:41 03.03.2021
1918 Clouds -15 994 85 10000 2.06 220 06:51 03.03.2021
1919 Clouds -14 993 78 10000 1.54 200 05:49 03.03.2021
1920 Clouds -14 993 78 10000 1.54 200 05:49 03.03.2021
1921 Clouds -14 992 85 10000 2.06 220 04:59 03.03.2021
1922 Clouds -14 992 85 10000 2.06 220 04:35 03.03.2021
1923 Clouds -13 992 78 10000 1.54 250 03:51 03.03.2021
1924 Clouds -12 991 72 10000 1.23 312 23:59 02.03.2021
1925 Clouds -12 991 85 10000 1.12 310 23:31 02.03.2021
1926 Snow -13 990 85 10000 1.12 310 22:42 02.03.2021
1927 Snow -13 990 85 10000 1.14 317 22:19 02.03.2021
1928 Snow -14 990 85 9656 1.14 317 21:41 02.03.2021
1929 Snow -14 990 85 9656 1.2 320 21:22 02.03.2021
1930 Snow -14 990 78 4828 1.2 320 20:48 02.03.2021
1931 Snow -15 990 85 6437 1.11 321 20:23 02.03.2021
1932 Snow -15 990 85 4023 1.11 321 19:57 02.03.2021
1933 Snow -15 990 85 4023 1.11 321 19:39 02.03.2021
1934 Snow -16 990 85 4023 1.19 323 19:20 02.03.2021
1935 Snow -16 989 85 4828 1.19 323 18:41 02.03.2021
1936 Mist -16 989 85 4828 1.1 325 18:21 02.03.2021
1937 Snow -16 989 85 10000 1.1 325 17:49 02.03.2021
1938 Snow -16 989 85 9656 1.1 325 17:30 02.03.2021
1939 Snow -16 989 85 9656 1.15 331 17:30 02.03.2021
1940 Snow -16 989 85 9656 1.1 325 17:30 02.03.2021
1941 Snow -16 989 85 9656 1.1 325 17:30 02.03.2021
1942 Snow -16 989 85 9656 1.1 325 17:30 02.03.2021
1943 Snow -16 989 78 10000 1.15 331 16:54 02.03.2021
1944 Snow -16 989 78 10000 1.25 337 16:22 02.03.2021
1945 Snow -17 989 85 9656 1.25 337 15:49 02.03.2021
1946 Snow -16 989 85 9656 1.27 336 15:22 02.03.2021
1947 Snow -16 989 85 10000 1.28 338 14:23 02.03.2021
1948 Snow -18 990 85 9656 1.28 338 13:49 02.03.2021
1949 Snow -17 990 84 10000 1.37 344 13:31 02.03.2021
1950 Snow -19 990 77 9656 1.22 349 12:55 02.03.2021
1951 Snow -19 990 77 9656 1.17 348 12:29 02.03.2021
1952 Snow -19 990 84 10000 1.17 348 11:54 02.03.2021
1953 Snow -18 990 84 10000 1.17 348 11:34 02.03.2021
1954 Snow -18 990 78 6437 1.06 334 10:58 02.03.2021
1955 Snow -18 990 85 6437 1.06 334 10:32 02.03.2021
1956 Snow -17 990 85 6437 1.14 332 09:57 02.03.2021
1957 Snow -17 990 85 6437 1.14 332 09:39 02.03.2021
1958 Snow -17 990 85 6437 1.15 341 09:18 02.03.2021
1959 Snow -17 991 85 4828 1.15 341 08:38 02.03.2021
1960 Snow -17 991 85 4828 1.21 332 07:53 02.03.2021
1961 Mist -17 991 85 3219 1.25 323 07:26 02.03.2021
1962 Snow -16 991 85 4828 1.38 323 06:32 02.03.2021
1963 Snow -16 991 85 4828 1.38 323 05:44 02.03.2021
1964 Snow -16 991 85 9656 1.54 210 05:24 02.03.2021
1965 Snow -15 991 85 8047 1.16 312 01:44 02.03.2021
1966 Snow -15 991 85 8047 0.99 340 01:23 02.03.2021
1967 Mist -16 991 85 3621 1.17 345 23:55 01.03.2021
1968 Snow -16 991 85 2414 1.34 3 23:22 01.03.2021
1969 Snow -16 991 85 2414 1.34 3 23:22 01.03.2021
1970 Snow -16 992 78 4828 1.34 3 22:40 01.03.2021
1971 Snow -17 992 78 4828 1.3 13 22:21 01.03.2021
1972 Snow -17 991 66 4828 2.57 30 21:45 01.03.2021
1973 Snow -17 991 66 4828 2.57 30 21:23 01.03.2021
1974 Snow -18 992 65 10000 2.06 20 20:46 01.03.2021
1975 Clouds -19 993 71 10000 1.58 46 20:27 01.03.2021
1976 Clouds -19 993 65 10000 2.06 40 19:51 01.03.2021
1977 Clouds -19 993 65 10000 2.06 40 19:32 01.03.2021
1978 Clouds -20 994 71 10000 2.06 60 18:45 01.03.2021
1979 Clouds -21 994 77 10000 1.54 70 18:24 01.03.2021
1980 Snow -21 996 71 10000 2.57 20 17:49 01.03.2021
1981 Clouds -21 996 77 10000 1.46 56 17:25 01.03.2021
1982 Snow -21 997 65 10000 4.12 60 16:48 01.03.2021
1983 Snow -21 997 65 10000 4.12 60 16:30 01.03.2021
1984 Snow -21 997 65 10000 4.12 60 16:30 01.03.2021
1985 Snow -21 1000 71 10000 4.12 60 15:58 01.03.2021
1986 Snow -21 1000 71 10000 4.12 60 15:38 01.03.2021
1987 Snow -21 1000 71 10000 4.12 60 15:18 01.03.2021
1988 Snow -21 1002 71 10000 2.57 50 14:40 01.03.2021
1989 Snow -21 1002 71 10000 2.57 50 14:21 01.03.2021
1990 Clouds -21 1000 76 10000 2.01 45 13:38 01.03.2021
1991 Snow -22 1004 77 10000 2.06 40 13:20 01.03.2021
1992 Clouds -22 1003 67 10000 1.89 52 12:43 01.03.2021
1993 Clouds -22 1004 66 6436 1.85 56 12:25 01.03.2021
1994 Clouds -22 1004 66 6436 1.85 56 11:57 01.03.2021
1995 Clouds -22 1009 77 10000 2.06 70 11:29 01.03.2021
1996 Snow -22 1010 77 10000 3.09 70 10:42 01.03.2021
1997 Snow -22 1010 77 10000 3.09 70 10:22 01.03.2021
1998 Clouds -21 1013 83 2360 1.47 74 09:53 01.03.2021
1999 Clear -22 1012 84 10000 1.54 80 09:34 01.03.2021
2000 Snow -21 1013 84 10000 1.07 85 08:56 01.03.2021
2001 Clouds -21 1013 84 10000 1.07 85 08:32 01.03.2021
2002 Mist -21 1013 84 8047 1.26 111 07:32 01.03.2021
2003 Snow -20 1014 77 9656 0.83 142 06:25 01.03.2021
2004 Snow -18 1014 71 8047 2.57 290 02:40 01.03.2021
2005 Snow -19 1012 71 4023 4.12 290 23:49 28.02.2021
2006 Snow -19 1012 71 4828 4.63 290 23:20 28.02.2021
2007 Snow -19 1011 77 4828 4.63 290 22:42 28.02.2021
2008 Snow -19 1010 77 3621 4.12 300 22:20 28.02.2021
2009 Snow -19 1010 77 4426 3.6 300 21:45 28.02.2021
2010 Snow -19 1008 77 4828 4.12 290 21:23 28.02.2021
2011 Snow -19 1008 77 4828 4.12 290 20:46 28.02.2021
2012 Snow -19 1008 78 4023 4.12 280 20:26 28.02.2021
2013 Snow -19 1008 78 4023 3.09 280 19:46 28.02.2021
2014 Snow -19 1007 78 3018 4.12 280 19:27 28.02.2021
2015 Snow -19 1006 78 10000 3.09 260 18:47 28.02.2021
2016 Snow -20 1006 78 10000 3.09 260 18:26 28.02.2021
2017 Snow -20 1005 78 6437 3.6 280 17:56 28.02.2021
2018 Snow -20 1005 78 6437 3.6 280 17:37 28.02.2021
2019 Snow -20 1005 78 6437 3.6 280 17:19 28.02.2021
2020 Snow -19 1005 78 3018 3.09 290 16:46 28.02.2021
2021 Snow -19 1005 78 3219 4.12 280 16:26 28.02.2021
2022 Snow -19 1004 84 3219 5.66 280 15:51 28.02.2021
2023 Snow -19 1004 78 3018 4.63 280 15:26 28.02.2021
2024 Snow -19 1003 78 4828 3.6 260 14:58 28.02.2021
2025 Snow -19 1002 78 3018 2.08 282 14:32 28.02.2021
2026 Snow -18 1002 78 3621 2.06 210 13:58 28.02.2021
2027 Snow -18 1002 78 4426 1.54 200 13:37 28.02.2021
2028 Snow -18 1001 78 4828 1.54 180 13:18 28.02.2021
2029 Snow -18 1000 78 6437 2.17 274 12:51 28.02.2021
2030 Snow -18 1000 78 6437 1.82 270 12:31 28.02.2021
2031 Snow -18 1000 85 9656 1.54 210 11:56 28.02.2021
2032 Snow -18 1000 85 9656 1.54 210 11:37 28.02.2021
2033 Snow -18 1000 85 9656 1.54 210 11:18 28.02.2021
2034 Clouds -18 999 78 10000 2.3 271 10:30 28.02.2021
2035 Clouds -18 998 84 10000 2.3 271 09:59 28.02.2021
2036 Clouds -18 998 84 10000 2.3 271 09:38 28.02.2021
2037 Clouds -18 998 84 10000 2.26 277 09:20 28.02.2021
2038 Clouds -18 997 85 10000 1.54 200 08:38 28.02.2021
2039 Clouds -16 997 85 10000 1.54 200 08:20 28.02.2021
2040 Clouds -17 997 85 10000 1.54 240 07:44 28.02.2021
2041 Clouds -17 997 85 10000 1.54 240 07:25 28.02.2021
2042 Clouds -16 997 85 10000 2.17 336 06:23 28.02.2021
2043 Clouds -14 996 85 10000 2.28 334 05:20 28.02.2021
2044 Clouds -10 997 85 10000 1.88 331 02:28 28.02.2021
2045 Snow -9 998 79 10000 1.68 331 01:28 28.02.2021
2046 Clouds -10 998 85 10000 2.57 70 00:39 28.02.2021
2047 Clouds -11 999 79 10000 1.72 352 23:50 27.02.2021
2048 Snow -11 999 85 8047 1.69 350 23:22 27.02.2021
2049 Snow -11 999 85 4828 1.69 350 22:50 27.02.2021
2050 Snow -11 999 85 8047 1.69 356 22:25 27.02.2021
2051 Snow -11 999 79 4828 1.69 356 21:59 27.02.2021
2052 Snow -12 999 79 4828 1.69 356 21:38 27.02.2021
2053 Snow -12 1000 85 4828 1.54 40 20:58 27.02.2021
2054 Snow -12 1000 79 4426 1.75 0 20:39 27.02.2021
2055 Snow -12 1000 85 4828 2.06 50 20:21 27.02.2021
2056 Snow -13 1000 92 2615 1.82 351 19:43 27.02.2021
2057 Snow -13 1000 92 2615 1.82 351 19:43 27.02.2021
2058 Snow -13 1000 92 2615 1.87 326 19:23 27.02.2021
2059 Snow -13 1000 85 4828 1.87 326 18:41 27.02.2021
2060 Snow -13 1000 85 3621 1.93 324 18:20 27.02.2021
2061 Snow -13 1001 85 10000 1.93 324 17:44 27.02.2021
2062 Snow -13 1001 85 10000 2.05 327 17:20 27.02.2021
2063 Snow -12 1001 85 8047 2.05 327 16:56 27.02.2021
2064 Snow -12 1001 92 4828 2.05 327 16:36 27.02.2021
2065 Snow -12 1001 85 4023 2.1 329 16:18 27.02.2021
2066 Snow -12 1001 92 4828 2.1 329 15:38 27.02.2021
2067 Snow -12 1002 85 4828 2.3 334 14:50 27.02.2021
2068 Snow -11 1002 92 4023 2.3 334 14:32 27.02.2021
2069 Snow -11 1002 92 4828 2.44 334 13:53 27.02.2021
2070 Snow -11 1002 92 4828 2.32 343 13:27 27.02.2021
2071 Snow -10 1002 85 4426 2.32 343 12:56 27.02.2021
2072 Snow -10 1003 85 6437 2.61 346 12:30 27.02.2021
2073 Snow -10 1003 85 4828 2.61 346 11:58 27.02.2021
2074 Snow -10 1003 92 6437 2.61 346 11:40 27.02.2021
2075 Snow -10 1003 92 6437 2.6 341 11:21 27.02.2021
2076 Snow -11 1004 92 8047 2.6 341 10:44 27.02.2021
2077 Snow -11 1004 92 8047 2.81 345 10:22 27.02.2021
2078 Snow -9 1004 92 8047 2.81 345 09:46 27.02.2021
2079 Snow -9 1004 92 8047 2.84 342 09:25 27.02.2021
2080 Snow -9 1005 92 4828 2.84 342 08:40 27.02.2021
2081 Snow -9 1005 92 4828 2.7 342 08:21 27.02.2021
2082 Snow -9 1006 79 4828 3.6 350 07:41 27.02.2021
2083 Snow -8 1008 86 4828 2.38 334 04:46 27.02.2021
2084 Mist -8 1011 86 6437 1.35 346 00:42 27.02.2021
2085 Snow -8 1013 79 2414 1.54 30 23:54 26.02.2021
2086 Snow -9 1013 79 2414 1.54 30 23:27 26.02.2021
2087 Snow -9 1013 85 3018 0.88 355 22:46 26.02.2021
2088 Snow -10 1013 85 3018 0.95 7 22:26 26.02.2021
2089 Snow -10 1013 92 3018 0.95 7 21:43 26.02.2021
2090 Snow -11 1013 92 2012 1.03 2 21:24 26.02.2021
2091 Snow -11 1013 79 3219 1.03 2 20:44 26.02.2021
2092 Snow -12 1013 92 4828 0.91 1 20:21 26.02.2021
2093 Snow -12 1013 92 6437 0.91 1 19:50 26.02.2021
2094 Snow -13 1013 92 6437 1.14 5 19:25 26.02.2021
2095 Snow -13 1013 92 4828 1.12 12 18:42 26.02.2021
2096 Snow -13 1013 92 4828 1.25 8 18:23 26.02.2021
2097 Snow -13 1013 92 4023 1.25 8 17:42 26.02.2021
2098 Snow -13 1014 85 9656 1.1 23 17:24 26.02.2021
2099 Snow -13 1014 85 4828 1.1 23 16:52 26.02.2021
2100 Mist -13 1014 85 4828 1.1 23 16:32 26.02.2021
2101 Snow -13 1014 85 4426 0.75 33 15:57 26.02.2021
2102 Snow -13 1014 85 4828 0.75 33 15:38 26.02.2021
2103 Snow -13 1014 85 4828 1.17 25 15:20 26.02.2021
2104 Snow -13 1014 85 2213 1.17 25 14:45 26.02.2021
2105 Snow -13 1015 85 2213 1.21 26 14:25 26.02.2021
2106 Snow -13 1015 85 3219 1.31 30 13:44 26.02.2021
2107 Snow -13 1015 85 4023 1.34 34 13:24 26.02.2021
2108 Snow -14 1015 85 9656 1.34 34 12:39 26.02.2021
2109 Snow -14 1015 92 9656 1.42 37 11:55 26.02.2021
2110 Snow -14 1015 92 9656 1.42 37 11:37 26.02.2021
2111 Snow -14 1015 85 6437 1.14 39 10:48 26.02.2021
2112 Snow -14 1015 85 2213 1.15 62 09:58 26.02.2021
2113 Mist -14 1015 85 3621 1.15 62 09:39 26.02.2021
2114 Snow -15 1015 85 2615 1.22 78 09:20 26.02.2021
2115 Snow -15 1014 85 3621 0.98 78 08:29 26.02.2021
2116 Snow -15 1015 85 4023 0.98 78 07:52 26.02.2021
2117 Snow -15 1014 78 3621 0.68 89 06:43 26.02.2021
2118 Snow -15 1014 78 4023 0.68 89 06:43 26.02.2021
2119 Snow -15 1014 85 6437 0.73 120 05:32 26.02.2021
2120 Clouds -14 1012 78 10000 0.29 166 03:49 26.02.2021
2121 Clouds -14 1012 78 10000 3.09 210 02:36 26.02.2021
2122 Snow -14 1009 85 8047 2.57 220 00:18 26.02.2021
2123 Snow -14 1008 85 4828 0.68 266 23:28 25.02.2021
2124 Snow -14 1008 78 3219 0.68 266 22:50 25.02.2021
2125 Snow -14 1007 78 10000 1.54 200 22:31 25.02.2021
2126 Snow -15 1006 78 2816 0.63 276 21:45 25.02.2021
2127 Snow -15 1006 78 1609 0.64 272 21:27 25.02.2021
2128 Snow -15 1005 78 4828 0.64 272 20:42 25.02.2021
2129 Snow -15 1005 78 4828 0.45 283 20:23 25.02.2021
2130 Snow -16 1005 78 4828 0.45 283 19:52 25.02.2021
2131 Snow -16 1004 85 4828 0.38 288 19:22 25.02.2021
2132 Snow -16 1004 85 10000 0.6 284 18:58 25.02.2021
2133 Snow -15 1004 78 10000 1.54 200 18:31 25.02.2021
2134 Snow -16 1003 85 6437 0.45 273 17:50 25.02.2021
2135 Snow -16 1003 85 6437 0.64 262 17:27 25.02.2021
2136 Snow -15 1002 85 2414 1.54 180 16:52 25.02.2021
2137 Snow -15 1002 85 2414 1.54 180 16:26 25.02.2021
2138 Snow -14 1002 85 3219 2.06 0 15:36 25.02.2021
2139 Mist -14 1002 85 3219 3.09 220 15:18 25.02.2021
2140 Snow -14 1002 85 3219 3.09 220 14:28 25.02.2021
2141 Snow -13 1001 85 3219 1.54 200 13:56 25.02.2021
2142 Snow -13 1001 85 3219 1.54 200 13:36 25.02.2021
2143 Snow -13 1001 85 3219 1.54 200 13:18 25.02.2021
2144 Snow -13 1001 85 2414 1.54 220 12:23 25.02.2021
2145 Snow -13 1000 85 2414 1.45 272 11:48 25.02.2021
2146 Snow -12 1000 85 4828 3.09 230 11:22 25.02.2021
2147 Snow -11 999 92 10000 2.06 230 10:47 25.02.2021
2148 Snow -11 999 92 10000 2.06 230 10:29 25.02.2021
2149 Snow -10 999 92 9656 1.54 230 09:45 25.02.2021
2150 Clouds -11 999 92 10000 2.19 300 08:57 25.02.2021
2151 Clouds -11 999 92 10000 2.46 310 08:28 25.02.2021
2152 Clouds -11 999 85 10000 1.54 30 07:58 25.02.2021
2153 Clouds -11 999 85 10000 1.54 30 07:37 25.02.2021
2154 Clouds -11 999 85 10000 2.24 319 06:56 25.02.2021
2155 Clear -9 1000 85 10000 2.29 322 03:23 25.02.2021
2156 Clouds -7 1001 73 10000 1.54 200 01:38 25.02.2021
2157 Clouds -8 1003 85 10000 1.25 308 00:42 25.02.2021
2158 Clouds -7 1003 85 10000 0.98 344 23:54 24.02.2021
2159 Clouds -7 1003 85 10000 0.98 344 23:32 24.02.2021
2160 Clouds -8 1004 85 10000 0.86 350 22:46 24.02.2021
2161 Clouds -9 1004 85 10000 0.73 359 22:26 24.02.2021
2162 Clouds -9 1004 85 10000 0.73 359 22:26 24.02.2021
2163 Clouds -10 1005 85 10000 0.73 359 21:48 24.02.2021
2164 Clouds -10 1005 85 10000 1.01 17 21:24 24.02.2021
2165 Snow -12 1005 85 9656 1.01 17 20:45 24.02.2021
2166 Clouds -12 1005 85 10000 1.55 30 20:22 24.02.2021
2167 Clouds -12 1006 85 10000 1.55 30 19:38 24.02.2021
2168 Clouds -12 1006 85 10000 1.17 29 19:20 24.02.2021
2169 Snow -13 1007 85 10000 1.54 330 18:48 24.02.2021
2170 Snow -13 1007 85 9656 1.4 30 18:29 24.02.2021
2171 Clouds -13 1008 85 10000 1.4 30 17:39 24.02.2021
2172 Clouds -14 1008 85 10000 1.35 34 17:20 24.02.2021
2173 Clouds -14 1009 85 10000 1.35 34 16:45 24.02.2021
2174 Clouds -14 1009 85 10000 1.52 44 16:20 24.02.2021
2175 Snow -14 1011 78 10000 1.54 10 15:47 24.02.2021
2176 Snow -15 1011 78 10000 1.54 10 15:25 24.02.2021
2177 Clouds -15 1012 85 10000 1.81 43 14:35 24.02.2021
2178 Snow -16 1013 78 10000 2.57 60 13:59 24.02.2021
2179 Snow -15 1013 78 10000 2.57 60 13:40 24.02.2021
2180 Snow -15 1014 85 10000 1.81 35 13:22 24.02.2021
2181 Snow -16 1014 85 10000 1.7 37 12:45 24.02.2021
2182 Snow -16 1014 85 10000 1.77 38 12:26 24.02.2021
2183 Snow -16 1015 78 8047 1.77 38 11:50 24.02.2021
2184 Snow -16 1015 78 8047 1.4 41 11:21 24.02.2021
2185 Snow -16 1015 85 6437 1.4 41 10:32 24.02.2021
2186 Snow -16 1016 85 4023 1.24 44 09:50 24.02.2021
2187 Snow -16 1016 85 3621 0.97 48 09:20 24.02.2021
2188 Snow -17 1016 85 3621 0.97 48 08:35 24.02.2021
2189 Snow -17 1016 85 3219 0.85 43 07:57 24.02.2021
2190 Snow -17 1017 78 6437 0.67 53 07:20 24.02.2021
2191 Snow -17 1017 78 8047 0.67 53 06:42 24.02.2021
2192 Snow -17 1018 71 10000 0.16 1 03:40 24.02.2021
2193 Clouds -18 1019 65 10000 3.6 80 00:37 24.02.2021
2194 Clear -19 1020 71 10000 2.57 60 23:29 23.02.2021
2195 Clear -20 1021 77 10000 2.57 60 22:40 23.02.2021
2196 Clear -22 1021 77 10000 2.57 60 22:20 23.02.2021
2197 Clear -22 1021 77 10000 2.57 60 22:20 23.02.2021
2198 Clear -25 1022 76 10000 1.34 50 21:44 23.02.2021
2199 Clear -27 1022 76 10000 1.37 42 21:24 23.02.2021
2200 Clear -27 1022 75 10000 1.37 42 20:48 23.02.2021
2201 Clear -31 1022 75 10000 1.55 38 20:29 23.02.2021
2202 Fog -29 1023 88 10000 1.55 38 19:48 23.02.2021
2203 Clear -30 1023 75 10000 1.5 34 19:28 23.02.2021
2204 Clear -31 1023 75 10000 1.5 34 18:58 23.02.2021
2205 Clear -30 1023 75 10000 1.5 34 18:39 23.02.2021
2206 Clear -30 1023 75 10000 1.39 43 18:18 23.02.2021
2207 Clear -30 1023 75 10000 2.57 70 17:39 23.02.2021
2208 Clear -30 1023 75 10000 2.06 70 16:56 23.02.2021
2209 Clear -30 1023 75 10000 2.06 70 16:36 23.02.2021
2210 Clear -31 1023 68 10000 0.54 120 16:18 23.02.2021
2211 Clear -31 1023 68 10000 0.54 120 15:40 23.02.2021
2212 Clear -31 1023 68 10000 0.88 173 15:21 23.02.2021
2213 Clear -30 1022 68 10000 0.88 173 14:44 23.02.2021
2214 Clear -30 1022 68 10000 1.27 176 14:25 23.02.2021
2215 Snow -29 1022 88 10000 2.57 50 13:47 23.02.2021
2216 Clear -30 1021 75 10000 1.47 181 13:26 23.02.2021
2217 Clear -30 1021 75 10000 1.39 179 12:51 23.02.2021
2218 Clear -29 1021 75 10000 1.43 189 12:20 23.02.2021
2219 Clouds -28 1021 76 10000 1.43 189 11:48 23.02.2021
2220 Clouds -28 1021 76 10000 1.34 202 11:22 23.02.2021
2221 Clouds -25 1020 76 10000 1.54 60 10:51 23.02.2021
2222 Clouds -27 1020 76 10000 1.54 60 10:32 23.02.2021
2223 Snow -25 1020 76 9656 1.33 209 09:45 23.02.2021
2224 Snow -25 1020 76 9656 1.4 214 09:25 23.02.2021
2225 Snow -25 1020 76 9656 1.4 214 08:50 23.02.2021
2226 Clouds -25 1020 70 10000 1.44 217 08:24 23.02.2021
2227 Snow -25 1019 76 9656 1.44 217 07:53 23.02.2021
2228 Clouds -28 1018 76 10000 0.85 185 05:32 23.02.2021
2229 Clouds -26 1017 69 10000 0.85 185 04:58 23.02.2021
2230 Clouds -25 1016 69 10000 0.87 121 02:34 23.02.2021
2231 Clouds -24 1014 70 10000 0.29 175 00:20 23.02.2021
2232 Clouds -25 1013 70 10000 2.06 150 23:52 22.02.2021
2233 Clouds -25 1013 70 10000 2.06 150 23:20 22.02.2021
2234 Clouds -26 1012 69 10000 2.06 70 22:41 22.02.2021
2235 Clouds -26 1012 69 10000 2.06 70 22:20 22.02.2021
2236 Clouds -28 1011 68 10000 0.6 170 21:45 22.02.2021
2237 Clouds -28 1011 68 10000 0.6 170 21:45 22.02.2021
2238 Clouds -29 1011 68 10000 0.59 126 21:23 22.02.2021
2239 Clouds -30 1011 67 10000 0.59 126 20:51 22.02.2021
2240 Clouds -33 1011 67 10000 0.62 114 20:29 22.02.2021
2241 Clear -33 1009 67 10000 0.62 114 19:52 22.02.2021
2242 Clear -33 1009 67 10000 0.62 114 19:33 22.02.2021
2243 Clear -34 1009 67 10000 0.59 93 18:56 22.02.2021
2244 Clear -34 1008 67 9656 0.59 93 18:37 22.02.2021
2245 Clear -34 1008 67 9656 0.54 82 18:19 22.02.2021
2246 Clouds -34 1007 67 10000 0.57 71 17:25 22.02.2021
2247 Clear -34 1006 67 10000 0.57 71 16:54 22.02.2021
2248 Clear -34 1006 67 10000 0.53 93 16:32 22.02.2021
2249 Clear -34 1005 67 10000 0.53 93 15:46 22.02.2021
2250 Clear -34 1005 67 10000 0.54 86 15:27 22.02.2021
2251 Clear -34 1004 67 10000 0.54 86 14:47 22.02.2021
2252 Clear -33 1004 67 10000 0.23 59 14:28 22.02.2021
2253 Snow -32 1003 85 10000 0.23 59 13:46 22.02.2021
2254 Clouds -33 1002 68 10000 0.28 129 12:56 22.02.2021
2255 Clouds -33 1002 68 10000 0.1 69 12:24 22.02.2021
2256 Clear -33 1001 74 10000 0.1 69 11:58 22.02.2021
2257 Clear -33 1001 74 10000 0.1 69 11:39 22.02.2021
2258 Clear -33 1001 74 10000 0.16 58 11:20 22.02.2021
2259 Clear -32 1000 68 10000 0.16 58 10:46 22.02.2021
2260 Clear -33 1000 68 10000 0.28 67 10:22 22.02.2021
2261 Clear -33 999 86 10000 0.28 67 09:41 22.02.2021
2262 Clear -33 999 68 10000 0.33 61 09:22 22.02.2021
2263 Clear -33 999 68 10000 0.33 61 08:49 22.02.2021
2264 Clear -32 999 68 10000 0.44 43 08:23 22.02.2021
2265 Clear -31 998 68 10000 0.44 43 07:53 22.02.2021
2266 Clear -31 998 68 10000 0.43 2 07:25 22.02.2021
2267 Clear -31 997 75 10000 0.24 352 06:29 22.02.2021
2268 Clear -29 996 75 10000 0.13 290 05:26 22.02.2021
2269 Clouds -26 999 77 10000 0.45 173 03:25 22.02.2021
2270 Clouds -25 998 77 10000 0.45 173 02:33 22.02.2021
2271 Clouds -24 992 55 10000 0.45 200 00:45 22.02.2021
2272 Clouds -24 996 57 10000 0.91 207 00:19 22.02.2021
2273 Clouds -25 993 69 10000 1.05 200 23:27 21.02.2021
2274 Clouds -26 993 76 10000 1.05 200 22:43 21.02.2021
2275 Clouds -27 993 76 10000 0.89 201 22:22 21.02.2021
2276 Snow -28 992 83 10000 0.89 201 21:37 21.02.2021
2277 Snow -29 991 75 10000 0.64 219 20:59 21.02.2021
2278 Snow -29 991 75 10000 0.64 219 20:40 21.02.2021
2279 Snow -30 991 75 10000 0.8 239 20:19 21.02.2021
2280 Clouds -30 990 85 10000 0.8 239 19:51 21.02.2021
2281 Clouds -31 990 83 10000 0.7 259 19:32 21.02.2021
2282 Clouds -31 990 83 10000 0.7 259 19:32 21.02.2021
2283 Clouds -31 989 68 10000 0.7 259 18:48 21.02.2021
2284 Clouds -31 989 68 10000 0.81 268 18:25 21.02.2021
2285 Clear -31 988 68 10000 0.81 268 17:30 21.02.2021
2286 Clear -31 988 75 10000 1.54 200 16:58 21.02.2021
2287 Clear -31 988 75 10000 1.54 200 16:34 21.02.2021
2288 Clear -30 987 75 10000 1.02 288 15:57 21.02.2021
2289 Clear -31 987 75 10000 1.01 312 15:22 21.02.2021
2290 Clear -31 987 69 10000 1.01 312 14:54 21.02.2021
2291 Clear -31 987 69 10000 1.01 312 14:35 21.02.2021
2292 Clear -29 987 69 10000 2.57 20 13:48 21.02.2021
2293 Clear -30 987 69 10000 2.57 20 13:25 21.02.2021
2294 Clear -29 987 69 10000 4.12 60 12:32 21.02.2021
2295 Clear -29 987 69 10000 3.09 20 11:58 21.02.2021
2296 Clear -29 987 69 10000 3.09 20 11:40 21.02.2021
2297 Clear -30 987 69 10000 2.57 40 10:40 21.02.2021
2298 Clear -30 987 69 10000 2.57 40 10:21 21.02.2021
2299 Clear -30 988 83 10000 2.06 30 09:42 21.02.2021
2300 Clear -30 988 83 10000 2.06 30 09:23 21.02.2021
2301 Clear -32 988 75 10000 1.54 40 08:33 21.02.2021
2302 Clear -31 988 68 10000 1.98 341 07:44 21.02.2021
2303 Clear -28 988 68 10000 1.91 340 07:21 21.02.2021
2304 Clouds -26 989 76 10000 1.8 338 05:28 21.02.2021
2305 Clouds -23 991 70 10000 2.06 140 02:40 21.02.2021
2306 Clouds -19 993 70 10000 1.54 110 00:59 21.02.2021
2307 Clouds -20 993 70 10000 1.54 110 00:21 21.02.2021
2308 Clouds -21 994 64 10000 1.54 60 23:38 20.02.2021
2309 Clouds -24 995 76 10000 1.17 57 22:55 20.02.2021
2310 Clouds -24 995 76 10000 1.17 57 22:31 20.02.2021
2311 Clouds -27 996 63 10000 2.57 30 21:47 20.02.2021
2312 Clouds -27 996 63 10000 2.57 30 21:29 20.02.2021
2313 Clouds -28 997 76 10000 3.6 40 20:56 20.02.2021
2314 Clouds -27 997 76 10000 3.6 40 20:36 20.02.2021
2315 Clear -32 998 84 10000 1.64 51 19:59 20.02.2021
2316 Clear -32 998 84 10000 1.64 51 19:40 20.02.2021
2317 Snow -32 999 82 10000 1.54 50 18:54 20.02.2021
2318 Snow -33 999 82 10000 1.54 50 18:31 20.02.2021
2319 Snow -32 1000 82 10000 2.06 50 17:47 20.02.2021
2320 Snow -32 1000 82 10000 2.06 50 17:28 20.02.2021
2321 Snow -33 1000 82 10000 1.84 45 16:48 20.02.2021
2322 Snow -33 1000 83 10000 1.93 38 16:23 20.02.2021
2323 Snow -33 1001 83 10000 1.93 38 15:41 20.02.2021
2324 Snow -33 1002 83 10000 2.06 40 14:52 20.02.2021
2325 Snow -33 1002 83 10000 2.06 40 14:25 20.02.2021
2326 Snow -33 1003 83 10000 2.06 50 13:58 20.02.2021
2327 Snow -33 1003 83 10000 2.06 50 13:38 20.02.2021
2328 Snow -33 1003 83 10000 2.06 50 13:19 20.02.2021
2329 Snow -32 1003 83 10000 1.54 40 12:35 20.02.2021
2330 Snow -32 1004 84 10000 1.54 20 11:50 20.02.2021
2331 Snow -32 1004 84 10000 1.54 20 11:31 20.02.2021
2332 Snow -31 1005 84 10000 1.5 31 10:50 20.02.2021
2333 Snow -31 1005 85 10000 1.25 38 10:21 20.02.2021
2334 Snow -31 1005 85 10000 2.06 40 09:46 20.02.2021
2335 Snow -30 1005 68 10000 1.2 43 08:53 20.02.2021
2336 Snow -30 1005 75 10000 1.54 40 08:23 20.02.2021
2337 Clouds -26 1006 69 10000 0.65 184 04:56 20.02.2021
2338 Snow -24 1007 64 9656 1.54 240 02:32 20.02.2021
2339 Mist -24 1007 64 6437 2.06 240 01:55 20.02.2021
2340 Snow -24 1007 64 3219 2.57 0 00:55 20.02.2021
2341 Snow -24 1007 64 4828 2.06 0 00:36 20.02.2021
2342 Snow -25 1007 64 4828 2.57 240 23:26 19.02.2021
2343 Snow -25 1006 64 3219 2.57 250 22:45 19.02.2021
2344 Snow -25 1006 64 3219 2.57 250 22:20 19.02.2021
2345 Snow -25 1006 70 3219 2.57 240 21:43 19.02.2021
2346 Snow -25 1006 70 2414 1.54 230 21:23 19.02.2021
2347 Snow -25 1006 64 10000 2.57 0 20:42 19.02.2021
2348 Snow -25 1006 64 10000 2.57 0 20:24 19.02.2021
2349 Clouds -25 1005 58 10000 5.14 250 19:44 19.02.2021
2350 Clouds -25 1005 58 10000 5.14 250 19:20 19.02.2021
2351 Snow -25 1005 64 10000 1.54 270 18:50 19.02.2021
2352 Snow -25 1005 64 10000 1.54 270 18:26 19.02.2021
2353 Snow -24 1004 58 10000 2.57 260 17:36 19.02.2021
2354 Snow -24 1004 64 10000 3.6 240 16:41 19.02.2021
2355 Snow -24 1004 64 10000 3.6 240 16:22 19.02.2021
2356 Snow -23 1003 70 10000 1.54 230 15:54 19.02.2021
2357 Snow -23 1003 70 10000 1.54 230 15:27 19.02.2021
2358 Snow -23 1003 70 10000 2.57 270 14:49 19.02.2021
2359 Snow -22 1003 70 10000 2.57 270 14:29 19.02.2021
2360 Snow -22 1002 77 9656 3.09 220 13:56 19.02.2021
2361 Snow -22 1002 77 9656 3.09 220 13:36 19.02.2021
2362 Snow -21 1002 77 9656 3.09 220 12:53 19.02.2021
2363 Clouds -21 1002 77 10000 3.09 220 12:27 19.02.2021
2364 Clouds -21 1002 77 10000 3.09 210 11:57 19.02.2021
2365 Clouds -20 1002 71 10000 3.09 230 11:32 19.02.2021
2366 Clouds -20 1001 77 10000 2.57 230 10:55 19.02.2021
2367 Clouds -20 1001 77 10000 2.57 230 10:33 19.02.2021
2368 Clouds -19 1001 77 10000 5.14 230 09:52 19.02.2021
2369 Clouds -19 1001 77 10000 5.14 230 09:27 19.02.2021
2370 Clouds -18 1000 84 10000 3.6 230 08:55 19.02.2021
2371 Clouds -18 1000 84 10000 3.6 230 08:28 19.02.2021
2372 Snow -18 1000 71 10000 2.57 240 07:54 19.02.2021
2373 Snow -18 1000 71 10000 3.6 290 07:36 19.02.2021
2374 Snow -18 1000 71 9367 3.6 290 06:58 19.02.2021
2375 Snow -18 1000 71 10000 3.6 290 06:29 19.02.2021
2376 Snow -18 999 78 6437 4.12 280 04:41 19.02.2021
2377 Snow -17 998 78 4828 1.54 190 01:49 19.02.2021
2378 Mist -16 999 85 2012 3.09 220 00:59 19.02.2021
2379 Snow -16 999 85 2012 3.09 220 00:26 19.02.2021
2380 Snow -16 999 78 4023 2.57 210 23:43 18.02.2021
2381 Snow -16 999 78 3219 2.06 210 23:25 18.02.2021
2382 Snow -17 999 78 2414 1.7 249 22:36 18.02.2021
2383 Snow -17 999 78 2414 1.49 241 22:18 18.02.2021
2384 Snow -17 999 85 2012 1.29 246 21:28 18.02.2021
2385 Snow -17 999 85 3219 1.54 230 20:58 18.02.2021
2386 Snow -17 999 85 3219 1.54 230 20:38 18.02.2021
2387 Snow -17 999 85 3219 1.23 255 20:19 18.02.2021
2388 Snow -17 999 85 3219 1.23 255 19:43 18.02.2021
2389 Snow -18 1000 85 8047 1.12 246 19:19 18.02.2021
2390 Mist -18 1000 85 8047 1.03 248 18:47 18.02.2021
2391 Snow -18 1000 85 3219 0.98 236 18:26 18.02.2021
2392 Snow -17 1000 85 4828 0.98 236 17:45 18.02.2021
2393 Snow -17 1000 78 8047 1.1 244 17:23 18.02.2021
2394 Snow -18 1001 85 9656 1.1 244 16:46 18.02.2021
2395 Snow -17 1001 85 9656 1.23 236 16:28 18.02.2021
2396 Snow -18 1002 85 10000 1.23 236 15:42 18.02.2021
2397 Snow -18 1002 85 10000 1 252 15:23 18.02.2021
2398 Snow -18 1002 85 6437 1 252 14:52 18.02.2021
2399 Snow -18 1002 85 10000 1 252 14:31 18.02.2021
2400 Clouds -18 1002 84 10000 0.84 267 13:49 18.02.2021
2401 Clouds -18 1003 84 10000 0.83 285 13:21 18.02.2021
2402 Clouds -18 1003 84 10000 0.83 285 12:54 18.02.2021
2403 Clouds -18 1003 84 10000 0.83 285 12:30 18.02.2021
2404 Clouds -18 1003 85 10000 0.63 289 11:47 18.02.2021
2405 Clouds -18 1003 85 10000 0.63 289 11:47 18.02.2021
2406 Clouds -18 1003 85 10000 0.73 273 11:27 18.02.2021
2407 Clouds -18 1004 84 10000 0.73 273 10:57 18.02.2021
2408 Clouds -18 1004 84 10000 0.73 273 10:36 18.02.2021
2409 Clouds -18 1004 84 10000 0.65 246 10:18 18.02.2021
2410 Clouds -18 1004 84 10000 0.92 264 09:28 18.02.2021
2411 Clouds -17 1003 85 10000 0.92 264 08:49 18.02.2021
2412 Clouds -17 1003 85 10000 0.94 277 08:31 18.02.2021
2413 Clouds -16 1004 78 10000 0.94 277 07:48 18.02.2021
2414 Clouds -16 1004 78 10000 0.88 285 07:23 18.02.2021
2415 Clouds -17 1004 78 10000 1.2 296 05:42 18.02.2021
2416 Clouds -17 1004 78 10000 1.2 296 05:42 18.02.2021
2417 Clouds -13 1004 85 10000 1.54 210 00:29 18.02.2021
2418 Clouds -14 1004 85 10000 1.19 305 23:38 17.02.2021
2419 Clouds -15 1004 85 10000 1.3 313 23:18 17.02.2021
2420 Clouds -16 1005 85 10000 1.3 313 22:39 17.02.2021
2421 Clouds -16 1005 85 10000 1.44 321 22:21 17.02.2021
2422 Clouds -17 1005 84 10000 1.44 321 21:44 17.02.2021
2423 Clouds -17 1005 84 10000 1.15 317 21:20 17.02.2021
2424 Clouds -17 1006 78 10000 1.15 317 20:42 17.02.2021
2425 Clouds -17 1006 78 10000 1.48 349 20:22 17.02.2021
2426 Clouds -18 1007 77 10000 1.48 349 19:38 17.02.2021
2427 Clouds -19 1007 77 10000 1.43 353 18:59 17.02.2021
2428 Clouds -18 1007 77 10000 1.5 355 18:59 17.02.2021
2429 Clouds -19 1007 77 10000 1.43 353 18:40 17.02.2021
2430 Clouds -17 1008 84 10000 1.42 347 17:47 17.02.2021
2431 Clouds -17 1008 84 10000 1.23 344 17:23 17.02.2021
2432 Clouds -16 1008 84 10000 1.23 344 16:54 17.02.2021
2433 Clouds -16 1008 84 10000 1.23 344 16:54 17.02.2021
2434 Clouds -16 1008 84 10000 1.23 344 16:36 17.02.2021
2435 Clouds -16 1008 84 10000 1.34 350 16:18 17.02.2021
2436 Clouds -15 1008 92 10000 1.34 350 15:42 17.02.2021
2437 Clouds -14 1008 92 10000 1.26 352 15:22 17.02.2021
2438 Clouds -13 1009 92 10000 1.26 352 14:44 17.02.2021
2439 Clouds -13 1009 92 10000 1.26 352 14:44 17.02.2021
2440 Clouds -13 1009 92 10000 1.33 359 14:26 17.02.2021
2441 Clouds -13 1009 78 10000 1.33 359 13:45 17.02.2021
2442 Clouds -13 1010 85 10000 1.31 352 12:59 17.02.2021
2443 Clouds -13 1010 85 10000 1.06 349 12:26 17.02.2021
2444 Clouds -13 1010 85 10000 1.06 349 12:26 17.02.2021
2445 Clouds -13 1010 85 10000 1.06 349 11:59 17.02.2021
2446 Clouds -13 1010 85 10000 1.06 349 11:36 17.02.2021
2447 Clouds -13 1010 85 10000 1.14 358 11:18 17.02.2021
2448 Clouds -12 1011 85 10000 1.14 358 10:43 17.02.2021
2449 Clouds -12 1011 85 10000 1.13 355 10:21 17.02.2021
2450 Snow -12 1011 85 2816 1.13 355 09:41 17.02.2021
2451 Snow -12 1011 85 6437 1.2 353 09:19 17.02.2021
2452 Clouds -12 1011 85 10000 1.2 353 08:42 17.02.2021
2453 Clouds -12 1011 85 10000 1.23 349 08:21 17.02.2021
2454 Snow -12 1011 92 10000 1.14 343 07:25 17.02.2021
2455 Snow -12 1011 92 1609 0.98 343 04:54 17.02.2021
2456 Snow -11 1011 85 2012 0.54 326 02:33 17.02.2021
2457 Mist -12 1010 85 4828 0.38 312 01:49 17.02.2021
2458 Snow -11 1010 85 2615 0.45 270 00:32 17.02.2021
2459 Snow -12 1010 85 3219 0.5 302 23:54 16.02.2021
2460 Mist -12 1010 85 2414 1.54 270 23:34 16.02.2021
2461 Snow -12 1010 85 2816 1.54 290 22:43 16.02.2021
2462 Mist -12 1010 85 2012 2.06 280 22:24 16.02.2021
2463 Snow -13 1009 85 2012 1.54 270 21:42 16.02.2021
2464 Snow -13 1009 85 1609 0.43 321 21:22 16.02.2021
2465 Snow -13 1009 85 2816 0.43 321 20:59 16.02.2021
2466 Snow -13 1009 85 2816 0.43 321 20:41 16.02.2021
2467 Snow -13 1009 85 3219 0.46 325 20:20 16.02.2021
2468 Snow -13 1009 85 3621 0.46 325 19:42 16.02.2021
2469 Snow -14 1008 85 3219 0.65 328 19:22 16.02.2021
2470 Snow -14 1008 85 3219 0.65 328 18:40 16.02.2021
2471 Snow -14 1008 85 3219 0.67 334 18:22 16.02.2021
2472 Snow -14 1006 85 4828 0.51 190 17:50 16.02.2021
2473 Snow -14 1008 85 3219 0.7 339 17:26 16.02.2021
2474 Snow -14 1008 85 4828 0.7 339 16:51 16.02.2021
2475 Snow -14 1010 85 3219 0.67 329 16:29 16.02.2021
2476 Snow -14 1010 85 3219 0.67 329 15:47 16.02.2021
2477 Snow -14 1008 85 4828 0.76 323 15:26 16.02.2021
2478 Snow -15 1008 85 9656 0.76 323 14:51 16.02.2021
2479 Snow -15 1008 78 3219 0.8 329 14:32 16.02.2021
2480 Snow -15 1008 78 3219 0.8 329 13:58 16.02.2021
2481 Snow -15 1008 78 1609 0.8 329 13:35 16.02.2021
2482 Snow -15 1008 85 9656 0.97 337 12:47 16.02.2021
2483 Snow -15 1008 85 9656 0.97 330 12:26 16.02.2021
2484 Snow -15 1008 78 9656 0.97 330 11:50 16.02.2021
2485 Snow -15 1008 78 9656 0.92 343 11:24 16.02.2021
2486 Snow -15 1008 78 9656 0.51 90 10:58 16.02.2021
2487 Snow -16 1008 78 9656 0.51 90 10:39 16.02.2021
2488 Snow -16 1008 78 9656 0.51 90 10:20 16.02.2021
2489 Snow -16 1007 85 9656 0.51 80 09:48 16.02.2021
2490 Snow -16 1007 85 9656 0.51 80 09:26 16.02.2021
2491 Snow -15 1007 78 10000 0.84 346 08:45 16.02.2021
2492 Snow -15 1007 78 10000 0.84 346 08:45 16.02.2021
2493 Snow -15 1007 78 10000 0.73 344 08:22 16.02.2021
2494 Snow -16 1007 78 10000 0.61 338 07:30 16.02.2021
2495 Snow -16 1007 72 10000 0.94 5 06:24 16.02.2021
2496 Clouds -16 1007 78 10000 0.35 235 01:52 16.02.2021
2497 Clear -17 1007 77 10000 0.21 296 23:46 15.02.2021
2498 Clear -17 1007 77 10000 0.11 286 23:24 15.02.2021
2499 Clouds -18 1007 77 10000 0.11 286 22:46 15.02.2021
2500 Clouds -18 1007 77 10000 0.11 360 22:23 15.02.2021
2501 Clouds -18 1007 77 10000 0.11 360 21:42 15.02.2021
2502 Clouds -20 1007 77 10000 0.24 19 21:23 15.02.2021
2503 Clouds -24 1006 76 10000 0.24 19 20:53 15.02.2021
2504 Clouds -24 1006 76 10000 0.24 19 20:33 15.02.2021
2505 Clouds -24 1006 69 10000 1.54 40 19:48 15.02.2021
2506 Clouds -32 1006 69 10000 1.54 40 19:24 15.02.2021
2507 Clouds -28 1006 75 10000 0.39 358 18:49 15.02.2021
2508 Clouds -28 1006 75 10000 0.49 359 18:26 15.02.2021
2509 Clear -32 1006 75 10000 0.49 359 17:45 15.02.2021
2510 Clear -32 1006 75 10000 0.4 0 17:27 15.02.2021
2511 Clear -31 1006 76 10000 0.4 0 16:57 15.02.2021
2512 Clear -31 1006 76 10000 0.4 0 16:37 15.02.2021
2513 Clear -31 1006 76 10000 0.54 28 16:18 15.02.2021
2514 Clear -30 1006 69 10000 0.54 28 15:41 15.02.2021
2515 Clear -30 1006 69 10000 0.66 9 15:18 15.02.2021
2516 Clear -31 1006 76 10000 0.66 9 14:43 15.02.2021
2517 Clear -31 1006 76 10000 0.44 345 14:20 15.02.2021
2518 Clear -31 1006 69 10000 0.44 345 13:48 15.02.2021
2519 Clear -31 1006 69 10000 0.57 5 13:20 15.02.2021
2520 Clear -30 1006 76 10000 0.57 5 12:45 15.02.2021
2521 Clear -30 1006 76 10000 0.65 9 12:22 15.02.2021
2522 Clear -30 1006 69 10000 0.65 9 11:50 15.02.2021
2523 Clear -30 1006 69 10000 0.73 21 11:23 15.02.2021
2524 Clear -29 1005 69 10000 0.73 21 10:50 15.02.2021
2525 Clear -25 1005 69 10000 0.63 24 10:25 15.02.2021
2526 Clear -29 1005 76 10000 0.63 24 09:56 15.02.2021
2527 Clear -29 1005 76 10000 0.63 24 09:33 15.02.2021
2528 Clear -28 1005 69 10000 0.47 27 08:57 15.02.2021
2529 Clear -27 1005 76 10000 0.52 23 07:55 15.02.2021
2530 Clear -25 1005 76 10000 0.43 1 06:59 15.02.2021
2531 Clear -25 1005 76 10000 0.43 1 06:40 15.02.2021
2532 Clear -16 1005 72 10000 0.42 261 02:47 15.02.2021
2533 Clear -18 1005 71 10000 0.63 199 01:27 15.02.2021
2534 Clear -18 1005 77 10000 0.38 210 23:59 14.02.2021
2535 Clear -18 1005 77 10000 0.27 194 23:23 14.02.2021
2536 Clear -22 1006 76 10000 0.27 194 22:41 14.02.2021
2537 Clear -22 1006 76 10000 0.16 102 22:22 14.02.2021
2538 Clear -23 1006 69 10000 0.16 102 21:50 14.02.2021
2539 Clear -28 1006 69 10000 0.43 43 21:29 14.02.2021
2540 Clear -31 1006 76 10000 0.43 43 20:52 14.02.2021
2541 Clear -31 1006 76 10000 0.75 36 20:27 14.02.2021
2542 Clear -31 1005 76 10000 0.75 36 19:49 14.02.2021
2543 Clear -32 1006 75 10000 0.71 50 18:58 14.02.2021
2544 Clear -32 1006 75 10000 0.61 34 18:37 14.02.2021
2545 Clear -32 1006 75 10000 0.87 50 17:57 14.02.2021
2546 Clear -32 1006 75 10000 0.87 50 17:39 14.02.2021
2547 Clear -31 1006 76 10000 0.8 57 16:55 14.02.2021
2548 Clear -31 1006 76 10000 0.8 57 16:33 14.02.2021
2549 Clear -30 1006 76 10000 0.73 51 15:53 14.02.2021
2550 Clear -30 1006 76 10000 0.73 51 15:35 14.02.2021
2551 Clear -29 1007 69 10000 0.38 42 14:49 14.02.2021
2552 Clear -29 1007 69 10000 0.25 28 14:27 14.02.2021
2553 Clear -30 1007 76 10000 0.25 28 13:53 14.02.2021
2554 Clear -30 1007 76 10000 0.56 1 13:30 14.02.2021
2555 Clear -29 1007 69 10000 0.77 9 12:40 14.02.2021
2556 Clear -29 1007 69 10000 0.67 348 12:19 14.02.2021
2557 Clear -28 1006 69 10000 0.67 348 11:50 14.02.2021
2558 Clear -28 1006 69 10000 0.67 348 11:50 14.02.2021
2559 Clear -28 1006 69 10000 0.67 348 11:50 14.02.2021
2560 Clear -28 1006 69 10000 0.58 8 11:21 14.02.2021
2561 Clear -28 1007 76 10000 0.58 8 10:39 14.02.2021
2562 Clear -27 1007 76 10000 0.43 352 09:56 14.02.2021
2563 Clear -27 1007 76 10000 0.43 352 09:38 14.02.2021
2564 Clear -24 1007 76 10000 0.85 360 09:19 14.02.2021
2565 Clear -23 1007 76 10000 0.85 360 08:35 14.02.2021
2566 Clear -23 1007 76 10000 1.09 21 07:55 14.02.2021
2567 Clear -24 1007 77 10000 1.23 23 06:49 14.02.2021
2568 Clear -23 1008 84 10000 1.09 10 05:41 14.02.2021
2569 Clear -18 1008 78 10000 1.54 270 03:30 14.02.2021
2570 Clear -17 1010 84 10000 0.75 338 01:54 14.02.2021
2571 Clear -17 1011 84 10000 0.55 348 00:47 14.02.2021
2572 Clear -18 1011 84 10000 0.36 17 00:22 14.02.2021
2573 Clear -18 1012 77 10000 0.36 17 23:40 13.02.2021
2574 Clear -19 1012 77 10000 0.72 30 23:20 13.02.2021
2575 Clear -19 1012 77 10000 0.72 30 23:20 13.02.2021
2576 Clear -22 1012 77 10000 0.72 30 22:33 13.02.2021
2577 Clear -26 1013 76 10000 0.62 21 21:59 13.02.2021
2578 Clear -26 1013 76 10000 0.62 21 21:40 13.02.2021
2579 Clear -28 1014 76 10000 0.83 16 20:52 13.02.2021
2580 Clear -28 1014 76 10000 0.92 27 20:28 13.02.2021
2581 Clear -28 1014 76 10000 0.92 27 20:28 13.02.2021
2582 Clear -29 1014 76 10000 0.92 27 19:49 13.02.2021
2583 Clear -29 1014 76 10000 0.92 27 19:49 13.02.2021
2584 Clear -29 1014 76 10000 1.06 32 19:25 13.02.2021
2585 Clear -29 1015 76 10000 1.06 33 18:52 13.02.2021
2586 Clear -29 1015 76 10000 1.06 33 18:33 13.02.2021
2587 Clear -29 1015 76 10000 1.44 39 17:45 13.02.2021
2588 Clear -29 1015 76 10000 1.27 38 17:26 13.02.2021
2589 Clear -25 1016 76 10000 1.27 38 16:59 13.02.2021
2590 Clear -25 1016 76 10000 1.27 38 16:41 13.02.2021
2591 Clear -25 1017 76 10000 1.03 48 15:57 13.02.2021
2592 Clear -25 1017 76 10000 1.05 54 15:27 13.02.2021
2593 Clear -25 1017 76 10000 1.05 54 14:41 13.02.2021
2594 Clear -25 1017 76 10000 1 55 14:19 13.02.2021
2595 Clear -25 1018 83 10000 1 55 13:40 13.02.2021
2596 Clear -25 1018 83 10000 0.95 39 13:22 13.02.2021
2597 Clear -28 1019 83 10000 0.95 39 12:36 13.02.2021
2598 Clear -25 1019 83 10000 1.05 53 12:18 13.02.2021
2599 Clear -24 1019 76 10000 1.05 53 11:40 13.02.2021
2600 Clear -24 1019 76 10000 1.04 56 11:18 13.02.2021
2601 Clear -27 1019 76 10000 1.04 56 10:43 13.02.2021
2602 Clear -24 1019 76 10000 1.17 54 10:23 13.02.2021
2603 Clear -23 1019 77 10000 1.17 54 09:48 13.02.2021
2604 Clear -23 1019 77 10000 1.14 40 09:28 13.02.2021
2605 Clear -22 1019 77 10000 1.14 40 08:50 13.02.2021
2606 Clear -24 1019 77 10000 0.47 41 08:26 13.02.2021
2607 Clear -23 1019 77 10000 0.55 69 07:43 13.02.2021
2608 Clear -21 1020 84 10000 0.94 14 06:25 13.02.2021
2609 Clear -20 1020 84 10000 0.94 30 05:18 13.02.2021
2610 Clear -15 1021 72 10000 0.53 20 02:44 13.02.2021
2611 Clear -14 1022 71 10000 0.08 211 00:57 13.02.2021
2612 Clear -14 1022 71 10000 0.37 88 00:19 13.02.2021
2613 Clear -16 1022 78 10000 0.37 88 23:45 12.02.2021
2614 Clear -16 1022 78 10000 0.76 97 23:19 12.02.2021
2615 Clear -17 1022 84 10000 0.76 97 22:32 12.02.2021
2616 Clear -22 1022 77 10000 0.78 131 21:59 12.02.2021
2617 Clear -22 1022 77 10000 0.78 131 21:40 12.02.2021
2618 Clear -22 1022 77 10000 0.84 135 21:21 12.02.2021
2619 Clear -23 1022 77 10000 0.84 135 20:41 12.02.2021
2620 Clear -23 1022 77 10000 0.84 135 20:41 12.02.2021
2621 Clear -21 1022 77 10000 0.67 147 20:23 12.02.2021
2622 Clear -21 1022 77 10000 0.67 147 19:54 12.02.2021
2623 Clear -23 1022 77 10000 0.55 115 19:29 12.02.2021
2624 Clear -23 1021 77 10000 0.88 133 18:38 12.02.2021
2625 Clear -22 1021 77 10000 0.69 143 18:18 12.02.2021
2626 Clear -22 1021 77 10000 0.69 143 17:38 12.02.2021
2627 Clear -20 1021 84 10000 0.38 147 16:54 12.02.2021
2628 Clear -20 1021 84 10000 0.43 68 16:18 12.02.2021
2629 Clear -20 1021 84 10000 0.43 68 15:43 12.02.2021
2630 Clear -19 1021 84 10000 0.9 64 15:20 12.02.2021
2631 Clear -18 1022 84 10000 0.9 64 14:37 12.02.2021
2632 Clear -19 1022 77 10000 0.77 82 13:51 12.02.2021
2633 Clear -19 1022 77 10000 0.77 82 13:32 12.02.2021
2634 Clear -18 1022 84 10000 0.92 70 12:54 12.02.2021
2635 Clear -19 1022 84 10000 0.92 70 12:36 12.02.2021
2636 Clear -18 1022 84 10000 1.22 89 11:48 12.02.2021
2637 Clear -17 1022 84 10000 1.08 93 11:22 12.02.2021
2638 Clouds -16 1021 85 10000 1.08 93 10:50 12.02.2021
2639 Clouds -16 1021 85 10000 1.79 107 10:31 12.02.2021
2640 Clear -15 1021 85 10000 1.79 107 09:42 12.02.2021
2641 Clear -15 1021 85 10000 1.37 121 09:23 12.02.2021
2642 Clouds -15 1021 85 10000 1.54 230 08:46 12.02.2021
2643 Clouds -14 1021 85 10000 1.54 230 08:25 12.02.2021
2644 Clouds -15 1020 78 10000 1.32 122 07:52 12.02.2021
2645 Clouds -15 1020 85 10000 1.57 116 07:27 12.02.2021
2646 Clouds -15 1020 85 10000 0.51 111 06:53 12.02.2021
2647 Clouds -14 1020 78 10000 1.29 121 05:37 12.02.2021
2648 Clouds -11 1020 67 10000 2.08 137 03:46 12.02.2021
2649 Clouds -10 1022 73 10000 1.05 144 00:34 12.02.2021
2650 Clouds -11 1022 78 10000 0.6 126 23:38 11.02.2021
2651 Clouds -10 1022 78 10000 0.87 91 23:18 11.02.2021
2652 Clouds -11 1023 78 10000 0.87 91 22:42 11.02.2021
2653 Clouds -12 1023 78 10000 0.76 58 22:23 11.02.2021
2654 Clouds -13 1023 85 10000 0.76 58 21:43 11.02.2021
2655 Clouds -13 1023 85 10000 0.95 26 21:25 11.02.2021
2656 Clouds -14 1023 85 10000 0.95 26 20:56 11.02.2021
2657 Clouds -13 1023 85 10000 0.95 26 20:37 11.02.2021
2658 Clouds -15 1023 85 10000 1.03 36 20:18 11.02.2021
2659 Clear -15 1023 78 10000 1.03 36 19:46 11.02.2021
2660 Clear -15 1023 78 10000 1.22 44 19:25 11.02.2021
2661 Clear -16 1024 78 10000 1.22 44 18:42 11.02.2021
2662 Clear -16 1024 78 10000 1.16 47 18:20 11.02.2021
2663 Clouds -16 1025 85 10000 1.16 47 17:47 11.02.2021
2664 Clouds -16 1025 85 10000 0.73 51 17:21 11.02.2021
2665 Clouds -16 1025 85 10000 0.73 51 16:45 11.02.2021
2666 Clouds -17 1025 85 10000 1.06 72 16:26 11.02.2021
2667 Clouds -16 1026 78 10000 1.06 72 15:45 11.02.2021
2668 Clouds -16 1026 78 10000 0.96 60 15:26 11.02.2021
2669 Clear -17 1026 85 10000 0.96 60 14:55 11.02.2021
2670 Clear -17 1026 85 10000 0.96 60 14:31 11.02.2021
2671 Clouds -16 1027 66 10000 0.97 47 13:43 11.02.2021
2672 Clear -17 1028 84 10000 0.77 25 13:20 11.02.2021
2673 Clear -17 1028 84 10000 0.77 25 12:56 11.02.2021
2674 Clear -17 1028 84 10000 0.77 25 12:35 11.02.2021
2675 Clear -17 1028 84 10000 0.4 3 11:48 11.02.2021
2676 Clear -17 1028 84 10000 0.45 32 11:28 11.02.2021
2677 Clear -18 1029 77 10000 0.45 32 10:55 11.02.2021
2678 Clear -18 1029 77 10000 0.45 32 10:37 11.02.2021
2679 Clear -18 1029 77 10000 0.48 42 10:19 11.02.2021
2680 Clear -19 1029 77 10000 0.48 42 09:38 11.02.2021
2681 Clear -19 1029 77 10000 0.73 67 09:18 11.02.2021
2682 Clear -19 1029 77 10000 0.73 67 08:44 11.02.2021
2683 Clear -19 1029 77 10000 0.77 71 07:43 11.02.2021
2684 Clear -19 1029 84 10000 0.61 14 06:44 11.02.2021
2685 Clear -19 1029 84 10000 0.44 359 06:20 11.02.2021
2686 Clear -15 1029 72 10000 0.51 351 03:45 11.02.2021
2687 Clear -15 1030 72 10000 0.98 14 02:23 11.02.2021
2688 Clear -17 1030 71 10000 1.22 7 00:23 11.02.2021
2689 Clear -18 1031 71 10000 1.22 7 23:52 10.02.2021
2690 Clear -18 1031 71 10000 1.37 6 23:20 10.02.2021
2691 Clouds -19 1031 71 10000 1.37 6 22:43 10.02.2021
2692 Clouds -20 1031 71 10000 1.27 358 22:24 10.02.2021
2693 Clouds -20 1031 71 10000 1.27 358 21:40 10.02.2021
2694 Clouds -21 1031 71 10000 1.54 360 21:21 10.02.2021
2695 Clouds -21 1031 65 10000 1.54 360 20:52 10.02.2021
2696 Clouds -21 1030 65 10000 1.54 40 20:29 10.02.2021
2697 Snow -21 1031 65 10000 1.49 358 19:50 10.02.2021
2698 Clouds -22 1031 64 10000 1.45 9 19:29 10.02.2021
2699 Clouds -22 1031 64 10000 1.46 6 18:49 10.02.2021
2700 Clouds -22 1031 64 10000 1.59 8 18:29 10.02.2021
2701 Clouds -23 1031 70 10000 1.59 8 17:59 10.02.2021
2702 Clouds -23 1031 70 10000 1.59 8 17:40 10.02.2021
2703 Clouds -23 1031 70 10000 1.46 9 17:20 10.02.2021
2704 Clouds -24 1032 70 10000 1.46 9 16:46 10.02.2021
2705 Clouds -24 1032 70 10000 1.35 10 16:25 10.02.2021
2706 Clouds -24 1032 64 10000 1.53 10 15:25 10.02.2021
2707 Clouds -25 1033 64 10000 1.53 10 14:58 10.02.2021
2708 Clouds -25 1033 64 10000 1.53 10 14:39 10.02.2021
2709 Clouds -25 1033 58 10000 3.09 50 13:55 10.02.2021
2710 Clouds -27 1033 69 10000 1.65 3 13:31 10.02.2021
2711 Clouds -27 1033 69 10000 1.64 6 12:55 10.02.2021
2712 Clouds -27 1033 69 10000 1.64 6 12:37 10.02.2021
2713 Clouds -28 1033 69 10000 1.82 5 12:18 10.02.2021
2714 Clouds -28 1034 69 10000 1.54 60 11:41 10.02.2021
2715 Clouds -28 1034 69 10000 1.54 60 11:22 10.02.2021
2716 Clouds -30 1034 69 10000 1.73 6 10:37 10.02.2021
2717 Clouds -30 1034 69 10000 1.77 14 10:18 10.02.2021
2718 Clear -31 1034 69 10000 3.09 60 09:37 10.02.2021
2719 Clear -31 1034 69 10000 3.09 60 09:18 10.02.2021
2720 Clear -32 1034 75 10000 1.94 14 08:42 10.02.2021
2721 Clear -31 1034 62 10000 3.09 40 07:52 10.02.2021
2722 Clear -34 1034 75 10000 2.11 13 06:51 10.02.2021
2723 Clear -27 1034 64 10000 2.12 24 02:45 10.02.2021
2724 Clear -28 1035 58 10000 1.87 44 00:25 10.02.2021
2725 Clear -30 1036 57 10000 1.87 44 23:34 09.02.2021
2726 Clear -31 1036 63 10000 1.83 47 22:54 09.02.2021
2727 Clear -31 1036 63 10000 1.76 41 22:24 09.02.2021
2728 Clear -35 1037 62 10000 1.76 41 21:52 09.02.2021
2729 Clear -36 1038 62 10000 1.76 41 21:32 09.02.2021
2730 Clouds -40 1038 79 10000 1.54 40 20:49 09.02.2021
2731 Clouds -40 1038 78 10000 1.54 40 20:26 09.02.2021
2732 Clouds -37 1038 62 10000 2.57 60 19:58 09.02.2021
2733 Clear -35 1038 62 10000 2.1 40 19:36 09.02.2021
2734 Clear -35 1038 62 10000 2.23 37 18:58 09.02.2021
2735 Clear -35 1038 62 10000 2.23 37 18:58 09.02.2021
2736 Clear -35 1038 62 10000 2.23 41 18:58 09.02.2021
2737 Clear -35 1038 62 10000 2.23 37 18:58 09.02.2021
2738 Clear -35 1038 62 10000 2.23 41 18:36 09.02.2021
2739 Clear -35 1039 62 10000 2.12 42 17:57 09.02.2021
2740 Clear -35 1039 62 10000 2.12 42 17:57 09.02.2021
2741 Clear -35 1039 62 10000 2.12 42 17:37 09.02.2021
2742 Clear -35 1039 62 10000 2.2 42 17:19 09.02.2021
2743 Clear -35 1040 62 10000 2.2 42 16:41 09.02.2021
2744 Clear -35 1040 62 10000 2.38 38 16:18 09.02.2021
2745 Clear -35 1040 62 10000 2.06 50 15:48 09.02.2021
2746 Clear -35 1040 62 10000 2.06 50 15:25 09.02.2021
2747 Clear -34 1041 62 10000 3.6 50 14:53 09.02.2021
2748 Clear -34 1041 62 10000 3.6 50 14:28 09.02.2021
2749 Clear -33 1041 68 10000 3.09 50 13:52 09.02.2021
2750 Clear -33 1041 62 10000 2.57 50 13:25 09.02.2021
2751 Clear -33 1041 62 10000 2.57 50 13:25 09.02.2021
2752 Clear -33 1041 62 10000 2.57 50 12:54 09.02.2021
2753 Clear -33 1041 62 10000 2.57 50 12:36 09.02.2021
2754 Clear -33 1041 62 10000 2.28 41 11:57 09.02.2021
2755 Clear -33 1041 62 10000 2.28 41 11:38 09.02.2021
2756 Clear -33 1041 62 10000 2.44 37 11:20 09.02.2021
2757 Clear -33 1041 62 10000 3.09 50 10:49 09.02.2021
2758 Clear -33 1041 62 10000 3.09 50 10:18 09.02.2021
2759 Clear -30 1042 62 10000 2.06 60 09:43 09.02.2021
2760 Clear -30 1042 62 10000 2.06 60 09:24 09.02.2021
2761 Clear -29 1042 57 10000 1.54 60 08:47 09.02.2021
2762 Clear -29 1042 57 10000 1.54 60 08:26 09.02.2021
2763 Clear -28 1042 57 10000 4.12 50 06:49 09.02.2021
2764 Clear -26 1041 48 10000 4.12 50 04:52 09.02.2021
2765 Clear -25 1042 49 10000 3.6 50 03:38 09.02.2021
2766 Clear -22 1042 49 10000 6.69 50 00:34 09.02.2021
2767 Clear -22 1042 77 10000 5.14 60 23:57 08.02.2021
2768 Clear -23 1042 77 10000 5.14 60 23:21 08.02.2021
2769 Clear -23 1042 77 10000 2.57 90 22:44 08.02.2021
2770 Clear -24 1042 77 10000 2.57 90 22:25 08.02.2021
2771 Clear -31 1042 84 10000 3.09 60 21:57 08.02.2021
2772 Clear -27 1042 84 10000 3.09 60 21:34 08.02.2021
2773 Clear -33 1042 76 10000 3.09 120 20:59 08.02.2021
2774 Clear -34 1042 76 10000 3.09 120 20:40 08.02.2021
2775 Clear -34 1042 76 10000 3.09 120 20:21 08.02.2021
2776 Clear -39 1042 80 10000 2.57 50 19:44 08.02.2021
2777 Clear -35 1042 76 10000 1.54 60 19:25 08.02.2021
2778 Clear -36 1042 76 10000 1.54 60 18:49 08.02.2021
2779 Clear -34 1042 80 10000 2.57 20 18:24 08.02.2021
2780 Clear -37 1042 80 10000 1.93 53 17:47 08.02.2021
2781 Clear -35 1042 76 10000 3.09 90 17:26 08.02.2021
2782 Clear -35 1042 76 10000 3.09 90 16:47 08.02.2021
2783 Clear -35 1042 76 10000 3.09 90 16:23 08.02.2021
2784 Clear -34 1042 76 10000 3.09 60 15:48 08.02.2021
2785 Clear -34 1042 76 10000 3.09 60 15:21 08.02.2021
2786 Clear -37 1042 68 10000 1.91 32 14:58 08.02.2021
2787 Clear -37 1042 68 10000 1.91 32 14:39 08.02.2021
2788 Clear -37 1042 68 10000 1.83 28 14:20 08.02.2021
2789 Clear -36 1041 80 10000 1.54 40 13:41 08.02.2021
2790 Clear -36 1041 67 10000 1.92 38 13:22 08.02.2021
2791 Clear -36 1041 67 10000 1.92 38 12:37 08.02.2021
2792 Clear -36 1041 67 10000 1.68 43 11:51 08.02.2021
2793 Clear -36 1041 67 10000 1.64 42 11:26 08.02.2021
2794 Clear -35 1040 74 10000 1.64 42 10:46 08.02.2021
2795 Clear -35 1040 74 10000 1.63 31 10:24 08.02.2021
2796 Clear -33 1040 68 10000 1.63 31 09:55 08.02.2021
2797 Clear -33 1040 68 10000 1.63 31 09:36 08.02.2021
2798 Clear -33 1039 67 10000 1.72 20 08:52 08.02.2021
2799 Clear -33 1039 67 10000 1.89 17 08:24 08.02.2021
2800 Clear -29 1039 75 10000 1.89 17 07:38 08.02.2021
2801 Clear -31 1039 68 10000 1.94 7 06:31 08.02.2021
2802 Clear -30 1038 76 10000 1.95 353 04:53 08.02.2021
2803 Clouds -24 1037 70 10000 3.09 50 01:51 08.02.2021
2804 Clouds -21 1037 77 10000 2.06 50 00:23 08.02.2021
2805 Clouds -22 1036 70 10000 2.06 50 23:52 07.02.2021
2806 Clear -25 1037 76 10000 0.92 23 23:27 07.02.2021
2807 Clear -26 1037 76 10000 0.92 23 22:55 07.02.2021
2808 Clear -26 1037 76 10000 0.92 23 22:55 07.02.2021
2809 Clear -26 1037 76 10000 0.92 23 22:37 07.02.2021
2810 Clear -26 1037 76 10000 0.94 20 22:19 07.02.2021
2811 Clouds -29 1036 75 10000 2.06 20 21:47 07.02.2021
2812 Clear -28 1036 76 10000 1.06 24 21:21 07.02.2021
2813 Clear -31 1036 76 10000 1.06 24 20:48 07.02.2021
2814 Clear -31 1036 76 10000 1.14 28 20:27 07.02.2021
2815 Clear -29 1036 76 10000 2.06 60 19:43 07.02.2021
2816 Clear -29 1036 76 10000 2.06 60 19:25 07.02.2021
2817 Clear -28 1035 76 10000 1.54 80 18:44 07.02.2021
2818 Clear -28 1035 76 10000 1.54 80 18:26 07.02.2021
2819 Clear -28 1035 76 10000 1.54 70 17:44 07.02.2021
2820 Clear -27 1035 76 10000 1.54 70 17:22 07.02.2021
2821 Clear -27 1035 83 10000 2.06 100 16:58 07.02.2021
2822 Clear -27 1035 83 10000 2.06 100 16:39 07.02.2021
2823 Clear -27 1035 83 10000 2.06 100 16:19 07.02.2021
2824 Clear -24 1035 84 10000 1.15 21 15:42 07.02.2021
2825 Clear -24 1035 84 10000 1.22 19 15:21 07.02.2021
2826 Clouds -21 1035 77 10000 1.54 60 14:43 07.02.2021
2827 Snow -21 1035 77 10000 1.54 50 14:25 07.02.2021
2828 Snow -20 1035 77 10000 1.54 50 13:44 07.02.2021
2829 Snow -19 1035 77 10000 1.54 50 13:26 07.02.2021
2830 Clouds -19 1035 77 10000 0.77 25 12:40 07.02.2021
2831 Clouds -19 1035 77 10000 0.62 33 12:20 07.02.2021
2832 Clouds -20 1035 77 10000 0.62 33 11:42 07.02.2021
2833 Clouds -19 1035 77 10000 0.92 42 11:24 07.02.2021
2834 Clouds -20 1034 77 10000 1.27 34 10:30 07.02.2021
2835 Clouds -21 1034 84 10000 1.27 34 09:57 07.02.2021
2836 Clouds -21 1034 84 10000 1.27 34 09:38 07.02.2021
2837 Clouds -20 1034 84 10000 1.26 30 09:18 07.02.2021
2838 Snow -21 1034 77 9656 1.45 28 07:58 07.02.2021
2839 Snow -21 1034 77 4828 1.04 35 06:33 07.02.2021
2840 Snow -21 1033 77 6437 1.04 35 05:48 07.02.2021
2841 Snow -21 1033 77 4828 0.78 62 02:52 07.02.2021
2842 Snow -21 1032 77 2816 0.39 166 00:41 07.02.2021
2843 Snow -22 1033 77 4426 0.02 247 23:59 06.02.2021
2844 Snow -22 1032 77 6437 0.02 247 23:32 06.02.2021
2845 Snow -22 1032 77 2414 0.56 222 22:31 06.02.2021
2846 Snow -23 1031 77 2414 0.89 211 21:39 06.02.2021
2847 Snow -23 1031 77 3018 0.6 226 21:20 06.02.2021
2848 Snow -23 1032 77 4023 0.6 226 20:45 06.02.2021
2849 Snow -23 1031 77 4426 0.26 239 20:23 06.02.2021
2850 Snow -23 1031 77 2615 0.26 239 19:55 06.02.2021
2851 Snow -23 1031 77 1609 0.34 40 19:28 06.02.2021
2852 Snow -24 1031 77 4828 0.34 40 18:46 06.02.2021
2853 Snow -24 1031 77 4828 0.45 52 18:27 06.02.2021
2854 Snow -24 1031 77 3219 0.45 52 17:44 06.02.2021
2855 Snow -24 1032 77 3018 0.46 88 17:21 06.02.2021
2856 Snow -24 1031 77 2414 0.46 88 16:58 06.02.2021
2857 Snow -24 1032 77 2414 0.46 88 16:34 06.02.2021
2858 Snow -24 1033 77 2816 0.57 78 15:57 06.02.2021
2859 Snow -24 1033 77 6437 2.06 50 15:38 06.02.2021
2860 Snow -24 1033 77 6437 2.06 50 15:18 06.02.2021
2861 Snow -24 1033 77 4426 0.56 56 14:44 06.02.2021
2862 Snow -24 1034 77 8047 0.58 68 14:22 06.02.2021
2863 Snow -24 1034 77 10000 0.58 68 13:47 06.02.2021
2864 Snow -24 1034 77 10000 0.72 86 12:51 06.02.2021
2865 Snow -24 1034 77 10000 0.88 92 12:21 06.02.2021
2866 Snow -24 1035 70 10000 0.88 92 11:45 06.02.2021
2867 Snow -24 1034 70 10000 0.78 124 11:22 06.02.2021
2868 Clouds -24 1034 77 10000 0.78 124 10:54 06.02.2021
2869 Clouds -24 1034 77 10000 0.89 149 10:28 06.02.2021
2870 Clouds -24 1034 77 10000 0.89 149 09:56 06.02.2021
2871 Clouds -24 1034 77 10000 0.89 149 09:36 06.02.2021
2872 Clouds -24 1034 77 10000 1.1 179 09:18 06.02.2021
2873 Clouds -25 1033 77 10000 1.26 210 08:29 06.02.2021
2874 Clouds -25 1032 70 10000 1.54 210 07:54 06.02.2021
2875 Clouds -24 1031 77 10000 1.36 267 05:43 06.02.2021
2876 Clouds -23 1030 77 10000 1.54 190 03:53 06.02.2021
2877 Clouds -22 1030 65 10000 2.06 40 01:37 06.02.2021
2878 Clouds -23 1030 65 10000 2.06 40 00:46 06.02.2021
2879 Clouds -23 1030 65 10000 2.06 40 00:19 06.02.2021
2880 Clouds -25 1030 64 10000 0.84 324 23:42 05.02.2021
2881 Clouds -26 1030 64 10000 0.79 308 23:24 05.02.2021
2882 Clear -26 1030 77 10000 1.54 60 22:45 05.02.2021
2883 Clear -26 1030 77 10000 1.54 60 22:19 05.02.2021
2884 Clouds -26 1031 76 10000 1.09 11 21:41 05.02.2021
2885 Clouds -29 1031 76 10000 1.53 15 21:23 05.02.2021
2886 Clouds -30 1031 69 10000 1.53 15 20:39 05.02.2021
2887 Clouds -33 1031 68 10000 2.06 40 19:51 05.02.2021
2888 Clear -34 1033 75 10000 1.54 70 19:19 05.02.2021
2889 Clear -34 1033 75 10000 1.54 70 18:52 05.02.2021
2890 Clear -31 1033 75 10000 1.54 70 18:20 05.02.2021
2891 Clear -34 1034 67 10000 1.39 31 17:44 05.02.2021
2892 Clear -34 1034 67 10000 1.5 27 17:21 05.02.2021
2893 Clear -34 1034 74 10000 1.5 27 16:48 05.02.2021
2894 Clear -34 1034 74 10000 1.64 30 16:23 05.02.2021
2895 Clear -35 1035 67 10000 1.64 30 15:54 05.02.2021
2896 Clear -34 1035 67 10000 1.55 37 15:26 05.02.2021
2897 Clear -33 1035 68 10000 1.55 37 14:40 05.02.2021
2898 Clear -33 1035 68 10000 1.73 42 14:22 05.02.2021
2899 Clear -33 1035 82 10000 1.73 42 13:59 05.02.2021
2900 Clear -34 1036 68 10000 1.73 42 13:36 05.02.2021
2901 Clear -34 1036 68 10000 1.75 39 12:49 05.02.2021
2902 Clear -34 1036 68 10000 1.81 44 12:28 05.02.2021
2903 Haze -33 1037 68 9656 1.81 44 11:41 05.02.2021
2904 Haze -33 1037 68 9656 1.64 45 11:21 05.02.2021
2905 Clear -33 1037 68 10000 1.64 45 10:57 05.02.2021
2906 Clear -33 1037 68 10000 1.31 46 10:27 05.02.2021
2907 Clear -34 1037 67 10000 1.31 46 09:48 05.02.2021
2908 Clear -34 1037 67 10000 1.5 42 09:28 05.02.2021
2909 Clear -33 1037 75 10000 1.5 42 08:58 05.02.2021
2910 Clear -33 1037 75 10000 1.3 38 08:23 05.02.2021
2911 Clouds -33 1036 84 10000 2.57 50 07:37 05.02.2021
2912 Clear -33 1036 68 10000 1.39 48 06:54 05.02.2021
2913 Clear -32 1036 75 10000 1.35 48 05:38 05.02.2021
2914 Clear -29 1035 83 10000 0.69 332 03:22 05.02.2021
2915 Clouds -27 1034 70 10000 0.94 314 02:24 05.02.2021
2916 Clouds -26 1031 76 10000 1.54 230 00:41 05.02.2021
2917 Clouds -26 1031 76 10000 1.54 230 00:41 05.02.2021
2918 Clouds -26 1031 76 10000 1.54 230 00:20 05.02.2021
2919 Haze -26 1030 76 8047 1.54 210 23:58 04.02.2021
2920 Haze -26 1030 76 8047 1.54 210 23:39 04.02.2021
2921 Haze -26 1030 76 8047 1.54 210 23:20 04.02.2021
2922 Clouds -25 1029 77 10000 1.29 302 22:51 04.02.2021
2923 Clouds -25 1029 77 10000 1.53 299 22:27 04.02.2021
2924 Clouds -25 1027 83 10000 1.54 240 21:42 04.02.2021
2925 Clouds -25 1027 83 10000 1.54 240 21:20 04.02.2021
2926 Clouds -23 1026 77 10000 1.54 220 20:52 04.02.2021
2927 Clouds -23 1026 77 10000 1.54 220 20:34 04.02.2021
2928 Snow -23 1025 77 10000 2.06 220 19:45 04.02.2021
2929 Snow -22 1025 77 10000 2.06 220 18:57 04.02.2021
2930 Snow -22 1024 77 9656 2.06 220 18:26 04.02.2021
2931 Snow -22 1023 77 9656 3.6 220 17:56 04.02.2021
2932 Snow -22 1023 77 9656 3.6 220 17:37 04.02.2021
2933 Snow -22 1023 77 9656 3.6 220 17:18 04.02.2021
2934 Snow -21 1022 77 8047 2.57 250 16:41 04.02.2021
2935 Snow -20 1022 77 8047 2.57 250 16:19 04.02.2021
2936 Snow -20 1021 77 6437 1.46 303 15:40 04.02.2021
2937 Snow -20 1020 77 6437 1.64 306 15:21 04.02.2021
2938 Snow -20 1020 77 6437 1.64 306 14:48 04.02.2021
2939 Snow -20 1020 77 6437 1.6 300 14:21 04.02.2021
2940 Snow -20 1019 77 3219 1.6 300 13:49 04.02.2021
2941 Snow -20 1019 77 3219 1.56 303 13:28 04.02.2021
2942 Snow -20 1019 77 3219 1.63 303 12:54 04.02.2021
2943 Snow -20 1019 77 2414 1.47 318 11:58 04.02.2021
2944 Snow -20 1019 77 2414 1.47 318 11:37 04.02.2021
2945 Snow -20 1019 77 1609 1.51 327 11:18 04.02.2021
2946 Snow -20 1019 84 3621 1.51 327 10:43 04.02.2021
2947 Snow -21 1018 84 3621 1.35 347 09:47 04.02.2021
2948 Snow -21 1019 84 3621 1.22 349 09:23 04.02.2021
2949 Snow -21 1018 77 4023 2.06 40 08:59 04.02.2021
2950 Snow -21 1018 77 6437 2.57 60 08:28 04.02.2021
2951 Snow -21 1018 77 6437 3.6 70 07:59 04.02.2021
2952 Snow -21 1018 77 6437 3.6 70 07:35 04.02.2021
2953 Snow -21 1018 84 4828 3.6 70 06:54 04.02.2021
2954 Snow -21 1018 84 4828 3.6 70 06:34 04.02.2021
2955 Snow -21 1017 77 8047 2.06 60 03:52 04.02.2021
2956 Snow -22 1017 77 4828 1.54 40 02:24 04.02.2021
2957 Snow -22 1017 77 3621 2.06 40 00:33 04.02.2021
2958 Snow -23 1016 77 4828 2.57 60 23:39 03.02.2021
2959 Snow -24 1016 70 4828 2.57 40 22:42 03.02.2021
2960 Snow -24 1016 70 4828 2.57 40 22:22 03.02.2021
2961 Snow -24 1016 64 4828 2.06 40 21:56 03.02.2021
2962 Snow -25 1016 58 10000 2.06 50 21:25 03.02.2021
2963 Snow -25 1016 58 10000 1.54 70 20:58 03.02.2021
2964 Snow -25 1016 58 10000 2.57 50 20:38 03.02.2021
2965 Clouds -25 1016 58 10000 2.06 60 20:18 03.02.2021
2966 Clouds -28 1016 69 10000 3.09 30 19:41 03.02.2021
2967 Clouds -28 1016 64 10000 2.57 50 19:18 03.02.2021
2968 Clouds -28 1016 64 10000 2.57 50 18:46 03.02.2021
2969 Clouds -28 1016 64 10000 2.57 50 18:19 03.02.2021
2970 Clouds -28 1016 69 10000 1.54 60 17:49 03.02.2021
2971 Clouds -28 1016 69 10000 1.54 60 17:30 03.02.2021
2972 Clear -31 1016 69 10000 2.06 60 16:53 03.02.2021
2973 Clear -31 1016 69 10000 2.06 60 16:29 03.02.2021
2974 Clear -33 1016 69 10000 3.09 60 15:45 03.02.2021
2975 Clear -33 1016 69 10000 3.09 60 15:25 03.02.2021
2976 Clear -32 1016 69 10000 1.54 60 14:53 03.02.2021
2977 Clear -32 1016 69 10000 1.54 60 14:53 03.02.2021
2978 Clear -32 1016 69 10000 1.54 60 14:26 03.02.2021
2979 Clear -33 1016 68 10000 2.57 50 13:54 03.02.2021
2980 Clear -34 1016 75 10000 2.06 50 13:28 03.02.2021
2981 Clear -34 1016 75 10000 2.06 50 12:49 03.02.2021
2982 Clear -32 1016 75 10000 2.06 50 12:27 03.02.2021
2983 Clear -32 1016 75 10000 1.99 39 11:54 03.02.2021
2984 Clear -32 1016 75 10000 1.99 39 11:34 03.02.2021
2985 Clear -33 1016 68 10000 1.54 50 10:54 03.02.2021
2986 Clear -33 1016 68 10000 1.54 50 10:22 03.02.2021
2987 Clear -31 1016 76 10000 1.83 33 09:48 03.02.2021
2988 Clear -31 1016 76 10000 1.87 36 09:28 03.02.2021
2989 Clear -30 1016 69 10000 2.57 60 08:53 03.02.2021
2990 Clear -30 1016 69 10000 2.57 60 08:28 03.02.2021
2991 Clear -30 1016 76 10000 2.57 20 07:39 03.02.2021
2992 Clear -30 1016 76 10000 1.54 60 06:41 03.02.2021
2993 Clear -28 1017 76 10000 2.57 60 04:54 03.02.2021
2994 Clear -28 1017 76 10000 2.57 60 04:31 03.02.2021
2995 Clear -28 1018 76 10000 1.94 51 03:24 03.02.2021
2996 Clear -25 1018 70 10000 1.94 51 02:36 03.02.2021
2997 Clear -24 1019 59 10000 2.57 50 00:36 03.02.2021
2998 Clear -26 1021 58 10000 1.49 80 23:53 02.02.2021
2999 Clear -26 1021 58 10000 2.05 64 23:29 02.02.2021
3000 Clear -27 1022 69 10000 2.05 64 22:59 02.02.2021
3001 Clear -27 1022 69 10000 1.7 58 22:23 02.02.2021
3002 Clear -30 1023 69 10000 1.7 58 21:58 02.02.2021
3003 Clear -30 1023 69 10000 1.7 58 21:37 02.02.2021
3004 Clear -30 1023 69 10000 1.16 82 21:18 02.02.2021
3005 Clear -30 1023 63 10000 1.16 82 20:43 02.02.2021
3006 Clear -30 1023 63 10000 1.48 71 20:20 02.02.2021
3007 Clear -30 1023 63 10000 1.48 71 20:20 02.02.2021
3008 Clear -30 1024 63 10000 2.06 70 19:48 02.02.2021
3009 Clear -31 1024 63 10000 2.06 70 19:29 02.02.2021
3010 Clear -30 1026 69 10000 1.68 70 18:45 02.02.2021
3011 Clear -30 1026 69 10000 2.57 60 18:26 02.02.2021
3012 Clear -31 1026 69 10000 2.57 60 17:51 02.02.2021
3013 Clear -31 1026 69 10000 2.57 60 17:24 02.02.2021
3014 Clear -30 1027 63 10000 2.06 90 16:58 02.02.2021
3015 Clear -30 1027 63 10000 2.06 90 16:38 02.02.2021
3016 Clear -30 1027 63 10000 2.06 90 16:18 02.02.2021
3017 Clear -30 1028 63 10000 3.09 60 15:42 02.02.2021
3018 Clear -30 1028 63 10000 3.09 60 15:21 02.02.2021
3019 Clear -32 1028 69 10000 3.09 50 14:41 02.02.2021
3020 Clear -32 1028 69 10000 3.09 50 14:19 02.02.2021
3021 Clear -32 1029 76 10000 3.6 40 13:54 02.02.2021
3022 Clear -31 1030 69 10000 3.6 60 13:36 02.02.2021
3023 Clear -31 1030 69 10000 3.6 60 13:18 02.02.2021
3024 Clear -31 1030 69 10000 3.6 60 12:29 02.02.2021
3025 Clear -30 1031 69 10000 1.54 70 11:43 02.02.2021
3026 Clear -30 1031 69 10000 1.54 70 11:21 02.02.2021
3027 Clear -29 1031 69 10000 2.06 60 10:51 02.02.2021
3028 Clear -29 1031 69 10000 2.06 60 10:27 02.02.2021
3029 Clear -28 1031 69 10000 2.06 60 09:46 02.02.2021
3030 Clear -28 1031 69 10000 2.06 60 09:25 02.02.2021
3031 Clear -27 1031 63 10000 3.6 70 08:48 02.02.2021
3032 Clear -27 1031 63 10000 3.6 70 08:22 02.02.2021
3033 Clear -26 1032 63 10000 2.06 40 07:28 02.02.2021
3034 Clear -28 1032 69 10000 2.06 50 06:42 02.02.2021
3035 Clear -26 1032 69 10000 2.57 80 05:52 02.02.2021
3036 Clear -25 1033 64 10000 2.57 54 04:37 02.02.2021
3037 Clear -23 1032 64 10000 3.09 90 02:25 02.02.2021
3038 Clear -23 1033 59 10000 4.12 80 01:28 02.02.2021
3039 Clear -23 1033 59 10000 4.12 80 00:34 02.02.2021
3040 Clear -23 1033 59 10000 3.6 50 23:19 01.02.2021
3041 Clear -24 1034 70 10000 4.12 60 22:43 01.02.2021
3042 Clear -24 1034 70 10000 4.12 60 22:24 01.02.2021
3043 Clear -29 1034 76 10000 3.09 40 21:49 01.02.2021
3044 Clear -29 1034 76 10000 3.09 40 21:27 01.02.2021
3045 Clear -33 1034 68 10000 2.06 50 20:47 01.02.2021
3046 Clear -33 1034 68 10000 2.06 50 20:25 01.02.2021
3047 Clouds -31 1033 76 10000 2.57 40 19:59 01.02.2021
3048 Clouds -31 1033 76 10000 2.57 40 19:59 01.02.2021
3049 Clear -34 1034 75 10000 2.19 34 19:37 01.02.2021
3050 Clear -34 1034 75 10000 2.09 30 19:18 01.02.2021
3051 Clear -33 1034 75 10000 2.06 35 18:43 01.02.2021
3052 Clear -33 1034 75 10000 2.02 33 18:25 01.02.2021
3053 Clear -27 1033 63 10000 3.6 40 17:46 01.02.2021
3054 Clear -27 1033 63 10000 3.6 40 17:22 01.02.2021
3055 Clear -30 1033 64 10000 4.12 350 16:42 01.02.2021
3056 Clear -32 1033 75 10000 2.04 28 16:23 01.02.2021
3057 Clear -32 1033 75 10000 2.04 28 15:42 01.02.2021
3058 Clear -32 1033 75 10000 2.1 24 15:19 01.02.2021
3059 Clear -31 1033 68 10000 2.1 24 14:51 01.02.2021
3060 Clear -31 1033 68 10000 1.98 20 14:24 01.02.2021
3061 Clear -31 1033 68 10000 1.98 20 14:24 01.02.2021
3062 Clear -29 1033 64 10000 4.12 360 13:45 01.02.2021
3063 Clear -31 1033 75 10000 2 23 13:26 01.02.2021
3064 Clear -30 1033 75 10000 2.15 25 12:45 01.02.2021
3065 Clear -30 1033 75 10000 1.98 21 12:25 01.02.2021
3066 Clear -29 1032 75 10000 1.98 21 11:43 01.02.2021
3067 Clear -29 1032 75 10000 1.78 13 11:21 01.02.2021
3068 Clear -28 1032 69 10000 1.78 13 10:50 01.02.2021
3069 Clear -28 1032 69 10000 1.7 5 10:22 01.02.2021
3070 Clear -27 1031 76 10000 1.7 5 09:54 01.02.2021
3071 Clear -27 1031 76 10000 1.7 5 09:35 01.02.2021
3072 Clear -26 1031 76 10000 1.76 10 08:56 01.02.2021
3073 Clear -26 1031 76 10000 1.64 12 08:26 01.02.2021
3074 Clear -24 1030 76 10000 1.47 13 07:30 01.02.2021
3075 Clouds -21 1029 84 10000 0.99 355 04:34 01.02.2021
3076 Clouds -20 1029 84 10000 0.65 293 02:40 01.02.2021
3077 Clouds -20 1029 84 10000 0.37 33 00:25 01.02.2021
3078 Snow -20 1028 77 10000 0.14 246 23:21 31.01.2021
3079 Snow -20 1028 77 9656 0.14 246 22:38 31.01.2021
3080 Snow -21 1028 84 6437 0.25 190 22:19 31.01.2021
3081 Snow -21 1029 77 4426 0.25 190 21:47 31.01.2021
3082 Snow -21 1028 77 6437 0.14 179 21:19 31.01.2021
3083 Snow -21 1028 77 9656 0.14 179 20:43 31.01.2021
3084 Snow -21 1028 77 9656 0.22 270 20:21 31.01.2021
3085 Snow -21 1028 84 8047 0.22 270 19:40 31.01.2021
3086 Snow -21 1028 84 8047 0.17 271 19:22 31.01.2021
3087 Snow -22 1028 84 8047 0.17 271 18:56 31.01.2021
3088 Snow -22 1028 84 8047 0.17 271 18:38 31.01.2021
3089 Snow -22 1028 84 8047 0.06 133 18:18 31.01.2021
3090 Snow -22 1027 77 6437 0.06 133 17:41 31.01.2021
3091 Snow -22 1027 77 6437 0.11 73 17:21 31.01.2021
3092 Snow -22 1027 84 10000 0.11 73 16:42 31.01.2021
3093 Snow -22 1027 84 10000 0.02 226 16:20 31.01.2021
3094 Snow -22 1027 77 6437 0.02 226 15:50 31.01.2021
3095 Snow -22 1027 77 6437 0.14 52 15:26 31.01.2021
3096 Snow -21 1027 77 9656 0.14 52 14:39 31.01.2021
3097 Snow -21 1027 77 9656 0.43 59 14:18 31.01.2021
3098 Snow -21 1027 84 8047 0.43 59 13:46 31.01.2021
3099 Snow -21 1027 84 8047 0.34 50 13:19 31.01.2021
3100 Snow -21 1027 77 10000 0.34 50 12:47 31.01.2021
3101 Snow -21 1027 77 10000 0.49 68 12:21 31.01.2021
3102 Snow -22 1026 77 8047 0.49 68 11:40 31.01.2021
3103 Snow -22 1026 77 8047 0.52 54 11:21 31.01.2021
3104 Snow -22 1026 77 10000 0.52 54 10:48 31.01.2021
3105 Snow -22 1026 77 10000 0.41 56 10:29 31.01.2021
3106 Snow -21 1025 77 10000 0.41 56 09:49 31.01.2021
3107 Snow -21 1024 77 10000 0.62 79 08:58 31.01.2021
3108 Snow -21 1024 77 10000 0.62 79 08:32 31.01.2021
3109 Snow -20 1024 77 9656 0.48 59 06:54 31.01.2021
3110 Snow -20 1023 77 8047 0.34 73 05:30 31.01.2021
3111 Snow -21 1019 71 6437 1.54 90 00:40 31.01.2021
3112 Snow -20 1019 71 6437 1.54 90 00:21 31.01.2021
3113 Snow -21 1019 71 9656 1.54 90 23:28 30.01.2021
3114 Snow -21 1018 77 4828 0.44 171 22:49 30.01.2021
3115 Snow -21 1018 77 4426 0.28 174 22:28 30.01.2021
3116 Snow -21 1017 77 10000 0.28 174 21:39 30.01.2021
3117 Snow -22 1017 77 10000 0.28 125 21:20 30.01.2021
3118 Snow -22 1017 77 10000 0.28 125 21:20 30.01.2021
3119 Snow -22 1016 77 9656 0.28 125 20:44 30.01.2021
3120 Snow -22 1016 77 9656 0.41 159 20:26 30.01.2021
3121 Snow -22 1015 77 10000 0.41 159 19:43 30.01.2021
3122 Snow -22 1015 77 10000 0.48 171 19:24 30.01.2021
3123 Snow -22 1015 77 6437 1.54 60 18:41 30.01.2021
3124 Snow -23 1014 77 8047 0.62 178 18:21 30.01.2021
3125 Snow -23 1014 77 10000 0.62 178 17:57 30.01.2021
3126 Clouds -23 1013 77 10000 0.8 172 17:19 30.01.2021
3127 Snow -23 1013 77 10000 0.8 172 16:44 30.01.2021
3128 Snow -23 1012 77 10000 0.93 186 16:24 30.01.2021
3129 Clouds -23 1012 77 10000 0.93 186 15:55 30.01.2021
3130 Clouds -23 1011 77 10000 0.93 186 15:37 30.01.2021
3131 Clouds -23 1011 77 10000 1.04 202 15:19 30.01.2021
3132 Clouds -23 1010 77 10000 1.04 202 14:42 30.01.2021
3133 Clouds -23 1010 77 10000 1.07 198 14:19 30.01.2021
3134 Clouds -23 1009 77 10000 1.07 198 13:30 30.01.2021
3135 Clouds -24 1008 84 10000 1.11 218 12:49 30.01.2021
3136 Clouds -24 1008 84 10000 1.09 227 12:28 30.01.2021
3137 Clouds -26 1007 76 10000 1.09 227 11:57 30.01.2021
3138 Clouds -26 1007 76 10000 0.99 238 11:28 30.01.2021
3139 Clear -24 1005 76 10000 0.99 238 10:48 30.01.2021
3140 Clear -24 1004 76 10000 1.28 254 09:48 30.01.2021
3141 Clear -24 1004 76 10000 1.33 251 09:30 30.01.2021
3142 Clear -23 1003 76 10000 1.33 251 08:47 30.01.2021
3143 Clear -22 1003 76 10000 1.27 267 07:49 30.01.2021
3144 Clear -22 1002 77 10000 1.19 278 06:51 30.01.2021
3145 Clear -21 1002 77 10000 1.23 303 05:43 30.01.2021
3146 Clear -19 1000 77 10000 1.37 306 03:35 30.01.2021
3147 Clear -18 1000 77 10000 1.25 319 02:24 30.01.2021
3148 Clear -17 999 77 10000 1.15 312 01:29 30.01.2021
3149 Clear -18 999 77 10000 1.2 314 00:39 30.01.2021
3150 Clear -16 999 77 10000 1.02 308 00:20 30.01.2021
3151 Clear -17 999 84 10000 1.02 308 23:45 29.01.2021
3152 Clouds -16 999 71 10000 1.54 50 23:21 29.01.2021
3153 Clear -18 999 77 10000 0.99 325 22:44 29.01.2021
3154 Clear -19 999 77 10000 0.87 333 22:19 29.01.2021
3155 Clouds -19 999 77 10000 1.54 70 21:28 29.01.2021
3156 Clouds -19 999 77 10000 1.54 70 21:28 29.01.2021
3157 Clouds -20 998 77 10000 1 337 20:46 29.01.2021
3158 Clouds -20 998 77 10000 1.08 337 20:26 29.01.2021
3159 Snow -19 998 71 10000 1.54 40 19:57 29.01.2021
3160 Snow -18 998 71 10000 1.54 40 19:38 29.01.2021
3161 Clouds -21 998 77 10000 1.27 326 19:18 29.01.2021
3162 Clouds -21 998 77 10000 1.28 326 18:28 29.01.2021
3163 Clear -21 998 77 10000 1.28 326 17:40 29.01.2021
3164 Clear -21 998 77 10000 1.29 323 17:21 29.01.2021
3165 Clear -21 997 77 10000 1.29 323 16:45 29.01.2021
3166 Clear -21 997 77 10000 1.16 322 16:23 29.01.2021
3167 Clouds -21 997 77 10000 1.16 322 15:48 29.01.2021
3168 Clouds -19 997 77 10000 1.17 327 15:27 29.01.2021
3169 Clear -20 997 77 10000 1.32 332 14:32 29.01.2021
3170 Clear -19 997 84 10000 1.32 332 13:59 29.01.2021
3171 Clear -19 997 84 10000 1.32 332 13:39 29.01.2021
3172 Snow -19 997 84 10000 1.25 337 13:19 29.01.2021
3173 Snow -18 997 77 10000 1.25 330 12:25 29.01.2021
3174 Snow -19 998 77 9656 1.25 330 11:49 29.01.2021
3175 Clear -19 997 77 10000 1.23 331 11:20 29.01.2021
3176 Clear -19 997 77 10000 1.23 331 10:51 29.01.2021
3177 Clear -18 997 77 10000 1.04 339 10:31 29.01.2021
3178 Snow -18 998 77 9656 1.04 339 09:49 29.01.2021
3179 Snow -18 998 77 9656 1.08 345 08:59 29.01.2021
3180 Snow -18 998 77 9656 1.08 345 08:38 29.01.2021
3181 Snow -18 998 77 9656 1.11 345 08:19 29.01.2021
3182 Snow -18 998 77 9656 1.11 345 07:41 29.01.2021
3183 Snow -18 998 77 10000 1.11 337 07:20 29.01.2021
3184 Snow -18 998 77 10000 0.9 357 05:23 29.01.2021
3185 Snow -19 999 77 10000 1.01 358 03:50 29.01.2021
3186 Clouds -20 1000 77 10000 0.78 338 00:44 29.01.2021
3187 Clouds -21 1000 77 10000 0.81 325 00:22 29.01.2021
3188 Clouds -21 1001 76 10000 0.81 325 23:44 28.01.2021
3189 Clouds -21 1001 76 10000 0.77 355 23:25 28.01.2021
3190 Clear -23 1001 76 10000 0.77 355 22:49 28.01.2021
3191 Clear -23 1001 76 10000 0.89 15 22:28 28.01.2021
3192 Clouds -23 1001 77 10000 0.89 15 21:58 28.01.2021
3193 Clouds -24 1001 77 10000 0.89 15 21:38 28.01.2021
3194 Clouds -24 1001 77 10000 1.04 9 21:20 28.01.2021
3195 Clouds -23 1002 76 10000 1.04 9 20:39 28.01.2021
3196 Clouds -23 1002 76 10000 0.92 11 20:18 28.01.2021
3197 Clouds -25 1002 70 10000 1.09 15 19:46 28.01.2021
3198 Clouds -26 1003 76 10000 1.15 20 19:23 28.01.2021
3199 Clouds -27 1003 76 10000 1.15 20 18:45 28.01.2021
3200 Clouds -27 1003 76 10000 0.96 17 18:27 28.01.2021
3201 Clouds -27 1004 69 10000 0.96 17 17:47 28.01.2021
3202 Clouds -27 1004 69 10000 1.1 16 17:28 28.01.2021
3203 Clouds -28 1004 68 10000 1.1 16 16:45 28.01.2021
3204 Clouds -29 1004 68 10000 1.22 8 16:25 28.01.2021
3205 Clouds -31 1005 68 10000 1.22 8 15:51 28.01.2021
3206 Clouds -31 1005 68 10000 1.21 4 15:20 28.01.2021
3207 Clear -33 1005 68 10000 1.21 4 14:42 28.01.2021
3208 Clear -33 1005 68 10000 1.15 13 14:23 28.01.2021
3209 Clear -32 1006 68 10000 1.15 13 13:49 28.01.2021
3210 Clear -32 1007 75 10000 1.46 11 13:19 28.01.2021
3211 Clear -32 1007 75 10000 1.53 11 12:45 28.01.2021
3212 Clear -32 1007 75 10000 1.47 3 12:21 28.01.2021
3213 Clear -32 1008 75 10000 1.47 3 11:44 28.01.2021
3214 Clear -32 1008 75 10000 1.25 358 11:20 28.01.2021
3215 Clear -31 1008 68 10000 1.25 358 10:54 28.01.2021
3216 Clear -31 1008 68 10000 1.25 358 10:35 28.01.2021
3217 Clear -31 1009 69 10000 1.33 9 09:59 28.01.2021
3218 Clear -31 1009 69 10000 1.33 9 09:30 28.01.2021
3219 Clear -32 1009 75 10000 1.71 9 08:57 28.01.2021
3220 Clear -32 1009 75 10000 1.71 9 08:38 28.01.2021
3221 Clear -30 1010 69 10000 1.42 357 07:45 28.01.2021
3222 Clear -30 1011 69 10000 1.26 2 06:51 28.01.2021
3223 Clear -30 1011 69 10000 1.26 2 06:30 28.01.2021
3224 Clear -30 1013 76 10000 1.54 2 04:30 28.01.2021
3225 Clouds -26 1015 76 10000 2.57 200 01:40 28.01.2021
3226 Clouds -27 1017 69 10000 0.54 325 23:54 27.01.2021
3227 Clouds -22 1017 69 10000 0.36 21 23:24 27.01.2021
3228 Clouds -22 1017 69 10000 0.36 21 23:24 27.01.2021
3229 Clouds -23 1017 69 10000 0.36 21 22:43 27.01.2021
3230 Clouds -28 1017 69 10000 0.78 24 22:24 27.01.2021
3231 Clouds -24 1018 69 10000 0.78 24 21:44 27.01.2021
3232 Clouds -24 1018 69 10000 0.8 22 21:24 27.01.2021
3233 Clouds -25 1019 76 10000 1.54 80 20:55 27.01.2021
3234 Clouds -30 1019 76 10000 1.54 80 20:31 27.01.2021
3235 Clouds -26 1020 69 10000 1.02 15 19:56 27.01.2021
3236 Clouds -26 1020 69 10000 1.02 15 19:37 27.01.2021
3237 Clouds -25 1020 69 10000 1.02 26 19:18 27.01.2021
3238 Clear -31 1021 69 10000 1.02 26 18:40 27.01.2021
3239 Clear -31 1021 69 10000 0.84 28 18:21 27.01.2021
3240 Clear -31 1022 76 10000 0.84 28 17:40 27.01.2021
3241 Clear -26 1022 76 10000 0.96 50 17:18 27.01.2021
3242 Clear -26 1022 76 10000 0.96 50 17:18 27.01.2021
3243 Clear -31 1023 62 10000 0.96 50 16:45 27.01.2021
3244 Clear -26 1023 62 10000 0.69 30 16:27 27.01.2021
3245 Clear -26 1024 69 10000 0.69 30 15:50 27.01.2021
3246 Clear -26 1024 69 10000 0.69 30 15:30 27.01.2021
3247 Clear -26 1025 69 10000 0.96 10 14:41 27.01.2021
3248 Clear -26 1025 69 10000 1.13 20 14:20 27.01.2021
3249 Clear -26 1026 76 10000 1.31 37 13:42 27.01.2021
3250 Clear -26 1026 69 10000 1.08 30 12:47 27.01.2021
3251 Clear -26 1026 69 10000 1.28 45 12:26 27.01.2021
3252 Clear -26 1027 69 10000 1.54 30 11:53 27.01.2021
3253 Clear -26 1027 69 10000 1.54 30 11:26 27.01.2021
3254 Clear -26 1027 63 10000 1.17 37 11:00 27.01.2021
3255 Clear -26 1027 63 10000 1.17 37 10:36 27.01.2021
3256 Clear -26 1027 63 10000 1.08 38 10:18 27.01.2021
3257 Clear -26 1027 63 10000 1.08 38 09:34 27.01.2021
3258 Clear -27 1028 69 10000 1.54 20 08:48 27.01.2021
3259 Clear -27 1028 76 10000 1.54 10 07:59 27.01.2021
3260 Clear -27 1028 76 10000 1.54 10 07:40 27.01.2021
3261 Clouds -26 1028 69 10000 1.12 45 06:49 27.01.2021
3262 Clouds -26 1029 69 10000 0.87 19 05:58 27.01.2021
3263 Clouds -26 1029 69 10000 0.87 19 05:35 27.01.2021
3264 Clouds -24 1029 70 10000 0.77 33 02:46 27.01.2021
3265 Clouds -24 1029 70 10000 0.62 43 02:21 27.01.2021
3266 Clouds -23 1029 70 10000 0.62 43 01:47 27.01.2021
3267 Clouds -22 1029 70 10000 0.46 73 00:30 27.01.2021
3268 Clouds -23 1029 84 10000 0.06 337 23:44 26.01.2021
3269 Clouds -24 1029 84 10000 0.13 31 23:22 26.01.2021
3270 Clouds -23 1028 76 10000 0.13 31 22:46 26.01.2021
3271 Clouds -26 1028 76 10000 0.36 41 22:20 26.01.2021
3272 Clouds -26 1028 76 10000 0.36 41 21:53 26.01.2021
3273 Clouds -28 1028 76 10000 0.62 59 21:27 26.01.2021
3274 Clouds -25 1028 84 10000 0.62 59 20:56 26.01.2021
3275 Clouds -25 1028 84 10000 0.62 59 20:38 26.01.2021
3276 Clouds -26 1028 84 10000 0.13 67 20:20 26.01.2021
3277 Mist -25 1027 76 1609 0.13 67 19:43 26.01.2021
3278 Clouds -27 1027 76 10000 0.26 200 19:20 26.01.2021
3279 Clouds -28 1027 76 10000 0.11 33 18:46 26.01.2021
3280 Clouds -28 1027 76 10000 0.4 66 18:23 26.01.2021
3281 Clouds -28 1026 76 10000 0.4 66 17:48 26.01.2021
3282 Clouds -28 1026 76 10000 0.46 43 17:27 26.01.2021
3283 Clear -27 1026 69 10000 0.46 43 16:54 26.01.2021
3284 Clear -28 1026 76 10000 0.19 355 16:22 26.01.2021
3285 Clear -28 1026 76 10000 0.19 355 15:58 26.01.2021
3286 Clear -28 1026 76 10000 0.19 355 15:38 26.01.2021
3287 Clear -28 1026 76 10000 0.16 137 15:18 26.01.2021
3288 Clear -28 1025 76 10000 0.16 137 15:18 26.01.2021
3289 Clear -27 1025 76 10000 0.16 137 14:34 26.01.2021
3290 Clear -27 1023 83 10000 0.24 180 13:59 26.01.2021
3291 Clear -27 1023 76 10000 0.31 236 13:30 26.01.2021
3292 Clear -27 1023 76 10000 0.23 280 12:55 26.01.2021
3293 Clear -27 1023 76 10000 0.23 280 12:37 26.01.2021
3294 Clear -27 1023 76 10000 0.19 327 12:19 26.01.2021
3295 Clear -27 1022 76 10000 0.19 327 11:43 26.01.2021
3296 Clear -25 1021 70 10000 0.29 338 10:59 26.01.2021
3297 Clear -25 1021 76 10000 0.29 338 10:34 26.01.2021
3298 Clear -24 1021 76 10000 0.47 1 09:51 26.01.2021
3299 Clear -24 1021 76 10000 0.46 359 09:32 26.01.2021
3300 Clear -24 1020 77 10000 0.46 359 08:56 26.01.2021
3301 Clear -24 1020 77 10000 0.46 359 08:38 26.01.2021
3302 Clear -23 1019 71 10000 0.74 35 07:54 26.01.2021
3303 Clear -21 1019 77 10000 0.93 32 06:58 26.01.2021
3304 Clear -21 1018 71 10000 0.93 17 05:46 26.01.2021
3305 Clouds -18 1018 84 10000 1.54 110 05:25 26.01.2021
3306 Clouds -18 1017 84 10000 1.05 20 03:31 26.01.2021
3307 Clouds -18 1016 85 10000 0.88 5 00:59 26.01.2021
3308 Clouds -18 1016 85 10000 1.02 19 00:24 26.01.2021
3309 Clouds -18 1015 85 10000 1.3 21 23:28 25.01.2021
3310 Clouds -18 1015 85 10000 1.3 21 22:43 25.01.2021
3311 Clouds -18 1015 85 10000 1.3 21 22:43 25.01.2021
3312 Clouds -18 1015 85 10000 1.79 30 22:25 25.01.2021
3313 Clouds -21 1015 77 10000 1.79 30 21:41 25.01.2021
3314 Clouds -21 1015 77 10000 1.76 33 21:18 25.01.2021
3315 Clear -22 1015 84 10000 1.76 33 20:40 25.01.2021
3316 Clear -22 1015 84 10000 1.63 37 20:20 25.01.2021
3317 Clouds -22 1015 77 10000 1.54 40 19:47 25.01.2021
3318 Clouds -22 1015 77 10000 1.54 40 19:22 25.01.2021
3319 Clouds -22 1016 77 10000 2.06 30 18:44 25.01.2021
3320 Clear -22 1016 77 10000 1.84 28 18:24 25.01.2021
3321 Clear -22 1016 77 10000 1.84 28 17:44 25.01.2021
3322 Clear -21 1016 77 10000 1.94 29 17:24 25.01.2021
3323 Clouds -21 1017 84 10000 1.94 29 16:49 25.01.2021
3324 Clouds -20 1017 84 10000 1.71 22 16:25 25.01.2021
3325 Clouds -19 1017 84 10000 1.71 22 15:54 25.01.2021
3326 Clouds -19 1017 84 10000 1.71 22 15:54 25.01.2021
3327 Clouds -19 1017 84 10000 1.71 22 15:34 25.01.2021
3328 Clouds -17 1017 84 10000 1.74 18 14:57 25.01.2021
3329 Clouds -17 1017 84 10000 1.74 18 14:38 25.01.2021
3330 Clouds -16 1017 84 10000 1.64 8 14:18 25.01.2021
3331 Clouds -15 1018 78 10000 1.64 8 13:40 25.01.2021
3332 Snow -15 1018 85 10000 1.41 1 13:19 25.01.2021
3333 Snow -14 1018 85 10000 1.52 8 12:40 25.01.2021
3334 Snow -14 1018 85 10000 1.44 17 12:18 25.01.2021
3335 Snow -14 1018 85 10000 1.41 18 11:27 25.01.2021
3336 Snow -14 1018 85 10000 1.41 18 10:46 25.01.2021
3337 Snow -14 1018 85 10000 1.3 16 10:22 25.01.2021
3338 Clouds -14 1018 85 10000 1.3 16 09:49 25.01.2021
3339 Clouds -13 1018 85 10000 0.95 11 09:28 25.01.2021
3340 Clouds -13 1018 85 10000 0.95 11 08:35 25.01.2021
3341 Clouds -13 1018 85 10000 0.66 4 07:57 25.01.2021
3342 Clouds -13 1018 85 10000 0.72 11 07:28 25.01.2021
3343 Clouds -14 1019 92 10000 0.84 360 06:28 25.01.2021
3344 Clouds -14 1018 85 10000 0.59 16 02:32 25.01.2021
3345 Clouds -14 1018 85 10000 0.57 95 00:42 25.01.2021
3346 Snow -14 1017 85 10000 0.72 100 23:38 24.01.2021
3347 Snow -14 1017 85 10000 0.81 79 23:18 24.01.2021
3348 Clouds -13 1014 85 1512 0.81 79 22:40 24.01.2021
3349 Clouds -13 1014 84 2068 1.01 59 22:18 24.01.2021
3350 Clouds -13 1013 84 2068 1.01 59 21:37 24.01.2021
3351 Snow -15 1016 71 10000 0.82 48 21:18 24.01.2021
3352 Clouds -16 1015 77 10000 0.82 48 20:41 24.01.2021
3353 Clouds -17 1015 77 10000 0.52 49 20:19 24.01.2021
3354 Clouds -17 1015 77 10000 0.52 49 19:48 24.01.2021
3355 Clouds -17 1014 77 10000 1.54 40 19:25 24.01.2021
3356 Clouds -18 1014 77 10000 1.54 20 18:56 24.01.2021
3357 Clouds -18 1014 77 10000 1.54 20 18:37 24.01.2021
3358 Clouds -17 1014 77 10000 1.54 20 18:18 24.01.2021
3359 Clouds -17 1013 77 10000 1.54 40 17:45 24.01.2021
3360 Clouds -16 1013 77 10000 1.54 40 17:20 24.01.2021
3361 Clouds -17 1012 77 10000 2.06 40 16:42 24.01.2021
3362 Clouds -16 1012 77 10000 2.06 40 16:21 24.01.2021
3363 Clouds -15 1011 77 10000 2.06 50 15:48 24.01.2021
3364 Clouds -17 1011 77 10000 2.06 50 15:21 24.01.2021
3365 Clouds -19 1010 71 10000 0.62 108 14:57 24.01.2021
3366 Clouds -19 1010 71 10000 0.62 108 14:34 24.01.2021
3367 Clouds -21 1009 77 10000 3.09 50 13:40 24.01.2021
3368 Clouds -21 1009 77 10000 3.09 50 13:18 24.01.2021
3369 Clouds -19 1008 78 10000 0.8 226 12:40 24.01.2021
3370 Clouds -19 1008 78 10000 0.99 229 12:19 24.01.2021
3371 Clouds -19 1006 71 10000 1.54 30 11:46 24.01.2021
3372 Clouds -19 1006 71 10000 1.54 30 11:23 24.01.2021
3373 Clouds -19 1005 78 10000 0.82 242 10:42 24.01.2021
3374 Clouds -19 1004 71 10000 0.47 276 09:57 24.01.2021
3375 Clouds -19 1004 71 10000 0.54 313 09:22 24.01.2021
3376 Clouds -18 1003 71 10000 0.54 313 08:52 24.01.2021
3377 Clouds -18 1003 71 10000 0.7 23 07:22 24.01.2021
3378 Clouds -10 1001 78 10000 1.6 41 02:34 24.01.2021
3379 Clouds -10 1002 78 10000 1.66 50 01:00 24.01.2021
3380 Clouds -8 1002 78 10000 1.49 45 00:24 24.01.2021
3381 Clouds -9 1002 85 10000 1.49 45 23:47 23.01.2021
3382 Clouds -11 1002 85 10000 1.42 53 23:25 23.01.2021
3383 Clouds -11 1002 85 10000 1.42 53 22:42 23.01.2021
3384 Clouds -11 1002 85 10000 1.26 71 22:24 23.01.2021
3385 Clouds -11 1002 78 10000 1.26 71 21:50 23.01.2021
3386 Clouds -11 1002 78 10000 1.31 71 21:21 23.01.2021
3387 Clouds -10 1003 78 10000 1.54 20 20:47 23.01.2021
3388 Clouds -11 1003 78 10000 1.54 20 20:22 23.01.2021
3389 Clouds -10 1003 85 10000 1.23 64 19:46 23.01.2021
3390 Clouds -10 1003 85 10000 1.58 51 19:22 23.01.2021
3391 Clear -12 1004 85 10000 1.58 51 18:49 23.01.2021
3392 Clear -12 1004 85 10000 1.76 49 18:26 23.01.2021
3393 Clear -12 1005 85 10000 1.76 49 17:48 23.01.2021
3394 Clear -11 1005 85 10000 1.41 72 17:27 23.01.2021
3395 Clear -12 1006 78 10000 1.41 72 16:49 23.01.2021
3396 Clear -11 1006 78 10000 1.39 68 16:28 23.01.2021
3397 Clear -16 1007 85 10000 1.54 20 15:41 23.01.2021
3398 Clear -16 1007 85 10000 1.54 20 15:22 23.01.2021
3399 Clear -10 1008 85 10000 1.84 67 14:33 23.01.2021
3400 Clear -11 1009 85 10000 3.09 20 13:54 23.01.2021
3401 Clear -10 1009 85 10000 3.09 20 13:36 23.01.2021
3402 Clear -8 1011 92 10000 2.57 260 12:57 23.01.2021
3403 Clear -8 1011 92 10000 2.57 260 12:57 23.01.2021
3404 Clear -11 1011 92 10000 2.57 260 12:29 23.01.2021
3405 Clouds -14 1011 78 10000 3.09 30 11:48 23.01.2021
3406 Clouds -14 1011 78 10000 3.09 30 11:28 23.01.2021
3407 Clouds -14 1012 85 10000 1.97 57 10:52 23.01.2021
3408 Clouds -14 1012 85 10000 2.39 59 10:21 23.01.2021
3409 Clouds -9 1014 79 10000 2.39 59 09:48 23.01.2021
3410 Clouds -9 1015 79 10000 2.57 40 08:56 23.01.2021
3411 Clouds -9 1015 79 10000 2.57 40 08:31 23.01.2021
3412 Clouds -9 1015 85 10000 1.54 340 07:31 23.01.2021
3413 Clouds -8 1017 79 10000 2.06 30 03:41 23.01.2021
3414 Clouds -4 1017 74 10000 0.93 51 00:54 23.01.2021
3415 Clouds -4 1017 86 10000 2.57 10 23:41 22.01.2021
3416 Clouds -4 1017 86 10000 2.57 10 23:18 22.01.2021
3417 Clouds -5 1017 79 10000 2.06 50 22:38 22.01.2021
3418 Clouds -5 1017 79 10000 0.49 86 21:47 22.01.2021
3419 Clouds -7 1017 79 10000 0.64 87 21:29 22.01.2021
3420 Clouds -7 1016 85 10000 2.06 40 20:57 22.01.2021
3421 Clouds -6 1016 85 10000 2.06 40 20:38 22.01.2021
3422 Clouds -8 1016 85 10000 0.44 77 19:56 22.01.2021
3423 Clouds -8 1016 85 10000 0.8 21 19:24 22.01.2021
3424 Clouds -8 1015 79 10000 2.06 40 18:57 22.01.2021
3425 Clouds -8 1015 79 10000 2.06 40 18:39 22.01.2021
3426 Clouds -8 1015 79 10000 2.06 40 18:20 22.01.2021
3427 Clouds -13 1015 78 10000 0.8 7 17:43 22.01.2021
3428 Clouds -13 1015 78 10000 1.32 27 17:20 22.01.2021
3429 Clouds -13 1015 78 10000 1.32 27 16:39 22.01.2021
3430 Clouds -13 1015 78 10000 1.07 36 16:19 22.01.2021
3431 Clouds -13 1014 78 10000 1.31 60 15:28 22.01.2021
3432 Clouds -13 1014 78 10000 1.31 60 14:54 22.01.2021
3433 Clouds -13 1014 78 10000 1.4 64 14:29 22.01.2021
3434 Clouds -14 1015 78 10000 1.4 64 13:47 22.01.2021
3435 Clouds -14 1015 78 10000 1.7 74 13:27 22.01.2021
3436 Clouds -15 1015 78 10000 1.7 74 12:44 22.01.2021
3437 Clouds -15 1015 78 10000 1.3 66 12:21 22.01.2021
3438 Clouds -14 1015 72 10000 1.3 66 11:45 22.01.2021
3439 Clouds -16 1015 85 10000 1.42 85 10:54 22.01.2021
3440 Clouds -16 1015 85 10000 1.42 85 10:34 22.01.2021
3441 Clouds -16 1016 78 10000 1.45 86 09:55 22.01.2021
3442 Clouds -16 1016 78 10000 1.24 79 09:21 22.01.2021
3443 Clouds -17 1017 78 10000 1.24 79 08:50 22.01.2021
3444 Clouds -17 1017 78 10000 1.54 66 08:25 22.01.2021
3445 Clouds -17 1017 85 10000 1.54 30 07:23 22.01.2021
3446 Clouds -16 1019 85 10000 1.54 260 02:46 22.01.2021
3447 Clouds -14 1020 78 10000 1.54 40 00:38 22.01.2021
3448 Clouds -14 1020 72 10000 1.62 57 23:51 21.01.2021
3449 Clouds -14 1020 72 10000 1.64 54 23:29 21.01.2021
3450 Clouds -17 1021 78 10000 2.06 40 22:49 21.01.2021
3451 Clouds -17 1021 78 10000 2.06 40 22:23 21.01.2021
3452 Clouds -11 1021 85 10000 1.76 55 21:43 21.01.2021
3453 Clouds -12 1021 85 10000 1.83 53 21:20 21.01.2021
3454 Clouds -10 1020 78 10000 1.83 53 20:48 21.01.2021
3455 Clouds -10 1020 78 10000 1.63 56 20:27 21.01.2021
3456 Clouds -10 1020 85 10000 1.63 56 19:51 21.01.2021
3457 Clouds -10 1020 85 10000 1.31 52 19:29 21.01.2021
3458 Clouds -10 1020 78 10000 1.54 20 18:56 21.01.2021
3459 Clouds -10 1020 78 10000 1.54 20 18:38 21.01.2021
3460 Clouds -10 1020 78 10000 1.54 20 18:19 21.01.2021
3461 Clouds -11 1020 78 10000 1.33 57 17:42 21.01.2021
3462 Clouds -11 1020 78 10000 1.14 69 17:19 21.01.2021
3463 Clouds -12 1019 78 10000 1.14 69 16:42 21.01.2021
3464 Clouds -12 1019 78 10000 1.41 63 16:24 21.01.2021
3465 Clouds -13 1019 78 10000 1.41 63 15:58 21.01.2021
3466 Clouds -13 1019 78 10000 1.41 63 15:33 21.01.2021
3467 Clear -14 1019 71 10000 1.38 42 14:52 21.01.2021
3468 Clear -13 1019 71 10000 1.38 42 14:31 21.01.2021
3469 Clear -14 1019 71 10000 1.4 40 13:48 21.01.2021
3470 Clear -18 1019 71 10000 1.88 56 13:27 21.01.2021
3471 Clear -13 1019 78 10000 1.88 56 12:55 21.01.2021
3472 Clear -13 1019 78 10000 1.88 56 12:37 21.01.2021
3473 Clear -18 1019 78 10000 1.41 58 12:18 21.01.2021
3474 Clear -18 1019 78 10000 1.41 58 11:43 21.01.2021
3475 Clear -14 1019 78 10000 1.7 58 11:22 21.01.2021
3476 Clear -17 1019 71 10000 1.7 58 10:43 21.01.2021
3477 Clear -17 1019 71 10000 1.81 58 10:24 21.01.2021
3478 Clear -17 1019 85 10000 2.57 60 09:40 21.01.2021
3479 Clear -13 1019 85 10000 2.57 60 09:20 21.01.2021
3480 Clouds -12 1019 85 10000 1.53 55 08:35 21.01.2021
3481 Clouds -11 1019 78 10000 2.06 40 07:49 21.01.2021
3482 Clouds -12 1019 78 10000 2.06 40 07:26 21.01.2021
3483 Clouds -12 1019 78 10000 1.43 43 06:37 21.01.2021
3484 Clouds -10 1019 85 10000 1.54 40 04:56 21.01.2021
3485 Clouds -9 1018 79 10000 0.66 59 02:22 21.01.2021
3486 Clouds -10 1018 85 10000 0.89 66 00:43 21.01.2021
3487 Clouds -13 1017 85 10000 0.65 65 23:52 20.01.2021
3488 Clouds -11 1017 85 10000 0.65 65 23:30 20.01.2021
3489 Clouds -14 1017 78 10000 0.79 42 22:53 20.01.2021
3490 Clouds -14 1017 78 10000 0.79 42 22:32 20.01.2021
3491 Clouds -17 1016 85 10000 1.08 41 21:56 20.01.2021
3492 Clouds -15 1016 85 10000 0.97 44 21:23 20.01.2021
3493 Clouds -15 1016 85 10000 0.97 44 20:54 20.01.2021
3494 Clouds -15 1016 85 10000 1.27 46 20:24 20.01.2021
3495 Clouds -15 1015 85 10000 1.27 46 19:55 20.01.2021
3496 Clouds -15 1015 85 10000 1.27 46 19:37 20.01.2021
3497 Clouds -15 1015 85 10000 1.4 45 19:18 20.01.2021
3498 Clouds -14 1015 85 10000 1.18 46 18:41 20.01.2021
3499 Clouds -16 1015 84 10000 1.19 49 17:56 20.01.2021
3500 Clouds -16 1015 84 10000 1.19 49 17:36 20.01.2021
3501 Clear -14 1015 85 10000 1.45 45 16:52 20.01.2021
3502 Clear -15 1015 85 10000 1.45 45 16:32 20.01.2021
3503 Clear -15 1015 85 10000 1.35 46 15:48 20.01.2021
3504 Clear -15 1015 85 10000 1.3 42 15:19 20.01.2021
3505 Clear -14 1015 92 10000 1.3 42 14:46 20.01.2021
3506 Clear -14 1015 92 10000 1.93 41 14:22 20.01.2021
3507 Clouds -15 1015 85 10000 2.06 60 13:42 20.01.2021
3508 Clear -16 1015 85 10000 1.61 36 13:21 20.01.2021
3509 Clear -16 1015 85 10000 1.61 36 13:21 20.01.2021
3510 Clear -17 1015 85 10000 1.61 36 12:39 20.01.2021
3511 Clear -17 1015 85 10000 1.72 39 11:55 20.01.2021
3512 Clear -17 1015 85 10000 1.72 39 11:35 20.01.2021
3513 Clear -17 1014 85 10000 1.94 38 10:56 20.01.2021
3514 Clear -17 1014 85 10000 1.94 38 10:32 20.01.2021
3515 Clear -17 1014 92 10000 1.87 33 09:50 20.01.2021
3516 Clear -17 1014 92 10000 1.99 30 09:24 20.01.2021
3517 Clouds -16 1014 92 10000 1.54 70 08:49 20.01.2021
3518 Clouds -16 1014 92 10000 1.54 70 08:27 20.01.2021
3519 Clouds -16 1014 78 10000 1.86 35 07:56 20.01.2021
3520 Clouds -14 1013 92 10000 2.06 60 07:25 20.01.2021
3521 Clouds -14 1013 92 10000 2.06 60 07:25 20.01.2021
3522 Clouds -12 1013 85 10000 2.06 120 05:50 20.01.2021
3523 Clouds -9 1012 86 10000 0.72 190 03:27 20.01.2021
3524 Clouds -7 1010 79 10000 3.09 210 01:18 20.01.2021
3525 Clouds -7 1009 79 10000 4.63 230 00:45 20.01.2021
3526 Clouds -6 1008 79 10000 5.66 220 23:48 19.01.2021
3527 Clouds -6 1008 79 10000 5.66 220 23:20 19.01.2021
3528 Clouds -5 1006 80 10000 5.66 220 22:43 19.01.2021
3529 Clouds -4 1006 80 10000 5.66 220 22:22 19.01.2021
3530 Clouds -4 1005 80 10000 4.12 250 21:59 19.01.2021
3531 Clouds -4 1005 80 10000 4.12 250 21:59 19.01.2021
3532 Clouds -4 1005 80 10000 4.12 250 21:41 19.01.2021
3533 Clouds -5 1005 80 10000 4.12 250 21:22 19.01.2021
3534 Clouds -4 1003 80 10000 7.2 260 20:43 19.01.2021
3535 Clouds -5 1003 80 10000 7.2 260 20:22 19.01.2021
3536 Clouds -5 1001 86 10000 3.09 250 19:48 19.01.2021
3537 Snow -5 1001 86 10000 3.09 250 19:27 19.01.2021
3538 Snow -6 999 86 10000 5.66 250 18:46 19.01.2021
3539 Snow -5 999 86 10000 5.66 250 18:26 19.01.2021
3540 Snow -5 997 86 10000 5.14 260 17:45 19.01.2021
3541 Snow -5 997 86 10000 5.14 260 17:25 19.01.2021
3542 Snow -5 996 86 10000 9.26 240 16:48 19.01.2021
3543 Snow -5 995 86 10000 5.14 240 16:26 19.01.2021
3544 Snow -6 995 86 9656 6.17 250 15:57 19.01.2021
3545 Snow -6 994 80 10000 7.2 250 15:37 19.01.2021
3546 Snow -5 993 74 10000 8.23 260 14:57 19.01.2021
3547 Snow -5 991 74 10000 7.2 240 14:38 19.01.2021
3548 Snow -6 991 58 10000 7.2 250 14:18 19.01.2021
3549 Snow -4 987 69 10000 5.14 230 13:40 19.01.2021
3550 Snow -3 987 69 10000 5.14 230 13:20 19.01.2021
3551 Snow -2 987 69 10000 5.14 230 12:42 19.01.2021
3552 Clouds -2 987 69 10000 5.14 230 12:21 19.01.2021
3553 Clouds -4 986 86 10000 2.57 280 11:43 19.01.2021
3554 Clouds -4 986 86 10000 2.57 280 11:23 19.01.2021
3555 Clouds -4 984 80 10000 0.78 227 10:50 19.01.2021
3556 Clouds -4 984 80 10000 0.47 120 10:31 19.01.2021
3557 Clouds -4 983 74 10000 0.47 120 09:52 19.01.2021
3558 Clouds -4 983 74 10000 0.87 66 09:24 19.01.2021
3559 Clouds -4 982 64 10000 0.87 66 08:52 19.01.2021
3560 Clouds -4 982 64 10000 2.06 30 08:19 19.01.2021
3561 Clouds -3 982 55 10000 2.57 70 07:36 19.01.2021
3562 Clear -3 982 55 10000 2.57 50 05:59 19.01.2021
3563 Clear 1 985 41 10000 5.14 80 02:29 19.01.2021
3564 Clouds 2 988 44 10000 5.14 70 00:49 19.01.2021
3565 Clouds 2 991 44 10000 4.12 80 23:58 18.01.2021
3566 Clouds 2 991 44 10000 4.12 80 23:31 18.01.2021
3567 Clouds 2 993 44 10000 5.14 70 22:51 18.01.2021
3568 Clouds 2 993 44 10000 5.14 70 22:25 18.01.2021
3569 Clouds 1 995 48 10000 4.63 60 21:51 18.01.2021
3570 Clouds 1 995 48 10000 4.63 60 21:24 18.01.2021
3571 Clouds 0 998 51 10000 5.14 70 20:59 18.01.2021
3572 Clouds 0 998 51 10000 5.14 70 20:39 18.01.2021
3573 Clouds 0 998 51 10000 5.14 70 20:20 18.01.2021
3574 Clouds -2 1000 55 10000 5.14 70 19:48 18.01.2021
3575 Clouds -2 1000 55 10000 5.14 70 19:29 18.01.2021
3576 Clouds -5 1002 55 10000 5.14 50 18:44 18.01.2021
3577 Clouds -5 1002 55 10000 5.14 50 18:22 18.01.2021
3578 Clear -7 1004 64 10000 4.12 60 17:41 18.01.2021
3579 Clear -8 1004 64 10000 4.12 60 17:19 18.01.2021
3580 Clear -9 1005 79 10000 3.09 60 16:46 18.01.2021
3581 Clear -10 1005 79 10000 3.09 60 16:20 18.01.2021
3582 Clear -15 1006 85 10000 1.6 56 15:42 18.01.2021
3583 Clear -15 1006 85 10000 2.23 50 15:20 18.01.2021
3584 Clouds -15 1007 85 10000 2.23 50 14:43 18.01.2021
3585 Clouds -15 1007 85 10000 1.81 57 14:25 18.01.2021
3586 Clouds -17 1007 85 10000 1.81 57 13:46 18.01.2021
3587 Clouds -17 1007 85 10000 1.95 73 13:26 18.01.2021
3588 Clear -16 1008 85 10000 1.95 73 12:52 18.01.2021
3589 Clear -16 1008 85 10000 1.84 70 12:20 18.01.2021
3590 Clear -16 1008 85 10000 1.84 70 12:20 18.01.2021
3591 Clear -16 1008 85 10000 1.84 70 11:56 18.01.2021
3592 Clear -16 1008 85 10000 1.84 70 11:37 18.01.2021
3593 Clear -16 1008 85 10000 1.8 60 11:18 18.01.2021
3594 Clear -15 1007 85 10000 1.8 60 10:39 18.01.2021
3595 Clouds -15 1007 85 10000 1.84 52 09:44 18.01.2021
3596 Clouds -15 1007 85 10000 1.88 69 09:24 18.01.2021
3597 Clouds -16 1006 85 10000 1.88 69 08:52 18.01.2021
3598 Clouds -17 1006 85 10000 1.49 50 08:18 18.01.2021
3599 Clear -18 1005 85 10000 1.49 50 07:33 18.01.2021
3600 Clear -18 1004 78 10000 1.25 56 05:35 18.01.2021
3601 Clear -18 1004 85 10000 1.27 51 04:37 18.01.2021
3602 Clear -18 1004 85 10000 1.3 44 04:18 18.01.2021
3603 Clear -17 1004 85 10000 1.3 44 03:41 18.01.2021
3604 Clear -17 1004 85 10000 1.21 24 03:20 18.01.2021
3605 Clear -16 1003 92 10000 1.21 24 02:37 18.01.2021
3606 Clear -16 1002 85 10000 1.07 22 00:49 18.01.2021
3607 Clear -16 1002 85 10000 1.07 22 00:30 18.01.2021
3608 Clear -16 1002 85 10000 0.92 0 23:48 17.01.2021
3609 Clear -16 1002 85 10000 0.73 334 23:20 17.01.2021
3610 Clear -13 1001 85 10000 0.73 334 22:39 17.01.2021
3611 Clear -15 1001 85 10000 0.57 330 22:20 17.01.2021
3612 Clouds -15 1000 92 10000 0.57 330 21:40 17.01.2021
3613 Clouds -15 1000 92 10000 0.58 310 21:22 17.01.2021
3614 Clear -14 999 85 10000 0.58 310 20:48 17.01.2021
3615 Clear -14 999 85 10000 0.9 317 20:28 17.01.2021
3616 Clouds -13 998 92 10000 0.9 317 19:42 17.01.2021
3617 Clouds -13 998 92 10000 1.11 314 19:23 17.01.2021
3618 Clouds -13 997 85 10000 1.11 314 18:43 17.01.2021
3619 Clouds -13 997 85 10000 1.18 323 18:23 17.01.2021
3620 Clouds -14 996 92 10000 1.18 323 17:48 17.01.2021
3621 Clouds -14 996 92 10000 1.46 340 17:26 17.01.2021
3622 Clouds -13 996 85 10000 1.46 340 16:44 17.01.2021
3623 Clouds -13 996 85 10000 1.64 345 16:21 17.01.2021
3624 Clouds -14 995 85 10000 1.64 345 15:43 17.01.2021
3625 Clouds -14 995 85 10000 1.39 358 15:24 17.01.2021
3626 Clouds -15 995 85 10000 1.39 358 14:49 17.01.2021
3627 Clouds -15 995 85 10000 1.39 358 14:49 17.01.2021
3628 Clouds -15 995 85 10000 1.88 27 14:26 17.01.2021
3629 Clouds -14 995 85 10000 1.88 27 13:46 17.01.2021
3630 Clouds -14 995 85 10000 1.87 13 13:27 17.01.2021
3631 Clouds -14 995 85 10000 1.88 3 12:54 17.01.2021
3632 Clouds -14 995 85 10000 1.88 3 12:31 17.01.2021
3633 Clouds -16 994 85 10000 1.87 4 11:59 17.01.2021
3634 Clouds -16 994 85 10000 1.94 10 11:24 17.01.2021
3635 Clouds -17 994 85 10000 1.94 10 10:48 17.01.2021
3636 Clouds -17 994 85 10000 2.09 12 10:21 17.01.2021
3637 Clouds -17 994 85 10000 2.09 12 09:42 17.01.2021
3638 Clouds -18 995 85 10000 1.83 3 08:45 17.01.2021
3639 Clear -19 995 78 10000 1.74 1 06:57 17.01.2021
3640 Clear -20 997 77 10000 1.71 358 04:28 17.01.2021
3641 Clear -18 999 84 10000 1.72 353 02:48 17.01.2021
3642 Clear -16 1000 84 10000 1.65 358 00:51 17.01.2021
3643 Clear -16 1000 84 10000 1.46 354 00:18 17.01.2021
3644 Clear -16 1001 77 10000 1.46 354 23:49 16.01.2021
3645 Clear -22 1001 77 10000 1.42 359 23:20 16.01.2021
3646 Clear -22 1002 77 10000 1.42 359 22:45 16.01.2021
3647 Clear -22 1002 84 10000 1.32 348 21:58 16.01.2021
3648 Clear -22 1002 84 10000 1.32 348 21:37 16.01.2021
3649 Clear -19 1002 84 10000 1.16 338 21:18 16.01.2021
3650 Clear -18 1003 84 10000 1.16 338 20:42 16.01.2021
3651 Clear -19 1003 84 10000 1.27 348 20:21 16.01.2021
3652 Clear -19 1003 77 10000 1.27 348 19:44 16.01.2021
3653 Clear -22 1003 77 10000 1.49 1 19:24 16.01.2021
3654 Clear -22 1003 77 10000 1.49 1 19:24 16.01.2021
3655 Clear -18 1003 84 10000 1.37 343 18:43 16.01.2021
3656 Clear -18 1003 84 10000 1.37 343 18:43 16.01.2021
3657 Clear -18 1003 84 10000 1.44 356 18:24 16.01.2021
3658 Clear -18 1003 84 10000 1.44 356 17:47 16.01.2021
3659 Clear -18 1003 84 10000 1.56 11 17:28 16.01.2021
3660 Clear -18 1004 84 10000 1.56 11 16:47 16.01.2021
3661 Clear -18 1004 84 10000 1.53 12 16:26 16.01.2021
3662 Clear -18 1004 84 10000 1.53 12 15:54 16.01.2021
3663 Clear -18 1004 84 10000 1.61 28 15:22 16.01.2021
3664 Clear -17 1005 77 10000 1.52 24 14:22 16.01.2021
3665 Clear -16 1005 84 10000 1.52 24 13:48 16.01.2021
3666 Clear -16 1005 84 10000 1.81 19 13:24 16.01.2021
3667 Clear -16 1005 84 10000 1.94 22 12:39 16.01.2021
3668 Clear -16 1005 84 10000 1.79 25 12:20 16.01.2021
3669 Clear -16 1005 84 10000 1.79 25 11:48 16.01.2021
3670 Clear -16 1005 84 10000 2.14 24 11:25 16.01.2021
3671 Clear -15 1004 85 10000 2.14 24 10:47 16.01.2021
3672 Clear -15 1004 85 10000 1.78 26 10:24 16.01.2021
3673 Clear -15 1004 85 10000 1.78 26 09:39 16.01.2021
3674 Clear -15 1004 85 10000 1.57 31 09:19 16.01.2021
3675 Clouds -14 1003 85 10000 1.68 27 07:50 16.01.2021
3676 Clouds -16 1002 85 10000 1.26 23 06:44 16.01.2021
3677 Clouds -13 999 72 10000 1.47 14 04:40 16.01.2021
3678 Clouds -12 997 79 10000 1.46 18 02:56 16.01.2021
3679 Clouds -10 996 67 10000 1.21 17 01:44 16.01.2021
3680 Clear -9 995 67 10000 1.54 40 00:38 16.01.2021
3681 Clear -9 995 67 10000 1.54 40 00:19 16.01.2021
3682 Snow -9 994 73 10000 2.02 32 23:24 15.01.2021
3683 Clouds -9 992 73 10000 2.06 60 22:26 15.01.2021
3684 Clouds -9 991 73 10000 2.14 27 21:47 15.01.2021
3685 Clouds -9 991 73 10000 2.13 26 21:22 15.01.2021
3686 Clouds -8 990 73 10000 2.13 26 20:42 15.01.2021
3687 Clouds -8 990 73 10000 2.13 26 20:42 15.01.2021
3688 Clouds -8 990 73 10000 2.07 23 20:22 15.01.2021
3689 Clouds -8 989 73 10000 3.6 70 19:42 15.01.2021
3690 Clouds -8 989 73 10000 3.6 70 19:24 15.01.2021
3691 Clouds -8 988 73 10000 2.57 60 18:45 15.01.2021
3692 Clouds -8 988 73 10000 2.57 60 18:20 15.01.2021
3693 Clouds -7 988 63 10000 4.12 80 17:53 15.01.2021
3694 Clouds -8 988 63 10000 4.12 80 17:27 15.01.2021
3695 Clouds -8 988 63 10000 4.63 50 16:58 15.01.2021
3696 Clouds -8 988 63 10000 4.63 50 16:26 15.01.2021
3697 Clouds -8 988 68 10000 3.09 80 15:56 15.01.2021
3698 Clouds -8 988 68 10000 3.09 80 15:37 15.01.2021
3699 Clouds -8 988 68 10000 3.09 80 15:18 15.01.2021
3700 Clouds -7 988 73 10000 3.09 80 14:37 15.01.2021
3701 Clouds -7 988 73 10000 3.09 80 14:18 15.01.2021
3702 Clouds -9 988 73 10000 4.12 90 13:40 15.01.2021
3703 Clouds -9 988 73 10000 4.12 90 13:19 15.01.2021
3704 Clouds -10 989 79 10000 2.57 80 12:40 15.01.2021
3705 Clouds -10 989 79 10000 2.57 80 12:21 15.01.2021
3706 Clouds -11 989 85 10000 2.57 80 11:42 15.01.2021
3707 Clouds -11 989 85 10000 2.57 80 11:42 15.01.2021
3708 Clouds -12 990 85 10000 3.09 80 10:59 15.01.2021
3709 Clouds -13 990 85 10000 3.09 80 10:41 15.01.2021
3710 Clouds -13 990 85 10000 3.09 80 10:21 15.01.2021
3711 Clear -13 991 85 10000 4.12 60 09:47 15.01.2021
3712 Clear -13 991 85 10000 4.12 60 09:28 15.01.2021
3713 Clouds -15 993 85 10000 2.57 60 08:28 15.01.2021
3714 Clouds -15 993 85 10000 2.57 60 08:28 15.01.2021
3715 Clouds -18 994 77 10000 2.06 10 07:44 15.01.2021
3716 Clouds -20 996 77 10000 2 27 07:23 15.01.2021
3717 Clouds -18 996 77 10000 1.98 18 06:35 15.01.2021
3718 Clouds -19 1002 77 10000 2.2 355 02:44 15.01.2021
3719 Clouds -18 1005 84 10000 2.02 349 00:42 15.01.2021
3720 Clouds -21 1007 84 10000 1.59 1 23:30 14.01.2021
3721 Clouds -23 1008 77 10000 1.03 250 22:57 14.01.2021
3722 Clouds -23 1008 77 10000 1.03 250 22:37 14.01.2021
3723 Clouds -23 1008 77 10000 1.03 250 22:19 14.01.2021
3724 Clouds -23 1009 77 10000 1.03 0 21:39 14.01.2021
3725 Clouds -23 1009 77 10000 1.03 0 21:20 14.01.2021
3726 Clouds -23 1010 77 10000 1.03 280 20:47 14.01.2021
3727 Clouds -23 1010 77 10000 1.03 280 20:18 14.01.2021
3728 Clouds -24 1012 77 10000 1.39 15 19:38 14.01.2021
3729 Clouds -24 1012 77 10000 1.61 17 19:18 14.01.2021
3730 Clouds -19 1012 77 10000 1.61 17 18:45 14.01.2021
3731 Clouds -23 1012 71 10000 0.51 0 17:59 14.01.2021
3732 Clouds -23 1012 71 10000 0.51 0 17:41 14.01.2021
3733 Clouds -23 1012 71 10000 0.51 0 17:23 14.01.2021
3734 Clouds -24 1012 84 10000 0.51 350 16:39 14.01.2021
3735 Clear -23 1012 77 10000 0.51 10 15:55 14.01.2021
3736 Clear -23 1012 77 10000 0.51 10 15:37 14.01.2021
3737 Clouds -23 1012 77 10000 1.03 10 14:50 14.01.2021
3738 Clouds -23 1012 77 10000 1.03 10 14:31 14.01.2021
3739 Clouds -24 1012 77 10000 0.62 32 13:57 14.01.2021
3740 Clouds -24 1012 77 10000 0.62 32 13:57 14.01.2021
3741 Clouds -24 1012 77 10000 0.62 32 13:39 14.01.2021
3742 Clear -23 1012 77 10000 0.82 28 13:18 14.01.2021
3743 Clear -23 1012 77 10000 0.83 38 12:38 14.01.2021
3744 Clear -20 1012 77 10000 0.73 22 12:18 14.01.2021
3745 Clear -27 1011 100 10000 0.73 22 11:41 14.01.2021
3746 Clear -23 1011 100 10000 0.87 10 11:20 14.01.2021
3747 Clouds -19 1011 77 10000 0.87 10 10:47 14.01.2021
3748 Clouds -19 1011 77 10000 0.93 5 10:22 14.01.2021
3749 Clouds -22 1009 77 10000 1.03 0 09:44 14.01.2021
3750 Clouds -19 1009 77 10000 1.03 0 09:22 14.01.2021
3751 Clouds -22 1008 84 10000 1.03 0 08:43 14.01.2021
3752 Clouds -22 1008 84 10000 1.03 0 08:22 14.01.2021
3753 Clouds -22 1007 71 10000 0.83 25 07:45 14.01.2021
3754 Clouds -21 1006 84 10000 0.7 333 06:46 14.01.2021
3755 Clouds -21 1005 77 10000 0.51 0 05:45 14.01.2021
3756 Clouds -20 1001 78 10000 1.5 19 00:44 14.01.2021
3757 Clouds -19 1000 77 10000 1.12 353 23:51 13.01.2021
3758 Clouds -21 1000 77 10000 1.18 4 23:21 13.01.2021
3759 Clouds -19 999 77 10000 0.51 0 22:28 13.01.2021
3760 Clouds -20 998 84 10000 1.3 17 21:57 13.01.2021
3761 Clouds -20 998 84 10000 1.3 17 21:38 13.01.2021
3762 Clouds -18 997 77 10000 1.24 16 20:58 13.01.2021
3763 Clouds -18 997 77 10000 1.24 16 20:30 13.01.2021
3764 Clouds -19 995 77 10000 0.51 340 19:57 13.01.2021
3765 Clouds -22 995 77 10000 0.51 340 19:37 13.01.2021
3766 Clouds -20 995 77 10000 0.51 340 19:19 13.01.2021
3767 Clouds -22 994 77 10000 0.95 11 18:40 13.01.2021
3768 Clear -19 993 77 10000 0.51 350 17:51 13.01.2021
3769 Clear -22 993 77 10000 0.51 350 17:25 13.01.2021
3770 Clear -20 992 84 10000 0.75 3 16:51 13.01.2021
3771 Clear -20 992 84 10000 0.83 13 16:22 13.01.2021
3772 Clouds -19 991 84 10000 0.83 13 15:53 13.01.2021
3773 Clouds -19 991 84 10000 0.83 13 15:35 13.01.2021
3774 Clear -21 989 84 10000 0.78 22 14:48 13.01.2021
3775 Clouds -18 988 77 10000 0.88 15 13:53 13.01.2021
3776 Clouds -18 987 78 10000 0.88 15 13:31 13.01.2021
3777 Clouds -20 987 78 10000 0.89 358 12:47 13.01.2021
3778 Clouds -20 987 78 10000 0.95 21 12:29 13.01.2021
3779 Clouds -20 986 84 10000 1.03 0 11:59 13.01.2021
3780 Clouds -19 986 84 10000 1.03 0 11:40 13.01.2021
3781 Clouds -19 986 84 10000 1.03 0 11:22 13.01.2021
3782 Clouds -17 985 84 10000 1.03 0 10:41 13.01.2021
3783 Clouds -17 985 84 10000 1.03 0 10:22 13.01.2021
3784 Clouds -19 984 85 10000 1.03 0 09:34 13.01.2021
3785 Clouds -19 983 85 10000 1.03 0 08:53 13.01.2021
3786 Clouds -19 983 85 10000 1.03 0 08:33 13.01.2021
3787 Clouds -16 982 71 10000 0.92 356 07:51 13.01.2021
3788 Clouds -19 982 78 10000 1.03 0 07:24 13.01.2021
3789 Clouds -17 981 84 10000 1.54 360 04:21 13.01.2021
3790 Clouds -16 981 78 10000 1.03 0 03:49 13.01.2021
3791 Clouds -16 981 78 10000 1.03 0 03:30 13.01.2021
3792 Clouds -16 980 85 10000 0.44 19 02:19 13.01.2021
3793 Clouds -16 980 85 10000 0.51 0 00:29 13.01.2021
3794 Clouds -18 980 85 10000 1.03 0 23:31 12.01.2021
3795 Clouds -18 980 78 10000 0.51 0 22:47 12.01.2021
3796 Clouds -18 980 78 10000 0.51 0 22:25 12.01.2021
3797 Clouds -18 980 85 10000 1.65 38 21:53 12.01.2021
3798 Clouds -18 980 85 10000 1.65 38 21:35 12.01.2021
3799 Clouds -18 980 85 10000 1.45 48 20:56 12.01.2021
3800 Clouds -18 980 85 10000 1.45 48 20:37 12.01.2021
3801 Clouds -18 980 85 10000 1.46 38 20:19 12.01.2021
3802 Clouds -16 979 71 10000 1.46 38 19:37 12.01.2021
3803 Clouds -16 980 85 10000 1.24 32 18:52 12.01.2021
3804 Clouds -16 980 85 10000 1.14 39 18:25 12.01.2021
3805 Clouds -17 979 71 10000 1.14 39 17:56 12.01.2021
3806 Clouds -17 980 85 10000 1.14 39 17:32 12.01.2021
3807 Clouds -17 980 85 10000 1.14 39 17:32 12.01.2021
3808 Clouds -18 980 85 10000 1.32 48 16:44 12.01.2021
3809 Clouds -18 980 85 10000 1.07 47 16:26 12.01.2021
3810 Clouds -18 980 85 10000 0.51 20 15:48 12.01.2021
3811 Clouds -18 980 85 10000 0.51 20 15:27 12.01.2021
3812 Clouds -18 981 85 10000 0.51 10 14:49 12.01.2021
3813 Clouds -18 981 85 10000 0.51 10 14:26 12.01.2021
3814 Clouds -19 981 78 10000 0.72 60 13:55 12.01.2021
3815 Fog -18 981 78 10000 0.51 0 13:36 12.01.2021
3816 Fog -17 981 78 10000 0.51 0 12:38 12.01.2021
3817 Clouds -17 981 85 10000 1.38 76 11:45 12.01.2021
3818 Clouds -14 981 85 10000 1.35 69 11:27 12.01.2021
3819 Fog -14 1012 92 9656 0.51 0 10:44 12.01.2021
3820 Fog -14 1012 92 9656 0.51 0 10:20 12.01.2021
3821 Fog -14 981 85 9656 1.44 61 09:52 12.01.2021
3822 Fog -14 981 85 9656 1.39 53 09:23 12.01.2021
3823 Clouds -13 981 85 10000 1.54 0 08:27 12.01.2021
3824 Clouds -13 981 85 10000 0.86 69 07:52 12.01.2021
3825 Fog -13 981 92 9656 0.51 0 07:32 12.01.2021
3826 Mist -13 981 92 9656 0.51 40 05:45 12.01.2021
3827 Clouds -11 981 92 10000 1.01 50 03:46 12.01.2021
3828 Clouds -10 981 92 10000 0.47 71 03:22 12.01.2021
3829 Clouds -9 980 93 10000 0.61 44 02:18 12.01.2021
3830 Clouds -6 980 86 10000 0.6 134 00:35 12.01.2021
3831 Clouds -7 979 86 10000 1.35 129 23:43 11.01.2021
3832 Clouds -7 979 86 10000 1.2 139 23:20 11.01.2021
3833 Clouds -5 979 93 10000 1.03 80 22:46 11.01.2021
3834 Clouds -5 979 93 10000 1.03 80 22:28 11.01.2021
3835 Clouds -5 978 86 10000 1.03 0 21:46 11.01.2021
3836 Clouds -5 978 86 10000 1.03 0 21:25 11.01.2021
3837 Clouds -5 978 80 10000 1.54 0 20:59 11.01.2021
3838 Clouds -5 978 80 10000 1.54 0 20:39 11.01.2021
3839 Clouds -5 978 80 10000 1.54 0 20:39 11.01.2021
3840 Clouds -5 978 80 10000 1.54 0 20:20 11.01.2021
3841 Clouds -7 977 86 10000 1.54 120 19:49 11.01.2021
3842 Clouds -6 977 74 10000 1.03 0 19:22 11.01.2021
3843 Clouds -4 977 74 10000 1.03 0 18:43 11.01.2021
3844 Snow -4 977 74 10000 1.03 0 18:23 11.01.2021
3845 Snow -5 977 80 10000 1.03 340 17:42 11.01.2021
3846 Snow -5 977 80 10000 1.03 340 17:24 11.01.2021
3847 Snow -5 977 80 10000 0.51 260 16:48 11.01.2021
3848 Clouds -5 977 80 10000 0.51 260 16:29 11.01.2021
3849 Clouds -5 976 68 10000 0.51 250 15:57 11.01.2021
3850 Clouds -5 976 68 10000 0.51 250 15:36 11.01.2021
3851 Clouds -4 976 63 10000 1.54 0 14:58 11.01.2021
3852 Clouds -4 976 63 10000 1.54 0 14:36 11.01.2021
3853 Clouds -7 976 73 10000 1.54 60 13:48 11.01.2021
3854 Clouds -5 977 59 10000 0.51 0 13:23 11.01.2021
3855 Clouds -5 977 59 10000 0.51 0 12:44 11.01.2021
3856 Clouds -6 977 59 10000 0.51 0 12:25 11.01.2021
3857 Clouds -6 977 59 10000 0.51 0 12:25 11.01.2021
3858 Clouds -6 977 54 10000 1.03 40 11:47 11.01.2021
3859 Clouds -5 978 54 10000 1.03 0 10:59 11.01.2021
3860 Clouds -5 978 54 10000 1.03 0 10:39 11.01.2021
3861 Clouds -5 978 54 10000 1.03 0 10:21 11.01.2021
3862 Clouds -8 978 73 10000 3.09 30 09:37 11.01.2021
3863 Clouds -8 978 73 10000 3.09 30 09:19 11.01.2021
3864 Clouds -9 978 79 10000 3.6 40 08:38 11.01.2021
3865 Clouds -10 978 79 10000 3.6 40 07:50 11.01.2021
3866 Clouds -10 978 79 10000 3.6 40 07:25 11.01.2021
3867 Clouds -12 979 78 10000 2.06 50 06:49 11.01.2021
3868 Clouds -8 980 79 10000 2.06 10 02:52 11.01.2021
3869 Clouds -10 981 72 10000 3.09 40 00:57 11.01.2021
3870 Clouds -12 981 79 10000 2.57 40 23:51 10.01.2021
3871 Clouds -11 981 79 10000 2.57 40 23:23 10.01.2021
3872 Clouds -11 981 78 10000 3.09 60 22:46 10.01.2021
3873 Clouds -11 981 78 10000 3.09 60 22:20 10.01.2021
3874 Clouds -12 981 85 10000 2.57 50 21:44 10.01.2021
3875 Clouds -12 981 85 10000 2.57 50 21:20 10.01.2021
3876 Clouds -14 981 85 10000 3.6 40 20:50 10.01.2021
3877 Clouds -14 981 85 10000 3.6 40 20:29 10.01.2021
3878 Clouds -12 982 85 10000 2.57 40 19:42 10.01.2021
3879 Clouds -14 982 85 10000 2.57 40 19:24 10.01.2021
3880 Clouds -13 982 72 10000 2.57 40 18:46 10.01.2021
3881 Clouds -13 982 72 10000 2.57 40 18:21 10.01.2021
3882 Clouds -13 982 78 10000 2.57 40 17:28 10.01.2021
3883 Clouds -12 983 79 10000 3.09 50 16:58 10.01.2021
3884 Clouds -12 983 79 10000 3.09 50 16:32 10.01.2021
3885 Clouds -11 983 79 10000 3.09 50 15:48 10.01.2021
3886 Clouds -11 983 79 10000 3.09 50 15:25 10.01.2021
3887 Clouds -11 984 79 10000 2.06 40 14:44 10.01.2021
3888 Clouds -11 984 79 10000 2.06 40 14:25 10.01.2021
3889 Clouds -10 985 73 10000 2.06 10 13:54 10.01.2021
3890 Clouds -11 985 73 10000 2.06 10 13:36 10.01.2021
3891 Clouds -11 985 73 10000 2.06 10 13:18 10.01.2021
3892 Clouds -10 986 73 10000 2.06 30 12:42 10.01.2021
3893 Clouds -11 987 79 10000 2.06 60 11:58 10.01.2021
3894 Clouds -11 987 79 10000 2.06 60 11:22 10.01.2021
3895 Clouds -12 988 79 10000 1.54 20 10:58 10.01.2021
3896 Clouds -13 988 79 10000 1.54 20 10:30 10.01.2021
3897 Clouds -13 990 85 10000 2.06 310 09:59 10.01.2021
3898 Clouds -13 990 85 10000 2.06 310 09:24 10.01.2021
3899 Clouds -13 991 78 10000 2.57 50 08:20 10.01.2021
3900 Clouds -15 992 85 10000 1.18 30 07:29 10.01.2021
3901 Clouds -15 993 78 10000 0.87 41 06:19 10.01.2021
3902 Clouds -14 994 78 10000 1.54 360 05:36 10.01.2021
3903 Clouds -11 998 85 10000 0.91 79 02:56 10.01.2021
3904 Clouds -10 999 73 10000 2.57 50 00:52 10.01.2021
3905 Clouds -11 1000 79 10000 2.57 50 23:48 09.01.2021
3906 Clouds -11 1000 79 10000 2.57 50 23:29 09.01.2021
3907 Clouds -13 1001 78 10000 1.22 36 22:47 09.01.2021
3908 Clouds -13 1001 78 10000 1.59 43 22:18 09.01.2021
3909 Clouds -14 1001 78 10000 1.59 43 21:56 09.01.2021
3910 Clouds -14 1001 78 10000 1.59 43 21:38 09.01.2021
3911 Clouds -14 1001 78 10000 1.68 55 21:18 09.01.2021
3912 Clouds -13 1001 78 10000 1.68 55 20:39 09.01.2021
3913 Clouds -17 1001 85 10000 1.29 75 19:45 09.01.2021
3914 Clouds -16 1001 85 10000 1.92 72 19:22 09.01.2021
3915 Clouds -17 1000 78 10000 1.47 60 18:44 09.01.2021
3916 Clouds -17 1000 78 10000 1.83 61 18:26 09.01.2021
3917 Clouds -18 1000 78 10000 1.83 61 17:47 09.01.2021
3918 Clouds -18 1000 78 10000 1.67 58 17:27 09.01.2021
3919 Clouds -18 1001 78 10000 1.67 58 16:36 09.01.2021
3920 Clouds -19 1001 77 10000 1.54 300 15:52 09.01.2021
3921 Clouds -19 1001 77 10000 1.54 300 15:32 09.01.2021
3922 Clouds -20 1001 77 10000 1.54 100 14:41 09.01.2021
3923 Clouds -20 1001 77 10000 1.54 100 14:20 09.01.2021
3924 Clouds -21 1001 77 10000 2.06 50 13:49 09.01.2021
3925 Clouds -21 1001 77 10000 2.06 50 13:30 09.01.2021
3926 Clouds -21 1001 77 10000 2.06 50 13:30 09.01.2021
3927 Clouds -21 1001 77 10000 1.4 47 12:49 09.01.2021
3928 Clouds -21 1001 77 10000 1.65 53 12:24 09.01.2021
3929 Clouds -22 1001 77 10000 1.65 53 11:56 09.01.2021
3930 Clouds -21 1001 77 10000 0.51 0 11:30 09.01.2021
3931 Clouds -21 1001 77 10000 0.51 0 10:52 09.01.2021
3932 Clouds -21 1001 77 10000 0.51 0 10:33 09.01.2021
3933 Clouds -21 1000 84 10000 1.03 20 09:53 09.01.2021
3934 Clouds -18 1000 84 10000 1.03 20 09:29 09.01.2021
3935 Clouds -19 1000 77 10000 0.51 150 08:35 09.01.2021
3936 Clouds -20 999 77 10000 0.38 86 06:58 09.01.2021
3937 Clouds -20 999 77 10000 0.1 120 06:40 09.01.2021
3938 Clouds -16 998 85 10000 1.02 189 04:50 09.01.2021
3939 Clouds -15 997 85 10000 0.75 194 03:22 09.01.2021
3940 Clouds -17 997 85 10000 0.75 194 02:31 09.01.2021
3941 Clouds -18 996 78 10000 0.62 127 01:46 09.01.2021
3942 Clouds -18 996 78 10000 0.35 130 00:36 09.01.2021
3943 Clouds -18 996 78 10000 0.57 155 23:57 08.01.2021
3944 Clouds -18 995 78 10000 0.5 173 22:58 08.01.2021
3945 Clouds -18 995 78 10000 0.79 102 22:18 08.01.2021
3946 Clouds -18 994 78 10000 0.79 102 21:44 08.01.2021
3947 Clouds -17 994 78 10000 1.79 80 20:49 08.01.2021
3948 Clouds -17 994 78 10000 1.33 97 20:25 08.01.2021
3949 Clouds -18 993 85 10000 2.57 30 19:55 08.01.2021
3950 Clouds -18 993 85 10000 2.57 30 19:22 08.01.2021
3951 Clouds -15 993 78 10000 1.46 91 18:36 08.01.2021
3952 Clouds -15 993 78 10000 1.76 100 18:18 08.01.2021
3953 Clouds -16 993 85 10000 1.54 280 17:44 08.01.2021
3954 Clouds -16 993 85 10000 1.54 280 17:20 08.01.2021
3955 Clouds -12 993 72 10000 1.54 30 16:33 08.01.2021
3956 Clouds -12 993 72 10000 1.54 360 15:44 08.01.2021
3957 Clouds -14 993 78 10000 2.57 20 14:56 08.01.2021
3958 Clouds -14 993 78 10000 2.57 20 14:35 08.01.2021
3959 Clouds -17 993 78 10000 2.57 30 13:41 08.01.2021
3960 Clouds -12 993 78 10000 2.57 30 13:18 08.01.2021
3961 Clouds -19 994 78 10000 2.06 40 12:45 08.01.2021
3962 Clouds -19 994 78 10000 2.06 40 12:19 08.01.2021
3963 Clouds -13 993 78 10000 1.54 350 11:43 08.01.2021
3964 Clouds -18 993 78 10000 1.54 350 11:23 08.01.2021
3965 Clouds -14 994 84 10000 2.41 83 10:49 08.01.2021
3966 Clouds -19 994 84 10000 2.24 75 10:26 08.01.2021
3967 Clouds -17 994 78 10000 2.24 75 09:44 08.01.2021
3968 Clouds -17 994 78 10000 2.39 64 09:25 08.01.2021
3969 Clouds -18 994 78 10000 2.39 64 08:33 08.01.2021
3970 Clouds -16 995 85 10000 1.54 20 07:25 08.01.2021
3971 Clouds -17 995 85 10000 1.54 360 05:43 08.01.2021
3972 Clouds -17 994 85 10000 0.73 80 23:46 07.01.2021
3973 Clouds -17 994 85 10000 0.84 41 23:28 07.01.2021
3974 Clouds -17 994 78 10000 0.84 41 22:45 07.01.2021
3975 Clouds -17 994 78 10000 1.62 54 22:25 07.01.2021
3976 Clouds -17 994 78 10000 1.62 54 22:25 07.01.2021
3977 Clouds -16 994 85 10000 0.51 0 21:42 07.01.2021
3978 Clouds -16 994 85 10000 0.51 0 21:24 07.01.2021
3979 Clouds -17 993 85 10000 1.03 0 20:46 07.01.2021
3980 Clouds -17 993 85 10000 1.03 0 20:28 07.01.2021
3981 Clouds -18 992 78 10000 2.06 30 19:43 07.01.2021
3982 Clouds -18 992 78 10000 1.58 69 19:20 07.01.2021
3983 Clouds -17 991 85 10000 0.51 0 18:30 07.01.2021
3984 Clouds -18 991 85 10000 0.51 0 17:42 07.01.2021
3985 Clouds -18 991 85 10000 0.51 0 17:22 07.01.2021
3986 Clouds -17 990 78 10000 1.6 61 16:53 07.01.2021
3987 Clouds -17 990 78 10000 1.88 65 16:27 07.01.2021
3988 Clouds -18 990 85 10000 1.88 65 15:40 07.01.2021
3989 Clouds -19 989 78 10000 2.06 20 14:55 07.01.2021
3990 Clouds -19 989 78 10000 2.06 20 14:27 07.01.2021
3991 Clouds -19 989 71 10000 1.54 0 13:42 07.01.2021
3992 Clouds -19 989 71 10000 1.54 0 13:18 07.01.2021
3993 Clouds -14 992 89 10000 2.06 59 12:42 07.01.2021
3994 Clouds -21 988 76 10000 1.7 30 11:54 07.01.2021
3995 Clouds -21 988 76 10000 1.7 30 11:35 07.01.2021
3996 Clouds -19 988 76 10000 0.5 0 10:50 07.01.2021
3997 Clouds -20 987 76 10000 1 360 10:20 07.01.2021
3998 Clouds -20 987 76 10000 1 360 09:47 07.01.2021
3999 Clouds -19 987 76 10000 1.45 59 09:19 07.01.2021
4000 Clouds -19 987 76 10000 1.53 46 08:29 07.01.2021
4001 Clouds -18 986 69 10000 1.53 46 07:48 07.01.2021
4002 Clouds -19 985 76 10000 1 0 07:22 07.01.2021
4003 Clouds -18 985 76 10000 1 360 04:31 07.01.2021
4004 Clouds -18 982 83 10000 1 0 00:30 07.01.2021
4005 Clouds -18 982 76 10000 1 0 23:45 06.01.2021
4006 Clouds -21 981 83 10000 1 0 22:39 06.01.2021
4007 Clouds -19 981 83 10000 1.76 19 21:44 06.01.2021
4008 Clouds -21 980 76 10000 1 0 21:23 06.01.2021
4009 Clouds -21 980 76 10000 1 0 20:58 06.01.2021
4010 Clouds -20 979 69 10000 1.5 30 20:25 06.01.2021
4011 Clouds -19 979 69 10000 1.5 30 19:59 06.01.2021
4012 Clouds -21 979 69 10000 1.5 30 19:36 06.01.2021
4013 Clouds -22 979 75 10000 1 270 19:18 06.01.2021
4014 Clouds -22 979 75 10000 1 270 18:41 06.01.2021
4015 Clouds -22 979 75 10000 0.5 120 18:22 06.01.2021
4016 Clouds -22 979 75 10000 0.5 120 17:42 06.01.2021
4017 Clouds -21 980 76 10000 1 280 17:23 06.01.2021
4018 Clouds -22 980 76 10000 1 280 16:41 06.01.2021
4019 Clouds -22 980 75 10000 0.5 0 16:19 06.01.2021
4020 Clouds -22 980 75 10000 0.5 0 15:52 06.01.2021
4021 Clouds -23 980 75 10000 0.5 0 15:31 06.01.2021
4022 Clear -23 979 69 10000 1.27 39 14:46 06.01.2021
4023 Clear -22 979 75 10000 1.45 25 14:20 06.01.2021
4024 Clear -21 979 75 10000 1.45 25 13:42 06.01.2021
4025 Clouds -27 979 75 10000 0.5 290 13:22 06.01.2021
4026 Clouds -22 979 75 10000 0.5 290 12:48 06.01.2021
4027 Clouds -27 979 75 10000 0.5 270 11:54 06.01.2021
4028 Clouds -27 979 75 10000 0.5 270 11:26 06.01.2021
4029 Clouds -24 979 75 10000 1 0 10:57 06.01.2021
4030 Clouds -22 979 75 10000 1 320 10:18 06.01.2021
4031 Clouds -22 979 75 10000 1 320 09:49 06.01.2021
4032 Clouds -23 979 75 10000 1.1 6 08:57 06.01.2021
4033 Clouds -23 979 75 10000 1.1 6 08:30 06.01.2021
4034 Clear -22 979 76 10000 3.1 60 07:54 06.01.2021
4035 Clouds -24 980 75 10000 1.53 2 06:46 06.01.2021
4036 Clouds -22 981 76 10000 1.37 8 05:33 06.01.2021
4037 Clouds -24 981 75 10000 0.5 80 04:34 06.01.2021
4038 Clouds -23 982 69 10000 1.21 0 02:47 06.01.2021
4039 Clouds -24 982 83 10000 1.05 357 02:23 06.01.2021
4040 Clouds -23 983 69 10000 1 0 00:34 06.01.2021
4041 Clouds -22 984 69 10000 1 357 23:29 05.01.2021
4042 Clouds -25 984 76 10000 1 357 22:43 05.01.2021
4043 Clouds -26 985 76 10000 1.18 4 22:21 05.01.2021
4044 Clouds -23 985 76 10000 1.18 4 21:55 05.01.2021
4045 Clouds -23 985 83 10000 0.99 1 20:49 05.01.2021
4046 Clouds -22 984 69 10000 0.77 338 20:25 05.01.2021
4047 Clouds -25 984 69 10000 1.5 290 19:44 05.01.2021
4048 Clouds -22 985 76 10000 0.63 322 19:21 05.01.2021
4049 Clouds -23 985 76 10000 0.63 322 18:44 05.01.2021
4050 Clouds -23 984 76 10000 0.74 339 18:25 05.01.2021
4051 Clouds -22 984 70 10000 0.74 339 17:50 05.01.2021
4052 Clouds -22 985 83 10000 0.5 140 17:29 05.01.2021
4053 Clouds -22 985 83 10000 0.5 140 16:53 05.01.2021
4054 Clouds -22 985 76 10000 0.5 140 16:22 05.01.2021
4055 Clouds -21 985 76 10000 0.5 140 15:50 05.01.2021
4056 Clouds -22 985 76 10000 0.5 140 15:25 05.01.2021
4057 Clouds -23 985 76 10000 0.8 326 14:41 05.01.2021
4058 Clouds -23 985 69 10000 0.92 324 13:51 05.01.2021
4059 Clouds -23 985 76 10000 0.92 324 13:30 05.01.2021
4060 Clouds -22 985 76 10000 0.81 322 12:50 05.01.2021
4061 Clouds -22 985 76 10000 0.9 336 12:28 05.01.2021
4062 Clouds -23 986 75 10000 0.9 336 11:40 05.01.2021
4063 -273 0 0 0 0 0 11:21 05.01.2021
4064 Clouds -23 986 75 10000 1 316 11:20 05.01.2021
4065 Clouds -23 986 75 10000 1 316 10:43 05.01.2021
4066 Clouds -23 986 75 10000 1.18 306 09:58 05.01.2021
4067 Clouds -22 986 75 10000 1.18 306 09:37 05.01.2021
4068 Clouds -24 987 75 10000 1.03 312 08:41 05.01.2021
4069 Clouds -26 987 75 10000 1.06 332 08:18 05.01.2021
4070 Clouds -26 988 68 10000 0.5 90 05:29 05.01.2021
4071 Clouds -25 990 83 10000 0.5 0 02:37 05.01.2021
4072 Clouds -24 991 76 10000 0.5 0 00:22 05.01.2021
4073 Clouds -24 991 76 10000 0.5 0 23:39 04.01.2021
4074 Clouds -24 991 76 10000 0.5 0 23:20 04.01.2021
4075 Clouds -24 991 76 10000 0.5 0 22:44 04.01.2021
4076 Clouds -24 990 76 10000 1.04 334 21:57 04.01.2021
4077 Clouds -24 990 76 10000 1.04 334 21:39 04.01.2021
4078 Clouds -23 990 76 10000 1.13 324 20:58 04.01.2021
4079 Clouds -23 990 76 10000 1.13 324 20:34 04.01.2021
4080 Clouds -23 990 69 10000 2.1 200 19:59 04.01.2021
4081 Clouds -22 990 70 10000 3.1 40 19:38 04.01.2021
4082 Clouds -22 990 76 10000 1.31 322 19:18 04.01.2021
4083 Clouds -21 990 76 10000 1.02 338 18:40 04.01.2021
4084 Clear -21 990 83 10000 1.5 0 17:47 04.01.2021
4085 Clear -21 990 83 10000 1.5 0 17:28 04.01.2021
4086 Clear -21 990 83 10000 1 290 16:48 04.01.2021
4087 Clear -21 990 83 10000 1 290 16:28 04.01.2021
4088 Clouds -19 990 77 10000 1 290 15:52 04.01.2021
4089 Clouds -19 990 77 10000 1 290 15:52 04.01.2021
4090 Clouds -19 990 77 10000 1 290 15:34 04.01.2021
4091 Clouds -18 991 70 10000 1.09 344 14:54 04.01.2021
4092 Clouds -17 991 70 10000 1.1 325 13:55 04.01.2021
4093 Clouds -17 991 70 10000 1.1 325 13:35 04.01.2021
4094 Snow -17 991 64 10000 3.1 260 12:51 04.01.2021
4095 Clouds -18 991 64 10000 3.1 260 12:25 04.01.2021
4096 Clouds -19 991 64 10000 3.1 260 11:32 04.01.2021
4097 Clouds -20 991 70 10000 3.1 60 10:56 04.01.2021
4098 Clouds -20 991 70 10000 3.1 60 10:38 04.01.2021
4099 Clouds -21 991 70 10000 3.6 40 10:19 04.01.2021
4100 Clouds -20 991 70 10000 3.6 40 09:24 04.01.2021
4101 Clouds -21 991 69 10000 3.1 30 08:50 04.01.2021
4102 Clouds -21 991 76 10000 2.1 40 08:21 04.01.2021
4103 Clouds -21 991 76 10000 2.1 40 07:45 04.01.2021
4104 Clouds -19 991 64 10000 2.1 40 05:35 04.01.2021
4105 Clouds -18 991 64 10000 2.6 40 04:50 04.01.2021
4106 Clouds -17 990 64 10000 5.1 20 01:31 04.01.2021
4107 Snow -17 990 64 10000 4.6 10 23:57 03.01.2021
4108 Snow -17 990 64 10000 4.6 10 23:34 03.01.2021
4109 Clouds -17 989 64 10000 4.6 10 22:57 03.01.2021
4110 Clouds -17 989 64 10000 4.6 10 22:39 03.01.2021
4111 Clouds -18 989 64 10000 5.7 360 22:20 03.01.2021
4112 Clouds -18 989 64 10000 5.7 360 21:37 03.01.2021
4113 Clouds -18 988 64 10000 5.1 360 20:56 03.01.2021
4114 Clouds -18 988 64 10000 5.1 360 20:38 03.01.2021
4115 Clouds -18 988 64 10000 4.1 360 20:18 03.01.2021
4116 Snow -18 988 70 10000 5.1 360 19:44 03.01.2021
4117 Snow -19 987 70 10000 4.1 10 19:22 03.01.2021
4118 Snow -19 987 70 10000 4.1 10 18:43 03.01.2021
4119 Snow -20 987 70 10000 4.1 10 18:21 03.01.2021
4120 Snow -20 987 70 10000 4.6 10 17:51 03.01.2021
4121 Snow -20 987 70 10000 4.6 10 17:27 03.01.2021
4122 Snow -18 987 70 10000 4.1 10 16:54 03.01.2021
4123 Snow -18 987 70 10000 4.1 10 16:36 03.01.2021
4124 Snow -18 987 70 10000 4.1 10 16:18 03.01.2021
4125 Snow -18 987 70 10000 4.6 10 15:39 03.01.2021
4126 Snow -18 987 70 10000 4.6 360 14:58 03.01.2021
4127 Snow -18 987 70 10000 4.6 360 14:33 03.01.2021
4128 Snow -18 986 70 10000 4.6 360 13:48 03.01.2021
4129 Snow -18 986 70 10000 4.6 360 13:24 03.01.2021
4130 Snow -18 986 64 10000 5.7 360 12:51 03.01.2021
4131 Clouds -18 986 70 10000 5.1 360 11:44 03.01.2021
4132 Clouds -18 986 70 10000 5.1 360 11:25 03.01.2021
4133 Clouds -18 985 70 10000 5.7 350 10:56 03.01.2021
4134 Clouds -18 985 70 10000 5.7 350 10:31 03.01.2021
4135 Clouds -18 985 70 10000 6.2 350 09:42 03.01.2021
4136 Clouds -18 985 70 10000 6.2 350 09:23 03.01.2021
4137 Snow -19 985 70 10000 4.6 360 07:58 03.01.2021
4138 Snow -18 985 70 10000 4.1 360 06:25 03.01.2021
4139 Clouds -23 985 76 10000 1.52 340 02:45 03.01.2021
4140 Clouds -23 985 69 10000 1.43 336 02:20 03.01.2021
4141 Clouds -22 986 76 10000 1.5 180 00:24 03.01.2021
4142 Clouds -22 986 76 10000 1.5 180 23:32 02.01.2021
4143 Clouds -22 986 83 10000 1.22 318 22:59 02.01.2021
4144 Clouds -22 986 83 10000 1.22 318 22:33 02.01.2021
4145 Clouds -22 986 76 10000 1.31 328 21:59 02.01.2021
4146 Clouds -23 986 76 10000 1.31 328 21:37 02.01.2021
4147 Clouds -23 986 69 10000 1.5 180 21:19 02.01.2021
4148 Clouds -23 986 69 10000 1.5 180 20:40 02.01.2021
4149 Clouds -24 986 69 10000 1.4 338 20:20 02.01.2021
4150 Clouds -25 986 69 10000 1.4 338 19:43 02.01.2021
4151 Clouds -25 986 69 10000 1.29 335 19:19 02.01.2021
4152 Clouds -28 987 68 10000 1.29 335 18:42 02.01.2021
4153 Clouds -28 987 68 10000 1.2 330 18:24 02.01.2021
4154 Clouds -29 987 68 10000 1.2 330 17:45 02.01.2021
4155 Clouds -29 987 68 10000 1.14 320 17:25 02.01.2021
4156 Clouds -29 987 68 10000 1.14 320 16:38 02.01.2021
4157 Clouds -27 987 68 10000 1.27 310 16:19 02.01.2021
4158 Clouds -29 987 68 10000 1.27 310 15:42 02.01.2021
4159 Clouds -22 988 68 10000 1.21 307 15:24 02.01.2021
4160 Clouds -26 988 68 10000 1.21 307 14:37 02.01.2021
4161 Clouds -22 988 68 10000 1.19 326 13:59 02.01.2021
4162 Clouds -25 988 68 10000 1.19 326 13:38 02.01.2021
4163 Clouds -26 988 68 10000 1.39 340 12:54 02.01.2021
4164 Clouds -28 988 68 10000 1.36 339 12:32 02.01.2021
4165 Clouds -25 989 68 10000 1.36 339 11:48 02.01.2021
4166 Clouds -26 989 68 10000 1.41 332 11:22 02.01.2021
4167 Clouds -25 989 68 10000 1.41 332 10:51 02.01.2021
4168 Clouds -25 989 68 10000 1.27 323 10:28 02.01.2021
4169 Clouds -24 989 68 10000 1.27 323 09:52 02.01.2021
4170 Clouds -23 990 75 10000 1.37 324 09:23 02.01.2021
4171 Clouds -23 990 75 10000 1.37 324 08:50 02.01.2021
4172 Clouds -26 990 69 10000 1.48 330 08:28 02.01.2021
4173 Clouds -20 990 69 10000 1.48 330 07:47 02.01.2021
4174 Clouds -19 990 69 10000 1.53 330 07:22 02.01.2021
4175 Clouds -22 990 69 10000 1.63 326 06:42 02.01.2021
4176 Clouds -22 991 69 10000 1.55 325 05:45 02.01.2021
4177 Clouds -21 994 69 10000 1.68 323 00:58 02.01.2021
4178 Clouds -19 994 69 10000 1.73 332 00:37 02.01.2021
4179 Clouds -18 994 69 10000 1.56 330 23:55 01.01.2021
4180 Clouds -18 995 69 10000 1.44 325 23:21 01.01.2021
4181 Clouds -19 995 69 10000 1.44 325 22:47 01.01.2021
4182 Clouds -19 995 69 10000 1.35 330 22:25 01.01.2021
4183 Clouds -18 996 69 10000 1.35 330 21:44 01.01.2021
4184 Clouds -19 997 69 10000 1.38 331 21:22 01.01.2021
4185 Clouds -18 997 69 10000 1.38 331 20:53 01.01.2021
4186 Clouds -18 997 76 10000 1.48 332 20:22 01.01.2021
4187 Clouds -19 997 76 10000 1.48 332 19:59 01.01.2021
4188 Clouds -19 997 76 10000 1.48 332 19:40 01.01.2021
4189 Clouds -19 997 76 10000 1.58 325 19:20 01.01.2021
4190 Clouds -18 998 69 10000 1.69 329 18:41 01.01.2021
4191 Clouds -18 999 69 10000 1.72 331 18:20 01.01.2021
4192 Clouds -18 999 69 10000 1.72 331 17:42 01.01.2021
4193 Clouds -18 999 69 10000 1.63 332 17:22 01.01.2021
4194 Clouds -18 999 69 10000 1.63 332 16:45 01.01.2021
4195 Clouds -19 1000 75 10000 1.46 338 15:57 01.01.2021
4196 Clouds -22 1000 75 10000 1.46 338 15:39 01.01.2021
4197 Clouds -19 1001 75 10000 1.68 335 14:42 01.01.2021
4198 Clouds -19 1002 75 10000 1.5 338 14:19 01.01.2021
4199 Clouds -21 1002 75 10000 1.5 338 13:37 01.01.2021
4200 Clouds -21 1002 69 10000 2.6 70 12:51 01.01.2021
4201 Clouds -21 1002 69 10000 2.6 70 12:26 01.01.2021
4202 Clouds -21 1003 75 10000 1.34 358 11:40 01.01.2021
4203 Clouds -21 1004 75 10000 1.6 357 11:18 01.01.2021
4204 Clouds -21 1004 75 10000 1.6 357 10:52 01.01.2021
4205 Clouds -21 1004 69 10000 1.44 357 09:53 01.01.2021
4206 Clouds -22 1004 69 10000 1.31 18 09:24 01.01.2021
4207 Clear -22 1006 69 10000 1.31 18 08:30 01.01.2021
4208 Clear -22 1007 75 10000 1.3 16 06:42 01.01.2021
4209 Clear -21 1008 76 10000 1.51 14 04:49 01.01.2021
4210 Clear -20 1009 76 10000 1.14 13 01:43 01.01.2021
4211 Clear -20 1010 69 10000 0.87 4 00:32 01.01.2021
4212 Clear -20 1010 69 10000 0.91 24 23:41 31.12.2020
4213 Clear -20 1011 76 10000 1.15 26 23:21 31.12.2020
4214 Clear -19 1011 76 10000 1.15 26 22:42 31.12.2020
4215 Clear -19 1011 76 10000 1.14 18 22:23 31.12.2020
4216 Clear -21 1011 76 10000 1.5 20 21:56 31.12.2020
4217 Clear -20 1011 76 10000 1.5 20 21:36 31.12.2020
4218 Clear -19 1011 76 10000 0.74 21 20:58 31.12.2020
4219 Clear -19 1011 76 10000 0.74 21 20:30 31.12.2020
4220 Clear -19 1011 76 10000 0.74 21 20:30 31.12.2020
4221 Clouds -18 1011 76 10000 0.78 21 19:51 31.12.2020
4222 Clouds -18 1011 76 10000 0.78 21 19:33 31.12.2020
4223 Clouds -18 1011 83 10000 1.5 30 18:55 31.12.2020
4224 Clouds -19 1011 83 10000 1.5 30 18:25 31.12.2020
4225 Clouds -18 1011 83 10000 0.95 26 17:48 31.12.2020
4226 Clouds -18 1011 83 10000 0.71 24 17:28 31.12.2020
4227 Clouds -17 1011 70 10000 0.71 24 16:57 31.12.2020
4228 Clouds -17 1011 70 10000 0.71 24 16:37 31.12.2020
4229 Clouds -17 1011 77 10000 1.5 60 16:19 31.12.2020
4230 Clouds -16 1011 77 10000 1.5 60 15:42 31.12.2020
4231 Clouds -16 1011 70 10000 0.61 11 15:19 31.12.2020
4232 Clouds -17 1011 70 10000 0.61 11 14:41 31.12.2020
4233 Clouds -17 1011 77 10000 0.56 347 14:23 31.12.2020
4234 Clouds -17 1011 77 10000 0.56 347 13:58 31.12.2020
4235 Clouds -17 1011 77 10000 0.56 347 13:37 31.12.2020
4236 Clouds -17 1011 77 10000 0.57 357 13:19 31.12.2020
4237 Clouds -17 1011 77 10000 0.57 357 12:46 31.12.2020
4238 Clouds -17 1011 77 10000 0.6 3 12:28 31.12.2020
4239 Clouds -16 1011 77 10000 0.6 3 11:47 31.12.2020
4240 Clouds -16 1011 77 10000 0.69 347 11:29 31.12.2020
4241 Clouds -16 1010 70 10000 0.69 347 10:42 31.12.2020
4242 Clouds -16 1009 70 10000 0.88 347 10:23 31.12.2020
4243 Clouds -17 1009 70 10000 0.88 347 09:49 31.12.2020
4244 Clouds -18 1009 70 10000 0.84 8 09:24 31.12.2020
4245 Clouds -17 1009 76 10000 0.84 8 08:48 31.12.2020
4246 Clouds -16 1009 76 10000 0.84 8 08:30 31.12.2020
4247 Clouds -16 1008 83 10000 0.88 12 07:55 31.12.2020
4248 Clouds -16 1008 83 10000 0.73 5 07:24 31.12.2020
4249 Clouds -19 1008 76 10000 0.77 5 05:30 31.12.2020
4250 Clouds -18 1007 84 10000 1.22 360 03:36 31.12.2020
4251 Clouds -17 1007 83 10000 1.01 5 02:36 31.12.2020
4252 Clouds -15 1006 77 10000 0.9 7 01:56 31.12.2020
4253 Clouds -16 1006 77 10000 0.9 7 01:38 31.12.2020
4254 Clouds -17 1006 77 10000 1.25 13 00:59 31.12.2020
4255 Clouds -17 1006 77 10000 1.25 13 00:39 31.12.2020
4256 Clouds -20 1005 84 10000 1.28 348 23:39 30.12.2020
4257 Clouds -17 1005 83 10000 1.54 8 23:18 30.12.2020
4258 Clouds -18 1005 83 10000 1.54 8 22:36 30.12.2020
4259 Clouds -19 1004 83 10000 1.65 11 21:54 30.12.2020
4260 Clouds -22 1004 83 10000 1.49 21 21:28 30.12.2020
4261 Clouds -22 1004 83 10000 1.49 21 21:28 30.12.2020
4262 Clouds -18 1004 83 10000 1 0 20:54 30.12.2020
4263 Clouds -16 1004 83 10000 1 0 20:29 30.12.2020
4264 Clouds -17 1003 76 10000 1.5 110 20:00 30.12.2020
4265 Clouds -18 1003 76 10000 1.5 110 19:37 30.12.2020
4266 Clouds -16 1003 76 10000 0.5 70 19:18 30.12.2020
4267 Clouds -17 1003 76 10000 0.5 70 18:40 30.12.2020
4268 Clouds -22 1003 76 10000 1.43 38 18:21 30.12.2020
4269 Clouds -19 1003 76 10000 1.43 38 17:48 30.12.2020
4270 Clouds -19 1002 76 10000 1.14 36 17:29 30.12.2020
4271 Clouds -23 1002 76 10000 1.14 36 16:45 30.12.2020
4272 Clouds -23 1002 76 10000 1.25 44 16:20 30.12.2020
4273 Clouds -23 1002 76 10000 1.25 44 15:42 30.12.2020
4274 Clouds -23 1003 69 10000 1.4 42 15:24 30.12.2020
4275 Clouds -19 1003 69 10000 1.4 42 14:42 30.12.2020
4276 Clouds -22 1003 69 10000 1.5 20 14:19 30.12.2020
4277 Clouds -22 1003 69 10000 1.5 20 13:20 30.12.2020
4278 Clouds -19 1004 76 10000 2.1 30 12:27 30.12.2020
4279 Clouds -16 1004 76 10000 2.1 30 11:49 30.12.2020
4280 Clouds -18 1004 76 10000 1.28 52 11:23 30.12.2020
4281 Clouds -18 1004 76 10000 1.28 52 10:59 30.12.2020
4282 Clouds -22 1004 76 10000 1.28 52 10:39 30.12.2020
4283 Clouds -22 1004 83 10000 1.01 71 10:19 30.12.2020
4284 Clouds -22 1004 83 10000 1.01 71 09:44 30.12.2020
4285 Clouds -20 1005 70 10000 0.87 77 08:54 30.12.2020
4286 Clouds -21 1005 76 10000 0.84 77 07:53 30.12.2020
4287 Clouds -17 1005 76 10000 0.88 93 07:27 30.12.2020
4288 Clear -18 1005 76 10000 0.8 78 06:40 30.12.2020
4289 Clear -15 1006 83 10000 0.9 75 05:49 30.12.2020
4290 Clear -18 1006 84 10000 0.5 0 05:30 30.12.2020
4291 Clear -15 1007 91 10000 0.5 0 03:43 30.12.2020
4292 Clear -15 1007 91 10000 0.5 0 03:23 30.12.2020
4293 Clear -16 1007 91 10000 0.5 0 02:35 30.12.2020
4294 Clouds -13 1007 77 10000 1.5 10 01:47 30.12.2020
4295 Clear -14 1007 84 10000 1.29 46 01:29 30.12.2020
4296 Clear -13 1007 84 10000 1.29 46 00:45 30.12.2020
4297 Clear -14 1007 84 10000 1.29 53 00:26 30.12.2020
4298 Clear -15 1008 84 10000 1.29 53 23:50 29.12.2020
4299 Clear -15 1008 84 10000 1.29 53 23:32 29.12.2020
4300 Clear -14 1008 84 10000 1.41 45 22:49 29.12.2020
4301 Clear -14 1008 84 10000 1.41 45 22:31 29.12.2020
4302 Clouds -14 1008 84 10000 1.38 54 21:56 29.12.2020
4303 Clouds -13 1008 84 10000 1.38 54 21:37 29.12.2020
4304 Clouds -14 1008 91 10000 1.24 63 21:18 29.12.2020
4305 Clouds -14 1008 91 10000 1.24 63 20:41 29.12.2020
4306 Clouds -14 1008 91 10000 1.23 60 20:22 29.12.2020
4307 Clouds -14 1008 91 10000 1.23 60 19:43 29.12.2020
4308 Clouds -15 1008 84 10000 1.16 65 19:21 29.12.2020
4309 Clouds -16 1008 84 10000 1.22 67 18:50 29.12.2020
4310 Clouds -14 1008 92 10000 0.95 58 18:28 29.12.2020
4311 Clouds -14 1008 92 10000 0.95 58 17:46 29.12.2020
4312 Clouds -13 1008 84 10000 0.5 110 17:21 29.12.2020
4313 Clouds -13 1008 84 10000 0.5 110 16:54 29.12.2020
4314 Clouds -13 1007 78 10000 0.91 45 16:26 29.12.2020
4315 Clouds -12 1007 78 10000 0.91 45 15:39 29.12.2020
4316 Clouds -11 1007 85 10000 0.31 41 15:20 29.12.2020
4317 Clouds -11 1007 85 10000 0.31 41 14:40 29.12.2020
4318 Clouds -11 1006 92 10000 2.6 50 14:20 29.12.2020
4319 Clouds -10 1006 92 10000 2.6 50 13:54 29.12.2020
4320 Clouds -8 1006 78 10000 2.1 340 13:23 29.12.2020
4321 Clouds -7 1006 78 10000 2.1 340 12:44 29.12.2020
4322 Clouds -7 1006 78 10000 2.1 340 12:25 29.12.2020
4323 Clouds -7 1005 78 10000 0.93 87 11:57 29.12.2020
4324 Clouds -7 1005 78 10000 0.93 87 11:31 29.12.2020
4325 Clouds -8 1004 85 10000 1.5 30 10:38 29.12.2020
4326 Clouds -6 1003 78 10000 0.07 147 09:50 29.12.2020
4327 Clouds -6 1003 78 10000 1.13 133 09:29 29.12.2020
4328 Clouds -7 1002 78 10000 2.6 350 08:56 29.12.2020
4329 Clouds -7 1002 78 10000 2.6 350 08:36 29.12.2020
4330 Clouds -7 1002 78 10000 2.1 60 07:30 29.12.2020
4331 Clouds -7 1001 78 10000 2.1 50 06:48 29.12.2020
4332 Clouds -8 1001 78 10000 1.5 0 05:32 29.12.2020
4333 Clouds -11 1001 78 10000 0.5 0 00:56 29.12.2020
4334 Clouds -13 1001 84 10000 1.19 66 00:23 29.12.2020
4335 Clouds -13 1001 84 10000 1.19 66 23:36 28.12.2020
4336 Clouds -15 1001 77 10000 0.5 0 22:30 28.12.2020
4337 Clouds -12 1000 85 10000 1.41 45 21:47 28.12.2020
4338 Clouds -12 1000 85 10000 1.39 55 21:28 28.12.2020
4339 Clouds -13 999 92 10000 1.39 55 20:44 28.12.2020
4340 Clouds -13 999 92 10000 1.39 55 20:44 28.12.2020
4341 Clouds -13 999 92 10000 1.33 53 20:25 28.12.2020
4342 Clouds -13 999 78 10000 1.5 20 19:50 28.12.2020
4343 Clouds -12 998 66 10000 1.75 68 19:26 28.12.2020
4344 Clouds -11 998 66 10000 1.77 56 18:59 28.12.2020
4345 Clouds -11 998 66 10000 1.77 56 18:36 28.12.2020
4346 Clouds -9 1004 73 10000 2.09 49 17:55 28.12.2020
4347 Clouds -9 1004 73 10000 2.09 49 17:37 28.12.2020
4348 Clouds -8 998 79 10000 1.12 48 17:18 28.12.2020
4349 Clouds -8 998 79 10000 1.12 48 16:31 28.12.2020
4350 Clouds -9 998 78 10000 1.87 45 15:54 28.12.2020
4351 Clouds -9 998 78 10000 1.87 45 15:36 28.12.2020
4352 Clouds -12 999 85 10000 3.1 40 14:35 28.12.2020
4353 Clouds -11 999 78 10000 2.1 40 13:49 28.12.2020
4354 Clouds -11 999 78 10000 2.1 40 13:22 28.12.2020
4355 Clouds -11 999 78 10000 2.1 40 12:29 28.12.2020
4356 Clouds -13 999 77 10000 2.6 40 11:58 28.12.2020
4357 Clouds -13 999 77 10000 2.6 40 11:38 28.12.2020
4358 Clouds -16 1000 84 10000 1.5 0 11:18 28.12.2020
4359 Clouds -16 1000 84 10000 1.5 0 10:29 28.12.2020
4360 Clouds -17 1000 91 10000 2.6 50 09:59 28.12.2020
4361 Clouds -16 1000 91 10000 2.6 50 09:38 28.12.2020
4362 Clouds -15 1000 77 10000 1.5 60 09:18 28.12.2020
4363 Clouds -15 1001 77 10000 1.73 55 06:54 28.12.2020
4364 Clouds -16 1001 77 10000 1.3 64 05:34 28.12.2020
4365 Clouds -18 1001 77 10000 1.99 55 03:53 28.12.2020
4366 Clouds -19 1002 77 10000 1.98 44 01:56 28.12.2020
4367 Clouds -22 1002 69 10000 1.5 0 00:19 28.12.2020
4368 Clouds -22 1002 69 10000 1.5 0 23:35 27.12.2020
4369 Clouds -24 1002 76 10000 1.97 44 22:52 27.12.2020
4370 Clouds -24 1003 69 10000 2.1 50 21:55 27.12.2020
4371 Clouds -24 1003 69 10000 2 49 21:24 27.12.2020
4372 Clouds -24 1003 69 10000 2 49 20:37 27.12.2020
4373 Clouds -23 1004 69 10000 1.85 55 19:24 27.12.2020
4374 Clear -24 1004 69 10000 1.5 290 18:52 27.12.2020
4375 Clear -24 1005 76 10000 1.81 59 18:22 27.12.2020
4376 Clear -24 1005 76 10000 1.81 59 17:59 27.12.2020
4377 Clear -24 1005 76 10000 1.81 59 17:39 27.12.2020
4378 Clear -24 1005 76 10000 1.93 54 17:18 27.12.2020
4379 Clear -20 1005 76 10000 2.03 46 16:25 27.12.2020
4380 Clear -19 1006 75 10000 2.03 46 15:34 27.12.2020
4381 Clear -21 1006 69 10000 1.93 45 14:56 27.12.2020
4382 Clear -21 1006 69 10000 1.93 45 14:38 27.12.2020
4383 Clouds -21 1006 69 10000 1.61 41 13:39 27.12.2020
4384 Clouds -20 1006 76 10000 2.1 30 12:57 27.12.2020
4385 Clouds -21 1006 76 10000 2.1 30 12:28 27.12.2020
4386 Clouds -20 1006 76 10000 1.5 60 11:42 27.12.2020
4387 Clouds -20 1006 76 10000 0.97 51 11:23 27.12.2020
4388 Clouds -20 1006 76 10000 0.97 51 10:49 27.12.2020
4389 Clouds -20 1006 76 10000 0.48 59 10:23 27.12.2020
4390 Clouds -21 1005 76 10000 0.48 59 09:39 27.12.2020
4391 Clouds -18 1005 69 10000 0.72 91 08:29 27.12.2020
4392 Clouds -19 1004 83 10000 0.72 91 07:47 27.12.2020
4393 Clouds -18 1003 76 10000 0.42 82 07:18 27.12.2020
4394 Clouds -18 1002 77 10000 0.13 104 05:39 27.12.2020
4395 Clouds -16 1001 84 10000 0.23 63 03:26 27.12.2020
4396 Clouds -16 1000 77 10000 0.23 63 02:30 27.12.2020
4397 Clouds -16 1000 77 10000 0.33 96 00:58 27.12.2020
4398 Clouds -17 999 84 10000 0.38 44 23:44 26.12.2020
4399 Clouds -18 999 84 10000 0.33 86 23:26 26.12.2020
4400 Clouds -19 999 84 10000 0.33 86 22:46 26.12.2020
4401 Clouds -19 999 84 10000 0.34 67 22:20 26.12.2020
4402 Clouds -15 999 84 10000 0.34 67 21:54 26.12.2020
4403 Clouds -15 999 84 10000 0.38 55 21:31 26.12.2020
4404 Clouds -14 998 77 10000 0.38 55 20:48 26.12.2020
4405 Clouds -15 998 77 10000 0.74 24 20:27 26.12.2020
4406 Clouds -15 998 77 10000 0.74 24 19:57 26.12.2020
4407 Clouds -16 998 77 10000 0.77 10 19:24 26.12.2020
4408 Clouds -18 997 70 10000 1.01 23 18:37 26.12.2020
4409 Clouds -17 997 77 10000 2.1 50 17:59 26.12.2020
4410 Clouds -20 997 77 10000 2.1 50 17:39 26.12.2020
4411 Clouds -22 997 83 10000 1.5 180 17:18 26.12.2020
4412 Clouds -22 997 83 10000 1.5 180 16:31 26.12.2020
4413 Clouds -17 996 69 10000 0.15 349 15:25 26.12.2020
4414 Clear -20 996 76 10000 1.5 210 14:46 26.12.2020
4415 Clear -17 996 76 10000 0.25 327 14:22 26.12.2020
4416 Clear -19 996 76 10000 0.25 327 13:43 26.12.2020
4417 Clouds -18 996 83 10000 1.5 40 13:24 26.12.2020
4418 Clouds -18 996 83 10000 1.5 40 12:44 26.12.2020
4419 Clouds -17 996 83 10000 1.01 17 12:21 26.12.2020
4420 Clouds -17 996 83 10000 1.01 17 11:51 26.12.2020
4421 Clouds -16 996 77 10000 1.05 30 11:21 26.12.2020
4422 Clouds -16 996 77 10000 1.05 30 10:53 26.12.2020
4423 Clouds -18 996 77 10000 1.29 34 10:27 26.12.2020
4424 Clouds -18 996 77 10000 1.29 34 09:49 26.12.2020
4425 Clouds -18 996 77 10000 1.29 34 09:49 26.12.2020
4426 Clouds -15 997 84 10000 1.4 10 09:24 26.12.2020
4427 Clouds -14 997 77 10000 1.5 0 08:21 26.12.2020
4428 Clouds -14 997 77 10000 1.5 0 07:50 26.12.2020
4429 Clouds -15 998 77 10000 1.37 13 06:29 26.12.2020
4430 Clouds -13 999 84 10000 0.72 86 02:49 26.12.2020
4431 Clouds -11 1000 78 10000 1.13 66 00:44 26.12.2020
4432 Clouds -11 1000 78 10000 2.1 30 00:24 26.12.2020
4433 Clouds -12 1000 78 10000 2.1 30 23:39 25.12.2020
4434 Clouds -13 1001 77 10000 1.02 52 23:21 25.12.2020
4435 Clouds -9 1001 77 10000 1.02 52 22:40 25.12.2020
4436 Clouds -10 1001 77 10000 1.22 70 21:54 25.12.2020
4437 Clouds -10 1001 77 10000 1.22 70 21:34 25.12.2020
4438 Clouds -10 1002 77 10000 1.53 66 20:49 25.12.2020
4439 Clouds -13 1002 77 10000 1.68 62 20:30 25.12.2020
4440 Clouds -16 1002 77 10000 1.68 62 19:47 25.12.2020
4441 Clouds -12 1002 84 10000 1.5 290 18:58 25.12.2020
4442 Clouds -11 1002 84 10000 1.5 290 18:38 25.12.2020
4443 Clouds -11 1003 77 10000 1.66 79 17:40 25.12.2020
4444 Clouds -11 1003 84 10000 1.52 77 17:21 25.12.2020
4445 Clouds -13 1003 84 10000 1.52 77 16:33 25.12.2020
4446 Clouds -11 1004 77 10000 1.77 63 15:57 25.12.2020
4447 Clouds -11 1004 77 10000 1.77 63 15:35 25.12.2020
4448 Clouds -12 1005 70 10000 1.84 70 14:49 25.12.2020
4449 Clouds -15 1005 70 10000 1.44 61 14:28 25.12.2020
4450 Clouds -15 1006 70 10000 1.44 61 13:44 25.12.2020
4451 Clouds -15 1006 70 10000 1.8 50 13:26 25.12.2020
4452 Clouds -17 1007 76 10000 1.5 50 12:45 25.12.2020
4453 Clouds -18 1007 76 10000 2.13 68 11:56 25.12.2020
4454 Clouds -17 1007 76 10000 2.13 68 11:31 25.12.2020
4455 Clouds -17 1007 76 10000 2.25 49 10:57 25.12.2020
4456 Clouds -18 1007 76 10000 2.2 49 10:24 25.12.2020
4457 Clear -18 1008 69 10000 2.2 49 09:34 25.12.2020
4458 Clear -18 1008 76 10000 2.1 40 08:48 25.12.2020
4459 Clear -18 1008 76 10000 1.95 50 07:58 25.12.2020
4460 Clouds -21 1009 76 10000 1.82 49 06:46 25.12.2020
4461 Clouds -17 1009 76 10000 1.5 30 03:49 25.12.2020
4462 Clouds -16 1008 77 10000 1.3 61 01:41 25.12.2020
4463 Clouds -17 1008 77 10000 0.78 70 00:18 25.12.2020
4464 Clouds -16 1008 77 10000 0.52 80 23:23 24.12.2020
4465 Clouds -17 1007 77 10000 0.52 80 22:50 24.12.2020
4466 Clouds -17 1006 77 10000 2.1 360 22:21 24.12.2020
4467 Clouds -14 1006 77 10000 2.1 360 21:34 24.12.2020
4468 Clouds -14 1005 70 10000 1.5 20 20:36 24.12.2020
4469 Clear -18 1004 76 10000 1.19 53 18:51 24.12.2020
4470 Clear -17 1004 76 10000 1.31 55 18:18 24.12.2020
4471 Haze -17 1003 77 3219 1.31 55 17:37 24.12.2020
4472 Clear -15 1003 91 10000 1.32 59 16:45 24.12.2020
4473 Clear -16 1003 84 10000 1.23 57 16:22 24.12.2020
4474 Clear -14 1003 84 10000 1.23 57 15:42 24.12.2020
4475 Clear -14 1002 84 10000 1.5 40 15:19 24.12.2020
4476 Clear -13 1002 84 10000 1.5 40 14:49 24.12.2020
4477 Clear -14 1002 91 10000 2.1 30 14:24 24.12.2020
4478 Clear -14 1002 91 10000 2.1 30 13:43 24.12.2020
4479 Clouds -12 1002 85 10000 1.5 60 13:25 24.12.2020
4480 Clouds -12 1002 85 10000 1.5 60 12:44 24.12.2020
4481 Clouds -11 1001 85 10000 1.05 56 12:21 24.12.2020
4482 Clouds -10 1001 85 10000 1.05 56 11:47 24.12.2020
4483 Clouds -10 1001 85 10000 1.18 69 11:21 24.12.2020
4484 Clouds -10 1000 85 10000 1.18 69 10:53 24.12.2020
4485 Clouds -10 1000 85 10000 1.18 69 10:35 24.12.2020
4486 Clouds -10 1000 92 10000 1.32 69 09:52 24.12.2020
4487 Clouds -9 1000 78 10000 1.5 10 09:26 24.12.2020
4488 Clouds -10 999 78 10000 1.02 84 08:39 24.12.2020
4489 Snow -10 998 78 10000 1.5 350 07:42 24.12.2020
4490 Snow -9 998 85 10000 2.1 350 07:20 24.12.2020
4491 Mist -8 997 78 6437 2.1 30 05:40 24.12.2020
4492 Snow -10 994 85 1609 1 0 01:57 24.12.2020
4493 Snow -10 994 85 1609 1 0 01:37 24.12.2020
4494 Snow -10 993 85 2414 2.1 0 01:18 24.12.2020
4495 Snow -9 992 78 10000 1.5 230 00:21 24.12.2020
4496 Snow -9 991 78 10000 1.5 230 23:49 23.12.2020
4497 Snow -9 991 78 10000 1.5 230 23:30 23.12.2020
4498 Snow -8 989 78 10000 1 310 22:57 23.12.2020
4499 Snow -5 987 79 10000 1.5 0 22:31 23.12.2020
4500 Snow -5 987 79 10000 1.5 0 21:56 23.12.2020
4501 Snow -5 987 79 10000 1.5 0 21:28 23.12.2020
4502 Snow -4 987 79 9656 2.1 220 20:54 23.12.2020
4503 Snow -4 987 79 9656 2.1 220 20:36 23.12.2020
4504 Snow -3 984 58 10000 2.1 230 20:18 23.12.2020
4505 Snow -4 984 58 10000 2.1 230 19:39 23.12.2020
4506 Snow -6 983 79 10000 1.38 183 19:20 23.12.2020
4507 Snow -6 983 79 10000 1.22 189 18:48 23.12.2020
4508 Clouds -5 983 73 10000 1 0 18:24 23.12.2020
4509 Clouds -4 983 73 10000 1 0 17:39 23.12.2020
4510 Clouds -4 983 73 10000 1 0 17:39 23.12.2020
4511 Clouds -6 982 85 10000 1.49 199 17:20 23.12.2020
4512 Clouds -6 982 85 10000 1.49 199 16:47 23.12.2020
4513 Clouds -6 982 85 10000 1.46 205 16:29 23.12.2020
4514 Clouds -6 982 85 10000 1.46 205 15:56 23.12.2020
4515 Clouds -5 982 85 10000 1.46 205 15:30 23.12.2020
4516 Clouds -6 982 85 10000 2.1 50 14:59 23.12.2020
4517 Clouds -6 982 85 10000 2.1 50 14:39 23.12.2020
4518 Clouds -6 983 73 10000 0.89 53 14:20 23.12.2020
4519 Clouds -6 983 73 10000 0.89 53 13:44 23.12.2020
4520 Clouds -6 983 73 10000 0.89 53 13:44 23.12.2020
4521 Clouds -6 983 73 10000 0.89 53 13:44 23.12.2020
4522 Clouds -6 983 78 10000 1.58 50 13:19 23.12.2020
4523 Clouds -6 983 78 10000 1.5 50 12:53 23.12.2020
4524 Clouds -7 983 78 10000 1.6 55 12:28 23.12.2020
4525 Clouds -6 984 79 10000 1.5 20 11:53 23.12.2020
4526 Clouds -5 985 73 10000 1.5 0 11:21 23.12.2020
4527 Clouds -6 985 73 10000 1.5 0 10:50 23.12.2020
4528 Clouds -5 985 73 10000 1.5 0 10:32 23.12.2020
4529 Clouds -5 986 79 10000 1.5 300 09:36 23.12.2020
4530 Clouds -5 987 79 10000 1.03 45 08:51 23.12.2020
4531 Snow -5 987 79 10000 0.88 60 08:22 23.12.2020
4532 Snow -5 987 79 10000 0.88 60 07:37 23.12.2020
4533 Snow -5 987 79 10000 1.5 0 06:41 23.12.2020
4534 Snow -6 987 73 10000 2.14 72 05:54 23.12.2020
4535 Snow -6 988 79 10000 1.98 75 05:19 23.12.2020
4536 Clouds -3 989 47 10000 5.1 350 01:32 23.12.2020
4537 Clouds -1 989 47 10000 5.1 350 00:30 23.12.2020
4538 Clouds 2 989 47 10000 2.1 80 23:39 22.12.2020
4539 Clouds 2 989 47 10000 5.1 100 23:21 22.12.2020
4540 Clouds 2 989 47 10000 5.1 100 22:42 22.12.2020
4541 Clouds 1 995 55 10000 2.91 75 22:22 22.12.2020
4542 Clouds 1 995 55 10000 2.91 75 21:45 22.12.2020
4543 Clouds 1 990 51 10000 4.1 80 21:20 22.12.2020
4544 Clouds 1 990 51 10000 4.1 80 20:51 22.12.2020
4545 Clouds 1 990 51 10000 4.1 80 20:31 22.12.2020
4546 Clouds 0 991 51 10000 4.1 100 19:52 22.12.2020
4547 Clouds -1 991 51 10000 4.1 100 19:28 22.12.2020
4548 Clouds -2 992 94 10000 3.1 100 18:58 22.12.2020
4549 Clouds -3 992 94 10000 3.1 100 18:38 22.12.2020
4550 Clouds -6 994 79 10000 3.1 100 18:20 22.12.2020
4551 Clouds -6 994 79 10000 3.1 100 17:38 22.12.2020
4552 Clouds -5 993 73 10000 3.6 10 17:18 22.12.2020
4553 Clouds -6 994 72 10000 3.1 360 16:47 22.12.2020
4554 Clouds -7 994 72 10000 3.1 360 16:21 22.12.2020
4555 Clouds -8 995 72 10000 2.77 52 15:46 22.12.2020
4556 Clouds -8 995 72 10000 3.08 50 15:28 22.12.2020
4557 Clouds -12 995 78 10000 1.5 40 14:57 22.12.2020
4558 Clouds -12 995 78 10000 1.5 40 14:38 22.12.2020
4559 Clouds -12 995 78 10000 1.5 40 14:18 22.12.2020
4560 Clouds -12 996 72 10000 2.6 50 13:42 22.12.2020
4561 Clouds -13 997 71 10000 2.6 30 13:18 22.12.2020
4562 Clouds -13 997 71 10000 2.6 30 12:44 22.12.2020
4563 Clouds -13 997 71 10000 2.6 30 12:26 22.12.2020
4564 Clouds -16 997 77 10000 1.5 60 11:57 22.12.2020
4565 Clouds -16 997 77 10000 1.5 60 11:39 22.12.2020
4566 Clouds -17 998 70 10000 2.58 63 11:19 22.12.2020
4567 Clouds -19 998 70 10000 2.58 63 10:47 22.12.2020
4568 Clouds -18 998 70 10000 2.68 43 10:24 22.12.2020
4569 Clouds -19 998 70 10000 2.68 43 09:56 22.12.2020
4570 Clouds -18 999 77 10000 1.86 48 09:23 22.12.2020
4571 Clouds -18 999 77 10000 1.86 48 08:53 22.12.2020
4572 Clouds -18 999 77 10000 2.28 43 08:29 22.12.2020
4573 Clouds -20 999 77 10000 2.28 43 07:48 22.12.2020
4574 Clouds -22 1000 83 10000 2.27 41 06:48 22.12.2020
4575 Clouds -21 1001 70 10000 1.91 38 05:44 22.12.2020
4576 Clouds -19 1003 76 10000 2.07 46 03:33 22.12.2020
4577 Clouds -23 1004 75 10000 2 39 00:46 22.12.2020
4578 Clouds -23 1005 83 10000 1.62 40 23:54 21.12.2020
4579 Clouds -24 1005 83 10000 1.62 40 23:36 21.12.2020
4580 Clouds -22 1005 83 10000 0.5 0 22:38 21.12.2020
4581 Clouds -23 1005 76 10000 1.59 48 22:19 21.12.2020
4582 Clouds -23 1005 76 10000 1.59 48 21:57 21.12.2020
4583 Clouds -23 1005 76 10000 1.59 48 21:39 21.12.2020
4584 Clouds -23 1005 83 10000 1.54 54 21:18 21.12.2020
4585 Clouds -23 1005 83 10000 1.33 56 20:27 21.12.2020
4586 Snow -22 1004 76 10000 1.33 56 19:59 21.12.2020
4587 Snow -22 1004 76 10000 1.33 56 19:41 21.12.2020
4588 Snow -22 1004 83 10000 0.5 150 19:19 21.12.2020
4589 Snow -22 1004 83 10000 0.5 150 18:51 21.12.2020
4590 Snow -22 1004 83 10000 0.5 150 18:32 21.12.2020
4591 Snow -21 1005 83 10000 0.5 50 17:43 21.12.2020
4592 Snow -21 1005 76 8047 0.5 100 17:24 21.12.2020
4593 Snow -20 1005 76 8047 0.5 100 16:47 21.12.2020
4594 Snow -20 1005 76 10000 1.5 190 16:26 21.12.2020
4595 Snow -20 1005 76 10000 1.5 190 15:47 21.12.2020
4596 Snow -20 1005 76 10000 1.5 190 15:29 21.12.2020
4597 Snow -20 1004 76 10000 2.1 170 14:57 21.12.2020
4598 Snow -20 1004 70 10000 2.6 200 14:21 21.12.2020
4599 Snow -20 1004 70 10000 2.6 200 13:43 21.12.2020
4600 Snow -20 1004 70 10000 2.6 200 13:24 21.12.2020
4601 Snow -20 1003 70 10000 2.1 190 12:44 21.12.2020
4602 Snow -20 1003 70 10000 2.1 190 12:44 21.12.2020
4603 Snow -20 1003 70 10000 2.1 190 12:25 21.12.2020
4604 Snow -20 1002 70 10000 2.6 200 11:56 21.12.2020
4605 Snow -20 1002 70 10000 2.6 200 11:37 21.12.2020
4606 Clouds -19 1001 70 10000 0.52 261 11:19 21.12.2020
4607 Clouds -19 1001 70 10000 0.52 261 10:41 21.12.2020
4608 Clouds -19 1000 70 10000 0.79 254 10:22 21.12.2020
4609 Clouds -19 1000 70 10000 0.79 254 09:43 21.12.2020
4610 Clouds -19 1000 70 10000 0.92 255 09:24 21.12.2020
4611 Snow -19 1000 77 10000 1.5 210 08:52 21.12.2020
4612 Snow -19 999 70 9656 0.79 278 07:52 21.12.2020
4613 Snow -19 999 70 10000 2.6 40 06:43 21.12.2020
4614 Snow -21 998 76 10000 1.04 314 04:49 21.12.2020
4615 Snow -23 997 69 10000 1.5 0 01:26 21.12.2020
4616 Clouds -23 997 76 10000 1.3 343 00:32 21.12.2020
4617 Clouds -23 997 69 10000 1.5 50 23:36 20.12.2020
4618 Snow -23 996 76 10000 1.5 40 22:59 20.12.2020
4619 Snow -23 996 76 10000 1.5 40 22:59 20.12.2020
4620 Snow -22 996 76 10000 1.5 40 22:41 20.12.2020
4621 Snow -22 996 76 9656 1.5 80 22:21 20.12.2020
4622 Snow -21 996 76 9656 1.5 80 21:40 20.12.2020
4623 Snow -21 995 76 10000 0.96 353 21:20 20.12.2020
4624 Snow -21 995 76 10000 0.96 353 20:51 20.12.2020
4625 Snow -20 994 70 4828 0.78 335 20:24 20.12.2020
4626 Snow -20 994 70 4828 0.78 335 19:46 20.12.2020
4627 Snow -20 994 70 4828 0.75 328 19:28 20.12.2020
4628 Snow -20 994 70 4828 0.75 328 18:58 20.12.2020
4629 Snow -20 994 70 4828 1.01 336 18:38 20.12.2020
4630 Snow -20 993 70 4828 1.01 328 18:19 20.12.2020
4631 Snow -20 993 70 4023 1.01 328 17:43 20.12.2020
4632 Snow -20 993 70 4828 1.02 311 17:22 20.12.2020
4633 Mist -21 993 70 4828 1.02 311 16:45 20.12.2020
4634 Snow -21 992 70 3219 0.96 315 16:25 20.12.2020
4635 Snow -21 992 70 3219 0.96 315 15:47 20.12.2020
4636 Snow -21 992 76 4023 1.15 318 15:24 20.12.2020
4637 Snow -21 992 76 4023 1.15 318 14:53 20.12.2020
4638 Snow -21 992 76 4023 1.15 318 14:30 20.12.2020
4639 Snow -21 992 70 2816 1.25 312 13:47 20.12.2020
4640 Snow -21 992 70 2816 1.23 297 13:25 20.12.2020
4641 Snow -21 991 76 3219 1.23 297 12:57 20.12.2020
4642 Snow -21 991 70 4023 1.3 301 12:39 20.12.2020
4643 Snow -21 991 70 3219 2.1 70 12:18 20.12.2020
4644 Snow -21 991 70 4828 1.48 312 11:42 20.12.2020
4645 Mist -21 991 70 3219 1.46 323 10:59 20.12.2020
4646 Snow -21 990 70 4828 1.46 323 10:41 20.12.2020
4647 Clouds -22 990 58 10000 1.46 325 10:20 20.12.2020
4648 Clouds -22 990 58 10000 1.46 325 09:45 20.12.2020
4649 Clouds -22 990 58 10000 1.31 319 09:27 20.12.2020
4650 Clouds -22 989 58 10000 1.31 319 08:55 20.12.2020
4651 Clouds -22 989 58 10000 1.31 319 08:36 20.12.2020
4652 Clouds -23 989 58 10000 1.27 322 07:24 20.12.2020
4653 Clouds -24 989 58 10000 3.1 100 05:44 20.12.2020
4654 Clouds -24 990 68 10000 3.1 40 01:45 20.12.2020
4655 Clouds -23 990 63 10000 2.6 30 00:38 20.12.2020
4656 Clouds -22 991 69 10000 2.1 30 23:20 19.12.2020
4657 Clouds -22 991 69 10000 2.1 30 22:57 19.12.2020
4658 Clouds -21 991 69 10000 2.1 30 22:38 19.12.2020
4659 Clouds -21 994 73 1505 0.45 94 22:19 19.12.2020
4660 Clouds -23 991 75 10000 2.6 20 21:42 19.12.2020
4661 Clouds -22 992 69 10000 2.6 40 21:24 19.12.2020
4662 Clouds -22 992 69 10000 2.6 40 20:45 19.12.2020
4663 Clouds -21 995 78 467 1.18 20 20:21 19.12.2020
4664 Clouds -22 995 77 467 1.18 20 19:54 19.12.2020
4665 Clouds -22 995 78 467 1.18 20 19:36 19.12.2020
4666 Snow -22 992 69 10000 2.6 360 18:43 19.12.2020
4667 Snow -22 992 69 10000 2.6 360 18:25 19.12.2020
4668 Snow -21 992 70 10000 2.1 60 17:49 19.12.2020
4669 Snow -21 992 70 10000 2.1 60 17:28 19.12.2020
4670 Snow -21 992 76 10000 1.5 40 16:56 19.12.2020
4671 Snow -21 992 70 4023 2.6 30 16:37 19.12.2020
4672 Snow -21 992 63 9656 3.1 10 16:19 19.12.2020
4673 Snow -21 992 63 9656 3.1 10 15:47 19.12.2020
4674 Snow -21 992 58 4023 4.1 20 14:52 19.12.2020
4675 Snow -21 992 58 4023 4.1 20 14:26 19.12.2020
4676 Snow -22 993 63 10000 2.1 40 13:42 19.12.2020
4677 Snow -22 993 63 10000 3.6 30 13:21 19.12.2020
4678 Snow -23 993 63 10000 3.6 30 12:55 19.12.2020
4679 Clouds -23 993 63 10000 3.6 30 12:37 19.12.2020
4680 Clouds -24 993 62 10000 2.6 30 12:18 19.12.2020
4681 Clouds -25 993 62 10000 2.6 30 11:41 19.12.2020
4682 Clouds -26 992 68 10000 3.1 20 10:48 19.12.2020
4683 Clouds -27 992 68 10000 3.1 20 10:28 19.12.2020
4684 Clouds -27 992 68 10000 2.1 30 09:59 19.12.2020
4685 Clouds -27 992 68 10000 2.1 30 09:40 19.12.2020
4686 Clouds -28 992 68 10000 2.1 30 08:57 19.12.2020
4687 Clouds -28 992 68 10000 3.1 30 08:18 19.12.2020
4688 Clouds -27 992 68 10000 3.1 30 07:19 19.12.2020
4689 Clouds -26 992 68 10000 3.1 30 06:44 19.12.2020
4690 Clouds -27 992 68 10000 1.5 20 05:21 19.12.2020
4691 Clouds -26 993 68 10000 1.85 38 03:40 19.12.2020
4692 Clouds -27 994 83 10000 1.95 38 00:41 19.12.2020
4693 Clouds -27 994 83 10000 1.95 38 00:41 19.12.2020
4694 Clouds -27 994 68 10000 1.92 40 00:21 19.12.2020
4695 Clouds -27 994 68 10000 1.92 40 23:49 18.12.2020
4696 Clouds -27 994 68 10000 1.92 40 23:49 18.12.2020
4697 Clouds -27 994 68 10000 1.94 40 23:25 18.12.2020
4698 Clouds -27 994 68 10000 1.94 40 22:57 18.12.2020
4699 Clouds -27 994 68 10000 1.94 40 22:38 18.12.2020
4700 Clouds -26 994 62 10000 0.5 0 22:19 18.12.2020
4701 Clouds -26 994 62 10000 0.5 0 21:41 18.12.2020
4702 Clouds -26 994 52 10000 1.5 0 21:22 18.12.2020
4703 Clouds -26 994 62 10000 2.1 360 20:25 18.12.2020
4704 Clouds -26 994 62 10000 2.1 360 19:49 18.12.2020
4705 Clouds -25 995 57 10000 3.1 300 19:24 18.12.2020
4706 Clouds -24 995 57 10000 3.1 300 18:46 18.12.2020
4707 Clouds -25 995 52 10000 3.1 300 18:28 18.12.2020
4708 Clouds -25 995 52 10000 3.1 300 17:52 18.12.2020
4709 Clouds -25 996 57 10000 1.5 300 17:21 18.12.2020
4710 Clouds -25 996 57 10000 1.5 300 16:48 18.12.2020
4711 Clouds -25 996 62 10000 2.6 50 16:21 18.12.2020
4712 Clouds -25 996 62 10000 2.6 50 15:54 18.12.2020
4713 Clouds -27 996 62 10000 2.6 50 15:34 18.12.2020
4714 Clouds -27 996 62 10000 2.6 50 14:58 18.12.2020
4715 Clouds -26 996 56 10000 3.6 20 14:39 18.12.2020
4716 Clouds -26 996 56 10000 4.1 20 14:19 18.12.2020
4717 Clouds -26 996 56 10000 4.1 20 13:42 18.12.2020
4718 Clouds -26 997 56 10000 4.6 30 13:23 18.12.2020
4719 Clouds -26 997 56 10000 4.6 30 12:44 18.12.2020
4720 Clouds -24 997 56 10000 3.6 30 11:31 18.12.2020
4721 Clouds -24 998 56 10000 4.1 30 10:58 18.12.2020
4722 Clouds -24 998 56 10000 4.1 30 10:37 18.12.2020
4723 Clear -25 998 62 10000 3.6 40 10:19 18.12.2020
4724 Clear -25 998 62 10000 3.6 40 09:38 18.12.2020
4725 Clear -24 999 51 10000 4.1 40 09:20 18.12.2020
4726 Clear -24 999 51 10000 4.1 40 08:52 18.12.2020
4727 Clear -27 999 56 10000 3.6 40 08:22 18.12.2020
4728 Clouds -25 1000 51 10000 1.5 0 07:20 18.12.2020
4729 Clouds -25 1000 51 10000 1.5 0 06:59 18.12.2020
4730 Clouds -25 1001 47 10000 1.5 0 06:22 18.12.2020
4731 Clouds -25 1001 47 10000 1.5 0 05:33 18.12.2020
4732 Clouds -26 1001 47 10000 1.5 0 04:50 18.12.2020
4733 Clouds -25 1003 51 10000 3.6 60 01:49 18.12.2020
4734 Clouds -25 1003 42 10000 4.1 60 01:22 18.12.2020
4735 Clouds -25 1004 42 10000 4.1 80 23:57 17.12.2020
4736 Clouds -25 1005 42 10000 4.1 80 23:25 17.12.2020
4737 Clouds -25 1005 42 10000 4.1 80 22:50 17.12.2020
4738 Clouds -25 1005 42 10000 4.1 80 22:28 17.12.2020
4739 Clouds -24 1005 42 10000 4.1 80 21:47 17.12.2020
4740 Clouds -24 1005 42 10000 4.1 80 21:25 17.12.2020
4741 Clear -25 1005 51 10000 2.1 80 20:59 17.12.2020
4742 Clear -25 1005 51 10000 2.1 80 20:41 17.12.2020
4743 Clouds -25 1005 51 10000 4.1 60 20:18 17.12.2020
4744 Clouds -25 1005 51 10000 3.6 60 19:45 17.12.2020
4745 Clouds -24 1006 43 10000 2.6 80 19:23 17.12.2020
4746 Clouds -24 1006 43 10000 2.6 80 18:41 17.12.2020
4747 Clear -24 1006 43 10000 4.6 70 18:23 17.12.2020
4748 Clear -24 1006 43 10000 4.6 70 18:23 17.12.2020
4749 Clear -24 1006 43 10000 4.6 70 17:53 17.12.2020
4750 Clear -24 1006 43 10000 4.6 70 17:32 17.12.2020
4751 Clear -23 1006 47 10000 3.6 60 16:45 17.12.2020
4752 Clear -23 1007 43 10000 1 0 16:26 17.12.2020
4753 Clear -23 1007 43 10000 1 0 15:52 17.12.2020
4754 Clear -23 1007 43 10000 1 0 15:32 17.12.2020
4755 Clouds -22 1006 47 10000 3.1 60 14:55 17.12.2020
4756 Clouds -22 1006 47 10000 3.1 60 14:34 17.12.2020
4757 Clouds -23 1006 47 10000 3.6 60 13:58 17.12.2020
4758 Clouds -22 1006 47 10000 3.6 60 13:35 17.12.2020
4759 Clear -22 1006 43 10000 2.6 60 12:49 17.12.2020
4760 Clear -22 1006 43 10000 2.6 60 12:26 17.12.2020
4761 Clouds -21 1006 48 10000 3.6 60 11:45 17.12.2020
4762 Clouds -21 1006 48 10000 3.6 60 11:25 17.12.2020
4763 Clouds -21 1006 48 10000 3.6 60 10:56 17.12.2020
4764 Clouds -21 1006 48 10000 4.1 70 10:29 17.12.2020
4765 Clouds -20 1006 44 10000 3.1 60 09:31 17.12.2020
4766 Clouds -19 1006 44 10000 4.6 20 08:20 17.12.2020
4767 Clouds -19 1006 44 10000 4.6 20 07:40 17.12.2020
4768 Clouds -19 1006 44 10000 1 0 07:18 17.12.2020
4769 Clouds -19 1006 44 10000 1 0 06:42 17.12.2020
4770 Clouds -20 1006 44 10000 1 0 06:24 17.12.2020
4771 Clouds -20 1006 49 10000 5.1 10 01:40 17.12.2020
4772 Clouds -18 1005 45 10000 3.6 40 23:57 16.12.2020
4773 Clouds -18 1006 41 10000 3.6 320 23:23 16.12.2020
4774 Clouds -18 1006 41 10000 3.6 320 22:58 16.12.2020
4775 Clouds -17 1006 41 10000 3.6 320 22:36 16.12.2020
4776 Clouds -17 1005 41 10000 5.1 30 21:54 16.12.2020
4777 Clouds -17 1005 41 10000 5.1 30 21:36 16.12.2020
4778 Clouds -17 1005 41 10000 3.6 30 20:59 16.12.2020
4779 Clouds -16 1005 41 10000 3.6 30 20:41 16.12.2020
4780 Clouds -17 1004 45 10000 6.7 20 20:19 16.12.2020
4781 Clouds -17 1004 42 10000 3.6 20 19:20 16.12.2020
4782 Clouds -16 1004 42 10000 3.6 20 18:57 16.12.2020
4783 Clouds -16 1004 42 10000 3.6 20 18:57 16.12.2020
4784 Clouds -16 1004 42 10000 3.6 20 18:57 16.12.2020
4785 Clouds -16 1004 42 10000 3.6 20 18:31 16.12.2020
4786 Clouds -16 1004 38 10000 5.7 30 17:57 16.12.2020
4787 Clouds -15 1004 38 10000 5.7 30 17:31 16.12.2020
4788 Clouds -14 1004 38 10000 3.6 20 16:42 16.12.2020
4789 Clouds -13 1004 35 10000 3.6 310 16:22 16.12.2020
4790 Clouds -13 1004 35 10000 3.6 310 16:22 16.12.2020
4791 Clouds -13 1004 35 10000 3.6 310 16:22 16.12.2020
4792 Clouds -13 1004 35 10000 3.6 310 15:51 16.12.2020
4793 Clouds -14 1004 35 10000 3.6 310 15:30 16.12.2020
4794 Clouds -13 1003 60 10000 2.1 20 14:51 16.12.2020
4795 Clouds -13 1003 60 10000 2.1 20 14:30 16.12.2020
4796 Clouds -12 1003 46 10000 2.6 60 13:50 16.12.2020
4797 Clouds -12 1003 46 10000 2.6 60 13:31 16.12.2020
4798 Clouds -13 1003 60 10000 2.6 60 12:56 16.12.2020
4799 Clouds -14 1003 60 10000 2.6 60 12:37 16.12.2020
4800 Clouds -12 1003 55 10000 2.6 40 11:43 16.12.2020
4801 Clouds -12 1003 55 10000 2.6 50 11:22 16.12.2020
4802 Clouds -12 1003 55 10000 2.6 50 10:51 16.12.2020
4803 Clouds -12 1003 55 10000 2.6 50 10:27 16.12.2020
4804 Clouds -13 1003 60 10000 2.6 50 09:49 16.12.2020
4805 Clouds -12 1003 60 10000 2.1 40 09:23 16.12.2020
4806 Clouds -13 1003 55 10000 3.6 30 08:22 16.12.2020
4807 Clouds -13 1003 55 10000 3.6 30 07:42 16.12.2020
4808 Clouds -12 1004 60 10000 0.5 0 07:19 16.12.2020
4809 Clouds -12 1004 66 10000 1.92 34 03:35 16.12.2020
4810 Clouds -12 1006 66 10000 1.5 0 01:34 16.12.2020
4811 Clouds -12 1006 66 10000 0.5 0 23:46 15.12.2020
4812 Clouds -12 1007 60 10000 1.5 0 22:59 15.12.2020
4813 Clouds -12 1007 60 10000 1.5 0 22:38 15.12.2020
4814 Clouds -12 1007 66 10000 0.5 0 22:19 15.12.2020
4815 Clouds -12 1007 66 10000 0.5 0 21:43 15.12.2020
4816 Clouds -12 1007 66 10000 1.5 310 21:21 15.12.2020
4817 Clouds -12 1007 66 10000 1.5 310 20:45 15.12.2020
4818 Clouds -12 1007 66 10000 0.5 0 20:26 15.12.2020
4819 Clouds -12 1007 66 10000 0.5 0 19:53 15.12.2020
4820 Clouds -11 1007 66 10000 0.5 0 19:30 15.12.2020
4821 Clouds -11 1007 72 10000 0.5 0 18:39 15.12.2020
4822 Snow -11 1007 72 9656 1.5 0 18:21 15.12.2020
4823 Snow -11 1007 72 9656 1.5 0 17:46 15.12.2020
4824 Snow -11 1007 72 9656 1.5 0 17:28 15.12.2020
4825 Clouds -11 1008 61 10000 1.5 0 16:58 15.12.2020
4826 Clouds -11 1008 61 10000 1.5 0 16:31 15.12.2020
4827 Clouds -11 1008 66 10000 1 0 15:44 15.12.2020
4828 Clouds -11 1007 66 10000 2.6 30 15:25 15.12.2020
4829 Snow -11 1007 66 10000 2.6 50 14:43 15.12.2020
4830 Snow -11 1007 66 10000 2.6 50 14:21 15.12.2020
4831 Snow -11 1008 66 10000 3.6 10 13:51 15.12.2020
4832 Snow -11 1008 66 10000 3.6 10 13:32 15.12.2020
4833 Snow -11 1008 66 10000 4.1 10 12:47 15.12.2020
4834 Snow -12 1007 72 10000 4.1 10 12:20 15.12.2020
4835 Snow -12 1007 72 10000 4.1 10 11:54 15.12.2020
4836 Snow -11 1007 72 6437 2.6 20 11:26 15.12.2020
4837 Snow -11 1007 72 6437 2.6 20 10:53 15.12.2020
4838 Snow -11 1007 61 10000 1.5 40 10:23 15.12.2020
4839 Snow -11 1007 61 10000 1.5 40 09:49 15.12.2020
4840 Snow -11 1007 61 10000 1.5 40 09:31 15.12.2020
4841 Snow -11 1006 66 10000 2.6 50 08:47 15.12.2020
4842 Snow -11 1006 66 10000 2.6 50 08:25 15.12.2020
4843 Clouds -12 1006 72 10000 2.1 20 07:49 15.12.2020
4844 Clouds -11 1005 72 10000 2.6 50 07:24 15.12.2020
4845 Clouds -11 1005 72 10000 2.6 50 06:28 15.12.2020
4846 Clouds -11 1004 66 10000 1.5 0 02:55 15.12.2020
4847 Snow -10 1005 72 9656 2.1 20 00:34 15.12.2020
4848 Snow -11 1005 72 9656 2.1 0 23:26 14.12.2020
4849 Snow -11 1004 72 6437 3.1 0 22:55 14.12.2020
4850 Snow -12 1004 72 6437 3.1 0 22:32 14.12.2020
4851 Snow -11 1004 72 9656 3.6 10 21:45 14.12.2020
4852 Snow -11 1004 72 9656 3.6 360 21:22 14.12.2020
4853 Snow -11 1004 72 9656 3.6 360 20:51 14.12.2020
4854 Snow -11 1004 72 9656 3.6 360 20:51 14.12.2020
4855 Snow -12 1004 72 9656 3.6 360 20:29 14.12.2020
4856 Snow -12 1005 72 6437 4.6 10 19:53 14.12.2020
4857 Snow -12 1005 72 6437 4.6 10 19:29 14.12.2020
4858 Snow -12 1005 72 3219 3.18 63 18:44 14.12.2020
4859 Snow -12 1005 72 3219 3.4 65 18:25 14.12.2020
4860 Snow -12 1005 61 6437 4.6 40 17:46 14.12.2020
4861 Snow -12 1006 61 8047 2.1 0 17:23 14.12.2020
4862 Snow -12 1006 61 8047 2.1 0 16:50 14.12.2020
4863 Clouds -12 1006 61 10000 5.7 40 16:29 14.12.2020
4864 Clouds -12 1006 61 10000 5.7 40 15:39 14.12.2020
4865 Clouds -12 1007 61 10000 7.7 40 15:20 14.12.2020
4866 Clouds -13 1007 61 10000 7.7 40 14:42 14.12.2020
4867 Clouds -13 1007 61 10000 7.7 30 14:23 14.12.2020
4868 Clouds -13 1007 61 10000 7.7 30 13:42 14.12.2020
4869 Clouds -13 1007 66 10000 6.7 30 13:18 14.12.2020
4870 Clouds -13 1007 66 10000 6.7 30 12:52 14.12.2020
4871 Clouds -12 1008 61 10000 6.2 30 12:24 14.12.2020
4872 Clouds -13 1008 61 10000 6.2 30 11:32 14.12.2020
4873 Clouds -13 1008 66 10000 7.2 30 10:38 14.12.2020
4874 Clouds -13 1008 60 10000 8.2 30 10:19 14.12.2020
4875 Clouds -13 1008 60 10000 8.2 30 09:29 14.12.2020
4876 Clouds -13 1009 60 10000 7.2 30 08:46 14.12.2020
4877 Clouds -12 1009 56 10000 6.7 40 08:28 14.12.2020
4878 Clouds -11 1009 56 10000 6.7 40 07:28 14.12.2020
4879 Rain -11 1009 56 10000 7.7 40 06:46 14.12.2020
4880 Rain -12 1010 60 10000 7.7 40 05:21 14.12.2020
4881 Clouds -13 1011 65 10000 6.7 30 02:26 14.12.2020
4882 Clouds -14 1011 65 10000 6.7 30 00:55 14.12.2020
4883 Clouds -14 1011 65 10000 6.7 30 00:33 14.12.2020
4884 Clouds -16 1012 77 10000 3.6 60 23:50 13.12.2020
4885 Clouds -16 1012 77 10000 3.6 60 23:27 13.12.2020
4886 Clouds -16 1012 70 10000 3.1 40 22:46 13.12.2020
4887 Clouds -18 1012 76 10000 3.6 20 22:20 13.12.2020
4888 Clouds -18 1012 76 10000 3.6 20 21:45 13.12.2020
4889 Clouds -18 1012 76 10000 3.6 20 21:26 13.12.2020
4890 Clouds -17 1012 70 10000 3.6 30 20:35 13.12.2020
4891 Clouds -18 1012 77 10000 2.6 20 19:57 13.12.2020
4892 Clouds -18 1012 77 10000 2.6 20 19:37 13.12.2020
4893 Clouds -16 1013 77 10000 3.6 30 19:19 13.12.2020
4894 Clouds -16 1013 77 10000 3.6 30 18:42 13.12.2020
4895 Clouds -18 1013 70 10000 4.1 30 18:20 13.12.2020
4896 Clouds -18 1013 70 10000 4.1 30 17:47 13.12.2020
4897 Clouds -19 1013 83 10000 3.1 40 17:21 13.12.2020
4898 Clouds -19 1013 83 10000 3.1 40 16:56 13.12.2020
4899 Clouds -19 1013 83 10000 3.1 40 16:56 13.12.2020
4900 Clouds -19 1013 83 10000 3.1 40 16:38 13.12.2020
4901 Clouds -20 1014 77 10000 3.6 40 16:18 13.12.2020
4902 Clouds -20 1014 77 10000 3.6 40 15:40 13.12.2020
4903 Clouds -22 1015 76 10000 2.6 40 15:21 13.12.2020
4904 Clouds -22 1015 76 10000 2.6 40 14:43 13.12.2020
4905 Clouds -23 1015 69 10000 2.1 10 14:21 13.12.2020
4906 Clouds -23 1015 69 10000 2.1 10 13:43 13.12.2020
4907 Clouds -22 1015 76 10000 2.1 50 13:24 13.12.2020
4908 Clouds -22 1015 76 10000 2.1 50 12:48 13.12.2020
4909 Clouds -22 1016 70 10000 3.1 30 12:22 13.12.2020
4910 Clouds -22 1016 70 10000 3.1 30 11:40 13.12.2020
4911 Clouds -22 1016 70 10000 3.6 30 10:55 13.12.2020
4912 Clouds -22 1016 70 10000 3.6 30 10:37 13.12.2020
4913 Clouds -22 1016 76 10000 3.1 50 09:54 13.12.2020
4914 Clouds -21 1016 76 10000 3.1 50 09:26 13.12.2020
4915 Clouds -24 1016 76 10000 3.6 20 08:34 13.12.2020
4916 Clouds -21 1016 76 10000 3.1 40 07:47 13.12.2020
4917 Clouds -25 1017 76 10000 3.1 20 04:29 13.12.2020
4918 Clouds -25 1018 76 10000 2.6 40 02:41 13.12.2020
4919 Clouds -25 1018 75 10000 3.1 40 01:57 13.12.2020
4920 Clouds -25 1018 69 10000 2.1 30 00:49 13.12.2020
4921 Clouds -24 1018 69 10000 2.1 40 23:56 12.12.2020
4922 Clouds -21 1018 69 10000 2.1 40 23:31 12.12.2020
4923 Clouds -21 1018 69 10000 1.5 50 22:52 12.12.2020
4924 Clouds -22 1018 75 10000 2.6 40 21:59 12.12.2020
4925 Clouds -25 1018 75 10000 2.6 40 21:34 12.12.2020
4926 Clouds -25 1018 75 10000 2.6 40 21:34 12.12.2020
4927 Clouds -24 1018 75 10000 3.1 30 20:56 12.12.2020
4928 Clouds -25 1018 75 10000 3.1 30 20:29 12.12.2020
4929 Clouds -24 1017 75 10000 2.6 40 19:58 12.12.2020
4930 Clouds -25 1017 75 10000 2.6 40 19:39 12.12.2020
4931 Clouds -27 1017 75 10000 2.6 40 19:21 12.12.2020
4932 Clouds -27 1017 68 10000 2.1 40 18:44 12.12.2020
4933 Clouds -27 1017 68 10000 2.1 40 18:26 12.12.2020
4934 Clouds -25 1017 75 10000 2.6 40 17:47 12.12.2020
4935 Clear -28 1017 75 10000 3.1 40 16:56 12.12.2020
4936 Clear -28 1018 75 10000 2.6 40 16:21 12.12.2020
4937 Clear -28 1018 75 10000 2.6 40 15:45 12.12.2020
4938 Clear -28 1018 75 10000 2.6 40 15:27 12.12.2020
4939 Clear -28 1018 75 10000 2.1 40 14:48 12.12.2020
4940 Clear -26 1018 75 10000 1.5 350 13:56 12.12.2020
4941 Clear -26 1018 75 10000 1.5 350 13:37 12.12.2020
4942 Clear -29 1018 75 10000 2.18 28 12:58 12.12.2020
4943 Clear -29 1018 75 10000 1.88 28 12:26 12.12.2020
4944 Clear -27 1019 75 10000 2.03 31 10:54 12.12.2020
4945 Clear -29 1020 75 10000 1.84 28 09:49 12.12.2020
4946 Clear -25 1020 68 10000 1.49 22 08:57 12.12.2020
4947 Clouds -25 1022 75 10000 1 0 02:57 12.12.2020
4948 Clouds -26 1024 75 10000 1.08 31 23:58 11.12.2020
4949 Clouds -27 1024 75 10000 0.97 36 22:39 11.12.2020
4950 Clouds -26 1025 75 10000 1.08 25 20:50 11.12.2020
4951 Clouds -27 1026 82 10000 0.96 40 18:27 11.12.2020
4952 Clouds -25 1026 82 10000 0.5 0 16:27 11.12.2020
4953 Clouds -24 1025 83 10000 0.78 23 14:18 11.12.2020
4954 Clouds -24 1025 83 10000 0.64 27 13:25 11.12.2020
4955 Clouds -23 1025 76 10000 0.94 39 12:19 11.12.2020
4956 Clouds -24 1025 76 10000 0.94 39 11:51 11.12.2020
4957 Clouds -23 1025 83 10000 0.65 49 10:46 11.12.2020
4958 Clouds -21 1025 77 10000 0.5 290 08:53 11.12.2020
4959 Clouds -18 1025 84 9656 0.4 83 05:59 11.12.2020
4960 Snow -18 1025 84 6437 0.5 250 05:18 11.12.2020
4961 Snow -17 1024 84 4023 0.5 0 02:28 11.12.2020
4962 Snow -17 1024 77 9656 0.55 64 00:31 11.12.2020
4963 Snow -17 1024 84 9656 0.57 82 22:55 10.12.2020
4964 Snow -17 1024 84 9656 0.74 83 21:36 10.12.2020
4965 Snow -17 1024 84 8047 0.5 0 20:46 10.12.2020
4966 Snow -17 1024 84 3017 0.55 111 19:44 10.12.2020
4967 Snow -17 1024 84 3219 0.5 50 19:20 10.12.2020
4968 Snow -17 1023 84 2414 0.54 138 18:24 10.12.2020
4969 Snow -18 1023 77 9656 0.5 290 16:40 10.12.2020
4970 Snow -18 1022 77 9656 1 0 15:44 10.12.2020
4971 Snow -18 1022 84 10000 1.5 310 14:58 10.12.2020
4972 Snow -18 1022 84 10000 1.5 310 14:37 10.12.2020
4973 Snow -18 1021 77 10000 0.5 0 13:20 10.12.2020
4974 Clouds -18 1020 84 10000 1.5 80 11:43 10.12.2020
4975 Clouds -17 1017 84 10000 0.5 230 09:21 10.12.2020
4976 Clouds -16 1015 77 10000 1.5 246 07:59 10.12.2020
4977 Clouds -17 1015 84 10000 0.5 330 06:51 10.12.2020
4978 Clouds -14 1013 84 10000 1.1 289 03:55 10.12.2020
4979 Clouds -15 1013 84 10000 1 0 02:24 10.12.2020
4980 Snow -14 1012 77 10000 1 0 00:28 10.12.2020
4981 Clouds -15 1012 83 10000 1 60 23:22 09.12.2020
4982 Clouds -16 1012 77 10000 1.48 23 20:37 09.12.2020
4983 Clouds -17 1011 76 10000 2.1 40 19:37 09.12.2020
4984 Clouds -17 1011 77 10000 1.22 24 17:55 09.12.2020
4985 Clouds -17 1010 84 10000 0.5 0 16:54 09.12.2020
4986 Clouds -16 1010 84 10000 1.26 42 16:25 09.12.2020
4987 Clouds -16 1010 84 10000 1.26 42 15:37 09.12.2020
4988 Clouds -16 1010 77 10000 0.5 330 14:49 09.12.2020
4989 Clouds -16 1009 77 10000 1.28 32 14:24 09.12.2020
4990 Clouds -16 1009 84 10000 0.5 330 13:19 09.12.2020
4991 Clouds -16 1009 84 10000 0.5 330 12:47 09.12.2020
4992 Clouds -16 1008 77 10000 0.54 50 11:55 09.12.2020
4993 Clouds -16 1008 77 10000 0.77 89 11:27 09.12.2020
4994 Clouds -16 1007 77 10000 0.76 92 09:39 09.12.2020
4995 Clouds -16 1004 84 10000 0.18 132 08:26 09.12.2020
4996 Clouds -17 1003 77 10000 1 110 06:18 09.12.2020
4997 Clouds -17 1002 77 10000 0.3 184 04:46 09.12.2020
4998 Clouds -17 1003 87 4541 0.73 240 02:22 09.12.2020
4999 Clouds -17 997 84 10000 0.5 160 23:45 08.12.2020
5000 Clouds -17 996 84 10000 0.88 268 23:21 08.12.2020
5001 Clouds -17 995 77 10000 0.5 320 21:35 08.12.2020
5002 Clouds -17 997 87 10000 0.74 303 19:46 08.12.2020
5003 Clouds -17 997 87 10000 0.74 303 19:46 08.12.2020
5004 Clouds -17 993 77 10000 0.58 260 18:59 08.12.2020
5005 Clouds -16 993 77 10000 0.92 255 18:27 08.12.2020
5006 Clouds -17 991 77 10000 1.04 277 15:54 08.12.2020
5007 Clouds -17 990 84 10000 1 100 14:34 08.12.2020
5008 Clouds -18 988 77 10000 1.5 250 13:36 08.12.2020
5009 Clouds -18 988 77 10000 1.3 293 12:35 08.12.2020
5010 Clouds -19 988 77 10000 1.16 333 11:52 08.12.2020
5011 Clouds -18 986 83 10000 1.5 0 10:50 08.12.2020
5012 Clear -19 986 83 10000 1.47 356 10:31 08.12.2020
5013 Clouds -18 986 84 10000 1.69 3 08:57 08.12.2020
5014 Clear -16 986 84 10000 1.41 16 07:25 08.12.2020
5015 Clouds -17 986 84 10000 1 360 03:43 08.12.2020
5016 Clouds -17 986 77 10000 3.1 50 01:36 08.12.2020
5017 Clouds -18 987 84 10000 1 30 00:43 08.12.2020
5018 Clouds -17 988 84 10000 0.5 0 22:48 07.12.2020
5019 Clouds -18 988 77 10000 1 350 22:18 07.12.2020
5020 Clouds -18 988 71 10000 1 350 20:45 07.12.2020
5021 Clouds -17 987 77 10000 0.5 360 18:48 07.12.2020
5022 Clouds -17 987 77 10000 0.5 0 17:31 07.12.2020
5023 Clouds -16 986 71 10000 0.5 0 16:56 07.12.2020
5024 Clouds -16 986 77 10000 0.5 350 15:57 07.12.2020
5025 Clouds -15 986 71 10000 1 340 15:23 07.12.2020
5026 Clouds -17 986 84 10000 1.5 30 14:24 07.12.2020
5027 Clouds -14 986 71 10000 1 0 13:34 07.12.2020
5028 Clouds -14 986 77 10000 1 10 11:46 07.12.2020
5029 Clouds -14 986 77 10000 1 10 11:27 07.12.2020
5030 Clouds -14 985 77 10000 3.1 50 10:20 07.12.2020
5031 Clouds -13 985 65 10000 3.1 20 08:32 07.12.2020
5032 Clouds -14 985 71 10000 2.1 10 06:51 07.12.2020
5033 Clouds -14 986 71 10000 2.6 350 05:21 07.12.2020
5034 Clouds -15 988 71 10000 3.6 90 02:18 07.12.2020
5035 Clouds -17 989 77 10000 2.6 40 00:31 07.12.2020
5036 Clouds -17 991 77 10000 2.1 90 22:45 06.12.2020
5037 Clouds -18 993 70 10000 1.5 40 21:44 06.12.2020
5038 Clouds -18 994 70 10000 2.6 70 20:35 06.12.2020
5039 Clouds -19 996 70 10000 3.1 40 19:57 06.12.2020
5040 Clouds -20 997 70 10000 3.1 30 18:53 06.12.2020
5041 Clouds -25 998 69 10000 3.6 40 17:24 06.12.2020
5042 Clouds -24 1000 69 10000 2.1 50 16:27 06.12.2020
5043 Clouds -26 1002 75 10000 2.1 20 14:21 06.12.2020
5044 Clouds -27 1004 75 10000 1.29 33 12:53 06.12.2020
5045 Clouds -27 1004 75 10000 1.32 38 12:27 06.12.2020
5046 Clouds -27 1004 75 10000 1.5 50 11:40 06.12.2020
5047 Clouds -26 1004 68 10000 1.14 29 11:21 06.12.2020
5048 Clouds -26 1004 68 10000 1.14 29 10:31 06.12.2020
5049 Clouds -25 1006 75 10000 1.31 33 08:57 06.12.2020
5050 Clouds -25 1006 76 10000 1.5 50 07:20 06.12.2020
5051 Clouds -19 1009 70 10000 1.24 35 03:50 06.12.2020
5052 Clouds -19 1012 77 10000 2.6 50 00:43 06.12.2020
5053 Clouds -19 1012 77 10000 2.6 50 00:25 06.12.2020
5054 Clouds -19 1012 70 10000 2.1 60 23:44 05.12.2020
5055 Clouds -19 1013 70 10000 1.12 47 22:23 05.12.2020
5056 Snow -19 1013 70 10000 1.5 30 21:51 05.12.2020
5057 Snow -20 1014 76 10000 2.6 40 21:27 05.12.2020
5058 Snow -20 1014 76 10000 1.5 40 19:49 05.12.2020
5059 Snow -19 1014 77 10000 1.5 40 18:45 05.12.2020
5060 Snow -19 1015 77 10000 2.1 40 17:36 05.12.2020
5061 Snow -19 1015 77 10000 1.5 30 16:43 05.12.2020
5062 Snow -19 1015 77 10000 1.5 30 16:23 05.12.2020
5063 Snow -20 1015 76 10000 1.11 49 14:30 05.12.2020
5064 Snow -21 1016 76 8047 0.96 54 12:32 05.12.2020
5065 Snow -22 1016 69 4828 0.96 66 11:49 05.12.2020
5066 Snow -22 1016 69 4828 0.83 64 10:34 05.12.2020
5067 Clouds -23 1013 84 2008 0.6 94 07:50 05.12.2020
5068 Clouds -23 1015 75 10000 0.61 126 07:26 05.12.2020
5069 Clouds -23 1015 76 10000 0.33 91 05:22 05.12.2020
5070 Clouds -21 1015 83 10000 1 110 23:57 04.12.2020
5071 Clouds -20 1015 84 10000 0.5 90 22:47 04.12.2020
5072 Clouds -18 1015 84 10000 1 80 20:35 04.12.2020
5073 Clouds -16 1015 77 10000 1 150 18:54 04.12.2020
5074 Clouds -16 1015 77 10000 1 150 18:28 04.12.2020
5075 Clouds -15 1015 84 10000 0.5 250 17:41 04.12.2020
5076 Clouds -16 1016 84 10000 0.5 110 15:54 04.12.2020
5077 Clouds -16 1016 84 10000 0.65 72 15:20 04.12.2020
5078 Clouds -16 1016 84 10000 0.5 90 13:36 04.12.2020
5079 Clouds -17 1016 84 10000 0.5 90 13:18 04.12.2020
5080 Clouds -17 1016 84 10000 1 20 12:19 04.12.2020
5081 Clouds -15 1016 84 10000 1 120 10:35 04.12.2020
5082 Clouds -12 1016 78 10000 0.63 169 08:29 04.12.2020
5083 Clouds -11 1015 85 10000 1 0 06:40 04.12.2020
5084 Clouds -11 1015 85 10000 1 0 06:40 04.12.2020
5085 Snow -11 1015 78 4828 1 0 04:52 04.12.2020
5086 Clouds -12 1013 78 10000 1 0 01:20 04.12.2020
5087 Snow -11 1012 85 10000 1.5 0 22:47 03.12.2020
5088 Clouds -12 1010 78 10000 2.1 110 21:22 03.12.2020
5089 Clouds -12 1010 78 10000 2.1 110 20:41 03.12.2020
5090 Snow -13 1009 78 10000 0.5 220 19:22 03.12.2020
5091 Snow -11 1006 72 10000 3.1 210 18:40 03.12.2020
5092 Clouds -12 1004 84 10000 4.1 200 17:21 03.12.2020
5093 Clouds -13 1003 93 7494 2.09 239 15:59 03.12.2020
5094 Clouds -13 1005 89 7494 2.09 239 15:32 03.12.2020
5095 Snow -13 1004 90 2590 2.37 236 14:49 03.12.2020
5096 Snow -12 999 78 9656 2.6 220 13:55 03.12.2020
5097 Snow -12 998 78 4828 2.6 210 12:46 03.12.2020
5098 Snow -11 998 78 4828 2.6 210 12:23 03.12.2020
5099 Snow -11 996 94 659 3.02 240 10:54 03.12.2020
5100 Snow -10 992 78 10000 2.6 230 08:41 03.12.2020
5101 Mist -11 988 85 6437 0.5 0 03:57 03.12.2020
5102 Clouds -11 989 91 769 0.63 232 01:54 03.12.2020
5103 Clouds -11 986 92 10000 1.44 203 00:19 03.12.2020
5104 Clouds -11 986 92 10000 1.33 209 22:46 02.12.2020
5105 Clouds -10 986 92 10000 1.5 70 21:50 02.12.2020
5106 Clouds -10 985 85 10000 1 120 20:51 02.12.2020
5107 Clouds -10 985 85 10000 1 120 20:33 02.12.2020
5108 Clear -9 985 77 10000 1.34 132 19:50 02.12.2020
5109 Clouds -7 982 78 10000 4.1 190 17:51 02.12.2020
5110 Clouds -3 981 64 10000 1 0 17:31 02.12.2020
5111 Clouds 1 981 64 10000 1 0 16:42 02.12.2020
5112 Clouds 1 980 80 10000 3.1 30 13:48 02.12.2020
5113 Clouds 3 979 64 10000 1 0 11:33 02.12.2020
5114 Clouds 4 979 64 10000 1.5 0 10:25 02.12.2020
5115 Clouds 2 977 64 10000 2.1 50 07:51 02.12.2020
5116 Clouds -4 978 64 10000 1 0 23:42 01.12.2020
5117 Clouds -8 978 85 10000 1 0 22:20 01.12.2020
5118 Clouds -8 977 88 10000 1.64 59 19:45 01.12.2020
5119 Clouds -11 977 78 10000 1.28 81 18:56 01.12.2020
5120 Clouds -12 977 78 10000 1.41 67 17:27 01.12.2020
5121 Clouds -8 976 73 10000 0.5 350 15:24 01.12.2020
5122 Clouds -6 975 67 10000 2.1 20 13:37 01.12.2020
5123 Snow -5 976 63 10000 1.5 0 11:43 01.12.2020
5124 Snow -6 978 62 10000 1.5 0 10:55 01.12.2020
5125 Snow -6 978 62 10000 1.5 0 10:32 01.12.2020
5126 Clouds -10 983 72 10000 2.6 40 07:47 01.12.2020
5127 Clouds -10 984 67 10000 1.5 0 06:46 01.12.2020
5128 Clouds -20 991 76 10000 2.26 46 01:44 01.12.2020
5129 Clouds -21 992 76 10000 0.5 350 00:52 01.12.2020
5130 Clouds -20 994 76 10000 0.5 240 23:21 30.11.2020
5131 Clouds -20 994 76 10000 0.5 240 22:42 30.11.2020
5132 Clouds -20 994 76 10000 0.5 240 22:22 30.11.2020
5133 Clouds -19 993 83 10000 1.84 43 20:47 30.11.2020
5134 Clouds -19 994 83 10000 1.73 49 19:41 30.11.2020
5135 Clouds -19 994 76 10000 1.46 51 18:22 30.11.2020
5136 Clouds -19 994 76 10000 1.46 51 17:46 30.11.2020
5137 Clouds -18 994 84 10000 1.51 47 16:54 30.11.2020
5138 Clouds -18 994 84 10000 1.31 56 15:45 30.11.2020
5139 Snow -18 993 77 10000 1.5 40 14:21 30.11.2020
5140 Snow -18 993 77 10000 1.5 40 13:41 30.11.2020
5141 Snow -18 993 84 10000 0.87 157 12:26 30.11.2020
5142 Clouds -18 993 84 10000 1 300 11:57 30.11.2020
5143 Snow -17 992 77 10000 0.77 203 10:25 30.11.2020
5144 Snow -17 992 77 10000 0.77 203 09:35 30.11.2020
5145 Snow -17 990 77 10000 0.85 198 06:48 30.11.2020
5146 Clouds -18 986 83 10000 0.9 269 23:29 29.11.2020
5147 Clouds -16 985 83 10000 0.77 260 21:47 29.11.2020
5148 Clouds -16 985 83 10000 0.77 260 21:47 29.11.2020
5149 Clouds -15 985 83 10000 0.76 298 21:28 29.11.2020
5150 Clouds -17 983 77 10000 1.5 210 19:46 29.11.2020
5151 Clouds -13 983 84 10000 0.73 351 17:46 29.11.2020
5152 Clouds -13 983 84 10000 0.73 351 17:46 29.11.2020
5153 Clouds -11 982 78 10000 0.97 11 14:53 29.11.2020
5154 Clouds -12 982 85 10000 1.5 50 12:46 29.11.2020
5155 Clouds -12 982 78 10000 3.1 50 11:41 29.11.2020
5156 Clouds -13 981 85 10000 2.1 10 09:26 29.11.2020
5157 Clouds -12 981 85 10000 2.07 23 08:37 29.11.2020
5158 Clouds -13 979 77 10000 1.67 345 04:21 29.11.2020
5159 Clouds -16 984 77 10000 1 37 23:19 28.11.2020
5160 Clouds -19 984 77 10000 1 37 22:55 28.11.2020
5161 Clouds -18 986 84 10000 2.1 320 20:27 28.11.2020
5162 Clouds -18 986 77 10000 1.46 26 19:31 28.11.2020
5163 Clouds -17 987 70 10000 1.6 21 18:59 28.11.2020
5164 Clouds -18 988 77 10000 1.5 50 18:26 28.11.2020
5165 Clouds -18 988 77 10000 1.5 50 17:40 28.11.2020
5166 Clouds -17 988 84 10000 1.5 40 16:39 28.11.2020
5167 Clouds -19 990 84 10000 1.32 60 14:25 28.11.2020
5168 Clouds -16 990 84 10000 1.22 51 11:29 28.11.2020
5169 Clouds -12 989 77 10000 1.17 44 09:38 28.11.2020
5170 Clouds -12 992 85 10000 1.67 51 03:55 28.11.2020
5171 Clouds -12 992 85 10000 1.83 55 03:24 28.11.2020
5172 Clouds -12 997 84 10000 1.54 78 23:23 27.11.2020
5173 Clouds -12 997 84 10000 1.54 78 22:55 27.11.2020
5174 Clouds -16 997 84 10000 1 41 21:27 27.11.2020
5175 Clouds -15 998 84 10000 2.6 50 20:30 27.11.2020
5176 Clouds -11 998 78 10000 4.1 50 19:25 27.11.2020
5177 Clouds -10 999 78 10000 3.6 60 17:50 27.11.2020
5178 Clouds -12 1001 84 10000 1.5 60 14:46 27.11.2020
5179 Clouds -15 1001 77 10000 1.5 30 13:25 27.11.2020
5180 Clouds -15 1002 77 10000 1.56 51 12:47 27.11.2020
5181 Clouds -12 1002 77 10000 1.79 45 11:35 27.11.2020
5182 Clouds -13 1002 77 10000 1.37 43 10:50 27.11.2020
5183 Clouds -15 1003 84 10000 1.18 43 09:57 27.11.2020
5184 Clouds -12 1002 89 10000 0.84 72 07:26 27.11.2020
5185 Clouds -6 1000 95 1883 2.32 240 22:27 26.11.2020
5186 Clouds -6 997 97 1883 2.32 240 21:56 26.11.2020
5187 Mist -7 995 92 4828 2.05 239 20:52 26.11.2020
5188 Mist -7 994 85 4828 1.25 207 18:42 26.11.2020
5189 Mist -7 993 92 3219 1.2 207 17:51 26.11.2020
5190 Snow -7 990 73 10000 2.1 180 14:57 26.11.2020
5191 Snow -8 988 79 10000 3.6 200 13:42 26.11.2020
5192 Clouds -7 987 79 10000 3.1 0 12:42 26.11.2020
5193 Clouds -5 986 73 10000 2.6 240 11:44 26.11.2020
5194 Clouds -5 984 73 10000 3.1 220 10:35 26.11.2020
5195 Clouds -5 983 79 10000 2.6 236 09:48 26.11.2020
5196 Clouds -5 983 79 10000 1.86 253 09:29 26.11.2020
5197 Clouds -4 983 86 10000 2.1 240 08:39 26.11.2020
5198 Clouds -3 983 86 10000 0.5 250 06:49 26.11.2020
5199 Clouds -4 984 63 10000 2.1 60 22:59 25.11.2020
5200 Clouds -7 985 62 10000 4.1 60 20:43 25.11.2020
5201 Clouds -7 987 72 10000 2.6 360 19:46 25.11.2020
5202 Clouds -8 988 67 10000 1 0 18:28 25.11.2020
5203 Clouds -9 991 72 10000 0.5 0 16:43 25.11.2020
5204 Clouds -10 992 72 10000 0.5 0 15:38 25.11.2020
5205 Clouds -11 995 78 10000 1.5 0 13:56 25.11.2020
5206 Clouds -11 995 78 10000 1.5 0 13:37 25.11.2020
5207 Clouds -13 998 78 10000 1 0 11:45 25.11.2020
5208 Clouds -13 999 78 10000 2.1 0 11:18 25.11.2020
5209 Clouds -15 1001 78 10000 0.5 240 09:18 25.11.2020
5210 Clouds -16 1001 78 10000 0.5 240 08:43 25.11.2020
5211 Clouds -17 1006 84 10000 2.05 59 03:59 25.11.2020
5212 Clouds -16 1006 84 10000 0.5 0 01:53 25.11.2020
5213 Clouds -16 1007 77 10000 0.5 0 00:24 25.11.2020
5214 Clouds -16 1007 84 10000 1.5 70 23:52 24.11.2020
5215 Clouds -16 1007 84 10000 1.5 70 23:33 24.11.2020
5216 Clouds -15 1007 84 10000 1.5 10 21:51 24.11.2020
5217 Clouds -15 1007 84 10000 1.5 10 21:30 24.11.2020
5218 Snow -15 1008 84 10000 2.05 38 20:42 24.11.2020
5219 Snow -16 1006 84 10000 1.82 45 18:56 24.11.2020
5220 Snow -16 1006 84 10000 1.41 57 17:31 24.11.2020
5221 Snow -17 1006 84 10000 1.36 76 16:50 24.11.2020
5222 Snow -17 1006 84 10000 1.36 76 16:50 24.11.2020
5223 Snow -17 1006 84 10000 1.36 76 16:31 24.11.2020
5224 Snow -17 1005 84 10000 1.21 88 15:54 24.11.2020
5225 Snow -18 1005 77 10000 1.08 85 15:18 24.11.2020
5226 Snow -18 1005 77 10000 1.08 85 14:34 24.11.2020
5227 Snow -18 1002 84 10000 0.5 300 12:50 24.11.2020
5228 Snow -18 1002 84 10000 0.5 300 12:22 24.11.2020
5229 Clouds -18 1001 84 10000 0.5 300 11:39 24.11.2020
5230 Clouds -18 1000 84 10000 0.5 0 10:46 24.11.2020
5231 Clouds -18 1000 84 10000 0.5 0 10:24 24.11.2020
5232 Clouds -17 998 84 10000 0.5 0 09:35 24.11.2020
5233 Clouds -17 994 70 10000 3.1 190 07:58 24.11.2020
5234 Clouds -17 991 84 10000 1.68 263 04:48 24.11.2020
5235 Clouds -21 989 76 10000 0.5 0 22:35 23.11.2020
5236 Clouds -18 989 84 10000 1 300 21:37 23.11.2020
5237 Clouds -21 989 76 10000 1.89 15 20:54 23.11.2020
5238 Clouds -21 989 76 10000 2.12 21 20:27 23.11.2020
5239 Clear -19 990 76 10000 1 340 19:24 23.11.2020
5240 Clear -23 991 83 10000 1.5 290 17:27 23.11.2020
5241 Clear -25 992 76 10000 1.71 22 16:37 23.11.2020
5242 Clear -26 993 75 10000 1.44 31 14:49 23.11.2020
5243 Clear -24 994 76 10000 0.5 340 13:33 23.11.2020
5244 Clear -24 995 76 10000 0.5 300 12:38 23.11.2020
5245 Clear -25 996 75 10000 1.6 53 11:49 23.11.2020
5246 Clear -20 997 76 10000 1.38 61 11:21 23.11.2020
5247 Clear -20 998 69 10000 1.61 51 09:42 23.11.2020
5248 Clear -18 999 76 10000 1.35 60 08:49 23.11.2020
5249 Clear -20 1000 76 10000 1.46 59 07:29 23.11.2020
5250 Clouds -13 1002 77 10000 0.82 93 00:39 23.11.2020
5251 Clouds -11 999 80 10000 0.9 127 23:38 22.11.2020
5252 Clouds -12 1001 77 10000 1.07 145 22:19 22.11.2020
5253 Clouds -12 1004 81 10000 2.24 288 21:23 22.11.2020
5254 Clouds -13 1000 77 10000 0.67 203 19:58 22.11.2020
5255 Clouds -13 1000 84 10000 0.49 234 18:56 22.11.2020
5256 Clouds -12 1000 77 10000 0.25 322 17:54 22.11.2020
5257 Clouds -12 999 78 10000 0.68 360 15:58 22.11.2020
5258 Snow -11 999 72 10000 1.01 28 14:54 22.11.2020
5259 Snow -14 999 77 1207 1.5 20 12:50 22.11.2020
5260 Snow -16 999 71 3219 0.97 63 12:18 22.11.2020
5261 Rain -17 998 84 10000 0.97 63 11:36 22.11.2020
5262 Clouds -17 998 77 10000 1.11 29 10:47 22.11.2020
5263 Clouds -16 998 77 10000 1.47 7 10:29 22.11.2020
5264 Clouds -15 998 76 10000 2.1 50 01:50 22.11.2020
5265 Clouds -15 999 63 10000 1.72 63 23:54 21.11.2020
5266 Clouds -16 1000 69 10000 1.79 64 22:31 21.11.2020
5267 Clouds -17 1000 69 10000 2.1 30 21:30 21.11.2020
5268 Clouds -26 1001 75 10000 2.04 57 20:49 21.11.2020
5269 Clouds -27 1001 75 10000 2.17 62 19:58 21.11.2020
5270 Clouds -22 1001 75 10000 2.17 62 19:37 21.11.2020
5271 Clouds -22 1002 68 10000 2.04 64 18:39 21.11.2020
5272 Clear -18 1003 68 10000 1.94 56 17:30 21.11.2020
5273 Clear -22 1004 75 10000 1.5 20 16:44 21.11.2020
5274 Clear -27 1005 68 10000 2.2 57 15:40 21.11.2020
5275 Clear -21 1005 68 10000 2.23 55 15:19 21.11.2020
5276 Clear -21 1005 62 10000 2.23 55 14:39 21.11.2020
5277 Clear -20 1007 68 10000 1.65 55 12:43 21.11.2020
5278 Clear -20 1007 68 10000 1.7 73 12:20 21.11.2020
5279 Clouds -22 1008 75 10000 1 310 11:23 21.11.2020
5280 Clouds -23 1008 75 10000 1 310 10:27 21.11.2020
5281 Clouds -21 1009 75 10000 0.5 290 08:52 21.11.2020
5282 Clouds -19 1010 68 10000 2.1 180 07:52 21.11.2020
5283 Clouds -22 1011 83 10000 0.5 0 05:24 21.11.2020
5284 Clouds -20 1013 76 10000 2.22 59 01:56 21.11.2020
5285 Clouds -19 1014 83 10000 1 0 23:59 20.11.2020
5286 Clouds -22 1014 76 10000 0.5 0 22:31 20.11.2020
5287 Mist -23 1014 83 10000 1 0 21:44 20.11.2020
5288 Mist -25 1015 75 6437 1 0 21:21 20.11.2020
5289 Mist -25 1015 75 6437 1 0 21:21 20.11.2020
5290 Clear -23 1014 68 10000 1.65 53 19:55 20.11.2020
5291 Mist -27 1015 68 10000 1.47 64 18:53 20.11.2020
5292 Clouds -27 1015 74 10000 1.41 59 17:58 20.11.2020
5293 Clouds -26 1015 74 10000 1.35 51 17:29 20.11.2020
5294 Mist -26 1015 75 6437 1.35 51 16:40 20.11.2020
5295 Clouds -29 1016 74 10000 1.3 50 15:59 20.11.2020
5296 Clouds -29 1016 74 10000 1.3 50 15:34 20.11.2020
5297 Clouds -29 1015 75 10000 1.12 56 13:49 20.11.2020
5298 Clouds -28 1015 68 10000 0.98 62 13:19 20.11.2020
5299 Clouds -26 1015 68 10000 1.09 59 12:39 20.11.2020
5300 Clouds -24 1014 82 10000 1 0 11:46 20.11.2020
5301 Mist -24 1014 75 6437 1 0 11:20 20.11.2020
5302 Clouds -25 1014 75 10000 1 320 09:45 20.11.2020
5303 Clouds -28 1014 75 10000 0.63 89 08:27 20.11.2020
5304 Clouds -23 1013 75 10000 0.63 89 07:34 20.11.2020
5305 Clear -23 1011 75 10000 0.66 76 03:45 20.11.2020
5306 Clear -24 1009 69 10000 1.4 60 23:25 19.11.2020
5307 Clear -22 1009 75 10000 1.49 54 22:27 19.11.2020
5308 Clouds -27 1008 75 10000 1.49 54 21:49 19.11.2020
5309 Clouds -24 1008 75 10000 1.73 49 20:36 19.11.2020
5310 Fog -27 1008 68 10000 1.83 53 20:18 19.11.2020
5311 Fog -28 1008 68 10000 1.86 57 19:25 19.11.2020
5312 Clear -24 1008 75 10000 1.92 53 17:50 19.11.2020
5313 Clear -28 1008 75 10000 1.87 52 16:59 19.11.2020
5314 Clear -22 1008 75 10000 1.84 48 15:59 19.11.2020
5315 Clear -28 1008 75 10000 1.77 41 15:28 19.11.2020
5316 Clear -24 1008 82 10000 1.53 44 13:47 19.11.2020
5317 Clear -24 1008 82 10000 1.44 47 13:25 19.11.2020
5318 Clear -28 1009 82 10000 1.44 47 12:51 19.11.2020
5319 Clear -28 1009 82 10000 1.65 45 12:25 19.11.2020
5320 Clear -23 1009 75 10000 1.65 45 11:40 19.11.2020
5321 Clear -24 1009 75 10000 1.34 55 10:59 19.11.2020
5322 Clear -24 1009 75 10000 1.38 65 10:28 19.11.2020
5323 Clear -23 1009 75 10000 1.38 65 09:45 19.11.2020
5324 Clear -23 1009 75 10000 1.53 59 09:25 19.11.2020
5325 Clear -24 1009 69 10000 1.5 20 08:20 19.11.2020
5326 Clear -25 1009 83 10000 0.5 0 06:20 19.11.2020
5327 Clouds -20 1011 76 10000 1.48 52 01:46 19.11.2020
5328 Clouds -17 1012 69 10000 1.3 86 00:28 19.11.2020
5329 Clouds -19 1013 76 10000 1.03 75 23:25 18.11.2020
5330 Clouds -21 1013 76 10000 1.03 75 22:36 18.11.2020
5331 Clouds -22 1014 75 10000 0.5 0 22:18 18.11.2020
5332 Clouds -27 1014 68 10000 1.04 49 21:39 18.11.2020
5333 Fog -23 1014 68 10000 1.5 50 21:20 18.11.2020
5334 Clear -21 1014 68 10000 1.29 51 19:49 18.11.2020
5335 Clear -22 1014 68 10000 1.16 58 19:27 18.11.2020
5336 Clear -22 1014 68 10000 1.16 58 18:55 18.11.2020
5337 Clear -24 1014 68 10000 1.16 58 18:37 18.11.2020
5338 Clear -24 1015 68 10000 1.27 47 17:37 18.11.2020
5339 Clear -24 1015 68 10000 1.27 48 16:24 18.11.2020
5340 Clear -22 1015 68 10000 1.27 48 15:47 18.11.2020
5341 Clear -21 1016 68 10000 1.16 35 14:41 18.11.2020
5342 Clear -27 1016 68 10000 1.05 22 13:45 18.11.2020
5343 Clear -27 1017 75 10000 1.18 24 13:20 18.11.2020
5344 Clear -24 1017 75 10000 1.15 14 12:30 18.11.2020
5345 Clear -24 1017 75 10000 1.15 14 11:35 18.11.2020
5346 Clear -24 1017 75 10000 0.77 31 10:31 18.11.2020
5347 Clear -24 1017 75 10000 0.74 43 09:57 18.11.2020
5348 Clear -23 1017 68 10000 1.5 60 07:54 18.11.2020
5349 Clouds -22 1018 76 10000 0.5 0 06:34 18.11.2020
5350 Clear -21 1020 83 10000 0.5 0 00:29 18.11.2020
5351 Clouds -21 1021 76 10000 0.5 100 23:37 17.11.2020
5352 Clouds -22 1021 76 10000 0.9 52 22:49 17.11.2020
5353 Clouds -22 1021 76 10000 0.91 31 22:29 17.11.2020
5354 Clouds -25 1022 75 10000 0.5 0 21:50 17.11.2020
5355 Clouds -24 1022 75 10000 0.5 0 21:30 17.11.2020
5356 Clouds -23 1022 83 10000 0.5 0 20:50 17.11.2020
5357 Clouds -23 1022 83 10000 0.5 0 20:25 17.11.2020
5358 Clouds -23 1022 68 10000 1.26 38 19:54 17.11.2020
5359 Mist -25 1026 75 4828 1.03 48 18:25 17.11.2020
5360 Clouds -24 1023 75 10000 1 50 17:44 17.11.2020
5361 Clouds -24 1023 75 10000 1 50 16:54 17.11.2020
5362 Clouds -24 1024 75 10000 1 50 16:18 17.11.2020
5363 Clouds -24 1024 75 10000 1 50 16:18 17.11.2020
5364 Clouds -24 1024 75 10000 1 50 15:40 17.11.2020
5365 Mist -24 1024 75 6437 1 50 15:22 17.11.2020
5366 Mist -24 1024 75 6437 1 50 14:54 17.11.2020
5367 Clouds -24 1024 83 10000 0.5 90 14:21 17.11.2020
5368 Clouds -24 1024 83 10000 0.5 90 13:35 17.11.2020
5369 Clouds -24 1046 83 10000 0.5 90 12:48 17.11.2020
5370 Clouds -24 1046 83 10000 0.5 90 12:22 17.11.2020
5371 Clouds -23 1026 83 10000 0.5 90 11:41 17.11.2020
5372 Clouds -22 1026 83 10000 0.82 42 10:45 17.11.2020
5373 Clouds -22 1026 83 10000 0.74 63 10:23 17.11.2020
5374 Clouds -22 1026 83 10000 0.5 0 09:48 17.11.2020
5375 Clear -23 1026 83 10000 0.74 57 09:20 17.11.2020
5376 Clear -24 1026 83 10000 0.65 54 08:22 17.11.2020
5377 Clear -22 1026 68 10000 0.65 54 07:43 17.11.2020
5378 Clouds -22 1027 83 10000 0.67 24 05:18 17.11.2020
5379 Clouds -21 1027 76 10000 0.72 49 03:31 17.11.2020
5380 Clouds -21 1027 83 10000 0.68 30 02:31 17.11.2020
5381 Clouds -20 1028 77 10000 0.61 69 00:57 17.11.2020
5382 Clouds -19 1028 76 10000 0.74 41 00:20 17.11.2020
5383 Clouds -20 1028 76 10000 0.74 41 23:41 16.11.2020
5384 Clouds -20 1028 76 10000 0.76 52 23:19 16.11.2020
5385 Clouds -21 1028 76 10000 0.76 52 22:37 16.11.2020
5386 Clouds -21 1028 83 10000 0.84 62 22:18 16.11.2020
5387 Clouds -22 1028 83 10000 0.84 62 21:43 16.11.2020
5388 Clouds -22 1028 83 10000 0.89 52 21:23 16.11.2020
5389 Clouds -24 1028 75 10000 0.98 42 20:27 16.11.2020
5390 Snow -24 1028 75 10000 0.98 42 19:56 16.11.2020
5391 Snow -24 1028 75 10000 0.98 42 19:31 16.11.2020
5392 Snow -25 1028 83 10000 0.89 43 18:53 16.11.2020
5393 Snow -25 1028 83 10000 0.81 58 18:28 16.11.2020
5394 Snow -25 1028 75 10000 0.81 58 17:41 16.11.2020
5395 Snow -25 1028 75 10000 0.66 45 17:19 16.11.2020
5396 Snow -25 1028 75 10000 0.66 45 16:51 16.11.2020
5397 Snow -25 1028 75 10000 0.81 61 16:26 16.11.2020
5398 Clouds -26 1028 75 10000 0.81 61 15:47 16.11.2020
5399 Clouds -25 1028 75 10000 0.9 53 15:28 16.11.2020
5400 Clouds -25 1027 83 10000 0.9 53 14:53 16.11.2020
5401 Clouds -23 1027 76 10000 0.93 57 13:59 16.11.2020
5402 Clouds -23 1027 76 10000 0.72 71 13:21 16.11.2020
5403 Snow -23 1027 76 9656 0.96 104 12:32 16.11.2020
5404 Mist -22 1027 76 9656 0.96 104 11:43 16.11.2020
5405 Snow -22 1027 76 9656 0.44 90 11:23 16.11.2020
5406 Mist -25 1026 100 9656 0.44 90 10:44 16.11.2020
5407 Snow -23 1026 100 9656 0.27 113 10:26 16.11.2020
5408 Clouds -22 1025 83 10000 2.1 50 09:52 16.11.2020
5409 Clouds -23 1025 83 10000 2.1 50 09:34 16.11.2020
5410 Snow -20 1025 76 10000 1.5 60 08:48 16.11.2020
5411 Snow -19 1024 70 10000 2.6 50 08:21 16.11.2020
5412 Snow -19 1024 70 10000 2.6 50 07:29 16.11.2020
5413 Snow -19 1024 77 8047 2.1 40 06:46 16.11.2020
5414 Snow -19 1023 77 9656 0.2 6 05:48 16.11.2020
5415 Snow -18 1022 84 8047 1.5 60 03:54 16.11.2020
5416 Snow -17 1020 84 10000 0.54 280 01:45 16.11.2020
5417 Snow -16 1020 84 10000 0.54 246 00:33 16.11.2020
5418 Clouds -15 1022 89 3336 0.5 234 23:32 15.11.2020
5419 Snow -15 1019 84 6437 0.6 243 22:58 15.11.2020
5420 Snow -15 1019 84 6437 0.42 234 22:25 15.11.2020
5421 Snow -15 1018 77 4023 0.42 234 21:54 15.11.2020
5422 Snow -15 1018 77 3219 0.42 234 21:35 15.11.2020
5423 Snow -15 1017 77 3219 0.43 250 20:58 15.11.2020
5424 Mist -14 1017 77 3219 0.43 250 20:38 15.11.2020
5425 Snow -14 1017 77 3219 1.5 190 19:57 15.11.2020
5426 Snow -15 1016 84 10000 2.6 190 19:38 15.11.2020
5427 Snow -14 1016 77 10000 1.5 200 19:20 15.11.2020
5428 Snow -14 1015 77 10000 2.1 190 18:45 15.11.2020
5429 Snow -14 1015 77 10000 2.1 190 18:25 15.11.2020
5430 Snow -14 1015 77 10000 2.1 210 17:57 15.11.2020
5431 Snow -14 1015 77 10000 2.1 210 17:39 15.11.2020
5432 Snow -13 1014 78 10000 1.5 210 17:19 15.11.2020
5433 Snow -13 1014 78 10000 1.5 210 16:39 15.11.2020
5434 Snow -13 1013 78 10000 2.1 210 16:18 15.11.2020
5435 Snow -13 1013 78 10000 2.1 210 15:43 15.11.2020
5436 Snow -13 1013 78 10000 2.1 210 15:23 15.11.2020
5437 Snow -12 1013 78 9656 1.5 200 14:51 15.11.2020
5438 Snow -12 1013 78 9656 1.5 200 14:25 15.11.2020
5439 Snow -12 1012 85 10000 1.5 210 13:42 15.11.2020
5440 Snow -12 1011 85 10000 0.57 278 13:18 15.11.2020
5441 Snow -12 1011 85 10000 0.55 277 12:46 15.11.2020
5442 Clouds -12 1011 85 10000 0.66 284 12:19 15.11.2020
5443 Clouds -12 1011 85 10000 0.66 284 11:44 15.11.2020
5444 Clouds -12 1010 78 10000 1.5 10 11:18 15.11.2020
5445 Clouds -12 1010 78 10000 1.5 10 10:49 15.11.2020
5446 Clouds -13 1010 78 10000 1.5 10 10:30 15.11.2020
5447 Snow -12 1009 85 6437 2.1 30 09:46 15.11.2020
5448 Snow -12 1009 85 6437 2.1 30 09:24 15.11.2020
5449 Snow -12 1009 85 6437 0.92 306 08:54 15.11.2020
5450 Snow -12 1009 85 6437 0.92 306 08:54 15.11.2020
5451 Mist -12 1009 78 6437 0.92 306 08:32 15.11.2020
5452 Snow -12 1008 85 6437 1.08 307 07:44 15.11.2020
5453 Snow -11 1008 85 6437 2.1 20 06:25 15.11.2020
5454 Mist -12 1007 92 6437 1.15 326 04:52 15.11.2020
5455 Clouds -10 1005 85 10000 2.1 190 01:37 15.11.2020
5456 Clouds -10 1005 85 10000 0.97 310 00:30 15.11.2020
5457 Clouds -11 1004 85 10000 0.85 314 23:44 14.11.2020
5458 Snow -10 1004 85 10000 0.78 333 22:54 14.11.2020
5459 Snow -10 1004 85 10000 0.78 333 22:33 14.11.2020
5460 Snow -10 1004 85 10000 0.86 348 21:56 14.11.2020
5461 Snow -10 1004 85 10000 0.86 348 21:37 14.11.2020
5462 Clouds -10 1003 85 10000 0.94 350 21:19 14.11.2020
5463 Clouds -10 1003 85 10000 0.94 350 20:37 14.11.2020
5464 Mist -10 1002 85 8047 0.85 349 20:19 14.11.2020
5465 Snow -10 1002 85 8047 0.85 349 19:36 14.11.2020
5466 Mist -10 1002 78 8047 0.8 346 18:57 14.11.2020
5467 Mist -10 1002 78 8047 0.8 346 18:38 14.11.2020
5468 Snow -9 1001 85 10000 0.73 348 18:20 14.11.2020
5469 Snow -9 1001 85 10000 0.73 348 17:44 14.11.2020
5470 Snow -9 1001 85 10000 0.84 353 17:25 14.11.2020
5471 Snow -9 1001 85 10000 1.5 190 16:52 14.11.2020
5472 Snow -9 1001 85 10000 1.5 190 16:31 14.11.2020
5473 Snow -9 1000 85 10000 0.96 356 15:53 14.11.2020
5474 Snow -9 1000 85 10000 0.96 356 15:31 14.11.2020
5475 Snow -9 1000 85 10000 1 356 14:54 14.11.2020
5476 Snow -9 1000 85 10000 0.92 354 14:29 14.11.2020
5477 Snow -8 1000 78 10000 0.92 354 13:51 14.11.2020
5478 Snow -9 1000 78 10000 0.92 352 13:29 14.11.2020
5479 Snow -9 1000 85 10000 0.91 341 12:49 14.11.2020
5480 Snow -9 1000 85 10000 0.91 341 12:30 14.11.2020
5481 Snow -9 999 78 10000 0.91 344 11:56 14.11.2020
5482 Snow -9 999 78 10000 0.91 344 11:37 14.11.2020
5483 Snow -9 999 92 9656 0.5 330 10:59 14.11.2020
5484 Snow -9 999 92 9656 0.5 330 10:38 14.11.2020
5485 Snow -9 999 92 9656 0.87 346 10:19 14.11.2020
5486 Snow -9 999 92 9656 0.87 346 09:43 14.11.2020
5487 Snow -9 999 92 9656 0.95 347 09:23 14.11.2020
5488 Snow -9 998 85 9656 0.95 347 08:40 14.11.2020
5489 Snow -9 998 85 9656 0.93 346 08:20 14.11.2020
5490 Snow -9 998 85 9656 0.93 346 07:41 14.11.2020
5491 Snow -9 998 92 9656 0.88 333 06:51 14.11.2020
5492 Clouds -9 997 85 10000 0.87 329 06:20 14.11.2020
5493 Snow -9 997 92 9656 0.91 338 04:53 14.11.2020
5494 Snow -10 996 78 10000 1.5 360 01:48 14.11.2020
5495 Snow -10 996 85 9656 0.45 349 00:25 14.11.2020
5496 Snow -10 996 85 9656 0.45 349 23:35 13.11.2020
5497 Snow -10 995 92 4828 0.57 11 22:58 13.11.2020
5498 Snow -10 995 85 2414 0.57 11 22:40 13.11.2020
5499 Snow -10 995 92 3017 0.5 130 22:21 13.11.2020
5500 Snow -11 995 92 3017 0.5 130 21:49 13.11.2020
5501 Snow -11 1002 92 10000 0.5 130 21:25 13.11.2020
5502 Snow -11 995 92 10000 1 0 20:51 13.11.2020
5503 Snow -11 995 92 10000 1 0 20:32 13.11.2020
5504 Snow -11 994 85 10000 1 0 19:55 13.11.2020
5505 Snow -11 994 85 10000 1 0 19:36 13.11.2020
5506 Snow -11 994 85 10000 1 0 19:36 13.11.2020
5507 Snow -11 994 85 10000 1 0 19:18 13.11.2020
5508 Snow -12 994 85 10000 1 0 18:32 13.11.2020
5509 Snow -12 993 85 10000 0.5 0 17:44 13.11.2020
5510 Snow -12 993 85 10000 0.5 0 17:21 13.11.2020
5511 Snow -12 993 85 10000 0.5 0 16:57 13.11.2020
5512 Snow -12 993 85 10000 0.5 0 16:38 13.11.2020
5513 Snow -12 993 92 10000 0.5 0 16:18 13.11.2020
5514 Snow -12 993 92 10000 0.5 0 15:39 13.11.2020
5515 Snow -12 993 92 10000 0.6 54 15:21 13.11.2020
5516 Snow -12 993 92 10000 0.6 54 14:38 13.11.2020
5517 Snow -12 992 85 10000 0.5 0 14:18 13.11.2020
5518 Snow -12 992 85 10000 0.5 0 14:18 13.11.2020
5519 Snow -12 992 85 10000 0.5 0 13:32 13.11.2020
5520 Snow -12 992 92 10000 0.5 0 12:59 13.11.2020
5521 Snow -13 992 92 10000 0.5 0 12:40 13.11.2020
5522 Snow -13 992 84 10000 1 0 12:22 13.11.2020
5523 Snow -13 992 84 10000 1 0 11:46 13.11.2020
5524 Clouds -13 991 92 10000 0.5 0 11:22 13.11.2020
5525 Clouds -13 991 92 10000 0.5 0 10:51 13.11.2020
5526 Clouds -13 991 92 10000 0.5 0 10:32 13.11.2020
5527 Clouds -13 990 92 10000 0.25 104 09:52 13.11.2020
5528 Clouds -13 990 92 10000 0.25 104 09:31 13.11.2020
5529 Snow -13 990 92 10000 0.29 54 08:54 13.11.2020
5530 Snow -13 990 92 10000 0.22 41 08:29 13.11.2020
5531 Clouds -13 988 85 10000 0.22 41 07:51 13.11.2020
5532 Clouds -13 988 84 10000 0.08 253 07:27 13.11.2020
5533 Clouds -13 988 84 10000 0.19 311 06:56 13.11.2020
5534 Clouds -14 988 84 10000 0.19 311 06:37 13.11.2020
5535 Clouds -14 987 84 10000 0.34 261 05:41 13.11.2020
5536 Fog -14 986 84 10000 0.28 277 03:44 13.11.2020
5537 Clouds -12 985 84 10000 0.68 275 01:42 13.11.2020
5538 Clouds -10 985 92 10000 0.69 238 00:37 13.11.2020
5539 Fog -10 985 85 10000 0.21 235 23:50 12.11.2020
5540 Mist -11 984 84 3219 0.07 20 23:21 12.11.2020
5541 Mist -11 984 84 3219 0.07 20 22:56 12.11.2020
5542 Mist -14 984 84 3219 0.07 20 22:38 12.11.2020
5543 Mist -11 984 84 3219 0.4 78 21:59 12.11.2020
5544 Fog -13 984 84 805 0.4 78 21:41 12.11.2020
5545 Fog -13 984 84 805 0.69 48 21:22 12.11.2020
5546 Fog -12 984 84 402 0.69 48 20:42 12.11.2020
5547 Fog -14 984 84 402 0.74 42 20:24 12.11.2020
5548 Fog -16 984 92 402 0.74 42 19:55 12.11.2020
5549 Fog -14 984 92 402 0.74 42 19:37 12.11.2020
5550 Fog -13 984 84 402 0.69 36 19:19 12.11.2020
5551 Mist -13 983 84 9656 1.11 41 18:42 12.11.2020
5552 Mist -13 983 84 4828 0.69 54 18:20 12.11.2020
5553 Mist -13 983 84 4828 0.69 54 17:43 12.11.2020
5554 Mist -13 983 84 4828 0.55 56 17:24 12.11.2020
5555 Fog -12 983 84 603 0.55 56 16:45 12.11.2020
5556 Fog -12 983 84 603 0.8 46 16:23 12.11.2020
5557 Fog -11 984 84 603 0.8 46 15:53 12.11.2020
5558 Fog -11 984 84 603 0.73 39 15:29 12.11.2020
5559 Fog -10 984 84 402 0.73 39 14:56 12.11.2020
5560 Mist -10 984 92 6437 0.73 39 14:37 12.11.2020
5561 Mist -9 984 92 2414 1 0 14:18 12.11.2020
5562 Clouds -8 983 84 10000 0.82 54 13:45 12.11.2020
5563 Clouds -9 984 85 10000 0.79 108 13:19 12.11.2020
5564 Clouds -9 984 85 10000 0.79 108 12:48 12.11.2020
5565 Clouds -9 984 85 10000 0.72 70 12:25 12.11.2020
5566 Clouds -9 984 92 10000 0.5 0 11:54 12.11.2020
5567 Clouds -9 984 92 10000 0.5 0 11:35 12.11.2020
5568 Clouds -9 984 92 10000 0.73 41 10:53 12.11.2020
5569 Clouds -9 984 92 10000 0.73 41 10:53 12.11.2020
5570 Clouds -9 984 92 10000 0.73 41 10:34 12.11.2020
5571 Clouds -8 983 85 10000 0.79 51 09:56 12.11.2020
5572 Clouds -8 983 85 10000 0.23 96 09:28 12.11.2020
5573 Clouds -8 983 92 10000 0.23 96 08:59 12.11.2020
5574 Clouds -8 983 92 10000 0.23 96 08:40 12.11.2020
5575 Clouds -8 984 85 10000 0.6 81 08:20 12.11.2020
5576 Clouds -7 984 85 10000 0.6 81 07:55 12.11.2020
5577 Clouds -7 984 85 10000 0.6 81 07:36 12.11.2020
5578 Clouds -7 984 85 10000 0.76 72 06:52 12.11.2020
5579 Clouds -8 984 85 10000 0.43 63 06:26 12.11.2020
5580 Clouds -5 985 92 10000 2.1 40 03:50 12.11.2020
5581 Clouds -4 985 79 10000 0.54 17 03:20 12.11.2020
5582 Clouds -3 987 85 10000 0.36 113 00:36 12.11.2020
5583 Clouds -4 988 85 10000 0.96 27 23:45 11.11.2020
5584 Clouds -4 988 85 10000 0.58 343 23:25 11.11.2020
5585 Clouds -6 988 92 10000 0.58 343 22:48 11.11.2020
5586 Clouds -6 988 92 10000 0.57 40 22:24 11.11.2020
5587 Clouds -7 988 92 10000 0.57 40 21:59 11.11.2020
5588 Clouds -7 988 92 10000 0.57 40 21:40 11.11.2020
5589 Clouds -6 988 85 10000 0.3 81 21:20 11.11.2020
5590 Clouds -7 988 85 10000 0.3 81 20:54 11.11.2020
5591 Clouds -7 988 85 10000 0.3 81 20:36 11.11.2020
5592 Clouds -7 989 85 10000 3.1 40 20:18 11.11.2020
5593 Clouds -8 989 85 10000 3.1 40 19:41 11.11.2020
5594 Clouds -8 989 85 10000 3.1 40 19:22 11.11.2020
5595 Clouds -11 990 85 10000 2.1 40 18:44 11.11.2020
5596 Clouds -8 990 85 10000 2.1 20 18:26 11.11.2020
5597 Clouds -9 990 85 10000 2.1 20 17:41 11.11.2020
5598 Clouds -11 991 85 10000 0.41 74 17:21 11.11.2020
5599 Clouds -9 991 85 10000 0.41 74 16:45 11.11.2020
5600 Clouds -9 991 85 10000 0.99 57 16:27 11.11.2020
5601 Clouds -7 992 85 10000 2.1 50 15:44 11.11.2020
5602 Clouds -7 992 85 10000 2.1 50 15:26 11.11.2020
5603 Clouds -6 992 85 10000 2.1 30 14:51 11.11.2020
5604 Clouds -6 992 85 10000 2.1 30 14:31 11.11.2020
5605 Clouds -7 993 85 10000 2.03 68 13:52 11.11.2020
5606 Clouds -7 993 85 10000 2.03 68 13:52 11.11.2020
5607 Clouds -7 993 85 10000 2.03 68 13:32 11.11.2020
5608 Clouds -8 995 85 10000 2.1 40 12:40 11.11.2020
5609 Clouds -9 996 78 10000 2.1 10 12:20 11.11.2020
5610 Clouds -9 996 78 10000 2.1 10 11:48 11.11.2020
5611 Clouds -9 996 78 10000 2.1 10 11:26 11.11.2020
5612 Clouds -8 997 85 10000 2.31 61 10:40 11.11.2020
5613 Clouds -8 999 85 10000 2.03 56 10:20 11.11.2020
5614 Clouds -8 999 85 10000 2.03 56 09:44 11.11.2020
5615 Clouds -8 999 85 10000 2.25 51 09:25 11.11.2020
5616 Clouds -8 1000 85 10000 2.25 51 08:46 11.11.2020
5617 Clouds -8 1000 85 10000 2.25 51 08:46 11.11.2020
5618 Clouds -8 1000 85 10000 1.9 56 08:27 11.11.2020
5619 Clouds -9 1002 92 10000 1.9 56 07:49 11.11.2020
5620 Clouds -9 1002 92 10000 1.9 56 07:49 11.11.2020
5621 Mist -8 1003 85 10000 1 10 06:51 11.11.2020
5622 Mist -8 1003 85 10000 1 10 06:25 11.11.2020
5623 Clouds -4 1009 79 10000 2.3 53 03:40 11.11.2020
5624 Snow -4 1012 85 10000 2.1 340 00:59 11.11.2020
5625 Snow -4 1013 92 4828 0.5 0 00:28 11.11.2020
5626 Snow -4 1013 92 2414 0.5 0 23:49 10.11.2020
5627 Snow -4 1013 92 2414 0.5 0 23:24 10.11.2020
5628 Snow -4 1014 85 4828 0.5 0 22:57 10.11.2020
5629 Mist -4 1014 85 4828 0.5 0 22:27 10.11.2020
5630 Snow -4 1015 85 9656 0.5 0 21:44 10.11.2020
5631 Snow -5 1015 85 9656 0.5 260 21:25 10.11.2020
5632 Snow -5 1015 85 9656 0.5 260 20:59 10.11.2020
5633 Snow -5 1014 79 8047 1.07 71 20:41 10.11.2020
5634 Clouds -5 1014 79 10000 2.1 0 20:22 10.11.2020
5635 Clouds -5 1014 79 10000 2.1 0 19:49 10.11.2020
5636 Clouds -5 1015 85 10000 1 0 19:30 10.11.2020
5637 Clouds -5 1015 85 10000 1 0 18:59 10.11.2020
5638 Clouds -5 1015 85 10000 1 0 18:40 10.11.2020
5639 Snow -5 1014 79 10000 1.5 360 18:19 10.11.2020
5640 Snow -5 1014 79 10000 1.5 360 17:43 10.11.2020
5641 Snow -5 1014 79 10000 1.5 360 17:25 10.11.2020
5642 Snow -5 1015 79 10000 1.16 91 16:46 10.11.2020
5643 Clouds -6 1014 96 10000 1.32 89 16:24 10.11.2020
5644 Clouds -6 1015 96 10000 1.32 89 15:57 10.11.2020
5645 Snow -5 1016 79 10000 2.6 30 15:38 10.11.2020
5646 Snow -5 1016 79 10000 3.1 30 15:20 10.11.2020
5647 Snow -6 1016 79 10000 3.1 30 14:41 10.11.2020
5648 Snow -5 1017 79 2414 3.1 40 14:22 10.11.2020
5649 Snow -6 1017 79 1207 2.6 40 13:41 10.11.2020
5650 Snow -6 1017 79 1207 2.6 40 13:23 10.11.2020
5651 Mist -6 1017 79 1207 1.5 40 12:58 10.11.2020
5652 Snow -6 1017 79 1609 2.1 50 12:39 10.11.2020
5653 Clouds -6 1017 73 10000 2.6 60 12:20 10.11.2020
5654 Clouds -6 1017 73 10000 2.6 60 11:39 10.11.2020
5655 Clouds -6 1018 85 10000 1 0 11:19 10.11.2020
5656 Clouds -6 1018 85 10000 1 0 10:43 10.11.2020
5657 Clouds -6 1018 85 10000 1 0 10:24 10.11.2020
5658 Clouds -6 1019 85 10000 2.6 20 09:51 10.11.2020
5659 Clouds -7 1019 100 10000 2.16 64 09:26 10.11.2020
5660 Clouds -7 1020 85 10000 2.16 64 08:59 10.11.2020
5661 Clouds -7 1020 85 10000 2.16 64 08:30 10.11.2020
5662 Clouds -7 1020 92 10000 2.1 0 07:56 10.11.2020
5663 Clouds -7 1020 92 10000 2.1 0 07:37 10.11.2020
5664 Clouds -7 1021 92 10000 1.91 58 07:18 10.11.2020
5665 Clouds -9 1021 92 10000 1.8 46 06:38 10.11.2020
5666 Clouds -9 1023 92 10000 1.5 0 05:29 10.11.2020
5667 Clouds -5 1021 92 10000 1.5 0 03:36 10.11.2020
5668 Clouds -3 1020 79 10000 2.6 190 01:41 10.11.2020
5669 Clouds -3 1020 79 10000 1.5 0 00:50 10.11.2020
5670 Clouds -4 1020 85 10000 2.6 0 23:46 09.11.2020
5671 Clouds -4 1020 79 10000 2.6 0 22:59 09.11.2020
5672 Clouds -5 1020 85 10000 2.6 0 22:41 09.11.2020
5673 Clouds -5 1019 85 10000 4.1 240 22:20 09.11.2020
5674 Clouds -5 1019 85 10000 4.1 240 21:43 09.11.2020
5675 Clouds -5 1019 85 10000 4.1 240 21:25 09.11.2020
5676 Clouds -5 1019 85 10000 4.1 240 21:25 09.11.2020
5677 Snow -5 1017 79 10000 4.6 240 20:42 09.11.2020
5678 Snow -5 1016 79 9656 4.6 210 20:22 09.11.2020
5679 Snow -4 1016 79 9656 4.6 210 19:48 09.11.2020
5680 Snow -4 1016 79 9656 4.6 210 19:23 09.11.2020
5681 Snow -4 1014 74 10000 7.7 260 18:58 09.11.2020
5682 Snow -4 1014 74 10000 7.7 260 18:39 09.11.2020
5683 Clouds -4 1016 95 4536 4.32 252 18:19 09.11.2020
5684 Clouds -4 1011 89 4536 0.45 271 17:43 09.11.2020
5685 Snow -3 1012 86 10000 0.5 0 17:25 09.11.2020
5686 Snow -3 1012 86 10000 0.5 0 16:44 09.11.2020
5687 Snow -3 1012 86 10000 0.5 0 16:23 09.11.2020
5688 Snow -3 1010 86 10000 4.6 260 15:45 09.11.2020
5689 Snow -3 1010 86 10000 4.6 260 15:25 09.11.2020
5690 Snow -3 1008 86 10000 1 0 14:49 09.11.2020
5691 Snow -3 1008 86 10000 1 0 14:28 09.11.2020
5692 Snow -3 1006 86 9656 1.5 0 13:57 09.11.2020
5693 Snow -3 1006 86 9656 1.5 0 13:37 09.11.2020
5694 Snow -3 1006 79 9656 4.1 260 13:18 09.11.2020
5695 Snow -3 1004 79 3219 7.2 280 12:41 09.11.2020
5696 Snow -3 1002 92 4828 2.1 0 12:21 09.11.2020
5697 Mist -4 1002 92 4828 2.1 0 11:43 09.11.2020
5698 Snow -3 1002 92 4828 2.1 0 11:24 09.11.2020
5699 Snow -4 1000 79 3219 5.7 270 10:57 09.11.2020
5700 Mist -4 999 86 1609 5.7 270 10:39 09.11.2020
5701 Snow -4 997 86 4023 3.6 280 10:21 09.11.2020
5702 Mist -3 997 86 4023 3.6 280 09:30 09.11.2020
5703 Mist -3 996 86 6437 5.1 270 08:50 09.11.2020
5704 Mist -3 995 80 3219 4.1 330 08:27 09.11.2020
5705 Snow -2 993 97 2414 3.3 265 07:44 09.11.2020
5706 Snow -1 992 98 2816 3.15 265 07:23 09.11.2020
5707 Snow -1 992 98 2816 3.15 265 06:51 09.11.2020
5708 Mist 0 990 86 1609 1.5 220 04:30 09.11.2020
5709 Clouds 0 989 98 128 1.4 194 01:57 09.11.2020
5710 Clouds 0 987 90 128 1.4 194 01:39 09.11.2020
5711 Rain 0 989 80 10000 3.6 350 00:40 09.11.2020
5712 Clouds 0 989 80 10000 2.1 40 23:40 08.11.2020
5713 Snow 0 990 74 10000 3.1 30 23:22 08.11.2020
5714 Clouds 0 991 96 10000 1.21 67 22:42 08.11.2020
5715 Clouds 0 991 95 10000 1.47 71 22:21 08.11.2020
5716 Clouds 0 990 80 10000 3.1 360 21:46 08.11.2020
5717 Clouds 0 990 80 10000 3.1 10 21:21 08.11.2020
5718 Clouds 0 990 80 10000 3.1 10 20:57 08.11.2020
5719 Clouds 0 990 80 10000 3.1 10 20:38 08.11.2020
5720 Clouds 0 991 80 10000 3.1 20 20:19 08.11.2020
5721 Clouds 0 991 80 10000 3.1 20 19:45 08.11.2020
5722 Clouds -1 991 80 10000 3.1 20 19:22 08.11.2020
5723 Clouds 0 992 95 10000 3.6 20 18:56 08.11.2020
5724 Clouds -1 992 95 10000 3.6 20 18:38 08.11.2020
5725 Clouds 0 993 94 10000 3.6 10 18:20 08.11.2020
5726 Clouds 0 993 94 10000 3.6 10 17:42 08.11.2020
5727 Snow 0 994 94 9656 5.1 30 17:20 08.11.2020
5728 Snow 0 994 94 9656 5.1 30 16:57 08.11.2020
5729 Snow 0 994 94 9656 5.1 30 16:57 08.11.2020
5730 Snow 0 994 94 9656 5.1 30 16:38 08.11.2020
5731 Rain -1 995 74 6437 4.1 40 16:19 08.11.2020
5732 Snow -1 996 94 10000 4.1 10 15:45 08.11.2020
5733 Snow -2 996 94 10000 4.1 10 15:26 08.11.2020
5734 Rain -2 997 74 10000 4.1 20 14:43 08.11.2020
5735 Rain -2 999 68 10000 4.1 10 14:24 08.11.2020
5736 Rain -2 999 68 10000 4.1 10 13:56 08.11.2020
5737 Rain -2 999 68 10000 4.1 10 13:56 08.11.2020
5738 Rain -2 999 68 10000 4.1 10 13:26 08.11.2020
5739 Clouds -3 1001 74 10000 4.1 10 12:57 08.11.2020
5740 Clouds -3 1001 74 10000 4.1 10 12:39 08.11.2020
5741 Clouds -4 1003 79 10000 2.1 320 12:19 08.11.2020
5742 Clouds -4 1003 79 10000 2.1 320 11:55 08.11.2020
5743 Clouds -3 1003 79 10000 2.1 320 11:36 08.11.2020
5744 Clouds -5 1005 92 10000 2.1 40 11:18 08.11.2020
5745 Clouds -5 1005 92 10000 2.1 40 10:41 08.11.2020
5746 Clouds -5 1006 92 10000 1.5 0 10:18 08.11.2020
5747 Clouds -6 1006 92 10000 1.5 0 09:41 08.11.2020
5748 Clouds -6 1008 85 10000 2.1 60 09:19 08.11.2020
5749 Clouds -6 1008 85 10000 2.1 60 08:45 08.11.2020
5750 Clouds -6 1008 85 10000 1.62 46 08:23 08.11.2020
5751 Clouds -7 1010 85 10000 1.62 46 07:53 08.11.2020
5752 Clouds -7 1010 85 10000 1.62 46 07:31 08.11.2020
5753 Clouds -7 1012 85 10000 1.5 190 06:29 08.11.2020
5754 Clouds -7 1012 85 10000 1.32 60 05:54 08.11.2020
5755 Clouds -7 1014 85 10000 1.68 63 04:51 08.11.2020
5756 Clouds -7 1015 85 10000 2.1 310 03:25 08.11.2020
5757 Clouds -4 1018 79 10000 2.1 50 01:19 08.11.2020
5758 Clouds -4 1018 79 10000 2.1 50 01:19 08.11.2020
5759 Clouds -4 1018 79 10000 2.1 50 01:19 08.11.2020
5760 Clouds -4 1018 79 10000 2.1 50 00:33 08.11.2020
5761 Clouds -4 1018 73 10000 1.14 104 23:57 07.11.2020
5762 Clouds -4 1018 73 10000 1.14 104 23:38 07.11.2020
5763 Clouds -3 1019 79 10000 2.1 10 23:19 07.11.2020
5764 Clouds -3 1019 79 10000 2.1 10 22:40 07.11.2020
5765 Snow -3 1019 73 10000 2.1 20 22:20 07.11.2020
5766 Clouds -4 1021 91 10000 1.59 134 21:43 07.11.2020
5767 Clouds -4 1019 85 10000 1.5 50 21:21 07.11.2020
5768 Clouds -4 1019 85 10000 1.5 50 20:48 07.11.2020
5769 Clouds -4 1019 85 10000 1.5 50 20:30 07.11.2020
5770 Clouds -4 1020 86 10000 1 360 19:50 07.11.2020
5771 Clouds -4 1020 86 10000 1 360 19:28 07.11.2020
5772 Snow -3 1020 86 9656 1.5 310 18:55 07.11.2020
5773 Snow -3 1020 86 9656 1.5 310 18:37 07.11.2020
5774 Snow -3 1019 80 10000 1.5 150 18:18 07.11.2020
5775 Snow -3 1019 80 10000 1.5 150 17:38 07.11.2020
5776 Snow -3 1019 86 10000 1.41 141 16:58 07.11.2020
5777 Snow -2 1019 86 10000 1.41 141 16:40 07.11.2020
5778 Snow -2 1019 86 10000 1.41 136 16:21 07.11.2020
5779 Snow -1 1020 74 10000 1.5 190 15:43 07.11.2020
5780 Snow -1 1020 74 10000 1.5 190 15:23 07.11.2020
5781 Rain -1 1020 80 9656 2.1 200 14:48 07.11.2020
5782 Rain 0 1020 80 9656 2.1 200 14:29 07.11.2020
5783 Snow 0 1020 80 4828 3.6 210 13:56 07.11.2020
5784 Snow 0 1020 80 4828 3.6 210 13:31 07.11.2020
5785 Snow -1 1020 96 2012 3.1 220 12:55 07.11.2020
5786 Snow -2 1020 96 2414 2.6 0 12:30 07.11.2020
5787 Snow -2 1019 92 8047 3.1 190 11:45 07.11.2020
5788 Snow -2 1019 92 8047 3.1 190 11:24 07.11.2020
5789 Mist -1 1019 96 1609 3.6 220 10:46 07.11.2020
5790 Snow -1 1019 95 1609 3.6 220 10:27 07.11.2020
5791 Snow -1 1018 86 10000 1.5 200 09:57 07.11.2020
5792 Snow -1 1018 86 10000 1.5 200 09:37 07.11.2020
5793 Snow -1 1021 96 10000 2.76 215 08:56 07.11.2020
5794 Snow -1 1016 91 10000 2.76 215 08:37 07.11.2020
5795 Clouds -2 1020 97 10000 2.65 209 07:56 07.11.2020
5796 Clouds -2 1020 97 10000 2.65 209 07:32 07.11.2020
5797 Snow -2 1017 92 4023 3.1 170 06:48 07.11.2020
5798 Snow -3 1017 79 4828 1.5 40 05:37 07.11.2020
5799 Snow -4 1016 85 9656 2.1 40 03:24 07.11.2020
5800 Snow -4 1016 92 1609 5.6 233 01:43 07.11.2020
5801 Snow -4 1016 92 1609 5.46 231 01:24 07.11.2020
5802 Snow -5 1016 92 1609 1.5 20 00:27 07.11.2020
5803 Snow -6 1016 92 8047 1 0 23:25 06.11.2020
5804 Snow -7 1015 92 9656 1 0 22:45 06.11.2020
5805 Snow -7 1015 92 9656 1 0 22:45 06.11.2020
5806 Snow -7 1014 92 9656 0.5 120 22:20 06.11.2020
5807 Snow -7 1014 92 9656 0.5 120 21:56 06.11.2020
5808 Snow -7 1015 92 1207 1 20 21:37 06.11.2020
5809 Snow -8 1014 92 3219 0.5 90 21:18 06.11.2020
5810 Snow -8 1014 92 3219 0.5 90 20:43 06.11.2020
5811 Snow -8 1013 85 402 0.5 90 20:19 06.11.2020
5812 Snow -9 1013 85 402 0.5 90 19:45 06.11.2020
5813 Snow -9 1013 85 402 0.5 90 19:26 06.11.2020
5814 Snow -9 1013 85 402 0.5 80 18:47 06.11.2020
5815 Snow -9 1013 85 402 0.5 80 18:26 06.11.2020
5816 Snow -9 1013 92 402 1 0 17:52 06.11.2020
5817 Snow -9 1013 92 402 1 0 17:31 06.11.2020
5818 Snow -10 1013 92 402 0.5 0 16:58 06.11.2020
5819 Fog -11 1013 92 402 0.5 0 16:33 06.11.2020
5820 Snow -11 1013 85 402 0.5 20 15:55 06.11.2020
5821 Snow -11 1013 85 402 0.5 20 15:33 06.11.2020
5822 Snow -11 1012 92 1207 1.26 89 14:54 06.11.2020
5823 Snow -11 1012 92 1207 1.27 91 14:28 06.11.2020
5824 Fog -11 1012 92 805 1.27 91 13:50 06.11.2020
5825 Snow -11 1012 92 805 1.22 98 13:26 06.11.2020
5826 Snow -11 1012 92 1207 1.37 93 12:56 06.11.2020
5827 Snow -11 1012 92 1207 1.37 93 12:38 06.11.2020
5828 Snow -12 1012 92 114 1.02 93 12:18 06.11.2020
5829 Snow -12 1012 92 114 1.02 93 11:36 06.11.2020
5830 Snow -12 1012 85 2012 1.12 106 10:58 06.11.2020
5831 Snow -12 1012 85 2012 1.12 106 10:34 06.11.2020
5832 Snow -13 1012 85 1207 0.92 104 09:55 06.11.2020
5833 Snow -13 1012 85 1207 0.92 104 09:36 06.11.2020
5834 Snow -13 1011 84 1207 0.14 139 09:18 06.11.2020
5835 Snow -13 1011 84 1207 0.14 139 08:46 06.11.2020
5836 Snow -13 1011 84 2414 0.67 83 08:19 06.11.2020
5837 Snow -13 1011 84 2414 0.67 83 07:42 06.11.2020
5838 Snow -13 1012 78 2414 1.3 92 07:18 06.11.2020
5839 Snow -13 1012 78 6437 1.77 90 06:40 06.11.2020
5840 Clouds -14 1013 84 10000 1.76 90 05:37 06.11.2020
5841 Clouds -15 1017 77 10000 1.4 79 01:59 06.11.2020
5842 Clouds -16 1019 77 10000 1 0 00:29 06.11.2020
5843 Clouds -17 1021 77 10000 1.34 78 23:51 05.11.2020
5844 Clouds -17 1021 77 10000 1.39 100 23:24 05.11.2020
5845 Clouds -18 1022 76 10000 1.39 100 22:45 05.11.2020
5846 Clouds -19 1023 76 10000 0.5 50 22:26 05.11.2020
5847 Clouds -20 1023 76 10000 0.5 50 21:57 05.11.2020
5848 Clouds -19 1023 76 10000 0.5 50 21:38 05.11.2020
5849 Clouds -20 1025 76 10000 0.5 190 21:18 05.11.2020
5850 Clouds -21 1025 76 10000 0.5 190 20:43 05.11.2020
5851 Clouds -21 1024 69 10000 2.1 60 20:22 05.11.2020
5852 Clouds -23 1025 76 10000 1.94 58 19:44 05.11.2020
5853 Clouds -23 1025 76 10000 1.84 52 19:26 05.11.2020
5854 Clouds -23 1025 76 10000 1.84 52 19:26 05.11.2020
5855 Clouds -22 1025 76 10000 1.84 52 18:57 05.11.2020
5856 Clouds -22 1026 76 10000 1.7 55 18:39 05.11.2020
5857 Clouds -23 1027 76 10000 1.86 55 18:20 05.11.2020
5858 Clouds -23 1027 76 10000 1.86 55 17:43 05.11.2020
5859 Clouds -24 1027 75 10000 1.39 45 17:25 05.11.2020
5860 Clouds -24 1027 75 10000 1.39 45 16:48 05.11.2020
5861 Clouds -24 1027 75 10000 1.27 56 16:27 05.11.2020
5862 Clouds -23 1028 75 10000 1.27 56 15:53 05.11.2020
5863 Clouds -24 1028 75 10000 1.6 57 15:27 05.11.2020
5864 Clouds -25 1029 75 10000 1.6 57 14:57 05.11.2020
5865 Clouds -25 1029 75 10000 1.6 57 14:37 05.11.2020
5866 Snow -25 1028 68 10000 0.97 41 14:18 05.11.2020
5867 Snow -25 1028 68 10000 0.97 41 13:40 05.11.2020
5868 Clouds -26 1028 75 10000 1.21 46 12:56 05.11.2020
5869 Clouds -26 1028 75 10000 1.32 46 12:56 05.11.2020
5870 Clouds -26 1028 75 10000 1.32 46 12:38 05.11.2020
5871 Clouds -26 1028 82 10000 0.88 29 12:19 05.11.2020
5872 Clouds -26 1028 82 10000 0.88 29 11:41 05.11.2020
5873 Clouds -25 1028 82 10000 0.97 63 11:22 05.11.2020
5874 Clouds -26 1028 75 10000 0.97 63 10:48 05.11.2020
5875 Clouds -26 1028 75 10000 1.1 69 10:26 05.11.2020
5876 Clouds -25 1028 75 10000 1.1 69 09:49 05.11.2020
5877 Clouds -25 1028 75 10000 0.78 75 09:24 05.11.2020
5878 Clouds -25 1028 75 10000 0.78 75 08:49 05.11.2020
5879 Clouds -25 1028 75 10000 0.78 75 08:31 05.11.2020
5880 Clouds -26 1028 75 10000 0.56 75 07:55 05.11.2020
5881 Clouds -27 1027 67 10000 0.56 76 07:27 05.11.2020
5882 Clouds -29 1027 67 10000 1.5 70 06:43 05.11.2020
5883 Clouds -28 1027 67 10000 0.53 90 05:59 05.11.2020
5884 Clouds -27 1025 68 10000 0.46 122 02:42 05.11.2020
5885 Clouds -27 1024 75 10000 0.33 139 00:35 05.11.2020
5886 Clouds -28 1024 75 10000 0.63 151 23:51 04.11.2020
5887 Clouds -28 1024 75 10000 0.51 153 23:27 04.11.2020
5888 Clouds -29 1023 74 10000 0.51 153 22:57 04.11.2020
5889 Clouds -30 1023 74 10000 0.51 153 22:37 04.11.2020
5890 Clouds -32 1023 67 10000 0.56 156 22:19 04.11.2020
5891 Clouds -32 1023 67 10000 0.56 156 21:43 04.11.2020
5892 Clouds -32 1023 67 10000 0.56 142 21:25 04.11.2020
5893 Clouds -34 1022 66 10000 0.56 142 20:46 04.11.2020
5894 Clouds -34 1022 66 10000 0.42 144 20:28 04.11.2020
5895 Clouds -34 1020 67 10000 0.42 144 19:55 04.11.2020
5896 Clouds -34 1020 67 10000 0.42 144 19:37 04.11.2020
5897 Clear -34 1020 66 10000 0.44 139 19:19 04.11.2020
5898 Clear -34 1020 66 10000 0.6 150 18:39 04.11.2020
5899 Clear -34 1019 66 10000 0.62 168 18:21 04.11.2020
5900 Clear -32 1019 67 10000 0.62 168 17:46 04.11.2020
5901 Clear -34 1018 66 10000 0.68 178 17:25 04.11.2020
5902 Clear -34 1018 66 10000 0.68 178 16:45 04.11.2020
5903 Clear -34 1017 73 10000 0.92 193 16:25 04.11.2020
5904 Clear -34 1017 73 10000 0.92 193 15:55 04.11.2020
5905 Clear -34 1017 73 10000 0.92 193 15:37 04.11.2020
5906 Clear -33 1016 67 10000 0.99 205 15:18 04.11.2020
5907 Clear -33 1016 67 10000 0.99 205 14:42 04.11.2020
5908 Clouds -32 1015 67 10000 1.08 225 14:24 04.11.2020
5909 Clouds -32 1015 67 10000 1.08 225 13:50 04.11.2020
5910 Clouds -32 1015 67 10000 0.95 233 13:21 04.11.2020
5911 Clouds -33 1015 67 10000 0.95 233 12:56 04.11.2020
5912 Clouds -33 1015 67 10000 0.92 223 12:38 04.11.2020
5913 Clouds -32 1014 67 10000 0.81 230 12:19 04.11.2020
5914 Clouds -32 1014 67 10000 0.81 230 11:44 04.11.2020
5915 Clouds -32 1013 67 10000 0.6 238 11:21 04.11.2020
5916 Clouds -32 1013 67 10000 0.6 238 10:48 04.11.2020
5917 Clouds -32 1013 67 10000 0.32 237 10:23 04.11.2020
5918 Clouds -32 1012 74 10000 0.32 237 09:54 04.11.2020
5919 Clouds -32 1012 74 10000 0.24 266 09:26 04.11.2020
5920 Clouds -32 1012 74 10000 0.24 266 08:47 04.11.2020
5921 Clouds -32 1012 74 10000 0.27 250 08:22 04.11.2020
5922 Snow -31 1011 67 10000 0.27 250 07:56 04.11.2020
5923 Clouds -31 1011 74 10000 0.3 271 07:30 04.11.2020
5924 Clouds -31 1011 74 10000 0.3 271 06:57 04.11.2020
5925 Clouds -31 1011 74 10000 0.17 293 06:37 04.11.2020
5926 Clouds -28 1011 75 10000 0.54 300 04:18 04.11.2020
5927 Clouds -26 1011 75 10000 0.4 296 02:31 04.11.2020
5928 Mist -26 1011 75 10000 0.14 316 01:22 04.11.2020
5929 Mist -27 1012 75 10000 0.26 70 23:53 03.11.2020
5930 Mist -27 1012 75 10000 0.3 106 23:25 03.11.2020
5931 Mist -28 1012 75 10000 0.3 106 22:54 03.11.2020
5932 Mist -28 1012 75 10000 0.3 106 22:36 03.11.2020
5933 Mist -27 1013 74 8047 0.35 127 22:18 03.11.2020
5934 Mist -27 1013 74 8047 0.35 127 21:41 03.11.2020
5935 Mist -28 1013 74 8047 0.33 155 21:22 03.11.2020
5936 Fog -32 1013 67 10000 0.33 155 20:46 03.11.2020
5937 Fog -29 1013 67 10000 0.27 151 20:26 03.11.2020
5938 Clouds -30 1012 67 10000 0.27 151 19:46 03.11.2020
5939 Fog -32 1013 74 10000 0.03 158 19:27 03.11.2020
5940 Fog -32 1013 74 10000 0.11 68 18:57 03.11.2020
5941 Fog -32 1013 74 10000 0.11 68 18:38 03.11.2020
5942 Clouds -31 1013 74 10000 0.17 92 18:18 03.11.2020
5943 Clouds -31 1013 74 10000 0.17 92 17:43 03.11.2020
5944 Clouds -30 1013 67 10000 0.25 92 17:25 03.11.2020
5945 Clouds -29 1013 74 10000 0.25 92 16:45 03.11.2020
5946 Clouds -29 1013 74 10000 0.33 75 16:25 03.11.2020
5947 Clouds -29 1013 74 10000 0.33 75 15:52 03.11.2020
5948 Clouds -31 1013 74 10000 0.38 64 15:29 03.11.2020
5949 Clouds -31 1014 74 10000 0.38 64 14:53 03.11.2020
5950 Clouds -31 1014 74 10000 0.38 64 14:33 03.11.2020
5951 Clouds -31 1014 74 10000 1.5 50 13:47 03.11.2020
5952 Clear -31 1014 74 10000 0.38 68 13:26 03.11.2020
5953 Clear -30 1014 74 10000 0.4 77 12:59 03.11.2020
5954 Clear -30 1014 74 10000 0.4 77 12:41 03.11.2020
5955 Clear -30 1014 74 10000 0.41 110 12:20 03.11.2020
5956 Clear -30 1014 74 10000 0.41 110 11:46 03.11.2020
5957 Clear -30 1014 74 10000 0.56 126 11:22 03.11.2020
5958 Clouds -29 1014 75 10000 0.56 126 10:41 03.11.2020
5959 Clouds -28 1014 75 10000 0.56 123 10:22 03.11.2020
5960 Clouds -28 1014 74 10000 0.56 123 09:59 03.11.2020
5961 Clouds -29 1014 74 10000 0.56 123 09:41 03.11.2020
5962 Clouds -29 1014 74 10000 0.6 122 09:18 03.11.2020
5963 Clouds -29 1014 74 10000 0.6 122 08:44 03.11.2020
5964 Clouds -29 1014 74 10000 0.45 134 08:25 03.11.2020
5965 Clouds -29 1014 74 10000 0.45 134 07:35 03.11.2020
5966 Mist -28 1014 75 10000 0.33 149 06:53 03.11.2020
5967 Snow -27 1014 75 10000 0.45 156 06:20 03.11.2020
5968 Snow -25 1013 75 10000 0.69 196 03:38 03.11.2020
5969 Snow -22 1013 76 10000 1.02 200 00:43 03.11.2020
5970 Snow -23 1013 83 9656 1 215 00:20 03.11.2020
5971 Snow -23 1013 76 10000 1 215 23:41 02.11.2020
5972 Mist -23 1013 76 6437 0.94 211 22:57 02.11.2020
5973 Snow -23 1012 83 3219 0.94 211 22:37 02.11.2020
5974 Mist -24 1012 83 1609 0.74 221 22:19 02.11.2020
5975 Snow -24 1013 75 1609 0.74 221 21:39 02.11.2020
5976 Mist -25 1013 75 4828 0.54 217 21:20 02.11.2020
5977 Mist -25 1013 75 4828 0.54 217 20:42 02.11.2020
5978 Mist -24 1013 75 4828 1.5 50 20:20 02.11.2020
5979 Mist -24 1013 75 4828 1.5 50 19:59 02.11.2020
5980 Snow -23 1012 76 3219 2.6 30 19:41 02.11.2020
5981 Snow -25 1012 76 3219 2.6 30 19:21 02.11.2020
5982 Mist -26 1012 75 10000 1.5 70 18:41 02.11.2020
5983 Mist -26 1013 74 9656 0.76 206 18:21 02.11.2020
5984 Mist -26 1013 74 9656 0.76 206 17:56 02.11.2020
5985 Mist -26 1013 67 10000 0.76 206 17:38 02.11.2020
5986 Clouds -26 1013 67 10000 0.84 245 17:19 02.11.2020
5987 Clouds -26 1013 67 10000 0.84 245 16:40 02.11.2020
5988 Clouds -27 1014 74 10000 1.01 235 16:22 02.11.2020
5989 Clouds -27 1014 74 10000 1.01 235 15:40 02.11.2020
5990 Clear -28 1015 74 10000 0.89 229 15:21 02.11.2020
5991 Clear -28 1015 74 10000 0.89 229 14:53 02.11.2020
5992 Clear -26 1015 75 10000 0.68 282 14:20 02.11.2020
5993 Clear -26 1015 75 10000 0.68 282 13:54 02.11.2020
5994 Clear -26 1016 74 10000 0.57 315 13:23 02.11.2020
5995 Clear -27 1016 74 10000 0.57 315 12:59 02.11.2020
5996 Clear -26 1016 74 10000 0.55 326 12:31 02.11.2020
5997 Clear -26 1017 75 10000 0.55 326 11:58 02.11.2020
5998 Clear -26 1017 75 10000 0.55 326 11:38 02.11.2020
5999 Clear -26 1017 68 10000 0.5 319 11:19 02.11.2020
6000 Clear -24 1017 68 10000 0.5 319 10:42 02.11.2020
6001 Clear -25 1018 74 10000 0.43 343 10:21 02.11.2020
6002 Clear -25 1018 74 10000 0.43 343 09:49 02.11.2020
6003 Clear -25 1019 75 10000 0.57 356 09:24 02.11.2020
6004 Clear -25 1019 75 10000 0.57 356 08:45 02.11.2020
6005 Clear -23 1019 75 10000 0.61 1 08:24 02.11.2020
6006 Clear -24 1020 75 10000 0.61 1 07:50 02.11.2020
6007 Clear -24 1020 75 10000 0.61 1 07:50 02.11.2020
6008 Clear -22 1021 75 10000 0.79 23 06:59 02.11.2020
6009 Clear -22 1021 75 10000 0.79 23 06:36 02.11.2020
6010 Snow -19 1023 83 10000 0.55 62 03:27 02.11.2020
6011 Clear -18 1024 76 10000 0.51 118 01:25 02.11.2020
6012 Clouds -18 1024 84 10000 0.51 118 00:35 02.11.2020
6013 Clouds -17 1025 77 10000 0.65 126 23:42 01.11.2020
6014 Clouds -17 1025 77 10000 0.66 120 23:24 01.11.2020
6015 Clouds -19 1025 83 10000 1.5 70 22:46 01.11.2020
6016 Clouds -19 1025 83 10000 1.5 70 22:26 01.11.2020
6017 Mist -20 1025 83 9656 0.31 99 21:59 01.11.2020
6018 Clouds -20 1025 83 10000 1.5 70 21:39 01.11.2020
6019 Clouds -20 1025 83 10000 1.5 70 21:21 01.11.2020
6020 Clouds -21 1025 76 10000 2.1 80 20:42 01.11.2020
6021 Clouds -21 1025 76 10000 2.1 80 20:42 01.11.2020
6022 Clouds -21 1025 76 10000 2.1 80 20:24 01.11.2020
6023 Clear -24 1024 75 10000 0.13 277 19:44 01.11.2020
6024 Clear -24 1024 75 10000 0.38 296 19:26 01.11.2020
6025 Clear -22 1024 75 10000 0.33 320 18:55 01.11.2020
6026 Clear -23 1024 75 10000 0.38 296 18:36 01.11.2020
6027 Clear -22 1023 75 10000 0.57 306 18:18 01.11.2020
6028 Clear -23 1023 75 10000 0.57 306 17:43 01.11.2020
6029 Clear -21 1023 76 10000 0.71 302 17:24 01.11.2020
6030 Clear -22 1023 75 10000 0.71 302 17:24 01.11.2020
6031 Clear -20 1023 76 10000 0.71 302 16:42 01.11.2020
6032 Clear -20 1023 76 10000 0.84 303 16:24 01.11.2020
6033 Clear -20 1022 83 10000 0.84 303 15:55 01.11.2020
6034 Clear -20 1022 83 10000 0.84 303 15:37 01.11.2020
6035 Haze -19 1021 76 3621 0.96 307 15:18 01.11.2020
6036 Haze -19 1021 76 3621 0.96 307 14:45 01.11.2020
6037 Haze -19 1021 76 3621 1.04 306 14:22 01.11.2020
6038 Mist -19 1021 83 1609 1.04 306 13:50 01.11.2020
6039 Mist -19 1021 83 1810 1.04 306 13:32 01.11.2020
6040 Clouds -17 1020 84 10000 1.11 306 12:58 01.11.2020
6041 Clouds -17 1020 84 10000 1.11 306 12:38 01.11.2020
6042 Clouds -17 1020 84 10000 0.86 312 12:18 01.11.2020
6043 Clouds -16 1020 91 10000 0.86 312 11:46 01.11.2020
6044 Mist -15 1019 84 9656 0.8 311 11:18 01.11.2020
6045 Snow -15 1019 84 6437 0.8 311 10:42 01.11.2020
6046 Snow -15 1019 84 6437 0.79 314 10:23 01.11.2020
6047 Snow -15 1018 92 4828 0.79 314 09:48 01.11.2020
6048 Snow -15 1018 84 6437 0.72 316 08:55 01.11.2020
6049 Snow -15 1018 84 6437 0.72 316 08:36 01.11.2020
6050 Mist -15 1017 84 2414 0.56 311 07:50 01.11.2020
6051 Mist -14 1017 92 9656 0.31 2 06:23 01.11.2020
6052 Mist -14 1015 78 2414 0.66 97 01:58 01.11.2020
6053 Snow -14 1015 84 6437 1.5 130 01:23 01.11.2020
6054 Snow -14 1015 77 10000 1.24 133 23:42 31.10.2020
6055 Snow -14 1015 77 10000 1.2 132 23:23 31.10.2020
6056 Snow -14 1015 84 4828 1.5 170 22:44 31.10.2020
6057 Snow -14 1015 77 3219 3.1 140 22:23 31.10.2020
6058 Snow -14 1015 77 3219 3.1 140 21:46 31.10.2020
6059 Snow -14 1015 77 3219 3.1 140 21:21 31.10.2020
6060 Snow -15 1015 84 6437 0.95 123 20:41 31.10.2020
6061 Snow -15 1015 84 6437 0.89 124 20:20 31.10.2020
6062 Snow -15 1015 84 9656 0.89 124 19:44 31.10.2020
6063 Snow -15 1015 84 9656 1.02 127 19:24 31.10.2020
6064 Snow -15 1015 84 6437 1.02 127 18:59 31.10.2020
6065 Snow -15 1015 84 9656 1.02 133 18:40 31.10.2020
6066 Snow -14 1015 84 10000 0.98 140 17:47 31.10.2020
6067 Snow -14 1015 84 10000 0.98 143 17:26 31.10.2020
6068 Snow -15 1015 92 10000 1.5 220 16:56 31.10.2020
6069 Snow -14 1015 84 6437 0.98 143 16:34 31.10.2020
6070 Snow -13 1014 85 4828 0.98 140 15:55 31.10.2020
6071 Snow -13 1014 85 4828 0.72 132 15:26 31.10.2020
6072 Snow -13 1014 85 10000 1.5 130 14:55 31.10.2020
6073 Snow -13 1014 85 10000 1.5 130 14:32 31.10.2020
6074 Snow -13 1014 85 9656 1.5 100 13:57 31.10.2020
6075 Snow -13 1014 85 10000 2.1 80 13:39 31.10.2020
6076 Snow -13 1014 85 8047 2.1 80 13:19 31.10.2020
6077 Snow -13 1014 85 6437 2.6 80 12:27 31.10.2020
6078 Snow -13 1014 92 6437 2.6 60 11:42 31.10.2020
6079 Snow -13 1014 92 6437 2.6 60 11:24 31.10.2020
6080 Snow -13 1014 85 8047 0.88 76 10:54 31.10.2020
6081 Snow -13 1014 92 8047 0.88 76 10:33 31.10.2020
6082 Snow -13 1014 85 10000 0.95 62 09:41 31.10.2020
6083 Clouds -13 1014 85 10000 1.02 56 09:20 31.10.2020
6084 Clouds -13 1014 85 10000 1.02 53 08:28 31.10.2020
6085 Snow -13 1014 85 10000 1.02 53 07:48 31.10.2020
6086 Snow -13 1014 85 10000 1.04 64 07:26 31.10.2020
6087 Snow -13 1015 85 10000 1.09 61 06:38 31.10.2020
6088 Clouds -12 1015 85 10000 2.1 210 03:50 31.10.2020
6089 Snow -12 1015 85 3219 1.5 160 02:51 31.10.2020
6090 Snow -11 1015 85 6437 2.1 140 01:23 31.10.2020
6091 Snow -11 1015 85 8047 0.74 189 00:46 31.10.2020
6092 Snow -11 1015 85 6437 0.85 198 23:49 30.10.2020
6093 Snow -11 1015 85 6437 0.91 200 23:23 30.10.2020
6094 Snow -11 1015 85 8047 0.91 200 22:43 30.10.2020
6095 Snow -11 1015 85 8047 0.82 205 22:24 30.10.2020
6096 Snow -11 1015 85 8047 0.82 205 21:52 30.10.2020
6097 Snow -12 1015 92 9656 0.76 227 21:29 30.10.2020
6098 Snow -12 1015 92 8047 0.76 227 20:59 30.10.2020
6099 Mist -12 1015 92 8047 0.76 227 20:37 30.10.2020
6100 Snow -12 1015 92 8047 0.8 243 20:19 30.10.2020
6101 Snow -12 1015 92 8047 0.8 243 19:44 30.10.2020
6102 Snow -12 1014 85 9656 0.89 252 19:18 30.10.2020
6103 Snow -12 1014 85 9656 0.89 252 18:45 30.10.2020
6104 Snow -12 1014 85 9656 1.03 254 18:27 30.10.2020
6105 Snow -12 1014 85 9656 1.03 254 17:48 30.10.2020
6106 Snow -12 1014 85 10000 1.5 220 17:22 30.10.2020
6107 Snow -12 1014 85 10000 1.5 220 17:22 30.10.2020
6108 Snow -12 1014 85 10000 1.5 220 16:57 30.10.2020
6109 Snow -12 1014 85 10000 1.5 210 16:36 30.10.2020
6110 Snow -12 1014 85 10000 1.5 210 16:36 30.10.2020
6111 Snow -12 1014 85 10000 2.6 200 16:18 30.10.2020
6112 Snow -12 1014 85 10000 2.6 220 15:40 30.10.2020
6113 Snow -12 1014 85 9656 3.6 230 15:19 30.10.2020
6114 Snow -11 1014 85 6437 1.5 220 14:44 30.10.2020
6115 Snow -11 1014 85 6437 1.5 220 14:25 30.10.2020
6116 Snow -11 1014 85 9656 1.46 264 13:45 30.10.2020
6117 Snow -12 1014 78 10000 1.54 265 13:21 30.10.2020
6118 Snow -12 1014 78 10000 1.54 265 12:52 30.10.2020
6119 Snow -12 1014 85 10000 1.47 269 12:22 30.10.2020
6120 Clouds -12 1014 78 10000 1.47 269 11:56 30.10.2020
6121 Clouds -12 1014 85 10000 1.42 267 11:23 30.10.2020
6122 Clouds -12 1014 85 10000 1.42 267 10:52 30.10.2020
6123 Clouds -12 1014 85 10000 2.1 250 10:26 30.10.2020
6124 Clouds -12 1014 78 10000 1.33 268 09:59 30.10.2020
6125 Clouds -12 1014 78 10000 1.33 268 09:41 30.10.2020
6126 Snow -11 1014 72 10000 2.1 360 09:20 30.10.2020
6127 Clouds -11 1014 78 10000 1.39 274 08:36 30.10.2020
6128 Clouds -11 1014 85 10000 1.5 290 08:18 30.10.2020
6129 Clouds -11 1014 85 10000 1.5 290 08:18 30.10.2020
6130 Clouds -11 1014 85 10000 1.5 290 07:45 30.10.2020
6131 Clouds -11 1014 85 10000 1.5 290 07:26 30.10.2020
6132 Clouds -10 1014 78 10000 2.6 290 06:20 30.10.2020
6133 Clouds -10 1014 78 10000 2.1 310 04:23 30.10.2020
6134 Snow -8 1015 78 9656 2.1 330 01:28 30.10.2020
6135 Snow -8 1016 78 4426 2.1 340 00:31 30.10.2020
6136 Snow -8 1016 78 8047 1.5 320 23:47 29.10.2020
6137 Snow -8 1016 78 8047 1.5 320 23:29 29.10.2020
6138 Snow -8 1017 78 10000 0.16 21 22:48 29.10.2020
6139 Snow -8 1017 78 10000 0.44 48 22:27 29.10.2020
6140 Snow -8 1017 78 9656 0.44 48 21:51 29.10.2020
6141 Snow -9 1017 78 8047 0.48 42 21:26 29.10.2020
6142 Snow -9 1017 85 6437 0.48 42 20:59 29.10.2020
6143 Snow -9 1018 85 8047 1.5 20 20:39 29.10.2020
6144 Mist -9 1018 85 6437 1.5 20 20:18 29.10.2020
6145 Snow -10 1018 85 9656 0.58 48 19:39 29.10.2020
6146 Snow -10 1018 85 9656 0.62 65 19:20 29.10.2020
6147 Snow -10 1018 85 10000 1.5 40 18:46 29.10.2020
6148 Snow -10 1018 85 10000 1.5 40 18:26 29.10.2020
6149 Snow -9 1019 92 9656 4.1 40 17:43 29.10.2020
6150 Snow -9 1019 92 9656 4.1 40 17:24 29.10.2020
6151 Snow -9 1019 92 9656 4.1 40 16:55 29.10.2020
6152 Snow -9 1019 92 9656 3.6 50 16:37 29.10.2020
6153 Snow -9 1020 92 9656 0.54 88 16:18 29.10.2020
6154 Snow -9 1020 92 9656 0.54 88 15:41 29.10.2020
6155 Snow -9 1020 92 9656 0.52 94 15:22 29.10.2020
6156 Snow -9 1020 85 10000 1.5 110 14:59 29.10.2020
6157 Snow -9 1020 85 10000 0.52 94 14:40 29.10.2020
6158 Snow -9 1020 92 10000 1.5 140 14:19 29.10.2020
6159 Snow -9 1020 92 10000 1.5 140 13:45 29.10.2020
6160 Snow -8 1020 92 10000 1.5 140 13:24 29.10.2020
6161 Snow -9 1020 92 10000 1.5 140 12:43 29.10.2020
6162 Snow -8 1021 85 10000 0.28 116 12:19 29.10.2020
6163 Clouds -8 1020 85 10000 0.28 116 11:48 29.10.2020
6164 Clouds -8 1020 85 10000 0.34 137 11:26 29.10.2020
6165 Snow -9 1020 92 10000 0.34 137 10:57 29.10.2020
6166 Snow -9 1020 92 10000 0.34 137 10:36 29.10.2020
6167 Clouds -8 1021 85 10000 2.1 150 10:18 29.10.2020
6168 Clouds -8 1021 85 10000 2.1 150 09:42 29.10.2020
6169 Clouds -8 1021 92 10000 0.08 313 09:19 29.10.2020
6170 Clouds -8 1021 85 10000 2.1 220 08:40 29.10.2020
6171 Snow -8 1020 85 10000 0.28 281 08:19 29.10.2020
6172 Snow -8 1020 85 10000 0.28 281 07:48 29.10.2020
6173 Clouds -8 1020 92 10000 0.35 282 06:58 29.10.2020
6174 Clouds -8 1020 92 10000 0.47 255 06:24 29.10.2020
6175 Clouds -8 1020 92 10000 0.51 269 04:47 29.10.2020
6176 Clear -8 1016 93 10000 0.9 245 02:18 29.10.2020
6177 Clear -7 1022 87 10000 0.89 111 00:31 29.10.2020
6178 Clouds -8 1019 83 10000 1.14 255 23:59 28.10.2020
6179 Clouds -8 1019 92 1609 1.11 261 23:22 28.10.2020
6180 Clouds -8 1019 92 1609 1.11 261 22:56 28.10.2020
6181 Clouds -8 1019 92 1609 1.11 261 22:37 28.10.2020
6182 Mist -8 1019 92 8047 1.08 260 22:19 28.10.2020
6183 Mist -9 1019 92 8047 1.08 260 21:43 28.10.2020
6184 Mist -9 1019 92 8047 1.19 260 21:25 28.10.2020
6185 Clouds -10 1019 92 10000 1.5 130 20:43 28.10.2020
6186 Clouds -11 1019 92 10000 1.5 130 20:23 28.10.2020
6187 Clouds -12 1019 84 10000 1.27 252 19:53 28.10.2020
6188 Mist -12 1018 92 10000 1.27 252 19:30 28.10.2020
6189 Mist -11 1018 92 10000 1.46 248 18:51 28.10.2020
6190 Mist -11 1018 92 10000 1.6 249 18:22 28.10.2020
6191 Clouds -9 1018 92 10000 1.6 249 17:58 28.10.2020
6192 Clouds -9 1018 92 10000 1.6 249 17:39 28.10.2020
6193 Clouds -7 1018 92 10000 1.5 220 17:21 28.10.2020
6194 Clouds -7 1018 92 10000 1.79 253 16:44 28.10.2020
6195 Clouds -6 1016 93 10000 2.01 258 16:25 28.10.2020
6196 Clouds -6 1015 87 10000 2.01 258 15:41 28.10.2020
6197 Clouds -6 1015 87 10000 2.01 258 15:41 28.10.2020
6198 Clouds -6 1016 94 10000 2.11 261 15:19 28.10.2020
6199 Clouds -5 1015 88 10000 2.11 261 14:44 28.10.2020
6200 Clouds -5 1017 92 10000 4.1 230 14:26 28.10.2020
6201 Clouds -4 1016 95 7489 2.25 258 12:55 28.10.2020
6202 Clouds -4 1015 88 3809 2.07 250 12:36 28.10.2020
6203 Clouds -4 1016 94 1801 2.03 239 12:18 28.10.2020
6204 Clouds -4 1015 89 1801 2.03 239 11:41 28.10.2020
6205 Clouds -4 1016 93 1186 1.91 232 11:20 28.10.2020
6206 Clouds -4 1016 92 10000 3.6 220 10:53 28.10.2020
6207 Clouds -4 1016 92 10000 3.6 220 10:33 28.10.2020
6208 Clouds -4 1016 100 10000 5.1 220 09:46 28.10.2020
6209 Clouds -4 1016 100 10000 5.1 220 09:25 28.10.2020
6210 Clouds -3 1016 100 10000 4.1 210 08:56 28.10.2020
6211 Snow -4 1016 100 8047 3.6 210 08:37 28.10.2020
6212 Snow -4 1016 92 6437 2.6 220 08:18 28.10.2020
6213 Snow -4 1016 92 6437 2.6 220 07:41 28.10.2020
6214 Mist -3 1016 92 9656 2.6 200 07:19 28.10.2020
6215 Mist -3 1016 92 9656 2.6 200 06:39 28.10.2020
6216 Snow -3 1015 92 9656 2.1 240 05:48 28.10.2020
6217 Snow -3 1015 92 8047 2.1 220 04:52 28.10.2020
6218 Snow -3 1015 92 8047 2.1 220 04:23 28.10.2020
6219 Clouds -3 1014 86 10000 1.5 200 02:25 28.10.2020
6220 Clouds -2 1014 86 10000 2.1 240 00:39 28.10.2020
6221 Clouds -2 1014 80 10000 3.1 260 23:51 27.10.2020
6222 Snow -2 1014 92 8047 4.1 240 23:22 27.10.2020
6223 Snow -2 1014 92 8047 4.1 240 22:52 27.10.2020
6224 Snow -2 1014 92 8047 4.1 240 22:26 27.10.2020
6225 Clouds -3 1014 100 10000 3.09 232 21:58 27.10.2020
6226 Snow -3 1014 100 6437 3.09 232 21:39 27.10.2020
6227 Snow -3 1014 92 6437 1 40 21:20 27.10.2020
6228 Snow -3 1014 92 6437 1 40 20:54 27.10.2020
6229 Snow -3 1014 92 6437 1 40 20:36 27.10.2020
6230 Snow -4 1013 100 4828 2.1 70 20:18 27.10.2020
6231 Mist -4 1013 100 4828 2.1 70 19:39 27.10.2020
6232 Snow -4 1013 100 6437 2.1 70 19:20 27.10.2020
6233 Mist -4 1013 100 6437 2.1 70 18:57 27.10.2020
6234 Snow -4 1013 100 6437 2.1 70 18:39 27.10.2020
6235 Snow -4 1013 100 8047 1.5 80 18:18 27.10.2020
6236 Snow -4 1013 100 4023 2.1 60 17:42 27.10.2020
6237 Snow -4 1013 100 4828 2.1 60 17:21 27.10.2020
6238 Snow -4 1013 100 4828 2.1 60 17:21 27.10.2020
6239 Snow -4 1013 100 4828 2.1 60 17:21 27.10.2020
6240 Snow -4 1013 100 8047 2.6 60 16:48 27.10.2020
6241 Snow -4 1013 100 8047 2.6 60 16:25 27.10.2020
6242 Snow -4 1013 100 8047 2.1 60 15:48 27.10.2020
6243 Snow -4 1013 100 8047 2.1 60 15:30 27.10.2020
6244 Snow -4 1012 86 9656 0.83 131 14:55 27.10.2020
6245 Snow -4 1012 86 9656 0.83 131 14:37 27.10.2020
6246 Snow -4 1012 100 8047 0.78 120 14:19 27.10.2020
6247 Mist -4 1012 100 8047 0.78 120 13:33 27.10.2020
6248 Snow -4 1012 100 10000 0.4 110 12:58 27.10.2020
6249 Snow -4 1012 92 10000 1.5 190 12:38 27.10.2020
6250 Clouds -4 1011 92 10000 1.5 230 12:20 27.10.2020
6251 Clouds -4 1011 92 10000 1.5 230 11:42 27.10.2020
6252 Clouds -5 1010 92 10000 2.1 260 11:22 27.10.2020
6253 Clouds -5 1010 92 10000 2.1 260 10:47 27.10.2020
6254 Clouds -5 1010 92 10000 2.1 260 10:25 27.10.2020
6255 Clouds -4 1009 92 10000 2.1 250 09:46 27.10.2020
6256 Clouds -5 1009 92 10000 2.1 250 09:25 27.10.2020
6257 Clouds -5 1008 85 10000 4.1 220 08:39 27.10.2020
6258 Clouds -5 1007 92 10000 3.6 250 08:19 27.10.2020
6259 Clouds -5 1007 92 10000 3.6 250 07:45 27.10.2020
6260 Clouds -5 1007 92 10000 3.6 250 07:25 27.10.2020
6261 Snow -5 1004 92 10000 3.6 270 06:22 27.10.2020
6262 Snow -4 1004 92 10000 3.6 270 05:52 27.10.2020
6263 Snow -5 1004 92 10000 3.6 270 05:34 27.10.2020
6264 Clouds -4 1003 86 10000 3.6 280 04:44 27.10.2020
6265 Clouds -3 1000 79 10000 3.6 280 02:33 27.10.2020
6266 Mist -3 997 92 3219 1.95 281 00:57 27.10.2020
6267 Snow -2 995 92 6437 1.87 300 23:44 26.10.2020
6268 Snow -2 994 92 2012 1.99 316 23:22 26.10.2020
6269 Snow -1 994 92 2012 1.99 316 22:47 26.10.2020
6270 Mist -1 994 92 2012 2.36 327 22:26 26.10.2020
6271 Snow -1 992 92 2012 2.36 327 21:49 26.10.2020
6272 Mist -1 992 92 2414 2.42 335 21:21 26.10.2020
6273 Snow -1 992 92 2414 2.42 335 20:58 26.10.2020
6274 Snow -2 991 100 10000 2.42 335 20:39 26.10.2020
6275 Snow -2 990 92 2615 2.71 330 20:19 26.10.2020
6276 Mist -2 990 92 9656 2.71 330 19:47 26.10.2020
6277 Mist -2 990 92 9656 2.43 331 19:23 26.10.2020
6278 Mist -2 989 100 4828 2.1 70 18:44 26.10.2020
6279 Mist -2 989 100 4828 2.1 70 18:24 26.10.2020
6280 Snow -2 989 92 4828 3.6 70 17:59 26.10.2020
6281 Snow -2 988 92 3621 5.7 50 17:39 26.10.2020
6282 Snow -2 988 92 4426 5.1 50 17:21 26.10.2020
6283 Snow -2 988 100 1609 4.6 40 16:40 26.10.2020
6284 Snow -1 988 97 3017 3.6 50 16:21 26.10.2020
6285 Mist -1 988 97 3621 4.1 50 15:42 26.10.2020
6286 Snow -1 988 97 3621 4.1 50 15:22 26.10.2020
6287 Snow -1 989 97 3017 2.6 50 14:53 26.10.2020
6288 Snow -1 989 97 3017 2.6 50 14:32 26.10.2020
6289 Snow -1 990 97 2213 4.1 50 13:44 26.10.2020
6290 Rain 0 990 97 2213 4.1 50 13:24 26.10.2020
6291 Snow 0 991 98 2213 5.7 50 12:52 26.10.2020
6292 Mist 0 991 97 2012 5.7 50 12:30 26.10.2020
6293 Mist 0 992 97 2213 4.6 50 11:57 26.10.2020
6294 Mist 0 994 86 3219 5.1 50 11:39 26.10.2020
6295 Rain 1 997 64 10000 7.7 80 11:21 26.10.2020
6296 Rain 1 997 64 10000 7.7 80 10:48 26.10.2020
6297 Rain 2 997 64 10000 7.7 80 10:26 26.10.2020
6298 Rain 1 998 59 10000 8.7 80 09:51 26.10.2020
6299 Clouds 1 999 64 10000 2.6 90 09:29 26.10.2020
6300 Clear 0 1002 93 10000 2.1 40 08:54 26.10.2020
6301 Clear -1 1002 94 10000 2.1 40 08:24 26.10.2020
6302 Clear -1 1003 86 10000 3.1 60 07:38 26.10.2020
6303 Clear -1 1003 86 10000 3.1 60 07:38 26.10.2020
6304 Clear -1 1003 86 10000 3.1 60 07:38 26.10.2020
6305 Clear -1 1005 86 10000 2.07 57 07:20 26.10.2020
6306 Clear -2 1007 86 10000 1.5 290 05:31 26.10.2020
6307 Clear -1 1010 80 10000 2.6 70 04:19 26.10.2020
6308 Clear -2 1012 86 10000 2.11 45 03:21 26.10.2020
6309 Clear -1 1014 86 10000 1.72 61 01:34 26.10.2020
6310 Clear -1 1015 79 10000 1.68 40 00:35 26.10.2020
6311 Clear -2 1016 79 10000 1.54 51 23:47 25.10.2020
6312 Clear -2 1016 79 10000 1.59 52 23:28 25.10.2020
6313 Clear -2 1017 85 10000 1.59 52 22:45 25.10.2020
6314 Clear -2 1017 85 10000 1.54 47 22:27 25.10.2020
6315 Clear -2 1018 85 10000 1.54 47 21:51 25.10.2020
6316 Clear -3 1018 85 10000 1.54 47 21:31 25.10.2020
6317 Clouds -3 1018 92 10000 1.52 42 20:59 25.10.2020
6318 Clouds -3 1018 92 10000 1.52 42 20:41 25.10.2020
6319 Clouds -4 1018 92 10000 1.3 61 20:23 25.10.2020
6320 Clouds -3 1019 92 10000 1.3 61 19:55 25.10.2020
6321 Clouds -3 1019 92 10000 1.3 61 19:37 25.10.2020
6322 Clouds -3 1019 85 10000 1.31 59 19:18 25.10.2020
6323 Clouds -4 1019 85 10000 1.54 43 18:41 25.10.2020
6324 Clouds -4 1019 85 10000 1.54 43 18:41 25.10.2020
6325 Clouds -3 1020 92 10000 1.18 35 18:22 25.10.2020
6326 Clouds -4 1020 92 10000 1.18 35 17:55 25.10.2020
6327 Clouds -3 1020 92 10000 1.18 35 17:37 25.10.2020
6328 Clouds -3 1020 85 10000 0.93 67 17:18 25.10.2020
6329 Clouds -3 1020 85 10000 0.93 67 17:18 25.10.2020
6330 Clouds -4 1020 85 10000 0.93 67 16:43 25.10.2020
6331 Clouds -4 1020 85 10000 1.01 84 16:23 25.10.2020
6332 Clouds -3 1020 85 10000 1.01 84 15:47 25.10.2020
6333 Clouds -3 1020 85 10000 1.01 84 15:47 25.10.2020
6334 Clouds -3 1020 85 10000 1.28 83 15:27 25.10.2020
6335 Clouds -4 1020 85 10000 1.28 83 14:53 25.10.2020
6336 Clouds -4 1020 85 10000 0.75 67 14:29 25.10.2020
6337 Clouds -4 1020 92 10000 0.75 67 13:45 25.10.2020
6338 Clouds -4 1020 92 10000 0.86 92 13:24 25.10.2020
6339 Clouds -5 1020 92 10000 0.86 92 12:56 25.10.2020
6340 Clouds -5 1020 92 10000 0.9 95 12:38 25.10.2020
6341 Clouds -5 1020 92 10000 0.82 92 12:18 25.10.2020
6342 Clouds -5 1020 92 10000 0.82 92 11:42 25.10.2020
6343 Clouds -4 1021 92 10000 0.36 15 11:19 25.10.2020
6344 Clouds -4 1021 92 10000 0.36 15 10:46 25.10.2020
6345 Clouds -4 1021 92 10000 0.99 61 10:26 25.10.2020
6346 Clouds -4 1020 85 10000 0.99 61 09:52 25.10.2020
6347 Clouds -4 1020 85 10000 0.75 35 09:22 25.10.2020
6348 Clouds -3 1020 73 10000 0.75 35 08:59 25.10.2020
6349 Clouds -3 1020 73 10000 0.75 35 08:40 25.10.2020
6350 Clouds -3 1020 73 10000 1.23 53 08:22 25.10.2020
6351 Clouds -3 1021 85 10000 1.23 53 07:44 25.10.2020
6352 Clouds -4 1021 85 10000 1.01 81 06:53 25.10.2020
6353 Clouds -4 1021 85 10000 1.15 58 06:28 25.10.2020
6354 Clouds -4 1020 85 10000 1.25 61 05:20 25.10.2020
6355 Clouds -4 1020 85 10000 1.25 61 04:50 25.10.2020
6356 Clouds -2 1022 68 10000 0.88 32 02:37 25.10.2020
6357 Clouds -2 1023 73 10000 0.81 84 00:54 25.10.2020
6358 Clouds -3 1023 73 10000 0.53 79 00:29 25.10.2020
6359 Clouds -3 1024 79 10000 0.53 79 23:57 24.10.2020
6360 Clouds -3 1024 79 10000 0.53 79 23:36 24.10.2020
6361 Clouds -4 1024 92 10000 1.27 62 22:59 24.10.2020
6362 Clouds -4 1024 92 10000 1.27 62 22:41 24.10.2020
6363 Clouds -5 1024 92 10000 1.17 62 22:22 24.10.2020
6364 Clouds -6 1025 85 10000 1.17 62 21:55 24.10.2020
6365 Clouds -6 1025 85 10000 1.17 62 21:36 24.10.2020
6366 Clouds -7 1025 85 10000 1.36 48 21:18 24.10.2020
6367 Clouds -7 1025 85 10000 1.36 48 20:42 24.10.2020
6368 Clouds -7 1025 85 10000 1.28 65 20:20 24.10.2020
6369 Clear -7 1025 92 10000 1.05 59 19:41 24.10.2020
6370 Clear -7 1025 92 10000 1.19 53 19:23 24.10.2020
6371 Clear -8 1025 92 10000 1.19 53 18:51 24.10.2020
6372 Clear -8 1025 92 10000 1.19 53 18:31 24.10.2020
6373 Clouds -8 1025 85 10000 1.37 56 17:46 24.10.2020
6374 Clouds -8 1025 85 10000 0.98 56 17:26 24.10.2020
6375 Clouds -9 1025 92 10000 0.98 56 16:57 24.10.2020
6376 Clouds -9 1025 92 10000 0.98 56 16:39 24.10.2020
6377 Clouds -8 1025 92 10000 0.56 64 15:58 24.10.2020
6378 Clouds -8 1025 92 10000 0.56 64 15:38 24.10.2020
6379 Clouds -8 1026 92 10000 0.78 91 15:18 24.10.2020
6380 Clouds -8 1026 92 10000 0.78 91 14:39 24.10.2020
6381 Clouds -7 1026 85 10000 0.89 96 14:21 24.10.2020
6382 Clouds -7 1026 85 10000 0.62 120 13:44 24.10.2020
6383 Clouds -7 1026 85 10000 0.3 77 13:20 24.10.2020
6384 Clouds -7 1026 85 10000 0.3 77 12:41 24.10.2020
6385 Clouds -7 1026 92 10000 0.62 104 12:20 24.10.2020
6386 Clouds -7 1026 92 10000 0.47 109 11:50 24.10.2020
6387 Clouds -8 1026 92 10000 0.66 107 11:23 24.10.2020
6388 Clear -6 1026 92 10000 0.66 107 10:47 24.10.2020
6389 Clear -6 1026 92 10000 0.86 80 10:27 24.10.2020
6390 Clouds -6 1026 92 10000 0.86 80 09:48 24.10.2020
6391 Clouds -6 1026 92 10000 1.04 55 09:26 24.10.2020
6392 Clouds -4 1028 51 10000 1.04 55 08:57 24.10.2020
6393 Clear -5 1027 92 10000 1.21 71 08:19 24.10.2020
6394 Clear -5 1027 92 10000 1.21 71 07:51 24.10.2020
6395 Clear -5 1027 85 10000 1.05 73 07:21 24.10.2020
6396 Clear -6 1027 85 10000 1.05 73 06:50 24.10.2020
6397 Clear -5 1027 79 10000 0.8 80 05:47 24.10.2020
6398 Clouds -4 1027 85 10000 1.5 0 02:26 24.10.2020
6399 Clear -6 1028 85 10000 1.55 80 00:57 24.10.2020
6400 Clear -7 1028 85 10000 1.55 80 00:37 24.10.2020
6401 Clear -7 1028 85 10000 1.55 80 00:37 24.10.2020
6402 Clear -7 1029 84 10000 2.03 80 00:19 24.10.2020
6403 Clear -8 1029 84 10000 2.03 80 23:43 23.10.2020
6404 Clear -9 1029 84 10000 1.74 70 23:22 23.10.2020
6405 Clear -9 1029 84 10000 1.74 70 22:42 23.10.2020
6406 Clear -9 1029 84 10000 1.84 70 22:22 23.10.2020
6407 Clear -12 1029 84 10000 1.84 70 21:59 23.10.2020
6408 Clear -10 1029 84 10000 1.84 70 21:39 23.10.2020
6409 Clear -11 1029 84 10000 1.96 68 21:21 23.10.2020
6410 Clouds -14 1028 84 10000 1.5 40 20:39 23.10.2020
6411 Clear -14 1029 77 10000 2.01 56 20:20 23.10.2020
6412 Clear -15 1029 77 10000 1.89 65 19:48 23.10.2020
6413 Clear -15 1029 77 10000 2.13 59 19:29 23.10.2020
6414 Clear -15 1030 84 10000 2.13 59 18:49 23.10.2020
6415 Clear -15 1030 84 10000 2.13 59 18:30 23.10.2020
6416 Clear -15 1030 84 10000 1.49 70 17:47 23.10.2020
6417 Clear -13 1030 84 10000 1.95 59 17:22 23.10.2020
6418 Clear -13 1030 84 10000 1.95 59 16:56 23.10.2020
6419 Clear -13 1030 84 10000 1.95 59 16:56 23.10.2020
6420 Clear -13 1030 84 10000 1.95 59 16:35 23.10.2020
6421 Clear -14 1030 84 10000 2.03 70 15:58 23.10.2020
6422 Clear -14 1030 84 10000 2.03 70 15:40 23.10.2020
6423 Clear -10 1031 77 10000 1.81 77 15:20 23.10.2020
6424 Clear -11 1031 77 10000 1.81 77 14:49 23.10.2020
6425 Clear -11 1031 84 10000 1.81 77 14:30 23.10.2020
6426 Clear -13 1031 84 10000 2.37 60 13:44 23.10.2020
6427 Clear -15 1031 84 10000 1.85 63 13:24 23.10.2020
6428 Clear -12 1032 84 10000 1.85 63 12:52 23.10.2020
6429 Clear -12 1032 84 10000 1.85 63 12:31 23.10.2020
6430 Clear -11 1033 84 10000 1.51 75 11:59 23.10.2020
6431 Clear -11 1033 84 10000 1.51 75 11:41 23.10.2020
6432 Clear -12 1033 84 10000 1.99 70 11:20 23.10.2020
6433 Clear -12 1033 84 10000 1.99 70 10:39 23.10.2020
6434 Clear -10 1033 92 10000 2.05 63 10:20 23.10.2020
6435 Clear -10 1033 92 10000 2.05 63 09:43 23.10.2020
6436 Clear -11 1033 92 10000 2.25 60 09:23 23.10.2020
6437 Clear -9 1033 84 10000 1.5 10 08:52 23.10.2020
6438 Clear -10 1034 85 10000 2.03 63 08:28 23.10.2020
6439 Clear -9 1034 85 10000 2.15 72 07:27 23.10.2020
6440 Clear -7 1034 85 10000 2.15 72 06:52 23.10.2020
6441 Clear -7 1034 85 10000 1.97 59 06:20 23.10.2020
6442 Clear -5 1034 73 10000 1.74 58 04:42 23.10.2020
6443 Clear -4 1035 62 10000 1.73 77 02:28 23.10.2020
6444 Clear -4 1036 67 10000 3.1 80 00:56 23.10.2020
6445 Clear -4 1036 67 10000 3.1 80 00:33 23.10.2020
6446 Clear -5 1036 67 10000 2.6 80 23:39 22.10.2020
6447 Clear -6 1037 78 10000 1.5 80 23:19 22.10.2020
6448 Clear -6 1037 78 10000 1.5 80 22:46 22.10.2020
6449 Clear -6 1037 78 10000 1.5 80 22:26 22.10.2020
6450 Clear -8 1037 85 10000 3.6 60 21:58 22.10.2020
6451 Clear -8 1037 85 10000 3.6 60 21:38 22.10.2020
6452 Clear -7 1038 82 10000 1.76 60 21:18 22.10.2020
6453 Clear -8 1036 85 10000 2.6 50 20:43 22.10.2020
6454 Clear -9 1037 92 10000 3.6 70 20:24 22.10.2020
6455 Clear -9 1037 92 10000 3.6 70 19:44 22.10.2020
6456 Clear -9 1037 92 10000 4.1 60 19:21 22.10.2020
6457 Clear -9 1037 92 10000 4.1 60 18:58 22.10.2020
6458 Clear -9 1037 92 10000 4.1 60 18:37 22.10.2020
6459 Clear -9 1037 92 10000 2.1 60 18:18 22.10.2020
6460 Clear -9 1037 92 10000 2.1 60 17:43 22.10.2020
6461 Clouds -8 1038 85 10000 3.1 50 17:20 22.10.2020
6462 Clouds -8 1038 85 10000 3.1 50 16:45 22.10.2020
6463 Clouds -8 1038 85 10000 3.1 50 16:24 22.10.2020
6464 Clouds -7 1038 79 10000 3.1 60 15:49 22.10.2020
6465 Clouds -6 1038 85 10000 2.6 60 15:27 22.10.2020
6466 Clouds -6 1038 85 10000 2.6 60 14:55 22.10.2020
6467 Clouds -6 1038 85 10000 2.6 60 14:36 22.10.2020
6468 Clouds -6 1039 85 10000 3.6 60 14:18 22.10.2020
6469 Clouds -6 1039 85 10000 3.6 60 13:41 22.10.2020
6470 Clouds -5 1039 79 10000 3.6 70 13:22 22.10.2020
6471 Clouds -5 1039 85 10000 3.1 70 12:31 22.10.2020
6472 Clouds -5 1039 85 10000 3.6 50 11:58 22.10.2020
6473 Clouds -5 1039 85 10000 3.6 50 11:38 22.10.2020
6474 Clouds -5 1039 85 10000 3.1 50 11:18 22.10.2020
6475 Clouds -5 1039 85 10000 3.1 50 10:46 22.10.2020
6476 Clouds -5 1039 85 10000 3.1 50 10:24 22.10.2020
6477 Clouds -5 1039 85 10000 3.1 50 09:42 22.10.2020
6478 Clouds -5 1039 85 10000 1.5 60 09:18 22.10.2020
6479 Clouds -5 1040 85 10000 3.1 60 08:39 22.10.2020
6480 Clouds -5 1040 85 10000 3.1 60 08:20 22.10.2020
6481 Clouds -5 1040 85 10000 3.1 70 07:43 22.10.2020
6482 Clouds -5 1040 85 10000 2.6 70 07:18 22.10.2020
6483 Clouds -5 1040 85 10000 2.6 70 06:41 22.10.2020
6484 Clouds -5 1040 85 10000 3.6 60 06:23 22.10.2020
6485 Clouds -4 1040 85 10000 3.6 60 05:38 22.10.2020
6486 Clouds -4 1040 79 10000 3.1 70 03:25 22.10.2020
6487 Clouds -4 1041 92 10000 0.65 86 00:50 22.10.2020
6488 Clouds -4 1041 92 10000 0.67 82 00:21 22.10.2020
6489 Clouds -4 1041 92 10000 0.67 82 23:42 21.10.2020
6490 Clouds -5 1041 92 10000 1.5 60 22:59 21.10.2020
6491 Clouds -5 1041 92 10000 1.5 60 22:37 21.10.2020
6492 Mist -5 1041 92 9656 0.5 0 22:19 21.10.2020
6493 Clouds -5 1041 92 10000 0.75 64 21:45 21.10.2020
6494 Clouds -5 1041 92 10000 0.5 0 21:19 21.10.2020
6495 Clouds -5 1041 92 10000 0.5 0 20:57 21.10.2020
6496 Clouds -6 1041 92 10000 0.5 0 20:39 21.10.2020
6497 Clouds -5 1041 85 10000 0.5 130 20:18 21.10.2020
6498 Clouds -6 1041 85 10000 0.5 130 19:40 21.10.2020
6499 Clouds -6 1041 85 10000 0.5 130 19:22 21.10.2020
6500 Clouds -6 1041 85 10000 0.5 130 18:49 21.10.2020
6501 Clouds -6 1041 85 10000 0.5 130 18:27 21.10.2020
6502 Clouds -6 1041 85 10000 1 150 17:50 21.10.2020
6503 Clouds -6 1040 85 10000 1 40 17:22 21.10.2020
6504 Clouds -6 1040 85 10000 1 40 16:58 21.10.2020
6505 Clouds -6 1040 85 10000 1 40 16:38 21.10.2020
6506 Clouds -6 1040 85 10000 1 40 16:19 21.10.2020
6507 Clouds -6 1040 85 10000 1.5 40 15:45 21.10.2020
6508 Clouds -6 1040 85 10000 1.5 40 15:21 21.10.2020
6509 Clouds -6 1040 85 10000 0.62 51 14:49 21.10.2020
6510 Clouds -6 1040 85 10000 0.56 65 14:29 21.10.2020
6511 Clouds -6 1040 85 10000 1 170 13:57 21.10.2020
6512 Clouds -6 1040 85 10000 1 170 13:39 21.10.2020
6513 Clouds -6 1040 85 10000 1 170 13:20 21.10.2020
6514 Clouds -6 1040 85 10000 0.73 77 12:38 21.10.2020
6515 Clouds -6 1040 85 10000 0.78 79 12:19 21.10.2020
6516 Clouds -6 1039 85 10000 0.5 360 11:41 21.10.2020
6517 Clouds -6 1039 85 10000 0.5 360 11:20 21.10.2020
6518 Clouds -6 1038 85 10000 0.5 50 10:47 21.10.2020
6519 Clouds -6 1038 85 10000 0.5 50 10:26 21.10.2020
6520 Clouds -6 1038 85 10000 0.47 95 09:57 21.10.2020
6521 Clouds -6 1038 85 10000 0.47 95 09:35 21.10.2020
6522 Clouds -6 1037 85 10000 0.51 128 08:57 21.10.2020
6523 Clouds -6 1037 85 10000 0.51 128 08:39 21.10.2020
6524 Clouds -6 1037 85 10000 0.49 133 08:21 21.10.2020
6525 Clouds -6 1037 85 10000 0.34 129 07:38 21.10.2020
6526 Clouds -6 1037 85 10000 0.4 112 06:55 21.10.2020
6527 Clouds -6 1037 85 10000 0.4 112 06:32 21.10.2020
6528 Clouds -6 1035 85 10000 0.32 209 04:47 21.10.2020
6529 Snow -6 1035 85 6437 0.5 130 02:26 21.10.2020
6530 Snow -7 1033 85 6437 1 0 23:51 20.10.2020
6531 Snow -7 1032 85 6437 0.5 0 23:20 20.10.2020
6532 Snow -8 1032 85 6437 0.5 0 22:36 20.10.2020
6533 Snow -8 1032 85 6437 0.5 0 22:18 20.10.2020
6534 Snow -8 1031 78 10000 1.5 40 21:45 20.10.2020
6535 Snow -8 1031 78 10000 1.5 40 21:18 20.10.2020
6536 Clouds -10 1030 85 10000 1 120 20:42 20.10.2020
6537 Clouds -10 1030 85 10000 1 120 20:23 20.10.2020
6538 Snow -10 1029 85 10000 0.5 120 19:44 20.10.2020
6539 Snow -10 1029 85 10000 0.5 120 19:22 20.10.2020
6540 Clouds -10 1029 85 10000 0.5 0 18:56 20.10.2020
6541 Clouds -10 1029 85 10000 0.5 0 18:37 20.10.2020
6542 Clouds -9 1028 85 10000 0.5 100 17:50 20.10.2020
6543 Clouds -9 1028 85 10000 0.5 100 17:32 20.10.2020
6544 Clouds -9 1027 85 10000 0.62 350 16:56 20.10.2020
6545 Clouds -8 1027 85 10000 0.62 350 16:38 20.10.2020
6546 Clouds -8 1027 85 10000 0.57 341 16:20 20.10.2020
6547 Mist -8 1026 92 8047 0.57 341 15:41 20.10.2020
6548 Mist -8 1026 92 8047 0.5 341 15:22 20.10.2020
6549 Clouds -8 1025 78 10000 0.5 341 14:44 20.10.2020
6550 Clouds -8 1025 78 10000 0.47 342 14:24 20.10.2020
6551 Mist -8 1025 92 9656 0.44 357 13:57 20.10.2020
6552 Clouds -8 1025 85 10000 0.44 357 13:38 20.10.2020
6553 Mist -9 1025 92 9656 0.43 2 13:19 20.10.2020
6554 Mist -8 1024 92 9656 0.43 2 12:46 20.10.2020
6555 Snow -8 1024 92 9656 0.45 5 12:28 20.10.2020
6556 Snow -8 1024 92 8047 0.45 5 11:46 20.10.2020
6557 Snow -7 1024 92 8047 0.57 5 11:27 20.10.2020
6558 Snow -7 1023 92 4828 0.57 5 10:40 20.10.2020
6559 Snow -7 1023 92 4828 0.65 9 10:22 20.10.2020
6560 Snow -7 1022 85 4828 0.65 9 09:44 20.10.2020
6561 Snow -7 1022 85 4828 0.6 16 09:19 20.10.2020
6562 Snow -7 1022 92 6437 0.6 16 08:39 20.10.2020
6563 Snow -7 1021 85 4023 0.81 17 07:54 20.10.2020
6564 Mist -7 1021 85 4023 0.86 20 07:26 20.10.2020
6565 Snow -6 1021 85 4023 0.86 20 06:55 20.10.2020
6566 Snow -6 1021 85 4023 0.89 26 06:18 20.10.2020
6567 Snow -6 1020 85 2012 0.61 40 03:59 20.10.2020
6568 Mist -6 1020 85 2012 0.5 140 02:30 20.10.2020
6569 Snow -6 1020 79 2012 1 130 01:22 20.10.2020
6570 Mist -7 1020 85 2012 2.1 50 00:50 20.10.2020
6571 Snow -7 1020 85 2012 2.1 50 00:24 20.10.2020
6572 Snow -7 1020 85 3219 0.5 0 23:49 19.10.2020
6573 Snow -7 1020 85 3219 0.5 0 23:24 19.10.2020
6574 Snow -7 1020 85 3219 0.5 0 23:24 19.10.2020
6575 Snow -8 1020 85 3219 0.5 0 22:51 19.10.2020
6576 Snow -8 1019 85 3219 1 0 22:26 19.10.2020
6577 Mist -8 1019 85 3219 1 0 21:50 19.10.2020
6578 Snow -8 1019 85 2012 1 0 21:24 19.10.2020
6579 Snow -9 1019 85 2816 1 120 20:59 19.10.2020
6580 Snow -9 1019 85 2816 1 120 20:39 19.10.2020
6581 Snow -9 1019 85 2816 1 120 20:39 19.10.2020
6582 Mist -9 1019 85 2816 1 120 20:18 19.10.2020
6583 Snow -9 1019 85 3219 1 120 19:42 19.10.2020
6584 Snow -9 1019 85 3219 1 120 19:19 19.10.2020
6585 Snow -9 1019 85 4828 0.5 0 18:49 19.10.2020
6586 Snow -9 1019 85 4828 0.5 0 18:20 19.10.2020
6587 Snow -8 1019 85 4800 0.58 111 17:47 19.10.2020
6588 Snow -8 1019 85 4800 0.54 111 17:26 19.10.2020
6589 Snow -8 1019 85 4800 1 120 16:53 19.10.2020
6590 Mist -8 1019 85 4800 1 120 16:29 19.10.2020
6591 Snow -9 1016 84 267 0.5 114 15:47 19.10.2020
6592 Snow -9 1020 81 248 0.49 115 15:26 19.10.2020
6593 Snow -9 1018 75 248 0.49 115 14:57 19.10.2020
6594 Snow -9 1016 83 248 0.49 115 14:36 19.10.2020
6595 Snow -9 1021 89 267 0.4 113 14:18 19.10.2020
6596 Snow -9 1020 79 267 0.4 113 13:42 19.10.2020
6597 Clouds -9 1016 82 10000 0.53 193 13:22 19.10.2020
6598 Clouds -9 1016 82 10000 0.53 193 12:43 19.10.2020
6599 Clouds -9 1017 71 10000 0.72 217 12:25 19.10.2020
6600 Clouds -9 1020 76 10000 0.72 217 11:48 19.10.2020
6601 Clouds -8 1018 73 10000 0.95 226 11:22 19.10.2020
6602 Clouds -8 1018 73 10000 0.95 226 10:44 19.10.2020
6603 Clouds -8 1018 73 10000 0.97 217 10:23 19.10.2020
6604 Clouds -8 1018 73 10000 0.97 217 09:56 19.10.2020
6605 Clouds -8 1018 73 10000 0.97 217 09:36 19.10.2020
6606 Clouds -8 1018 67 10000 0.89 215 09:18 19.10.2020
6607 Clouds -8 1018 67 10000 0.89 215 08:41 19.10.2020
6608 Clouds -8 1018 67 10000 0.93 223 08:20 19.10.2020
6609 Clouds -8 1017 67 10000 1.08 228 07:21 19.10.2020
6610 Clouds -7 1017 67 10000 1.08 228 06:40 19.10.2020
6611 Clouds -7 1017 62 10000 1.01 218 05:20 19.10.2020
6612 Clouds -7 1018 62 10000 0.85 213 03:45 19.10.2020
6613 Clouds -6 1018 57 10000 0.66 235 01:42 19.10.2020
6614 Clouds -7 1018 57 10000 2.1 80 00:42 19.10.2020
6615 Clouds -7 1018 62 10000 2.1 70 23:56 18.10.2020
6616 Clouds -7 1018 62 10000 2.1 70 23:38 18.10.2020
6617 Clouds -7 1018 62 10000 2.1 70 23:19 18.10.2020
6618 Clouds -7 1018 67 10000 0.74 170 22:44 18.10.2020
6619 Clouds -8 1018 72 10000 0.6 152 22:19 18.10.2020
6620 Clouds -11 1018 72 10000 0.6 152 21:42 18.10.2020
6621 Clouds -12 1018 78 10000 0.51 111 21:21 18.10.2020
6622 Clouds -12 1018 78 10000 0.51 111 20:45 18.10.2020
6623 Clouds -11 1018 78 10000 0.45 77 20:24 18.10.2020
6624 Clouds -11 1018 78 10000 2.1 20 19:50 18.10.2020
6625 Clouds -11 1018 78 10000 2.1 20 19:27 18.10.2020
6626 Clouds -9 1018 78 10000 0.57 84 18:51 18.10.2020
6627 Clouds -9 1018 78 10000 0.57 84 18:31 18.10.2020
6628 Clouds -8 1017 72 10000 2.1 30 17:59 18.10.2020
6629 Clouds -8 1017 72 10000 2.1 30 17:41 18.10.2020
6630 Clouds -8 1017 72 10000 2.1 30 17:22 18.10.2020
6631 Clouds -7 1018 66 10000 0.72 35 16:43 18.10.2020
6632 Clouds -7 1020 50 10000 0.76 20 16:24 18.10.2020
6633 Clouds -7 1017 47 10000 0.76 20 15:43 18.10.2020
6634 Clouds -8 1018 66 10000 1.5 70 15:21 18.10.2020
6635 Clouds -8 1018 66 10000 1.5 70 14:58 18.10.2020
6636 Clouds -8 1018 66 10000 1.5 70 14:31 18.10.2020
6637 Clouds -7 1018 66 10000 1.5 50 13:59 18.10.2020
6638 Clouds -7 1020 50 10000 1.11 12 13:40 18.10.2020
6639 Clouds -7 1020 48 10000 0.95 31 13:22 18.10.2020
6640 Clouds -6 1020 47 10000 0.95 31 12:43 18.10.2020
6641 Clouds -7 1018 66 10000 1.5 30 12:23 18.10.2020
6642 Clouds -7 1018 66 10000 1.5 60 11:47 18.10.2020
6643 Clouds -7 1018 66 10000 1.5 60 11:29 18.10.2020
6644 Clouds -7 1018 61 10000 0.65 76 10:59 18.10.2020
6645 Clouds -7 1018 61 10000 0.65 76 10:39 18.10.2020
6646 Clouds -7 1019 67 10000 1.5 30 10:18 18.10.2020
6647 Clouds -7 1019 67 10000 1.5 30 09:44 18.10.2020
6648 Clouds -6 1019 67 10000 1.49 35 09:20 18.10.2020
6649 Clouds -6 1019 67 10000 1.49 35 08:52 18.10.2020
6650 Clouds -6 1019 67 10000 1.35 32 08:26 18.10.2020
6651 Clouds -6 1020 61 10000 1.03 18 07:51 18.10.2020
6652 Clouds -6 1020 53 10000 1.53 43 05:57 18.10.2020
6653 Clouds -4 1021 36 10000 1.5 360 03:46 18.10.2020
6654 Clouds -3 1021 39 10000 1.5 20 02:53 18.10.2020
6655 Clouds -3 1022 33 10000 1.46 62 01:31 18.10.2020